Site Date LOGGERID PROGID AIRTEMP_MEAN_150_0_04 AIRTEMP_MEAN_250_0_03 AIRTEMP_MEAN_350_0_02 AIRTEMP_MEAN_450_0_01 AIRTEMP_MEAN_350_0_08 RELHUM_MEAN_150_0_04 RELHUM_MEAN_450_0_01 DEWPT_MEAN_150_0_04 DEWPT_MEAN_450_0_01 SW_IN_MEAN_600_0_01 SW_OUT_MEAN_600_0_01 SOILTEMP_MEAN_0_10_01 SOILTEMP_MEAN_0_20_02 SOILTEMP_MEAN_0_50_03 SOILTEMP_MEAN_0_100_04 BATTERY_INST_0_0_01 AIRTEMP_MAX_150_0_04 AIRTEMP_MAX_250_0_03 AIRTEMP_MAX_350_0_02 AIRTEMP_MAX_450_0_01 AIRTEMP_MAX_350_0_08 DEWPT_MAX_150_0_04 DEWPT_MAX_450_0_01 SW_IN_MAX_600_0_01 SW_OUT_MAX_600_0_01 WSPD_PRO_MAX_1000_0_01 WSPD_SNC_MAX_1000_0_02 AIRTEMP_MIN_150_0_04 AIRTEMP_MIN_250_0_03 AIRTEMP_MIN_350_0_02 AIRTEMP_MIN_450_0_01 AIRTEMP_MIN_350_0_08 DEWPT_MIN_150_0_04 DEWPT_MIN_450_0_01 SNOWDEP_INST_0_0_01 SNOWDEP_MED_0_0_01 SNOWDEP_QUAL SWE_INST_0_0_01 SWE_MED_0_0_01 WSPD_PRO_MEAN_1000_0_01 WDIR_PRO_MEAN_1000_0_01 WDIR_PRO_STDDEV_1000_0_01 WSPD_SNC_MEAN_1000_0_02 WDIR_SNC_MEAN_1000_0_02 WDIR_SNC_STDDEV_1000_0_02 SATVP_MEAN_150_0_04 VAP_MEAN_150_0_04 VPD_MEAN_150_0_04 SATVP_MEAN_450_0_01 VAP_MEAN_450_0_01 VPD_MEAN_450_0_01
WS7MET_125 2016-10-01 00:00:00 125 30483.0 6.878 7.112 7.194 7.185 7.195 85.300 84.200 4.594 4.709 0.00 0.00 13.940 14.190 13.870 12.560 12.650 6.954 7.129 7.217 7.227 7.256 4.745 4.858 0.00 0.00 0.4570 0.6000 6.784 7.099 7.178 7.091 7.158 4.429 4.591 0.00000 0.00 266 0.00 0.00 0.1120 54.74 4.23 0.2900 61.830 21.410 9.934 8.479 1.460 10.146 8.547 1.603
WS7MET_125 2016-09-30 23:55:00 125 30483.0 6.852 7.113 7.197 7.163 7.210 85.400 84.300 4.580 4.691 0.00 0.00 13.950 14.190 13.870 12.560 12.650 6.954 7.119 7.197 7.227 7.256 4.706 4.819 0.00 0.00 0.4570 0.5000 6.716 7.109 7.197 7.057 7.178 4.474 4.552 0.00000 0.00 267 0.00 0.00 0.0910 44.11 0.85 0.2500 91.400 46.320 9.917 8.470 1.448 10.131 8.536 1.591
WS7MET_125 2016-09-30 23:50:00 125 30483.0 6.867 7.078 7.164 7.156 7.181 85.000 83.900 4.521 4.625 0.00 0.00 13.950 14.200 13.870 12.560 12.660 6.954 7.109 7.197 7.227 7.275 4.677 4.693 0.00 0.00 0.8040 1.0000 6.784 7.050 7.138 7.023 7.119 4.388 4.484 0.00000 0.00 267 0.00 0.00 0.3910 41.37 9.41 0.5100 57.110 14.960 9.927 8.435 1.489 10.126 8.497 1.630
WS7MET_125 2016-09-30 23:45:00 125 30483.0 6.898 7.087 7.176 7.180 7.111 84.300 83.500 4.438 4.579 0.00 0.00 13.960 14.200 13.870 12.560 12.660 7.057 7.109 7.197 7.262 7.138 4.581 4.685 0.00 0.00 0.2940 0.5000 6.818 7.070 7.158 7.057 7.080 4.335 4.436 0.00000 0.00 242 0.00 0.00 0.0640 35.53 2.44 0.2200 45.050 30.340 9.948 8.386 1.562 10.142 8.470 1.674
WS7MET_125 2016-09-30 23:40:00 125 30483.0 6.905 7.129 7.214 7.197 7.163 84.800 83.600 4.529 4.607 0.00 0.00 13.970 14.200 13.870 12.560 12.660 7.023 7.148 7.236 7.262 7.236 4.721 4.741 0.00 0.00 0.1700 0.4000 6.818 7.109 7.197 7.091 7.119 4.376 4.508 0.00000 0.00 512 0.00 0.00 0.0120 59.30 0.45 0.2300 89.400 29.130 9.953 8.440 1.513 10.154 8.486 1.665
WS7MET_125 2016-09-30 23:35:00 125 30483.0 6.883 7.133 7.222 7.204 7.241 84.700 83.900 4.495 4.672 0.00 0.00 13.980 14.200 13.870 12.560 12.670 6.989 7.148 7.236 7.262 7.276 4.630 4.773 0.00 0.00 0.6010 0.7000 6.818 7.119 7.217 7.125 7.197 4.347 4.561 0.00000 0.00 273 0.00 0.00 0.3050 6.63 2.55 0.4200 21.760 17.190 9.938 8.420 1.520 10.159 8.525 1.636
WS7MET_125 2016-09-30 23:30:00 125 30483.0 6.895 7.134 7.226 7.222 7.154 84.300 83.900 4.441 4.692 0.00 0.00 13.990 14.210 13.870 12.560 12.670 6.989 7.148 7.237 7.262 7.237 4.497 4.819 0.00 0.00 0.1890 0.5000 6.818 7.109 7.197 7.159 7.080 4.358 4.528 0.00000 0.00 268 0.00 0.00 0.0250 330.20 24.00 0.2200 350.200 30.930 9.946 8.388 1.562 10.172 8.537 1.638
WS7MET_125 2016-09-30 23:25:00 125 30483.0 6.888 7.131 7.220 7.209 7.171 84.500 84.000 4.458 4.687 0.00 0.00 14.000 14.210 13.870 12.560 12.670 6.989 7.148 7.237 7.296 7.256 4.572 4.772 0.00 0.00 0.0850 0.4000 6.784 7.129 7.217 7.159 7.119 4.336 4.563 0.00000 0.00 243 0.00 0.00 0.0040 307.50 0.00 0.2450 334.100 45.010 9.941 8.398 1.541 10.163 8.534 1.626
WS7MET_125 2016-09-30 23:20:00 125 30483.0 6.886 7.113 7.202 7.198 7.175 84.700 83.600 4.499 4.619 0.00 0.00 14.000 14.210 13.870 12.560 12.680 6.954 7.129 7.217 7.296 7.256 4.626 4.823 0.00 0.00 0.2030 0.4000 6.784 7.090 7.178 7.125 7.129 4.400 4.330 0.00000 0.00 244 0.00 0.00 0.0380 336.20 1.32 0.1500 351.100 52.390 9.940 8.422 1.521 10.155 8.493 1.665
WS7MET_125 2016-09-30 23:15:00 125 30483.0 6.859 7.066 7.157 7.169 7.143 84.600 84.100 4.446 4.665 0.00 0.00 14.010 14.210 13.870 12.560 12.670 6.954 7.090 7.178 7.262 7.217 4.590 4.817 0.00 0.00 0.4830 0.6000 6.784 7.051 7.148 7.091 7.099 4.331 4.571 0.00000 0.00 239 0.00 0.00 0.1590 300.40 41.15 0.3250 299.300 51.600 9.921 8.391 1.528 10.135 8.521 1.611
WS7MET_125 2016-09-30 23:10:00 125 30483.0 6.885 7.083 7.176 7.176 7.093 83.600 83.400 4.312 4.550 0.00 0.00 14.020 14.210 13.870 12.560 12.690 6.954 7.109 7.197 7.227 7.109 4.436 4.658 0.00 0.00 0.4700 0.6000 6.750 7.070 7.158 7.091 7.080 4.123 4.466 0.00000 0.00 274 0.00 0.00 0.1400 36.38 2.55 0.3150 58.830 19.820 9.939 8.313 1.630 10.140 8.452 1.683
WS7MET_125 2016-09-30 23:05:00 125 30483.0 6.948 7.136 7.216 7.202 7.173 83.700 83.400 4.394 4.586 0.00 0.00 14.020 14.210 13.870 12.560 12.690 7.023 7.148 7.227 7.262 7.197 4.492 4.689 0.00 0.00 0.3200 0.5000 6.886 7.109 7.197 7.125 7.119 4.267 4.467 0.00000 0.00 271 0.00 0.00 0.1320 7.83 33.76 0.2950 37.300 41.870 9.982 8.360 1.627 10.158 8.474 1.686
WS7MET_125 2016-09-30 23:00:00 125 30483.0 6.954 7.148 7.232 7.246 7.175 83.000 82.500 4.265 4.469 0.00 0.00 14.040 14.210 13.870 12.560 12.690 7.023 7.148 7.237 7.364 7.227 4.357 4.595 0.00 0.00 0.1760 0.5000 6.886 7.148 7.217 7.159 7.148 4.175 4.357 0.00000 0.00 313 0.00 0.00 0.0230 338.10 14.05 0.2350 328.400 23.630 9.986 8.285 1.698 10.188 8.405 1.783
WS7MET_125 2016-09-30 22:55:00 125 30483.0 7.001 7.183 7.270 7.292 7.197 83.100 82.300 4.333 4.477 0.00 0.00 14.040 14.210 13.870 12.560 12.690 7.057 7.207 7.295 7.364 7.237 4.459 4.589 0.00 0.00 0.5290 0.6000 6.920 7.158 7.237 7.227 7.168 4.259 4.373 0.00000 0.00 241 0.00 0.00 0.2030 33.31 2.38 0.3700 41.470 10.250 10.019 8.325 1.693 10.221 8.409 1.809
WS7MET_125 2016-09-30 22:50:00 125 30483.0 7.024 7.234 7.323 7.320 7.232 83.400 82.400 4.413 4.531 0.00 0.00 14.050 14.210 13.870 12.560 12.700 7.091 7.256 7.335 7.398 7.305 4.609 4.793 0.00 0.00 0.2160 0.6000 6.954 7.207 7.315 7.227 7.168 4.214 4.278 0.00000 0.00 237 0.00 0.00 0.0240 149.60 0.03 0.2050 196.300 51.710 10.034 8.372 1.666 10.240 8.441 1.802
WS7MET_125 2016-09-30 22:45:00 125 30483.0 7.045 7.262 7.336 7.311 7.346 82.400 81.300 4.252 4.320 0.00 0.00 14.060 14.210 13.870 12.560 12.700 7.159 7.266 7.344 7.364 7.384 4.436 4.405 0.00 0.00 0.5950 0.7000 6.818 7.246 7.325 7.227 7.286 3.966 4.209 0.00000 0.00 272 0.00 0.00 0.2410 6.24 8.45 0.3450 16.110 18.910 10.049 8.278 1.769 10.234 8.317 1.914
WS7MET_125 2016-09-30 22:40:00 125 30483.0 6.966 7.229 7.309 7.306 7.280 81.200 80.500 3.980 4.184 0.00 0.00 14.060 14.210 13.870 12.560 12.700 7.023 7.246 7.325 7.398 7.315 4.120 4.350 0.00 0.00 1.0650 2.1000 6.886 7.207 7.286 7.227 7.227 3.864 4.073 0.00000 0.00 276 0.00 0.00 0.2800 198.10 79.49 0.5000 231.000 63.420 9.995 8.121 1.879 10.230 8.238 1.995
WS7MET_125 2016-09-30 22:35:00 125 30483.0 6.982 7.219 7.313 7.313 7.271 83.100 81.800 4.319 4.419 0.00 0.00 14.080 14.210 13.870 12.560 12.710 7.057 7.237 7.325 7.398 7.325 4.456 4.694 0.00 0.00 0.6930 0.9000 6.886 7.207 7.295 7.262 7.197 4.094 4.254 0.00000 0.00 242 0.00 0.00 0.2590 121.50 62.12 0.3650 163.200 45.180 10.006 8.317 1.691 10.235 8.375 1.863
WS7MET_125 2016-09-30 22:30:00 125 30483.0 6.963 7.243 7.333 7.332 7.259 82.800 81.600 4.251 4.400 0.00 0.00 14.080 14.210 13.870 12.560 12.710 7.091 7.256 7.344 7.398 7.305 4.352 4.575 0.00 0.00 0.5810 0.7000 6.784 7.217 7.305 7.262 7.197 4.108 4.182 0.00000 0.00 264 0.00 0.00 0.1820 2.61 69.47 0.3600 329.900 42.180 9.993 8.277 1.719 10.249 8.364 1.886
WS7MET_125 2016-09-30 22:25:00 125 30483.0 6.954 7.254 7.342 7.316 7.326 83.100 81.100 4.297 4.297 0.00 0.00 14.090 14.210 13.870 12.550 12.710 7.091 7.256 7.344 7.398 7.364 4.443 4.419 0.00 0.00 0.6790 0.9000 6.852 7.246 7.325 7.227 7.276 4.159 4.152 0.00000 0.00 231 0.00 0.00 0.1990 78.96 2.84 0.3750 86.500 69.080 9.986 8.304 1.688 10.237 8.304 1.935
WS7MET_125 2016-09-30 22:20:00 125 30483.0 6.885 7.212 7.306 7.267 7.340 82.400 80.700 4.107 4.172 0.00 0.00 14.100 14.210 13.870 12.540 12.720 6.989 7.256 7.344 7.364 7.423 4.345 4.479 0.00 0.00 0.6340 0.7000 6.750 7.139 7.237 7.159 7.158 3.954 4.040 0.00000 0.00 267 0.00 0.00 0.1320 278.60 44.04 0.2950 286.300 50.830 9.939 8.194 1.749 10.203 8.231 1.969
WS7MET_125 2016-09-30 22:15:00 125 30483.0 6.770 7.135 7.239 7.231 7.291 83.900 82.000 4.245 4.374 0.00 0.00 14.100 14.210 13.870 12.560 12.720 6.886 7.158 7.266 7.296 7.335 4.380 4.513 0.00 0.00 0.5100 0.6000 6.682 7.080 7.207 7.159 7.227 4.144 4.286 0.00000 0.00 311 0.00 0.00 0.2190 8.65 50.01 0.3350 17.750 41.020 9.861 8.274 1.588 10.178 8.349 1.832
WS7MET_125 2016-09-30 22:10:00 125 30483.0 6.718 7.039 7.165 7.183 7.133 83.600 81.800 4.146 4.286 0.00 0.00 14.110 14.210 13.870 12.560 12.730 6.852 7.080 7.197 7.262 7.256 4.312 4.430 0.00 0.00 0.5550 0.8000 6.613 7.021 7.148 7.125 7.021 3.945 4.122 0.00000 0.00 271 0.00 0.00 0.3360 271.30 48.86 0.4100 277.500 47.990 9.826 8.216 1.611 10.145 8.297 1.846
WS7MET_125 2016-09-30 22:05:00 125 30483.0 6.699 7.010 7.138 7.136 7.170 83.200 81.700 4.064 4.219 0.00 0.00 14.120 14.210 13.870 12.560 12.730 6.784 7.041 7.188 7.194 7.295 4.183 4.366 0.00 0.00 0.4900 0.8000 6.614 6.972 7.090 7.058 7.002 3.924 3.992 0.00000 0.00 242 0.00 0.00 0.1570 329.00 55.91 0.3700 358.200 70.720 9.813 8.169 1.649 10.112 8.258 1.850
WS7MET_125 2016-09-30 22:00:00 125 30483.0 6.651 6.974 7.094 7.109 7.114 83.100 81.600 3.992 4.184 0.00 0.00 14.130 14.210 13.880 12.560 12.730 6.751 6.992 7.109 7.160 7.178 4.115 4.343 0.00 0.00 0.4250 0.5000 6.580 6.963 7.080 7.057 7.080 3.778 3.967 0.00000 0.00 249 0.00 0.00 0.0960 18.64 11.39 0.2350 343.900 24.730 9.780 8.128 1.653 10.093 8.238 1.857
WS7MET_125 2016-09-30 21:55:00 125 30483.0 6.607 6.968 7.090 7.088 7.062 82.500 80.800 3.842 4.016 0.00 0.00 14.130 14.210 13.880 12.560 12.740 6.716 6.972 7.099 7.126 7.148 3.967 4.178 0.00 0.00 0.0000 0.4000 6.512 6.963 7.080 7.024 7.021 3.710 3.931 0.00000 0.00 238 0.00 0.00 0.0000 0.00 0.00 0.1500 55.580 18.540 9.751 8.042 1.706 10.079 8.141 1.935
WS7MET_125 2016-09-30 21:50:00 125 30483.0 6.488 6.906 7.035 6.993 7.122 82.800 80.700 3.779 3.904 0.00 0.00 14.140 14.210 13.880 12.560 12.740 6.682 6.972 7.099 7.126 7.217 4.016 4.028 0.00 0.00 0.4770 0.9000 6.307 6.826 6.963 6.921 6.963 3.485 3.757 0.00000 0.00 238 0.00 0.00 0.0950 254.90 10.76 0.2400 264.600 44.220 9.671 8.007 1.663 10.013 8.077 1.933
WS7MET_125 2016-09-30 21:45:00 125 30483.0 6.413 6.758 6.879 6.877 6.993 82.900 81.000 3.720 3.849 0.00 0.00 14.150 14.210 13.880 12.560 12.740 6.512 6.826 6.963 6.989 7.060 3.873 3.931 0.00 0.00 0.7840 1.1000 6.273 6.699 6.816 6.751 6.923 3.592 3.735 0.00000 0.00 272 0.00 0.00 0.2800 19.97 10.77 0.3600 42.530 35.310 9.621 7.973 1.645 9.934 8.046 1.887
WS7MET_125 2016-09-30 21:40:00 125 30483.0 6.333 6.606 6.727 6.768 6.849 83.000 81.200 3.660 3.778 0.00 0.00 14.160 14.210 13.880 12.570 12.750 6.444 6.699 6.806 6.854 6.982 3.736 3.869 0.00 0.00 0.5030 0.6000 6.239 6.543 6.670 6.682 6.757 3.540 3.665 0.00000 0.00 233 0.00 0.00 0.2040 18.96 4.42 0.3450 28.630 18.380 9.568 7.940 1.627 9.860 8.006 1.854
WS7MET_125 2016-09-30 21:35:00 125 30483.0 6.368 6.532 6.655 6.769 6.666 81.800 80.500 3.491 3.665 0.00 0.00 14.160 14.210 13.880 12.560 12.750 6.444 6.562 6.689 6.887 6.767 3.706 3.723 0.00 0.00 0.2810 0.6000 6.273 6.513 6.631 6.716 6.611 3.380 3.580 0.00000 0.00 319 0.00 0.00 0.1050 17.18 4.31 0.2550 29.440 20.310 9.591 7.845 1.746 9.860 7.942 1.923
WS7MET_125 2016-09-30 21:30:00 125 30483.0 6.503 6.634 6.758 6.904 6.610 80.800 79.730 3.452 3.652 0.00 0.00 14.170 14.210 13.870 12.550 12.760 6.614 6.738 6.865 6.989 6.689 3.587 3.742 0.00 0.00 0.3200 0.5000 6.375 6.562 6.689 6.819 6.494 3.341 3.532 0.00000 0.00 554 0.00 0.00 0.0830 16.08 5.05 0.2550 36.060 27.100 9.681 7.824 1.859 9.952 7.935 2.017
WS7MET_125 2016-09-30 21:25:00 125 30483.0 6.636 6.892 7.011 7.108 6.877 80.200 78.330 3.466 3.599 0.00 0.00 14.170 14.210 13.870 12.550 12.760 6.682 6.972 7.090 7.193 7.070 3.702 3.753 0.00 0.00 0.4770 0.5000 6.512 6.767 6.884 6.989 6.631 3.266 3.487 0.00000 0.00 269 0.00 0.00 0.0660 2.47 0.00 0.1850 0.935 45.510 9.770 7.832 1.935 10.093 7.906 2.187
WS7MET_125 2016-09-30 21:20:00 125 30483.0 6.615 6.970 7.104 7.115 7.150 81.300 78.150 3.649 3.572 0.00 0.00 14.170 14.210 13.870 12.550 12.770 6.750 6.982 7.129 7.193 7.286 3.783 3.697 0.00 0.00 0.5360 0.7000 6.511 6.953 7.060 7.023 7.041 3.470 3.393 0.00000 0.00 395 0.00 0.00 0.1570 46.02 20.11 0.3500 61.360 25.390 9.756 7.933 1.824 10.097 7.890 2.206
WS7MET_125 2016-09-30 21:15:00 125 30483.0 6.496 6.839 6.927 6.892 7.047 81.400 79.810 3.553 3.651 0.00 0.00 14.190 14.210 13.870 12.550 12.770 6.613 6.953 7.060 7.023 7.276 3.708 3.889 0.00 0.00 0.7510 0.6000 6.375 6.738 6.826 6.784 6.923 3.374 3.332 0.00000 0.00 271 0.00 0.00 0.2070 320.20 44.22 0.3100 325.700 67.900 9.677 7.880 1.800 9.944 7.935 2.008
WS7MET_125 2016-09-30 21:10:00 125 30483.0 6.405 6.701 6.784 6.757 6.837 81.500 80.600 3.483 3.664 0.00 0.00 14.190 14.210 13.870 12.550 12.780 6.580 6.738 6.816 6.819 6.923 3.637 3.860 0.00 0.00 0.3400 0.5000 6.273 6.670 6.748 6.682 6.767 3.362 3.541 0.00000 0.00 279 0.00 0.00 0.1510 345.60 6.25 0.2950 6.236 26.290 9.616 7.841 1.779 9.852 7.942 1.911
WS7MET_125 2016-09-30 21:05:00 125 30483.0 6.276 6.593 6.670 6.668 6.730 82.200 81.200 3.479 3.680 0.00 0.00 14.200 14.210 13.870 12.550 12.780 6.477 6.660 6.748 6.751 6.865 3.722 3.835 0.00 0.00 0.6730 0.7000 6.136 6.543 6.621 6.613 6.611 3.284 3.600 0.00000 0.00 241 0.00 0.00 0.4010 347.80 6.89 0.4400 1.164 9.810 9.531 7.839 1.696 9.792 7.951 1.841
WS7MET_125 2016-09-30 21:00:00 125 30483.0 6.255 6.524 6.604 6.632 6.642 82.300 81.100 3.476 3.627 0.00 0.00 14.210 14.210 13.870 12.550 12.790 6.511 6.543 6.621 6.750 6.709 3.708 3.705 0.00 0.00 0.4700 0.6000 6.170 6.484 6.572 6.545 6.582 3.372 3.549 0.00000 0.00 234 0.00 0.00 0.2640 324.70 15.11 0.4050 332.800 15.410 9.517 7.837 1.684 9.768 7.921 1.846
WS7MET_125 2016-09-30 20:55:00 125 30483.0 6.180 6.441 6.518 6.547 6.558 81.700 80.600 3.289 3.459 0.00 0.00 14.210 14.210 13.870 12.550 12.790 6.272 6.494 6.572 6.648 6.631 3.492 3.621 0.00 0.00 0.5230 0.6000 6.033 6.397 6.474 6.477 6.455 3.142 3.365 0.00000 0.00 359 0.00 0.00 0.4360 340.40 1.48 0.4950 351.500 3.966 9.468 7.734 1.733 9.711 7.828 1.884
WS7MET_125 2016-09-30 20:50:00 125 30483.0 6.215 6.407 6.500 6.594 6.414 81.700 80.800 3.317 3.536 0.00 0.00 14.210 14.210 13.870 12.550 12.790 6.375 6.474 6.572 6.717 6.494 3.482 3.636 0.00 0.00 0.5230 0.7000 6.000 6.358 6.474 6.443 6.319 3.199 3.374 0.00000 0.00 235 0.00 0.00 0.3580 340.00 4.15 0.4850 353.400 9.880 9.491 7.749 1.737 9.742 7.870 1.870
WS7MET_125 2016-09-30 20:45:00 125 30483.0 6.234 6.517 6.630 6.696 6.639 81.400 79.770 3.291 3.456 0.00 0.00 14.210 14.210 13.870 12.560 12.790 6.409 6.543 6.670 6.750 6.748 3.469 3.617 0.00 0.00 0.4440 0.6000 6.101 6.474 6.572 6.614 6.494 3.124 3.299 0.00000 0.00 595 0.00 0.00 0.3330 340.50 4.95 0.4000 345.900 11.870 9.503 7.735 1.768 9.811 7.826 1.985
WS7MET_125 2016-09-30 20:40:00 125 30483.0 6.214 6.443 6.569 6.594 6.738 81.500 80.100 3.285 3.409 0.00 0.00 14.220 14.210 13.870 12.560 12.800 6.408 6.513 6.630 6.716 6.806 3.418 3.534 0.00 0.00 0.3400 0.4000 6.101 6.387 6.504 6.477 6.611 3.165 3.274 0.00000 0.00 281 0.00 0.00 0.2590 350.50 6.01 0.3100 356.700 15.950 9.490 7.732 1.756 9.742 7.800 1.939
WS7MET_125 2016-09-30 20:35:00 125 30483.0 6.187 6.399 6.507 6.571 6.489 81.100 80.000 3.194 3.379 0.00 0.00 14.230 14.210 13.880 12.560 12.810 6.374 6.465 6.552 6.681 6.630 3.391 3.537 0.00 0.00 0.5490 0.6000 6.101 6.387 6.494 6.511 6.377 3.022 3.286 0.00000 0.00 249 0.00 0.00 0.3650 354.20 8.22 0.4200 7.624 10.680 9.472 7.682 1.790 9.727 7.784 1.945
WS7MET_125 2016-09-30 20:30:00 125 30483.0 6.245 6.526 6.621 6.661 6.655 81.000 79.640 3.233 3.398 0.00 0.00 14.230 14.210 13.890 12.550 12.810 6.374 6.543 6.650 6.750 6.708 3.396 3.507 0.00 0.00 0.7120 1.0000 6.170 6.474 6.562 6.613 6.416 3.029 3.255 0.00000 0.00 238 0.00 0.00 0.3570 342.30 16.53 0.4700 353.200 19.300 9.510 7.704 1.807 9.787 7.794 1.993
WS7MET_125 2016-09-30 20:25:00 125 30483.0 6.265 6.506 6.587 6.605 6.667 81.200 80.200 3.294 3.447 0.00 0.00 14.230 14.210 13.880 12.560 12.820 6.374 6.523 6.611 6.716 6.708 3.418 3.540 0.00 0.00 0.6930 0.8000 6.170 6.484 6.552 6.545 6.611 3.131 3.347 0.00000 0.00 279 0.00 0.00 0.4340 344.10 16.81 0.5250 3.207 15.600 9.523 7.737 1.790 9.749 7.821 1.930
WS7MET_125 2016-09-30 20:20:00 125 30483.0 6.265 6.505 6.586 6.629 6.566 80.700 79.870 3.204 3.408 0.00 0.00 14.230 14.210 13.870 12.560 12.810 6.408 6.532 6.698 6.681 6.649 3.335 3.528 0.00 0.00 0.6930 0.8000 6.170 6.484 6.552 6.545 6.484 3.077 3.280 0.00000 0.00 299 0.00 0.00 0.3860 348.90 14.67 0.4850 360.000 15.570 9.523 7.688 1.838 9.766 7.800 1.966
WS7MET_125 2016-09-30 20:15:00 125 30483.0 6.260 6.512 6.601 6.637 6.631 81.200 79.890 3.274 3.419 0.00 0.00 14.240 14.200 13.880 12.560 12.820 6.374 6.542 6.620 6.750 6.688 3.458 3.555 0.00 0.00 0.8040 0.8000 6.135 6.483 6.581 6.545 6.571 3.109 3.311 0.00000 0.00 238 0.00 0.00 0.5580 343.30 12.75 0.5800 359.400 13.630 9.520 7.726 1.790 9.771 7.806 1.965
WS7MET_125 2016-09-30 20:10:00 125 30483.0 6.265 6.485 6.584 6.644 6.578 81.000 79.530 3.249 3.362 0.00 0.00 14.250 14.190 13.870 12.560 12.840 6.408 6.512 6.609 6.750 6.648 3.384 3.504 0.00 0.00 0.9800 1.1000 6.170 6.463 6.551 6.511 6.493 3.125 3.162 0.00000 0.00 272 0.00 0.00 0.5750 347.40 24.94 0.6200 0.808 24.760 9.523 7.712 1.809 9.776 7.774 2.001
WS7MET_125 2016-09-30 20:05:00 125 30483.0 6.279 6.524 6.620 6.716 6.646 80.900 79.270 3.254 3.386 0.00 0.00 14.250 14.200 13.870 12.550 12.850 6.374 6.540 6.629 6.818 6.668 3.372 3.489 0.00 0.00 0.8040 1.0000 6.204 6.512 6.609 6.613 6.609 3.137 3.301 0.00000 0.00 243 0.00 0.00 0.4450 351.40 14.06 0.5250 359.400 16.450 9.533 7.715 1.821 9.824 7.787 2.037
WS7MET_125 2016-09-30 20:00:00 125 30483.0 6.299 6.564 6.654 6.724 6.666 80.200 78.880 3.145 3.324 0.00 0.00 14.240 14.200 13.880 12.550 12.850 6.408 6.579 6.667 6.784 6.735 3.270 3.370 0.00 0.00 0.7970 0.9000 6.135 6.540 6.628 6.647 6.579 2.969 3.261 0.00000 0.00 237 0.00 0.00 0.4400 354.40 1.49 0.4850 7.603 4.476 9.546 7.656 1.890 9.830 7.753 2.076
WS7MET_125 2016-09-30 19:55:00 125 30483.0 6.323 6.603 6.686 6.733 6.686 79.540 78.560 3.051 3.275 0.00 0.00 14.240 14.200 13.870 12.550 12.860 6.443 6.626 6.705 6.818 6.763 3.180 3.360 0.00 0.00 0.5950 0.6000 6.204 6.578 6.656 6.681 6.617 2.911 3.193 0.00000 0.00 251 0.00 0.00 0.4180 348.50 9.04 0.4750 1.331 13.370 9.562 7.605 1.956 9.836 7.726 2.109
WS7MET_125 2016-09-30 19:50:00 125 30483.0 6.250 6.554 6.647 6.688 6.724 79.880 78.420 3.040 3.207 0.00 0.00 14.250 14.200 13.880 12.550 12.870 6.408 6.616 6.695 6.818 6.782 3.304 3.318 0.00 0.00 0.6930 1.0000 6.101 6.499 6.596 6.613 6.626 2.848 3.120 0.00000 0.00 403 0.00 0.00 0.4880 351.70 6.67 0.5350 4.635 20.460 9.514 7.599 1.914 9.805 7.689 2.116
WS7MET_125 2016-09-30 19:45:00 125 30483.0 6.272 6.466 6.550 6.611 6.565 80.000 78.850 3.083 3.209 0.00 0.00 14.250 14.190 13.880 12.550 12.870 6.374 6.499 6.587 6.647 6.655 3.210 3.295 0.00 0.00 0.6270 0.8000 6.169 6.440 6.528 6.545 6.489 2.999 2.960 0.00000 0.00 242 0.00 0.00 0.4360 329.00 21.71 0.5200 344.600 18.770 9.528 7.622 1.906 9.754 7.690 2.063
WS7MET_125 2016-09-30 19:40:00 125 30483.0 6.280 6.473 6.539 6.575 6.492 79.270 78.860 2.962 3.175 0.00 0.00 14.250 14.190 13.880 12.550 12.880 6.374 6.508 6.567 6.681 6.537 3.083 3.292 0.00 0.00 0.7910 0.9000 6.135 6.459 6.528 6.476 6.459 2.790 3.072 0.00000 0.00 245 0.00 0.00 0.5550 323.20 22.97 0.5850 334.200 19.580 9.533 7.557 1.976 9.729 7.672 2.057
WS7MET_125 2016-09-30 19:35:00 125 30483.0 6.328 6.545 6.633 6.691 6.613 79.200 78.260 2.995 3.181 0.00 0.00 14.250 14.190 13.880 12.550 12.880 6.442 6.566 6.664 6.749 6.752 3.174 3.283 0.00 0.00 0.6270 0.8000 6.271 6.518 6.576 6.647 6.488 2.849 3.104 0.00000 0.00 359 0.00 0.00 0.5040 340.40 11.68 0.5700 353.900 13.990 9.565 7.575 1.990 9.807 7.675 2.132
WS7MET_125 2016-09-30 19:30:00 125 30483.0 6.375 6.570 6.661 6.709 6.642 78.770 77.870 2.965 3.128 0.00 0.00 14.250 14.190 13.880 12.550 12.890 6.510 6.595 6.683 6.817 6.703 3.130 3.256 0.00 0.00 0.6530 0.7000 6.271 6.547 6.644 6.646 6.595 2.867 3.051 0.00000 0.00 244 0.00 0.00 0.4820 340.60 11.70 0.5200 353.900 12.030 9.596 7.559 2.037 9.820 7.646 2.173
WS7MET_125 2016-09-30 19:25:00 125 30483.0 6.365 6.590 6.685 6.717 6.738 78.660 77.880 2.935 3.135 0.00 0.00 14.250 14.190 13.880 12.550 12.900 6.474 6.615 6.722 6.850 6.810 3.083 3.292 0.00 0.00 0.8100 0.9000 6.304 6.556 6.644 6.611 6.625 2.858 3.015 0.00000 0.00 212 0.00 0.00 0.4200 341.80 11.92 0.4950 360.000 31.140 9.589 7.542 2.046 9.825 7.650 2.173
WS7MET_125 2016-09-30 19:20:00 125 30483.0 6.406 6.580 6.668 6.724 6.637 78.680 77.810 2.978 3.130 0.00 0.00 14.260 14.190 13.880 12.550 12.900 6.508 6.615 6.712 6.848 6.722 3.123 3.324 0.00 0.00 0.6790 0.9000 6.303 6.566 6.644 6.644 6.566 2.815 3.008 0.00000 0.00 404 0.00 0.00 0.3040 346.60 13.62 0.4400 357.900 14.450 9.617 7.565 2.050 9.830 7.648 2.181
WS7MET_125 2016-09-30 19:15:00 125 30483.0 6.450 6.629 6.731 6.829 6.664 78.870 78.050 3.054 3.276 0.00 0.00 14.260 14.190 13.880 12.550 12.900 6.540 6.693 6.800 6.916 6.722 3.168 3.357 0.00 0.00 0.6790 0.8000 6.336 6.605 6.702 6.745 6.605 2.909 3.151 0.00000 0.00 211 0.00 0.00 0.4570 340.30 19.36 0.5550 352.700 17.580 9.646 7.606 2.038 9.901 7.727 2.173
WS7MET_125 2016-09-30 19:10:00 125 30483.0 6.556 6.736 6.837 6.916 6.826 78.610 77.800 3.111 3.315 0.00 0.00 14.260 14.190 13.880 12.550 12.920 6.641 6.751 6.848 6.982 6.878 3.256 3.415 0.00 0.00 0.7120 0.8000 6.470 6.702 6.800 6.846 6.732 2.978 3.192 0.00000 0.00 484 0.00 0.00 0.5040 336.50 9.37 0.5600 349.700 9.250 9.717 7.637 2.078 9.960 7.748 2.211
WS7MET_125 2016-09-30 19:05:00 125 30483.0 6.635 6.810 6.908 6.991 6.820 77.260 76.520 2.943 3.154 0.00 0.00 14.260 14.190 13.880 12.550 12.930 6.742 6.868 6.975 7.083 6.887 3.055 3.264 0.00 0.00 0.5030 0.6000 6.504 6.741 6.839 6.879 6.731 2.847 2.984 0.00000 0.00 276 0.00 0.00 0.3720 332.70 15.04 0.4700 347.200 18.490 9.770 7.547 2.222 10.012 7.661 2.351
WS7MET_125 2016-09-30 19:00:00 125 30483.0 6.762 6.942 7.037 7.081 7.005 76.500 75.830 2.928 3.113 0.00 0.00 14.250 14.190 13.870 12.550 12.930 6.912 6.975 7.072 7.151 7.092 3.085 3.235 0.00 0.00 0.4900 0.7000 6.639 6.887 6.995 7.015 6.907 2.793 2.963 0.00000 0.00 242 0.00 0.00 0.3400 337.10 14.81 0.4500 352.400 15.210 9.855 7.539 2.316 10.074 7.638 2.435
WS7MET_125 2016-09-30 18:55:00 125 30483.0 6.839 7.006 7.100 7.137 7.090 76.210 75.690 2.949 3.142 0.00 0.00 14.250 14.190 13.880 12.550 12.940 6.912 7.042 7.130 7.219 7.169 3.061 3.292 0.00 0.00 0.7120 0.7000 6.742 6.974 7.072 7.049 7.004 2.835 2.978 0.00000 0.00 247 0.00 0.00 0.3830 339.50 11.42 0.4600 353.000 21.260 9.908 7.550 2.357 10.113 7.654 2.458
WS7MET_125 2016-09-30 18:50:00 125 30483.0 6.952 7.097 7.166 7.226 7.079 75.400 74.870 2.907 3.073 0.00 0.00 14.240 14.190 13.880 12.550 12.950 7.083 7.158 7.227 7.356 7.168 3.099 3.185 0.00 0.00 0.7970 1.0000 6.844 7.042 7.110 7.117 7.002 2.752 2.961 0.00000 0.00 250 0.00 0.00 0.4810 344.80 21.09 0.5550 357.300 20.000 9.985 7.527 2.456 10.174 7.617 2.557
WS7MET_125 2016-09-30 18:45:00 125 30483.0 7.091 7.278 7.364 7.448 7.268 74.120 73.220 2.802 2.974 0.00 0.00 14.240 14.190 13.880 12.550 12.960 7.253 7.334 7.432 7.561 7.432 2.992 3.075 0.00 0.00 0.6270 1.0000 6.981 7.168 7.237 7.288 6.992 2.633 2.817 0.00000 0.00 398 0.00 0.00 0.3280 334.60 14.53 0.4550 349.200 13.520 10.081 7.472 2.609 10.330 7.563 2.766
WS7MET_125 2016-09-30 18:40:00 125 30483.0 7.163 7.370 7.468 7.530 7.483 74.510 72.900 2.944 2.991 0.00 0.00 14.240 14.180 13.880 12.540 12.970 7.288 7.391 7.499 7.595 7.519 3.108 3.140 0.00 0.00 0.6140 0.6000 7.117 7.343 7.432 7.424 7.422 2.634 2.796 0.00000 0.00 240 0.00 0.00 0.3520 353.10 6.08 0.3850 4.040 10.970 10.131 7.547 2.582 10.388 7.572 2.815
WS7MET_125 2016-09-30 18:35:00 125 30483.0 7.252 7.441 7.548 7.603 7.539 73.110 71.620 2.763 2.811 0.00 0.00 14.230 14.180 13.880 12.550 12.970 7.356 7.478 7.596 7.697 7.635 2.916 2.922 0.00 0.00 0.6210 0.7000 7.151 7.391 7.499 7.458 7.459 2.627 2.670 0.00000 0.00 210 0.00 0.00 0.3690 4.68 13.93 0.4100 13.520 14.090 10.193 7.451 2.741 10.440 7.476 2.963
WS7MET_125 2016-09-30 18:30:00 125 30483.0 7.305 7.504 7.609 7.656 7.638 72.960 71.560 2.785 2.850 0.00 0.00 14.230 14.180 13.880 12.550 12.980 7.390 7.537 7.625 7.731 7.665 2.917 3.014 0.00 0.00 0.4900 0.6000 7.219 7.469 7.586 7.561 7.606 2.620 2.699 0.00000 0.00 207 0.00 0.00 0.2830 3.25 9.30 0.3850 16.930 15.120 10.230 7.462 2.766 10.478 7.497 2.980
WS7MET_125 2016-09-30 18:25:00 125 30483.0 7.416 7.547 7.623 7.690 7.628 72.160 71.200 2.737 2.812 0.00 0.00 14.230 14.180 13.880 12.550 12.990 7.526 7.576 7.635 7.799 7.714 2.930 2.959 0.00 0.00 0.6080 0.6000 7.322 7.537 7.615 7.595 7.488 2.552 2.699 0.00000 0.00 270 0.00 0.00 0.2830 0.17 23.09 0.3900 9.620 23.530 10.308 7.437 2.870 10.503 7.477 3.025
WS7MET_125 2016-09-30 18:20:00 125 30483.0 7.572 7.669 7.751 7.864 7.644 71.600 70.640 2.778 2.867 0.00 0.00 14.230 14.180 13.890 12.550 13.000 7.731 7.743 7.841 8.000 7.753 2.906 2.958 0.00 0.00 0.4700 0.6000 7.424 7.586 7.645 7.731 7.468 2.623 2.723 0.00000 0.00 205 0.00 0.00 0.2960 355.20 24.69 0.4200 4.533 36.460 10.418 7.459 2.959 10.628 7.506 3.120
WS7MET_125 2016-09-30 18:15:00 125 30483.0 7.711 7.835 7.938 8.070 7.839 70.490 69.690 2.689 2.869 0.00 0.00 14.220 14.180 13.890 12.550 13.010 7.799 7.910 8.020 8.170 7.999 2.906 3.178 0.00 0.00 0.6140 0.7000 7.629 7.763 7.851 7.936 7.714 2.444 2.615 0.00000 0.00 233 0.00 0.00 0.3510 346.30 30.66 0.4500 352.600 35.300 10.518 7.412 3.104 10.778 7.507 3.267
WS7MET_125 2016-09-30 18:10:00 125 30483.0 7.813 7.949 8.050 8.200 8.050 68.110 67.380 2.304 2.522 0.00 0.00 14.210 14.180 13.890 12.550 13.020 7.902 7.989 8.090 8.280 8.110 2.680 2.816 0.00 0.00 0.8360 1.1000 7.663 7.910 8.020 8.140 7.999 1.928 2.119 0.00000 0.00 207 0.00 0.00 0.3240 340.30 20.97 0.4800 355.900 23.840 10.591 7.211 3.378 10.874 7.324 3.547
WS7MET_125 2016-09-30 18:05:00 125 30483.0 7.955 8.080 8.190 8.290 8.120 66.120 65.050 2.025 2.119 0.00 0.00 14.210 14.180 13.890 12.550 13.030 8.110 8.160 8.270 8.410 8.240 2.209 2.297 0.00 0.00 0.6470 0.8000 7.833 7.989 8.110 8.210 8.030 1.863 1.949 0.00000 0.00 347 0.00 0.00 0.2450 2.55 16.79 0.3700 17.190 30.180 10.694 7.069 3.623 10.941 7.116 3.824
WS7MET_125 2016-09-30 18:00:00 125 30483.0 8.120 8.230 8.350 8.500 8.260 64.840 63.550 1.906 1.993 0.60 0.00 14.210 14.180 13.890 12.550 13.050 8.240 8.290 8.440 8.650 8.300 2.119 2.164 2.68 0.00 0.5550 0.7000 8.000 8.160 8.270 8.310 8.190 1.685 1.812 0.00000 0.00 284 0.00 0.00 0.4230 14.33 12.74 0.5050 23.940 13.580 10.815 7.009 3.803 11.098 7.053 4.045
WS7MET_125 2016-09-30 17:55:00 125 30483.0 8.380 8.460 8.620 8.800 8.450 64.180 61.840 2.014 1.891 2.82 0.00 14.210 14.180 13.890 12.550 13.060 8.580 8.610 8.780 8.990 8.860 2.473 2.179 4.03 0.00 0.6790 1.0000 8.210 8.310 8.440 8.650 8.270 1.685 1.319 0.00000 0.00 473 0.00 0.00 0.2900 25.43 41.19 0.4400 44.590 46.520 11.008 7.063 3.943 11.326 7.001 4.322
WS7MET_125 2016-09-30 17:50:00 125 30483.0 8.640 8.650 8.750 8.900 8.720 62.950 60.760 1.991 1.737 4.03 0.00 14.200 14.180 13.890 12.550 13.070 8.890 8.730 8.820 9.030 8.900 2.206 2.234 4.03 0.00 1.1300 1.7000 8.480 8.610 8.700 8.790 8.580 1.347 1.206 0.00000 0.00 248 0.00 0.00 0.3700 243.60 55.13 0.6000 230.100 65.550 11.204 7.052 4.151 11.402 6.924 4.474
WS7MET_125 2016-09-30 17:45:00 125 30483.0 9.010 8.950 9.040 9.250 8.690 61.160 60.690 1.930 2.050 4.76 0.00 14.190 14.180 13.890 12.540 13.090 9.200 9.190 9.290 9.510 8.950 2.149 2.413 5.37 0.00 0.7770 1.1000 8.720 8.750 8.820 8.990 8.530 1.759 1.736 0.00000 0.00 402 0.00 0.00 0.3240 344.10 40.74 0.5100 353.900 42.780 11.488 7.021 4.462 11.675 7.081 4.589
WS7MET_125 2016-09-30 17:40:00 125 30483.0 9.250 9.370 9.470 9.610 9.260 58.450 57.330 1.525 1.595 7.31 0.94 14.180 14.180 13.890 12.550 13.110 9.330 9.500 9.620 9.710 9.560 1.999 1.986 8.05 1.34 0.5490 1.2000 9.060 9.210 9.300 9.440 8.970 0.807 0.921 0.00000 0.00 282 0.00 0.00 0.2400 328.60 41.98 0.4500 348.600 28.970 11.675 6.820 4.851 11.962 6.854 5.104
WS7MET_125 2016-09-30 17:35:00 125 30483.0 9.320 9.510 9.620 9.710 9.530 55.110 54.380 0.773 0.955 8.99 1.34 14.180 14.180 13.900 12.560 13.130 9.400 9.530 9.650 9.780 9.650 1.201 1.534 9.39 1.34 1.9400 2.6000 9.200 9.490 9.600 9.640 9.270 0.525 0.708 0.00000 0.00 237 0.00 0.00 0.4950 306.80 69.69 0.6150 259.400 70.490 11.730 6.460 5.266 12.042 6.546 5.494
WS7MET_125 2016-09-30 17:30:00 125 30483.0 9.510 9.690 9.830 9.950 9.610 56.430 54.560 1.277 1.218 12.28 1.34 14.170 14.180 13.890 12.560 13.170 9.640 9.830 9.990 10.120 9.930 1.888 1.939 14.76 1.34 0.9730 1.7000 9.370 9.570 9.680 9.780 9.370 0.579 0.491 0.00000 0.00 281 0.00 0.00 0.3220 86.90 35.80 0.5250 91.600 27.890 11.881 6.699 5.177 12.238 6.671 5.561
WS7MET_125 2016-09-30 17:25:00 125 30483.0 9.730 9.880 10.050 10.170 9.930 53.400 51.030 0.724 0.500 16.51 2.55 14.160 14.180 13.890 12.560 13.220 9.910 10.000 10.170 10.290 10.050 1.247 0.917 17.45 2.68 1.0320 1.6000 9.570 9.810 9.990 10.090 9.790 0.252 0.246 0.00000 0.00 203 0.00 0.00 0.4640 221.00 85.70 0.6200 219.500 56.030 12.058 6.437 5.619 12.419 6.334 6.082
WS7MET_125 2016-09-30 17:20:00 125 30483.0 9.990 10.120 10.280 10.380 10.030 52.880 50.350 0.823 0.509 21.54 3.09 14.160 14.180 13.890 12.560 13.300 10.120 10.250 10.400 10.530 10.170 1.355 1.012 25.50 4.03 0.5490 1.0000 9.850 10.000 10.170 10.260 9.820 0.323 -0.060 0.00000 0.00 267 0.00 0.00 0.1320 133.60 37.91 0.4150 153.500 62.690 12.271 6.483 5.782 12.595 6.338 6.253
WS7MET_125 2016-09-30 17:15:00 125 30483.0 10.210 10.380 10.530 10.650 10.300 51.490 48.290 0.655 0.177 30.73 4.03 14.150 14.180 13.900 12.560 13.410 10.320 10.500 10.650 10.770 10.470 1.505 0.805 34.89 4.03 1.0130 2.1000 10.090 10.260 10.410 10.530 10.150 -0.014 -0.255 0.00000 0.00 236 0.00 0.00 0.2850 109.40 51.41 0.5550 145.100 58.640 12.453 6.405 6.041 12.824 6.187 6.631
WS7MET_125 2016-09-30 17:10:00 125 30483.0 10.390 10.580 10.730 10.820 10.530 48.980 46.800 0.135 -0.100 39.12 5.23 14.140 14.180 13.890 12.560 13.540 10.560 10.660 10.790 10.940 10.630 0.669 0.258 41.60 5.37 0.5290 1.4000 10.290 10.520 10.650 10.700 10.450 -0.420 -0.547 0.00000 0.00 206 0.00 0.00 0.1310 243.20 54.61 0.4100 111.300 83.700 12.603 6.168 6.430 12.970 6.063 6.900
WS7MET_125 2016-09-30 17:05:00 125 30483.0 10.570 10.750 10.890 10.980 10.620 49.710 45.520 0.500 -0.329 44.96 6.71 14.130 14.180 13.890 12.560 13.600 10.700 10.860 10.990 11.110 10.750 1.176 0.046 46.97 6.71 1.1500 1.7000 10.390 10.660 10.810 10.830 10.530 -0.219 -0.757 0.00000 0.00 238 0.00 0.00 0.3600 156.50 83.00 0.5000 141.200 57.600 12.756 6.334 6.415 13.109 5.963 7.142
WS7MET_125 2016-09-30 17:00:00 125 30483.0 10.800 10.970 11.120 11.210 10.860 49.150 45.160 0.536 -0.239 50.05 7.78 14.120 14.180 13.890 12.570 13.630 10.970 11.080 11.230 11.340 11.050 2.203 0.755 52.34 8.05 1.0190 1.4000 10.630 10.860 11.010 11.070 10.760 -1.165 -1.110 0.00000 0.00 227 0.00 0.00 0.4950 143.60 48.66 0.6500 166.300 56.870 12.953 6.350 6.586 13.310 6.002 7.299
WS7MET_125 2016-09-30 16:55:00 125 30483.0 10.940 11.130 11.300 11.430 11.070 45.530 42.960 -0.375 -0.724 55.62 8.99 14.110 14.180 13.890 12.570 13.620 11.070 11.180 11.360 11.550 11.190 0.713 0.207 57.70 9.39 0.9080 1.5000 10.700 11.080 11.230 11.340 10.960 -1.485 -1.364 0.00000 0.00 204 0.00 0.00 0.4220 84.20 81.70 0.6350 139.400 80.300 13.074 5.943 7.121 13.506 5.793 7.704
WS7MET_125 2016-09-30 16:50:00 125 30483.0 11.220 11.350 11.540 11.710 11.110 47.750 42.910 0.524 -0.490 60.45 10.20 14.110 14.180 13.890 12.560 13.620 11.380 11.510 11.700 11.860 11.360 2.022 0.186 64.41 10.74 0.7250 1.2000 11.000 11.160 11.350 11.480 10.950 -1.033 -1.754 0.00000 0.00 234 0.00 0.00 0.3290 121.70 49.06 0.5300 130.000 41.760 13.319 6.345 6.959 13.759 5.893 7.855
WS7MET_125 2016-09-30 16:45:00 125 30483.0 11.480 11.640 11.800 11.980 11.420 44.820 39.970 -0.110 -1.221 66.29 10.74 14.100 14.180 13.890 12.560 13.600 11.580 11.780 11.950 12.130 11.660 1.025 -0.090 68.44 10.74 0.9930 1.6000 11.340 11.510 11.700 11.850 11.260 -1.744 -2.821 0.00000 0.00 240 0.00 0.00 0.3840 105.40 34.32 0.6300 126.500 37.930 13.551 6.059 7.477 14.006 5.586 8.408
WS7MET_125 2016-09-30 16:40:00 125 30483.0 11.670 11.820 12.030 12.250 11.710 40.810 37.380 -1.248 -1.883 72.73 12.55 14.090 14.180 13.900 12.560 13.570 11.890 11.900 12.150 12.500 11.800 2.117 -0.204 77.83 13.42 1.8030 2.1000 11.550 11.790 11.970 12.090 11.550 -2.783 -2.749 0.00000 0.00 315 0.00 0.00 0.7330 181.10 89.50 0.8550 195.000 81.400 13.722 5.575 8.122 14.257 5.320 8.928
WS7MET_125 2016-09-30 16:35:00 125 30483.0 11.940 12.040 12.300 12.660 11.840 44.210 39.410 0.103 -0.791 74.88 14.43 14.080 14.180 13.900 12.560 13.560 12.120 12.080 12.360 12.810 12.080 2.154 0.048 76.49 14.76 0.9600 1.8000 11.780 11.940 12.180 12.430 11.600 -1.529 -1.569 0.00000 0.00 235 0.00 0.00 0.2460 101.80 52.11 0.5500 128.400 62.790 13.969 6.154 7.793 14.647 5.765 8.874
WS7MET_125 2016-09-30 16:30:00 125 30483.0 12.380 12.300 12.640 13.030 11.920 46.310 38.790 1.164 -0.681 73.80 14.76 14.070 14.180 13.900 12.560 13.530 12.770 12.700 13.000 13.420 12.070 2.314 0.317 88.60 14.76 1.5090 1.8000 12.060 12.060 12.380 12.770 11.640 -0.701 -1.569 0.00000 0.00 227 0.00 0.00 0.5550 156.10 55.68 0.7750 165.100 55.980 14.380 6.645 7.721 15.006 5.812 9.185
WS7MET_125 2016-09-30 16:25:00 125 30483.0 12.930 13.040 13.360 13.590 12.170 41.210 37.780 0.029 -0.564 192.80 15.63 14.060 14.190 13.900 12.560 13.520 13.080 13.160 13.470 13.730 12.440 1.521 1.762 263.00 17.44 1.2540 1.3000 12.670 12.730 13.020 13.390 12.000 -1.917 -2.124 0.00000 0.00 284 0.00 0.00 0.3950 128.00 55.81 0.6250 141.900 58.120 14.908 6.121 8.764 15.564 5.862 9.684
WS7MET_125 2016-09-30 16:20:00 125 30483.0 13.210 13.230 13.510 13.780 12.490 37.980 33.640 -0.843 -1.951 289.40 22.27 14.050 14.190 13.900 12.560 13.500 13.350 13.370 13.630 13.930 12.680 1.235 -0.954 301.90 25.49 1.0850 2.0000 13.080 13.160 13.400 13.660 12.230 -2.683 -2.622 0.00000 0.00 234 0.00 0.00 0.6200 169.00 59.82 0.9150 205.000 53.930 15.183 5.743 9.417 15.758 5.293 10.457
WS7MET_125 2016-09-30 16:15:00 125 30483.0 13.200 13.340 13.550 13.850 12.770 35.320 33.570 -1.817 -1.917 306.70 27.91 14.030 14.190 13.900 12.570 13.490 13.390 13.420 13.610 14.070 12.850 0.398 -0.883 308.60 29.52 1.7640 2.4000 13.010 13.260 13.490 13.620 12.630 -2.663 -2.515 0.00000 0.00 230 0.00 0.00 0.6560 201.50 58.74 0.8900 196.300 70.110 15.173 5.346 9.814 15.830 5.306 10.516
WS7MET_125 2016-09-30 16:10:00 125 30483.0 12.930 13.030 13.370 13.470 12.530 36.380 34.030 -1.650 -2.061 302.60 28.65 14.030 14.190 13.900 12.560 13.470 13.110 13.200 13.450 13.560 12.690 0.316 -1.589 307.30 29.52 1.7640 2.4000 12.770 12.950 13.270 13.390 12.380 -2.437 -2.754 0.00000 0.00 275 0.00 0.00 0.7410 225.40 69.46 0.9300 227.700 57.450 14.908 5.412 9.484 15.443 5.250 10.188
WS7MET_125 2016-09-30 16:05:00 125 30483.0 13.100 13.110 13.420 13.540 12.510 36.830 33.340 -1.347 -2.283 264.90 26.43 14.020 14.190 13.900 12.570 13.450 13.320 13.440 13.750 13.830 12.730 0.465 -0.678 304.60 30.86 2.0380 1.9000 12.840 12.960 13.270 13.390 12.290 -2.554 -2.810 0.00000 0.00 208 0.00 0.00 0.7120 126.80 24.83 0.8650 148.000 19.370 15.075 5.534 9.523 15.514 5.165 10.341
WS7MET_125 2016-09-30 16:00:00 125 30483.0 13.200 13.460 13.800 13.960 13.010 31.580 29.460 -3.321 -3.580 263.60 28.51 14.000 14.190 13.900 12.570 13.430 13.320 13.530 13.930 14.100 13.210 -2.103 -2.492 324.70 36.23 2.7830 3.5000 13.110 13.370 13.730 13.760 12.830 -4.181 -4.322 0.00000 0.00 209 0.00 0.00 1.0860 187.30 51.20 1.2600 196.900 44.580 15.173 4.780 10.382 15.943 4.688 11.246
WS7MET_125 2016-09-30 15:55:00 125 30483.0 13.170 13.460 13.930 13.980 13.120 32.810 28.990 -2.832 -3.775 328.80 38.11 13.990 14.190 13.900 12.570 13.430 13.350 13.540 13.980 14.140 13.220 -1.323 -3.198 335.40 40.25 2.2470 4.6000 13.010 13.280 13.870 13.860 12.960 -4.029 -4.671 0.00000 0.00 204 0.00 0.00 1.0910 170.50 44.07 1.4150 179.600 43.560 15.144 4.958 10.175 15.964 4.620 11.336
WS7MET_125 2016-09-30 15:50:00 125 30483.0 13.140 13.330 13.900 13.960 12.960 38.160 30.300 -0.844 -3.216 345.00 42.26 13.980 14.190 13.900 12.580 13.410 13.280 13.400 13.980 14.070 13.200 0.815 -2.098 351.50 44.28 2.2150 2.1000 13.010 13.260 13.840 13.860 12.800 -3.880 -5.231 0.00000 0.00 226 0.00 0.00 0.8040 146.60 37.03 0.9200 169.500 43.910 15.114 5.743 9.347 15.943 4.818 11.112
WS7MET_125 2016-09-30 15:45:00 125 30483.0 13.470 13.520 14.100 14.190 13.060 45.020 35.400 1.755 -0.955 361.40 46.22 13.980 14.190 13.900 12.570 13.400 13.660 13.610 14.170 14.340 13.160 3.291 1.733 371.70 48.30 1.8420 2.3000 13.110 13.360 13.980 14.030 12.930 -0.597 -3.136 0.00000 0.00 202 0.00 0.00 0.7230 142.30 26.89 1.0050 155.000 28.180 15.443 6.933 8.491 16.183 5.696 10.454
WS7MET_125 2016-09-30 15:40:00 125 30483.0 13.680 13.640 14.160 14.380 13.150 45.000 39.910 1.942 0.901 382.80 50.58 13.960 14.190 13.910 12.550 13.380 13.900 13.700 14.210 14.510 13.350 3.266 2.583 389.10 52.33 1.0130 1.4000 13.560 13.550 14.110 14.270 12.950 -0.890 -1.261 0.00000 0.00 201 0.00 0.00 0.4270 168.70 52.40 0.6250 185.100 55.360 15.656 7.027 8.611 16.383 6.520 9.845
WS7MET_125 2016-09-30 15:35:00 125 30483.0 14.500 14.210 14.680 14.820 13.530 44.970 40.140 2.688 1.401 394.80 52.66 13.960 14.190 13.910 12.560 13.370 14.990 14.850 15.270 15.300 13.750 3.689 1.897 411.90 55.01 1.5750 2.0000 13.760 13.640 14.130 14.340 13.180 1.522 0.549 0.00000 0.00 226 0.00 0.00 1.1140 115.90 29.25 1.2050 135.400 28.890 16.511 7.411 9.086 16.855 6.759 10.090
WS7MET_125 2016-09-30 15:30:00 125 30483.0 15.010 14.840 15.110 15.320 14.040 34.380 33.030 -0.588 -0.849 355.60 54.41 13.940 14.190 13.890 12.560 13.370 15.160 14.940 15.310 15.400 14.190 1.101 0.545 415.90 57.69 1.3130 2.0000 14.890 14.760 14.970 15.230 13.790 -1.485 -1.424 0.00000 0.00 204 0.00 0.00 0.6970 199.30 63.58 0.9450 219.600 60.850 17.063 5.851 11.197 17.406 5.741 11.657
WS7MET_125 2016-09-30 15:25:00 125 30483.0 15.200 15.020 15.350 15.470 14.130 33.520 31.950 -0.785 -1.172 347.20 60.71 13.940 14.210 13.890 12.560 13.370 15.330 15.250 15.590 15.670 14.280 1.619 0.224 448.10 63.06 3.0840 3.5000 15.060 14.890 15.180 15.330 13.980 -1.929 -2.024 0.00000 0.00 323 0.00 0.00 1.3190 211.50 53.76 1.5950 217.800 40.020 17.273 5.768 11.483 17.575 5.606 11.960
WS7MET_125 2016-09-30 15:20:00 125 30483.0 15.540 15.340 15.630 15.600 14.250 39.810 38.150 1.772 1.258 460.50 64.54 13.930 14.210 13.900 12.560 13.370 15.770 15.490 15.770 15.740 14.540 5.248 4.264 464.30 65.75 1.6660 2.8000 15.300 15.180 15.510 15.330 13.810 -1.871 -1.938 0.00000 0.00 228 0.00 0.00 0.8340 200.00 66.51 1.1450 222.100 61.780 17.654 6.942 10.626 17.722 6.690 10.961
WS7MET_125 2016-09-30 15:15:00 125 30483.0 15.650 15.440 15.720 15.630 14.540 44.020 41.650 3.415 2.637 459.40 64.87 13.920 14.190 13.900 12.560 13.360 16.150 15.630 15.940 15.840 15.050 5.630 4.336 477.70 68.43 2.2470 2.7000 15.430 15.170 15.630 15.300 13.860 2.119 1.439 0.00000 0.00 275 0.00 0.00 0.9420 193.80 40.76 1.0550 207.700 29.960 17.779 7.803 9.952 17.756 7.384 10.361
WS7MET_125 2016-09-30 15:10:00 125 30483.0 15.370 14.870 15.430 15.140 14.060 46.810 40.680 4.055 1.867 483.50 70.51 13.920 14.210 13.900 12.560 13.380 15.600 15.100 15.650 15.230 14.490 5.160 3.373 495.10 72.46 1.0650 1.4000 15.260 14.760 15.310 15.060 13.810 1.110 0.082 0.00000 0.00 222 0.00 0.00 0.5620 159.80 33.90 0.7900 164.300 37.730 17.462 8.164 9.288 17.206 6.989 10.207
WS7MET_125 2016-09-30 15:05:00 125 30483.0 15.660 15.140 15.670 15.350 13.940 48.120 42.730 4.710 2.738 490.50 71.99 13.900 14.220 13.900 12.560 13.380 15.840 15.450 15.910 15.600 14.140 5.716 5.419 493.80 73.80 1.3850 1.7000 15.430 14.680 15.260 15.090 13.770 3.106 0.513 0.00000 0.00 200 0.00 0.00 0.8460 141.20 26.54 0.9850 153.000 28.510 17.790 8.548 9.229 17.440 7.438 9.988
WS7MET_125 2016-09-30 15:00:00 125 30483.0 15.530 15.130 15.520 15.430 14.220 45.500 41.460 3.783 2.405 495.40 75.00 13.880 14.220 13.900 12.560 13.370 15.770 15.320 15.700 15.640 14.730 5.300 3.589 504.50 77.82 1.2350 1.5000 15.330 14.910 15.330 15.230 13.940 1.978 1.846 0.00000 0.00 289 0.00 0.00 0.5160 142.10 57.70 0.6600 155.300 48.460 17.642 8.009 9.615 17.530 7.263 10.262
WS7MET_125 2016-09-30 14:55:00 125 30483.0 16.250 15.650 15.890 15.850 14.530 43.030 38.980 3.648 1.915 524.70 82.80 13.880 14.220 13.900 12.560 13.390 16.460 16.030 16.090 16.050 15.010 5.146 2.483 535.40 85.90 1.2220 1.5000 15.840 15.170 15.510 15.530 14.250 1.810 1.225 0.00000 0.00 231 0.00 0.00 0.7560 114.10 42.45 0.9500 143.800 31.780 18.473 7.933 10.524 18.008 7.013 10.988
WS7MET_125 2016-09-30 14:50:00 125 30483.0 16.210 15.660 15.900 15.720 14.650 43.190 38.230 3.663 1.488 521.20 84.60 13.880 14.220 13.900 12.560 13.400 16.390 15.980 16.070 15.880 15.110 5.332 3.934 538.00 87.20 1.3330 1.9000 16.080 15.410 15.760 15.640 14.470 2.014 -0.849 0.00000 0.00 208 0.00 0.00 0.6530 178.30 42.49 0.8200 192.400 49.090 18.426 7.941 10.468 17.859 6.802 11.031
WS7MET_125 2016-09-30 14:45:00 125 30483.0 16.500 15.830 16.080 15.970 14.830 46.640 39.510 5.022 2.206 554.60 92.20 13.870 14.220 13.900 12.560 13.400 16.630 16.190 16.400 16.290 15.070 6.857 3.381 593.10 100.60 1.5030 1.8000 16.290 15.340 15.700 15.740 14.640 2.944 0.802 0.00000 0.00 230 0.00 0.00 1.0210 125.90 21.29 1.2100 140.600 25.550 18.770 8.736 10.016 18.146 7.161 10.977
WS7MET_125 2016-09-30 14:40:00 125 30483.0 16.170 16.320 16.400 16.320 15.100 48.140 42.770 5.179 3.650 617.90 105.40 13.860 14.220 13.900 12.560 13.420 16.520 16.630 16.600 16.520 15.330 7.158 4.439 638.70 110.00 2.1360 2.1000 15.810 15.960 16.180 16.180 14.920 2.724 2.615 0.00000 0.00 205 0.00 0.00 0.8210 162.20 55.30 0.9500 180.100 56.560 18.379 8.832 9.532 18.556 7.934 10.620
WS7MET_125 2016-09-30 14:35:00 125 30483.0 15.930 15.880 16.230 16.150 14.830 45.010 41.320 4.005 3.009 617.80 106.50 13.850 14.220 13.900 12.560 13.410 16.350 16.200 16.450 16.350 15.000 6.000 4.283 629.30 108.70 2.1430 2.3000 15.640 15.700 16.070 16.010 14.560 2.384 2.426 0.00000 0.00 202 0.00 0.00 1.2170 166.00 66.24 1.3350 183.000 36.560 18.100 8.135 9.953 18.356 7.582 10.771
WS7MET_125 2016-09-30 14:30:00 125 30483.0 16.340 16.430 16.710 16.360 14.890 49.240 45.240 5.667 4.478 636.80 111.10 13.840 14.220 13.900 12.560 13.420 16.490 16.670 16.940 16.520 15.210 6.803 5.811 650.80 114.10 1.2480 1.5000 16.150 16.230 16.530 16.290 14.640 3.806 3.501 0.00000 0.00 254 0.00 0.00 0.5500 116.70 50.79 0.6300 139.000 56.920 18.580 9.137 9.431 18.603 8.410 10.187
WS7MET_125 2016-09-30 14:25:00 125 30483.0 15.960 16.230 16.470 16.210 15.150 49.260 45.610 5.317 4.449 587.10 103.20 13.840 14.220 13.900 12.560 13.430 16.250 16.520 16.730 16.420 15.680 7.097 6.043 640.10 112.70 2.0780 2.7000 15.600 15.800 16.220 15.980 14.770 3.731 2.823 0.00000 0.00 393 0.00 0.00 0.9100 216.30 60.54 1.1100 211.500 49.080 18.135 8.918 9.202 18.426 8.393 10.022
WS7MET_125 2016-09-30 14:20:00 125 30483.0 15.580 15.760 16.180 16.020 15.020 50.090 46.400 5.231 4.533 623.30 110.20 13.830 14.220 13.900 12.560 13.440 15.770 15.910 16.280 16.180 15.330 6.183 6.051 637.40 112.70 2.1690 2.0000 15.430 15.620 16.080 15.880 14.790 4.357 3.715 0.00000 0.00 236 0.00 0.00 0.7260 108.00 60.77 0.8500 143.500 56.260 17.699 8.864 8.834 18.204 8.442 9.758
WS7MET_125 2016-09-30 14:15:00 125 30483.0 15.470 15.690 15.980 15.830 14.620 49.420 46.520 4.907 4.404 612.00 108.30 13.820 14.240 13.900 12.560 13.430 15.670 15.840 16.200 15.940 14.900 6.830 5.288 665.60 118.10 1.2810 1.6000 15.300 15.570 15.740 15.710 14.340 3.357 3.534 0.00000 0.00 206 0.00 0.00 0.7560 143.10 55.82 0.8850 168.000 41.520 17.575 8.666 8.889 17.985 8.366 9.618
WS7MET_125 2016-09-30 14:10:00 125 30483.0 15.320 15.680 15.860 15.680 14.540 46.970 45.600 4.058 3.976 572.20 102.10 13.820 14.240 13.900 12.560 13.420 15.400 15.870 16.140 15.770 14.710 5.559 4.747 689.70 123.50 2.1100 2.0000 15.190 15.430 15.570 15.570 14.350 2.834 2.766 0.00000 0.00 230 0.00 0.00 0.8540 234.80 74.30 1.0050 249.700 60.200 17.406 8.165 9.231 17.813 8.118 9.690
WS7MET_125 2016-09-30 14:05:00 125 30483.0 15.160 15.460 15.890 15.520 14.760 55.760 53.400 6.354 6.060 483.00 85.30 13.810 14.240 13.900 12.560 13.410 15.300 15.870 16.280 15.840 15.460 7.964 8.170 713.90 127.50 1.2870 2.3000 14.950 15.120 15.460 15.160 14.190 4.137 3.986 0.00000 0.00 210 0.00 0.00 0.5270 76.42 86.80 0.7800 105.400 62.760 17.228 9.582 7.622 17.631 9.389 8.216
WS7MET_125 2016-09-30 14:00:00 125 30483.0 15.300 15.210 15.440 15.260 14.200 53.680 53.390 5.956 5.839 499.20 89.00 13.800 14.240 13.900 12.560 13.410 15.400 15.320 15.570 15.330 14.390 7.445 7.324 668.20 120.80 3.2080 2.6000 15.190 15.120 15.350 15.160 14.050 4.906 4.929 0.00000 0.00 229 0.00 0.00 0.7670 163.00 74.19 1.0550 156.900 63.680 17.384 9.322 8.052 17.339 9.247 8.082
WS7MET_125 2016-09-30 13:55:00 125 30483.0 15.380 15.450 15.800 15.380 14.340 55.060 53.600 6.409 6.028 252.50 42.94 13.800 14.240 13.900 12.570 13.410 15.500 15.620 15.900 15.500 14.710 7.193 6.380 704.50 126.10 1.4630 2.1000 15.230 15.300 15.500 15.300 14.010 5.861 5.688 0.00000 0.00 242 0.00 0.00 0.8550 203.20 27.06 1.0650 217.300 36.140 17.474 9.619 7.853 17.474 9.369 8.108
WS7MET_125 2016-09-30 13:50:00 125 30483.0 15.140 15.030 15.480 15.200 13.950 54.110 53.270 5.929 5.774 508.20 89.00 13.790 14.240 13.900 12.560 13.410 15.300 15.310 15.810 15.470 14.070 7.189 6.395 748.70 132.80 0.7910 1.3000 15.020 14.840 15.250 14.990 13.850 5.275 5.440 0.00000 0.00 206 0.00 0.00 0.2930 172.60 50.31 0.5550 189.700 52.770 17.206 9.305 7.896 17.273 9.205 8.072
WS7MET_125 2016-09-30 13:45:00 125 30483.0 15.480 15.230 15.780 15.480 14.330 50.440 49.760 5.239 5.042 248.50 41.40 13.780 14.250 13.900 12.560 13.390 15.770 15.370 15.930 15.640 14.630 5.707 5.543 641.40 111.40 1.6590 3.0000 15.230 15.010 15.550 15.260 13.900 4.633 4.170 0.00000 0.00 275 0.00 0.00 0.8130 213.70 68.95 1.1450 228.900 50.220 17.586 8.869 8.716 17.586 8.748 8.835
WS7MET_125 2016-09-30 13:40:00 125 30483.0 16.050 15.900 16.560 16.130 14.920 52.760 51.390 6.363 6.078 309.60 51.66 13.780 14.260 13.900 12.560 13.390 16.220 16.150 16.850 16.350 15.390 8.450 8.220 715.20 124.80 2.5020 3.0000 15.710 15.410 15.930 15.670 14.430 4.192 4.279 0.00000 0.00 270 0.00 0.00 1.0600 190.60 63.44 1.2250 200.400 49.210 18.239 9.588 8.616 18.333 9.401 8.911
WS7MET_125 2016-09-30 13:35:00 125 30483.0 16.290 16.340 16.590 16.510 15.280 55.170 52.450 7.292 6.760 653.90 110.70 13.780 14.260 13.900 12.560 13.380 16.560 16.700 16.730 16.800 15.500 7.781 7.228 680.40 115.40 1.5810 1.8000 15.940 16.110 16.460 16.320 14.990 6.348 6.309 0.00000 0.00 245 0.00 0.00 0.7170 90.00 38.15 0.9600 106.500 43.780 18.521 10.221 8.303 18.782 9.854 8.931
WS7MET_125 2016-09-30 13:30:00 125 30483.0 16.280 16.680 16.830 16.580 15.630 53.360 51.800 6.796 6.639 533.20 87.80 13.770 14.270 13.910 12.560 13.380 16.490 16.880 17.080 16.760 16.290 7.415 7.303 703.20 118.10 1.7440 2.0000 15.950 16.290 16.500 16.180 15.300 6.073 6.140 0.00000 0.00 235 0.00 0.00 0.4500 259.60 74.83 0.6800 275.800 52.720 18.509 9.879 8.633 18.866 9.772 9.093
WS7MET_125 2016-09-30 13:25:00 125 30483.0 15.680 15.610 15.870 15.730 14.770 54.530 53.770 6.543 6.390 669.00 109.80 13.760 14.270 13.910 12.560 13.380 15.910 16.220 16.440 16.120 15.370 7.800 7.235 699.20 115.40 1.7640 2.5000 15.500 15.170 15.420 15.430 14.240 5.144 5.778 0.00000 0.00 227 0.00 0.00 0.9020 207.80 53.86 1.1100 209.600 43.250 17.813 9.708 8.100 17.870 9.606 8.261
WS7MET_125 2016-09-30 13:20:00 125 30483.0 16.090 15.970 16.190 16.120 14.970 51.620 51.210 6.129 6.046 400.40 64.41 13.760 14.270 13.900 12.560 13.380 16.320 16.270 16.550 16.350 15.470 7.179 6.778 675.00 110.00 2.2410 2.7000 15.910 15.380 15.610 15.600 14.240 5.439 5.591 0.00000 0.00 246 0.00 0.00 0.9580 228.30 65.73 1.3400 239.700 70.570 18.286 9.434 8.847 18.321 9.380 8.939
WS7MET_125 2016-09-30 13:15:00 125 30483.0 15.900 15.510 15.910 15.760 14.820 53.880 53.310 6.577 6.293 670.30 109.60 13.760 14.270 13.900 12.560 13.380 16.180 15.940 16.210 16.080 15.590 7.385 7.303 759.60 126.10 2.3260 3.1000 15.710 15.200 15.680 15.500 14.150 5.927 5.600 0.00000 0.00 207 0.00 0.00 0.9200 181.10 61.14 1.1800 194.500 41.250 18.065 9.731 8.332 17.904 9.542 8.360
WS7MET_125 2016-09-30 13:10:00 125 30483.0 16.740 16.320 16.830 16.520 15.250 50.560 49.560 6.426 5.947 198.90 30.19 13.760 14.270 13.900 12.560 13.410 16.970 16.660 17.380 16.760 15.820 7.956 6.699 684.40 111.40 1.3330 1.9000 16.320 15.530 15.920 15.880 14.150 5.314 5.181 0.00000 0.00 206 0.00 0.00 0.6240 228.20 73.90 0.8100 245.800 60.700 19.058 9.630 9.422 18.794 9.316 9.480
WS7MET_125 2016-09-30 13:05:00 125 30483.0 16.720 16.710 17.420 16.710 15.560 53.670 50.040 7.286 6.262 646.80 105.70 13.750 14.270 13.900 12.560 13.410 16.970 16.800 17.570 16.830 15.890 8.110 7.217 722.00 119.40 0.9150 1.5000 16.490 16.600 17.210 16.630 15.390 6.342 5.892 0.00000 0.00 244 0.00 0.00 0.5930 148.80 40.15 0.8150 157.300 43.590 19.034 10.216 8.819 19.022 9.522 9.503
WS7MET_125 2016-09-30 13:00:00 125 30483.0 16.500 16.540 17.110 16.550 15.390 53.900 50.600 7.140 6.270 713.50 118.20 13.740 14.280 13.900 12.560 13.410 16.630 16.710 17.290 16.700 15.980 8.130 7.394 731.40 120.80 1.3070 1.8000 16.290 16.360 16.930 16.460 15.080 6.152 5.738 0.00000 0.00 245 0.00 0.00 0.6160 135.50 49.69 0.6850 139.700 40.840 18.770 10.115 8.653 18.830 9.527 9.302
WS7MET_125 2016-09-30 12:55:00 125 30483.0 15.910 16.260 16.910 16.350 15.200 59.140 51.500 7.954 6.342 685.40 112.80 13.740 14.290 13.900 12.560 13.410 16.250 16.560 17.190 16.490 15.500 8.380 7.026 699.20 115.40 1.2280 1.5000 15.640 16.100 16.760 16.250 15.000 7.109 5.654 0.00000 0.00 204 0.00 0.00 0.6520 144.40 20.19 0.8450 159.300 37.620 18.077 10.693 7.386 18.592 9.574 9.017
WS7MET_125 2016-09-30 12:50:00 125 30483.0 15.560 15.970 16.540 16.250 15.220 57.040 52.060 7.089 6.405 678.30 111.50 13.740 14.290 13.900 12.560 13.430 15.740 16.180 16.760 16.390 15.740 8.260 8.070 683.10 112.70 1.7120 2.1000 15.400 15.750 16.360 16.120 14.860 6.324 5.805 0.00000 0.00 362 0.00 0.00 0.6960 139.10 64.02 0.9000 145.400 41.870 17.676 10.079 7.594 18.473 9.616 8.856
WS7MET_125 2016-09-30 12:45:00 125 30483.0 15.520 15.660 16.210 15.990 15.050 57.460 53.170 7.162 6.473 672.10 109.80 13.740 14.290 13.900 12.560 13.450 15.610 15.780 16.290 16.180 15.300 8.170 6.896 683.10 111.40 1.3720 1.9000 15.430 15.570 16.140 15.840 14.780 6.260 5.683 0.00000 0.00 239 0.00 0.00 0.7050 120.60 59.36 0.8150 125.100 49.380 17.631 10.130 7.500 18.170 9.661 8.509
WS7MET_125 2016-09-30 12:40:00 125 30483.0 15.630 15.680 16.040 15.890 15.080 56.170 52.860 6.937 6.297 685.30 111.30 13.740 14.290 13.900 12.560 13.440 15.780 15.910 16.130 16.080 15.490 8.380 6.841 691.10 111.40 1.4240 1.9000 15.400 15.550 15.880 15.740 14.820 6.183 5.887 0.00000 0.00 249 0.00 0.00 0.8380 109.20 45.89 0.9350 121.800 49.580 17.756 9.975 7.782 18.054 9.545 8.511
WS7MET_125 2016-09-30 12:35:00 125 30483.0 15.760 15.760 15.990 15.900 14.930 56.680 53.660 7.171 6.518 647.00 102.70 13.740 14.300 13.900 12.560 13.440 15.950 16.040 16.270 16.080 15.290 8.790 7.448 695.10 111.40 2.9990 3.3000 15.570 15.600 15.870 15.710 14.620 6.037 5.364 0.00000 0.00 201 0.00 0.00 1.4190 118.00 63.77 1.5250 137.000 65.050 17.904 10.136 7.756 18.065 9.691 8.371
WS7MET_125 2016-09-30 12:30:00 125 30483.0 15.780 15.950 16.320 15.920 14.890 55.910 53.610 6.996 6.522 688.60 107.30 13.740 14.300 13.900 12.560 13.440 15.910 16.200 16.490 16.020 15.620 8.690 7.825 691.10 108.70 2.1230 2.7000 15.640 15.760 16.160 15.680 14.490 5.471 5.721 0.00000 0.00 206 0.00 0.00 0.7120 170.00 60.42 0.9750 183.100 47.170 17.927 10.015 7.904 18.088 9.694 8.391
WS7MET_125 2016-09-30 12:25:00 125 30483.0 15.730 15.890 16.130 15.890 14.780 57.220 53.670 7.295 6.523 683.90 104.50 13.740 14.310 13.900 12.540 13.440 15.880 16.070 16.320 16.050 15.170 8.070 7.103 695.20 106.00 1.5610 2.3000 15.540 15.710 15.950 15.710 14.510 6.553 6.100 0.00000 0.00 213 0.00 0.00 0.8030 119.30 37.26 0.9300 131.100 45.320 17.870 10.223 7.645 18.054 9.695 8.364
WS7MET_125 2016-09-30 12:20:00 125 30483.0 15.490 15.860 16.170 15.830 14.940 58.780 55.530 7.466 6.957 690.40 105.10 13.740 14.310 13.900 12.550 13.460 15.750 15.990 16.300 15.920 15.440 9.170 7.776 711.30 108.70 2.5740 3.1000 15.200 15.710 15.970 15.750 14.560 6.541 6.522 0.00000 0.00 239 0.00 0.00 1.0200 185.10 87.20 1.1600 186.200 67.360 17.597 10.343 7.254 17.985 9.988 7.998
WS7MET_125 2016-09-30 12:15:00 125 30483.0 15.250 15.520 15.820 15.550 14.620 59.180 57.120 7.339 7.101 590.20 90.70 13.740 14.310 13.900 12.560 13.470 15.370 15.710 15.950 15.680 15.240 8.620 8.290 723.40 111.40 1.5940 2.5000 15.130 15.380 15.660 15.440 14.300 6.284 6.385 0.00000 0.00 231 0.00 0.00 0.6570 136.50 66.81 0.8400 153.200 69.540 17.328 10.254 7.073 17.665 10.088 7.575
WS7MET_125 2016-09-30 12:10:00 125 30483.0 15.000 15.250 15.550 15.360 14.320 61.850 58.890 7.748 7.370 586.10 91.30 13.740 14.310 13.900 12.560 13.470 15.340 15.530 15.900 15.580 14.580 8.440 8.160 736.80 115.40 1.2740 1.8000 14.830 15.060 15.340 15.200 14.030 6.405 6.518 0.00000 0.00 235 0.00 0.00 0.6030 163.20 70.04 0.8250 152.700 76.260 17.052 10.544 6.505 17.451 10.275 7.174
WS7MET_125 2016-09-30 12:05:00 125 30483.0 15.060 15.340 15.590 15.460 14.500 60.270 57.590 7.434 7.144 663.00 104.00 13.740 14.320 13.890 12.560 13.470 15.240 15.590 15.840 15.650 14.750 7.967 7.631 731.40 115.40 2.0580 2.6000 14.930 15.120 15.400 15.240 14.340 6.816 6.373 0.00000 0.00 243 0.00 0.00 0.7790 127.20 56.95 0.9400 135.800 52.520 17.118 10.320 6.801 17.563 10.117 7.449
WS7MET_125 2016-09-30 12:00:00 125 30483.0 14.990 15.190 15.420 15.270 14.350 61.750 57.950 7.717 7.061 626.50 99.60 13.740 14.320 13.890 12.560 13.480 15.100 15.260 15.520 15.410 14.480 8.710 7.520 735.40 116.80 1.6200 2.3000 14.790 15.130 15.260 15.170 14.160 6.875 6.553 0.00000 0.00 246 0.00 0.00 0.7120 115.90 33.49 0.8850 132.000 33.830 17.041 10.522 6.518 17.351 10.060 7.296
WS7MET_125 2016-09-30 11:55:00 125 30483.0 14.830 14.970 15.270 15.270 14.230 61.530 57.790 7.514 7.014 649.70 103.30 13.750 14.320 13.890 12.560 13.500 14.930 15.160 15.460 15.340 14.680 8.360 7.529 704.60 112.70 2.0250 2.2000 14.730 14.790 15.060 15.170 13.970 6.505 6.613 0.00000 0.00 209 0.00 0.00 0.9990 113.40 56.29 1.0700 130.300 38.610 16.866 10.377 6.488 17.351 10.028 7.324
WS7MET_125 2016-09-30 11:50:00 125 30483.0 15.130 14.920 15.390 15.230 14.180 61.150 57.870 7.704 7.002 619.80 99.80 13.750 14.330 13.890 12.560 13.500 15.370 15.180 15.720 15.370 14.390 9.060 7.276 732.80 118.10 1.7120 1.6000 14.790 14.730 15.110 15.130 14.070 6.938 6.767 0.00000 0.00 204 0.00 0.00 0.9690 101.10 25.42 1.0700 114.500 45.160 17.195 10.513 6.680 17.306 10.019 7.291
WS7MET_125 2016-09-30 11:45:00 125 30483.0 15.290 15.390 15.880 15.310 14.390 63.070 59.590 8.310 7.495 622.30 100.70 13.750 14.330 13.890 12.550 13.500 15.510 15.610 16.040 15.510 14.530 9.260 8.190 714.00 115.40 1.9470 2.6000 14.930 15.170 15.610 15.100 14.170 7.625 6.947 0.00000 0.00 305 0.00 0.00 0.8170 130.80 46.01 1.0250 146.800 34.990 17.373 10.956 6.416 17.395 10.364 7.029
WS7MET_125 2016-09-30 11:40:00 125 30483.0 14.820 14.970 15.310 15.110 14.140 61.030 59.990 7.380 7.398 589.30 95.40 13.760 14.340 13.890 12.560 13.500 14.930 15.130 15.580 15.240 14.360 8.390 8.310 704.60 114.10 1.3790 1.3000 14.660 14.670 14.960 15.000 13.600 6.088 6.221 0.00000 0.00 213 0.00 0.00 0.6510 164.60 63.45 0.7650 195.400 68.180 16.855 10.282 6.569 17.173 10.295 6.871
WS7MET_125 2016-09-30 11:35:00 125 30483.0 14.700 14.760 15.150 14.900 13.860 63.050 59.570 7.749 7.111 593.90 96.90 13.760 14.340 13.890 12.560 13.500 14.830 14.980 15.350 15.030 14.190 8.530 7.702 714.00 116.80 1.1760 1.7000 14.590 14.630 15.060 14.790 13.620 6.977 6.705 0.00000 0.00 206 0.00 0.00 0.6780 138.40 41.42 0.8350 154.300 47.140 16.725 10.545 6.180 16.942 10.095 6.850
WS7MET_125 2016-09-30 11:30:00 125 30483.0 14.550 14.730 15.090 14.950 13.750 62.510 58.730 7.482 6.946 629.80 103.10 13.760 14.340 13.890 12.560 13.510 14.660 14.900 15.240 15.170 14.130 8.320 7.532 700.50 115.40 1.3130 1.5000 14.420 14.610 14.970 14.760 13.330 6.399 6.433 0.00000 0.00 285 0.00 0.00 0.7530 108.20 62.25 0.8050 132.800 71.380 16.564 10.354 6.210 16.997 9.981 7.015
WS7MET_125 2016-09-30 11:25:00 125 30483.0 14.410 14.540 14.890 14.690 13.730 64.650 60.480 7.845 7.137 642.40 105.90 13.770 14.340 13.890 12.560 13.530 14.730 14.720 15.070 14.860 14.130 8.800 7.564 697.90 115.40 1.3650 1.4000 14.210 14.250 14.510 14.490 13.120 6.910 6.747 0.00000 0.00 280 0.00 0.00 0.9110 117.90 57.54 0.9200 133.300 60.010 16.415 10.614 5.803 16.715 10.113 6.606
WS7MET_125 2016-09-30 11:20:00 125 30483.0 14.430 14.340 14.590 14.430 13.450 63.100 60.770 7.506 6.957 657.20 109.00 13.770 14.340 13.890 12.550 13.530 14.550 14.490 14.790 14.520 13.670 8.740 7.560 718.00 119.40 1.3460 1.6000 14.320 14.250 14.470 14.350 13.230 6.836 6.736 0.00000 0.00 230 0.00 0.00 0.8090 107.80 35.58 0.9950 124.400 32.240 16.436 10.371 6.065 16.436 9.988 6.448
WS7MET_125 2016-09-30 11:15:00 125 30483.0 14.430 14.280 14.590 14.470 13.380 63.480 61.040 7.594 7.056 490.90 80.90 13.780 14.350 13.890 12.550 13.530 14.520 14.400 14.730 14.550 13.650 8.780 7.978 728.70 122.10 1.6200 1.0000 14.350 14.170 14.450 14.280 13.140 6.873 6.466 0.00000 0.00 228 0.00 0.00 0.6940 141.80 54.26 0.7000 162.400 52.870 16.436 10.434 6.002 16.479 10.057 6.420
WS7MET_125 2016-09-30 11:10:00 125 30483.0 14.650 14.450 14.880 14.580 13.450 63.240 59.910 7.736 6.898 533.00 87.20 13.790 14.360 13.900 12.550 13.530 14.860 14.710 15.090 14.730 13.620 9.300 7.370 718.00 118.10 1.1110 1.3000 14.450 14.170 14.600 14.420 13.240 6.761 6.473 0.00000 0.00 583 0.00 0.00 0.6620 116.10 29.78 0.7650 133.300 23.680 16.671 10.536 6.128 16.596 9.948 6.653
WS7MET_125 2016-09-30 11:05:00 125 30483.0 14.540 14.650 14.920 14.760 13.390 64.010 59.620 7.824 6.992 515.50 84.30 13.790 14.360 13.890 12.550 13.530 14.760 14.730 15.040 14.930 13.780 8.690 7.764 696.50 114.10 1.0850 1.3000 14.380 14.560 14.740 14.660 12.990 7.015 6.576 0.00000 0.00 280 0.00 0.00 0.4930 153.50 58.73 0.6650 166.000 46.580 16.553 10.599 5.958 16.790 10.012 6.780
WS7MET_125 2016-09-30 11:00:00 125 30483.0 14.560 14.690 15.030 14.700 13.940 63.170 60.650 7.637 7.182 526.70 84.70 13.800 14.360 13.890 12.550 13.540 14.730 14.970 15.260 14.860 14.380 9.120 8.460 687.10 111.40 2.3780 2.8000 14.350 14.440 14.710 14.490 13.510 6.463 6.337 0.00000 0.00 206 0.00 0.00 0.8710 168.20 54.33 1.1600 167.100 49.700 16.575 10.465 6.105 16.725 10.144 6.581
WS7MET_125 2016-09-30 10:55:00 125 30483.0 14.240 14.220 14.590 14.290 13.270 65.830 63.260 7.948 7.418 622.40 100.90 13.810 14.360 13.890 12.550 13.560 14.550 14.430 14.860 14.490 14.000 8.920 8.080 679.10 110.00 1.2810 1.4000 14.040 13.950 14.290 14.150 12.690 6.895 6.992 0.00000 0.00 228 0.00 0.00 0.4950 168.40 67.57 0.7000 174.100 31.950 16.235 10.689 5.548 16.288 10.309 5.984
WS7MET_125 2016-09-30 10:50:00 125 30483.0 14.330 14.420 14.800 14.530 13.420 61.640 60.750 7.067 7.051 391.40 63.01 13.810 14.360 13.880 12.550 13.560 14.490 14.700 15.210 14.730 13.970 7.688 7.612 652.20 107.40 1.4500 2.1000 14.180 14.000 14.220 14.250 12.810 6.486 6.659 0.00000 0.00 207 0.00 0.00 0.7920 203.60 66.94 1.0000 221.600 44.210 16.330 10.064 6.264 16.543 10.053 6.493
WS7MET_125 2016-09-30 10:45:00 125 30483.0 14.230 14.310 14.890 14.690 13.450 63.070 60.740 7.311 7.198 606.40 97.00 13.820 14.370 13.880 12.550 13.560 14.420 14.670 15.180 14.790 14.050 8.480 7.604 652.20 104.70 2.1040 1.8000 14.040 14.070 14.620 14.590 13.090 6.502 6.621 0.00000 0.00 277 0.00 0.00 0.8470 199.40 44.08 0.9350 213.000 33.520 16.225 10.234 5.992 16.715 10.155 6.562
WS7MET_125 2016-09-30 10:40:00 125 30483.0 14.200 14.190 15.000 14.570 13.430 67.530 61.930 8.290 7.373 523.10 83.10 13.820 14.380 13.880 12.540 13.590 14.350 14.280 15.090 14.690 13.770 8.900 7.856 661.60 106.00 0.7910 1.1000 13.970 14.110 14.910 14.450 13.130 7.112 6.825 0.00000 0.00 250 0.00 0.00 0.4920 158.50 31.02 0.6700 178.000 29.280 16.193 10.941 5.258 16.586 10.277 6.314
WS7MET_125 2016-09-30 10:35:00 125 30483.0 14.440 14.150 14.860 14.520 13.110 65.070 62.460 7.967 7.446 569.70 88.50 13.830 14.380 13.880 12.540 13.590 14.660 14.380 14.990 14.730 13.570 8.730 7.959 667.00 104.70 0.9020 1.0000 14.280 14.040 14.780 14.320 12.840 7.048 7.047 0.00000 0.00 211 0.00 0.00 0.5150 167.70 39.36 0.6150 189.500 25.710 16.447 10.703 5.745 16.532 10.329 6.206
WS7MET_125 2016-09-30 10:30:00 125 30483.0 14.930 14.460 14.960 14.670 13.300 59.660 58.950 7.151 6.740 486.40 72.34 13.840 14.390 13.880 12.550 13.610 15.170 14.560 15.050 14.760 13.510 7.866 7.468 626.80 93.90 0.9870 1.4000 14.620 14.380 14.870 14.520 13.070 6.256 6.128 0.00000 0.00 234 0.00 0.00 0.5350 117.10 56.20 0.6300 141.800 48.500 16.975 10.122 6.848 16.693 9.841 6.852
WS7MET_125 2016-09-30 10:25:00 125 30483.0 15.090 14.550 15.010 14.510 13.200 62.860 60.420 8.070 6.949 595.40 86.40 13.850 14.390 13.880 12.560 13.610 15.310 14.630 15.080 14.620 13.400 8.690 7.475 626.80 91.30 1.2480 1.3000 14.900 14.440 14.970 14.450 13.000 7.435 6.643 0.00000 0.00 235 0.00 0.00 0.6820 138.30 34.95 0.7850 152.000 28.620 17.151 10.778 6.370 16.521 9.983 6.539
WS7MET_125 2016-09-30 10:20:00 125 30483.0 14.910 14.560 14.950 14.380 13.220 63.080 62.160 7.939 7.233 595.70 83.80 13.860 14.390 13.880 12.550 13.630 15.130 14.710 15.050 14.660 13.500 9.150 8.220 605.30 85.90 0.8690 1.1000 14.690 14.480 14.830 14.210 12.990 6.217 6.318 0.00000 0.00 204 0.00 0.00 0.5000 156.20 24.61 0.6000 166.500 32.360 16.953 10.683 6.259 16.383 10.179 6.199
WS7MET_125 2016-09-30 10:15:00 125 30483.0 14.470 14.460 14.610 14.060 12.960 66.450 66.260 8.300 7.874 584.90 80.20 13.860 14.390 13.890 12.540 13.630 14.730 14.670 14.860 14.320 13.420 9.170 8.160 594.60 83.20 1.0190 1.3000 14.110 14.220 14.320 13.840 12.640 7.411 7.280 0.00000 0.00 245 0.00 0.00 0.6410 144.50 36.14 0.6800 166.100 28.520 16.479 10.948 5.529 16.047 10.635 5.414
WS7MET_125 2016-09-30 10:10:00 125 30483.0 13.920 13.990 14.210 13.700 12.660 68.880 67.970 8.310 7.902 561.70 75.90 13.870 14.390 13.890 12.540 13.660 14.250 14.200 14.320 13.940 13.020 8.840 8.490 579.90 79.19 1.2410 1.9000 13.630 13.860 14.140 13.530 12.400 7.692 7.604 0.00000 0.00 238 0.00 0.00 0.6080 166.70 57.38 0.6900 187.100 45.490 15.902 10.956 4.949 15.676 10.656 5.021
WS7MET_125 2016-09-30 10:05:00 125 30483.0 13.360 13.440 13.730 13.440 12.220 71.040 69.700 8.230 8.020 558.70 74.77 13.880 14.410 13.880 12.540 13.690 13.630 13.800 14.110 13.530 12.590 8.810 8.540 569.10 76.51 0.7380 1.2000 13.160 13.110 13.380 13.360 11.970 7.370 7.639 0.00000 0.00 230 0.00 0.00 0.4130 167.20 30.66 0.5900 178.100 30.040 15.333 10.896 4.440 15.413 10.742 4.670
WS7MET_125 2016-09-30 10:00:00 125 30483.0 13.260 13.200 13.450 13.400 12.010 71.440 69.700 8.210 7.990 542.00 71.14 13.890 14.420 13.880 12.540 13.880 13.430 13.300 13.670 13.530 12.150 9.540 8.430 550.30 72.48 0.8100 1.1000 13.120 13.030 13.190 13.290 11.890 7.520 7.533 0.00000 0.00 207 0.00 0.00 0.4130 139.70 56.49 0.5450 142.500 36.100 15.233 10.881 4.351 15.373 10.720 4.658
WS7MET_125 2016-09-30 09:55:00 125 30483.0 12.990 12.900 13.230 13.050 11.940 73.260 71.950 8.320 8.120 541.50 70.00 13.900 14.410 13.880 12.540 14.420 13.220 13.230 13.510 13.290 12.230 8.680 8.560 545.00 71.14 1.2350 1.4000 12.710 12.450 12.740 12.810 11.460 7.963 7.824 0.00000 0.00 207 0.00 0.00 0.5030 144.90 42.99 0.6000 155.800 34.820 14.967 10.963 4.002 15.025 10.815 4.215
WS7MET_125 2016-09-30 09:50:00 125 30483.0 12.690 12.170 12.480 12.740 11.390 73.310 72.560 8.050 7.948 438.00 56.11 13.910 14.400 13.880 12.540 14.420 12.820 12.410 12.690 12.880 11.620 8.710 8.100 538.30 68.46 0.6470 1.0000 12.610 12.080 12.400 12.610 11.270 7.606 7.622 0.00000 0.00 203 0.00 0.00 0.3810 105.70 22.72 0.6000 123.400 23.960 14.675 10.764 3.917 14.724 10.689 4.040
WS7MET_125 2016-09-30 09:45:00 125 30483.0 12.560 12.160 12.480 12.870 11.410 75.800 73.300 8.410 8.220 315.60 39.73 13.920 14.420 13.880 12.540 14.450 12.820 12.280 12.550 13.050 11.690 8.920 8.550 515.50 64.43 0.6860 1.0000 12.170 11.990 12.330 12.640 11.220 7.905 7.794 0.00000 0.00 204 0.00 0.00 0.3620 147.80 32.33 0.5650 166.100 36.420 14.551 11.030 3.521 14.850 10.889 3.965
WS7MET_125 2016-09-30 09:40:00 125 30483.0 11.870 11.660 11.990 12.550 11.290 78.830 74.490 8.320 8.150 505.50 63.09 13.910 14.420 13.880 12.540 14.470 12.270 11.950 12.280 12.750 11.430 8.970 8.630 523.50 65.77 0.8690 1.0000 11.660 11.460 11.820 12.370 11.160 7.890 7.857 0.00000 0.00 205 0.00 0.00 0.4950 123.30 19.28 0.6400 145.500 18.650 13.905 10.963 2.944 14.541 10.837 3.709
WS7MET_125 2016-09-30 09:35:00 125 30483.0 11.430 11.350 11.720 12.430 11.020 80.200 74.670 8.140 8.070 387.70 48.05 13.920 14.420 13.880 12.540 14.490 11.620 11.420 11.780 12.510 11.220 8.320 8.410 520.80 64.43 1.1760 1.4000 11.110 11.310 11.670 12.270 10.890 7.832 7.928 0.00000 0.00 208 0.00 0.00 0.4630 130.20 23.78 0.6650 145.100 23.140 13.506 10.830 2.674 14.427 10.778 3.654
WS7MET_125 2016-09-30 09:30:00 125 30483.0 10.860 11.210 11.570 11.970 11.080 82.000 76.420 7.922 7.963 473.40 56.58 13.930 14.430 13.880 12.540 14.520 11.110 11.300 11.650 12.270 11.290 8.230 8.300 488.60 59.06 0.9470 1.1000 10.600 11.130 11.510 11.690 10.870 7.432 7.721 0.00000 0.00 429 0.00 0.00 0.5570 94.70 29.31 0.6350 127.200 23.210 13.004 10.670 2.341 13.997 10.700 3.300
WS7MET_125 2016-09-30 09:25:00 125 30483.0 10.480 10.990 11.360 11.420 10.800 84.000 78.940 7.899 7.910 465.40 55.03 13.950 14.430 13.880 12.540 14.540 10.670 11.100 11.510 11.660 11.090 8.360 8.320 473.80 56.38 0.7840 1.2000 10.330 10.910 11.270 11.290 10.540 7.556 7.484 0.00000 0.00 271 0.00 0.00 0.3840 115.10 42.50 0.6300 129.100 35.930 12.679 10.653 2.029 13.497 10.661 2.842
WS7MET_125 2016-09-30 09:20:00 125 30483.0 10.340 10.900 11.190 11.230 10.760 84.500 79.970 7.854 7.915 459.30 54.56 13.950 14.430 13.880 12.540 14.560 10.710 10.970 11.300 11.420 11.000 8.340 8.230 463.10 55.03 0.4770 0.8000 10.230 10.810 11.060 11.050 10.590 7.600 7.768 0.00000 0.00 239 0.00 0.00 0.2330 140.40 42.81 0.4050 162.000 50.640 12.561 10.621 1.947 13.328 10.665 2.670
WS7MET_125 2016-09-30 09:15:00 125 30483.0 10.100 10.670 10.930 10.980 10.420 84.000 79.960 7.538 7.663 451.90 52.95 13.960 14.430 13.880 12.540 14.580 10.230 10.790 11.040 11.080 10.820 7.761 7.887 455.00 53.69 0.7510 1.2000 9.920 10.610 10.860 10.840 10.150 7.307 7.458 0.00000 0.00 274 0.00 0.00 0.2360 143.20 53.75 0.4250 182.600 62.210 12.361 10.394 1.978 13.109 10.483 2.627
WS7MET_125 2016-09-30 09:10:00 125 30483.0 9.810 10.300 10.530 10.580 10.440 83.900 80.800 7.233 7.426 436.80 49.73 13.970 14.430 13.880 12.540 14.580 9.990 10.570 10.820 10.840 10.780 7.460 7.667 448.30 52.35 0.7190 1.0000 9.620 10.090 10.290 10.430 10.090 7.014 7.201 0.00000 0.00 229 0.00 0.00 0.2350 164.00 29.88 0.4350 185.900 48.910 12.123 10.179 1.952 12.764 10.315 2.451
WS7MET_125 2016-09-30 09:05:00 125 30483.0 9.660 10.040 10.240 10.400 9.910 85.500 81.500 7.356 7.374 415.20 45.03 13.980 14.440 13.880 12.540 14.620 9.750 10.070 10.280 10.500 9.980 7.559 7.537 424.20 46.98 0.9150 0.9000 9.550 10.010 10.200 10.300 9.870 7.024 7.244 0.00000 0.00 238 0.00 0.00 0.4960 88.40 18.99 0.6000 107.800 22.650 12.002 10.265 1.740 12.612 10.278 2.333
WS7MET_125 2016-09-30 09:00:00 125 30483.0 9.600 10.030 10.230 10.390 9.900 86.200 81.900 7.414 7.436 400.20 41.34 13.990 14.440 13.880 12.540 14.610 9.720 10.050 10.260 10.470 10.120 7.576 7.604 405.40 42.95 1.1170 1.2000 9.480 9.990 10.200 10.330 9.850 7.232 7.208 0.00000 0.00 308 0.00 0.00 0.4660 83.20 21.50 0.6250 99.500 19.870 11.953 10.306 1.650 12.603 10.322 2.281
WS7MET_125 2016-09-30 08:55:00 125 30483.0 9.430 9.900 10.110 10.310 9.920 86.800 82.500 7.342 7.460 220.60 39.20 14.000 14.450 13.880 12.540 14.650 9.650 10.030 10.250 10.440 10.290 7.459 7.567 400.00 40.27 1.2810 1.7000 9.310 9.810 10.020 10.200 9.700 7.189 7.264 0.00000 0.00 269 0.00 0.00 0.6370 100.70 28.66 0.7050 112.700 29.670 11.818 10.256 1.560 12.536 10.339 2.194
WS7MET_125 2016-09-30 08:50:00 125 30483.0 9.380 9.810 10.030 10.420 9.600 87.300 81.900 7.384 7.478 64.57 35.37 14.010 14.450 13.880 12.540 14.660 9.450 9.870 10.160 10.570 9.640 7.522 7.555 73.83 36.24 0.8560 1.4000 9.270 9.790 9.980 10.260 9.550 7.204 7.364 0.00000 0.00 234 0.00 0.00 0.4340 91.60 26.04 0.6200 103.500 28.410 11.778 10.285 1.496 12.629 10.352 2.286
WS7MET_125 2016-09-30 08:45:00 125 30483.0 9.260 9.830 10.240 10.780 9.790 87.900 80.700 7.374 7.596 58.87 32.42 14.020 14.450 13.880 12.550 14.670 9.410 9.970 10.320 10.880 10.130 7.506 7.712 64.44 33.56 0.4050 0.6000 9.100 9.690 10.170 10.640 9.380 7.259 7.491 0.00000 0.00 234 0.00 0.00 0.0590 78.09 43.58 0.2300 136.900 52.200 11.683 10.278 1.414 12.935 10.435 2.497
WS7MET_125 2016-09-30 08:40:00 125 30483.0 9.130 9.690 10.120 10.650 9.510 87.800 80.600 7.228 7.469 52.76 28.26 14.030 14.460 13.880 12.550 14.690 9.240 9.710 10.170 10.780 9.800 7.433 7.647 55.04 29.53 0.6010 1.2000 9.040 9.680 10.090 10.400 9.350 6.998 7.243 0.00000 0.00 245 0.00 0.00 0.1910 112.90 29.76 0.4050 127.300 35.300 11.581 10.176 1.413 12.824 10.345 2.488
WS7MET_125 2016-09-30 08:35:00 125 30483.0 8.970 9.570 10.020 10.270 9.550 87.600 81.600 7.034 7.276 56.65 24.70 14.040 14.470 13.880 12.550 14.510 9.040 9.690 10.100 10.400 9.880 7.198 7.376 61.75 25.51 0.9600 1.3000 8.900 9.540 9.960 10.160 9.270 6.777 7.137 0.00000 0.00 210 0.00 0.00 0.5210 89.70 25.88 0.6700 106.200 24.150 11.457 10.041 1.421 12.503 10.209 2.300
WS7MET_125 2016-09-30 08:30:00 125 30483.0 8.820 9.480 9.850 10.300 9.560 88.600 81.400 7.053 7.264 87.40 21.41 14.040 14.470 13.880 12.550 13.560 8.970 9.610 10.010 10.370 9.850 7.192 7.334 127.50 22.82 0.6140 0.8000 8.660 9.220 9.600 10.230 9.170 6.872 7.174 0.00000 0.00 252 0.00 0.00 0.2610 90.80 74.17 0.4100 130.500 27.290 11.341 10.054 1.293 12.528 10.201 2.330
WS7MET_125 2016-09-30 08:25:00 125 30483.0 8.630 9.190 9.610 10.080 9.180 88.900 82.100 6.914 7.183 52.16 16.98 14.060 14.470 13.870 12.550 12.890 8.760 9.220 9.690 10.300 9.430 7.007 7.327 71.15 18.79 0.5680 0.8000 8.520 9.170 9.550 9.890 9.060 6.799 7.000 0.00000 0.00 212 0.00 0.00 0.2020 45.30 29.58 0.3900 66.910 37.440 11.196 9.959 1.243 12.345 10.145 2.210
WS7MET_125 2016-09-30 08:20:00 125 30483.0 8.530 9.120 9.590 9.770 9.280 88.800 83.200 6.803 7.076 56.18 14.03 14.060 14.470 13.870 12.550 12.740 8.690 9.180 9.690 9.990 9.450 7.012 7.329 65.78 14.77 0.6730 1.1000 8.420 9.000 9.400 9.650 9.110 6.642 6.958 0.00000 0.00 237 0.00 0.00 0.1720 82.10 8.55 0.3150 106.100 49.570 11.120 9.883 1.245 12.091 10.070 2.031
WS7MET_125 2016-09-30 08:15:00 125 30483.0 8.360 8.950 9.080 9.300 9.030 89.400 85.200 6.728 6.939 71.42 11.68 14.070 14.480 13.870 12.550 12.670 8.490 9.010 9.370 9.620 9.370 6.899 7.115 123.50 13.42 0.6660 0.9000 8.220 8.860 8.850 8.970 8.770 6.608 6.821 0.00000 0.00 285 0.00 0.00 0.2590 80.10 11.97 0.3500 84.800 24.370 10.993 9.832 1.165 11.715 9.976 1.734
WS7MET_125 2016-09-30 08:10:00 125 30483.0 8.290 8.790 8.820 8.920 8.720 90.500 87.300 6.837 6.931 95.30 9.87 14.080 14.490 13.870 12.550 12.650 8.390 8.860 8.840 9.040 8.790 6.963 7.033 167.80 10.74 0.6140 0.8000 8.150 8.700 8.810 8.800 8.670 6.738 6.825 0.00000 0.00 239 0.00 0.00 0.2720 41.60 18.17 0.4250 56.300 19.250 10.941 9.906 1.039 11.418 9.971 1.450
WS7MET_125 2016-09-30 08:05:00 125 30483.0 8.200 8.660 8.810 8.890 8.780 90.700 87.700 6.780 6.970 67.66 8.26 14.090 14.490 13.870 12.550 12.630 8.320 8.700 8.910 8.970 9.210 6.901 7.023 104.70 9.40 0.5230 0.8000 8.010 8.550 8.670 8.800 8.540 6.608 6.916 0.00000 0.00 353 0.00 0.00 0.2100 23.55 60.79 0.4500 62.980 53.230 10.874 9.868 1.011 11.395 9.997 1.402
WS7MET_125 2016-09-30 08:00:00 125 30483.0 8.070 8.570 8.730 8.820 8.710 90.900 87.500 6.686 6.868 124.30 7.79 14.100 14.490 13.870 12.550 12.620 8.220 8.590 8.750 9.000 9.110 6.805 7.005 178.60 8.05 0.3590 0.6000 7.910 8.530 8.680 8.630 8.540 6.513 6.720 0.00000 0.00 245 0.00 0.00 0.0640 295.40 14.58 0.2350 290.800 53.930 10.778 9.804 0.981 11.341 9.928 1.418
WS7MET_125 2016-09-30 07:55:00 125 30483.0 7.809 8.290 8.470 8.510 8.550 92.100 88.600 6.610 6.741 39.40 6.64 14.110 14.490 13.870 12.550 12.600 7.944 8.490 8.650 8.690 8.970 6.685 6.861 42.96 6.71 0.4380 0.9000 7.671 8.210 8.360 8.350 8.350 6.493 6.609 0.00000 0.00 282 0.00 0.00 0.1110 304.00 54.86 0.3200 259.000 72.520 10.588 9.753 0.836 11.105 9.841 1.266
WS7MET_125 2016-09-30 07:50:00 125 30483.0 7.659 8.100 8.230 8.230 8.360 92.700 89.800 6.563 6.658 32.76 5.37 14.120 14.490 13.870 12.550 12.590 7.773 8.190 8.340 8.390 8.640 6.621 6.737 34.90 5.37 0.7190 0.7000 7.569 7.993 8.100 8.080 8.140 6.430 6.594 0.00000 0.00 463 0.00 0.00 0.1590 42.36 38.50 0.2800 39.620 55.830 10.480 9.721 0.765 10.896 9.785 1.111
WS7MET_125 2016-09-30 07:45:00 125 30483.0 7.565 7.934 8.030 8.100 8.080 93.400 90.700 6.568 6.677 30.27 4.56 14.130 14.490 13.870 12.550 12.580 7.637 7.993 8.080 8.180 8.130 6.678 6.765 32.22 5.37 0.7060 1.1000 7.432 7.894 7.993 8.050 8.030 6.437 6.615 0.00000 0.00 236 0.00 0.00 0.4160 31.99 15.91 0.6000 45.140 17.960 10.413 9.725 0.687 10.800 9.798 1.004
WS7MET_125 2016-09-30 07:40:00 125 30483.0 7.494 7.864 7.961 8.020 7.995 93.700 91.200 6.554 6.673 27.72 4.03 14.130 14.510 13.870 12.550 12.570 7.569 7.894 7.993 8.110 8.010 6.642 6.775 29.53 4.03 0.4180 0.5000 7.432 7.835 7.924 7.944 7.983 6.495 6.591 0.00000 0.00 241 0.00 0.00 0.1740 25.08 13.13 0.3200 42.200 18.190 10.363 9.715 0.653 10.742 9.795 0.945
WS7MET_125 2016-09-30 07:35:00 125 30483.0 7.442 7.768 7.864 7.907 7.924 93.700 91.600 6.498 6.626 25.17 4.03 14.150 14.510 13.870 12.550 12.550 7.535 7.835 7.934 8.050 7.993 6.602 6.743 26.85 4.03 0.5100 0.6000 7.398 7.717 7.816 7.808 7.875 6.409 6.505 0.00000 0.00 287 0.00 0.00 0.2300 36.66 11.39 0.3950 50.100 18.760 10.326 9.678 0.651 10.659 9.764 0.895
WS7MET_125 2016-09-30 07:30:00 125 30483.0 7.309 7.636 7.741 7.792 7.795 93.800 91.900 6.383 6.570 22.69 4.03 14.150 14.510 13.870 12.550 12.550 7.364 7.707 7.806 7.910 7.855 6.428 6.665 24.16 4.03 0.5230 0.6000 7.194 7.580 7.688 7.637 7.737 6.305 6.457 0.00000 0.00 379 0.00 0.00 0.2360 50.37 10.67 0.4200 60.150 15.770 10.233 9.601 0.634 10.576 9.726 0.857
WS7MET_125 2016-09-30 07:25:00 125 30483.0 7.236 7.547 7.656 7.673 7.709 94.400 92.600 6.408 6.559 20.20 3.15 14.170 14.510 13.870 12.550 12.530 7.330 7.570 7.678 7.774 7.737 6.505 6.648 21.48 4.03 0.3790 0.6000 7.159 7.531 7.639 7.569 7.678 6.319 6.483 0.00000 0.00 284 0.00 0.00 0.2220 42.54 11.46 0.4000 62.780 13.920 10.181 9.618 0.570 10.490 9.719 0.776
WS7MET_125 2016-09-30 07:20:00 125 30483.0 7.168 7.487 7.588 7.610 7.677 94.500 93.000 6.347 6.565 18.06 2.68 14.170 14.510 13.870 12.540 12.530 7.296 7.531 7.639 7.706 7.698 6.466 6.643 18.79 2.68 0.4380 0.6000 7.023 7.442 7.540 7.501 7.638 6.210 6.469 0.00000 0.00 277 0.00 0.00 0.2790 12.90 15.80 0.4100 34.150 12.950 10.134 9.578 0.557 10.445 9.723 0.731
WS7MET_125 2016-09-30 07:15:00 125 30483.0 7.105 7.401 7.483 7.507 7.578 94.500 93.200 6.281 6.488 15.64 2.28 14.180 14.510 13.870 12.530 12.520 7.193 7.432 7.530 7.569 7.638 6.395 6.573 17.45 2.68 0.4440 0.5000 7.023 7.354 7.442 7.398 7.442 6.199 6.355 0.00000 0.00 257 0.00 0.00 0.3890 345.10 0.36 0.4250 359.600 6.603 10.090 9.534 0.555 10.372 9.671 0.705
WS7MET_125 2016-09-30 07:10:00 125 30483.0 7.045 7.365 7.462 7.499 7.442 94.400 92.900 6.207 6.424 12.02 1.34 14.190 14.520 13.870 12.540 12.520 7.125 7.373 7.481 7.569 7.511 6.295 6.498 13.42 1.34 0.5030 0.6000 6.954 7.354 7.442 7.432 7.373 6.121 6.341 0.00000 0.00 321 0.00 0.00 0.4590 340.60 1.15 0.4950 353.900 6.268 10.049 9.485 0.563 10.366 9.629 0.736
WS7MET_125 2016-09-30 07:05:00 125 30483.0 7.062 7.349 7.465 7.550 7.454 94.400 92.700 6.233 6.451 9.80 0.81 14.200 14.530 13.880 12.540 12.520 7.159 7.354 7.481 7.637 7.511 6.335 6.555 10.74 1.34 0.4640 0.6000 6.954 7.334 7.462 7.466 7.413 6.144 6.370 0.00000 0.00 232 0.00 0.00 0.4250 340.50 0.47 0.4900 350.400 3.839 10.061 9.502 0.563 10.403 9.647 0.759
WS7MET_125 2016-09-30 07:00:00 125 30483.0 7.040 7.354 7.480 7.562 7.450 94.400 92.900 6.212 6.488 9.40 0.00 14.210 14.530 13.880 12.540 12.510 7.125 7.373 7.501 7.603 7.501 6.301 6.541 9.40 0.00 0.4700 0.6000 6.989 7.334 7.462 7.500 7.422 6.155 6.422 0.00000 0.00 237 0.00 0.00 0.4180 340.10 0.25 0.5150 352.500 4.508 10.046 9.489 0.563 10.411 9.671 0.739
WS7MET_125 2016-09-30 06:55:00 125 30483.0 7.064 7.376 7.495 7.538 7.518 94.700 93.200 6.271 6.518 8.19 0.00 14.210 14.530 13.880 12.540 12.520 7.125 7.393 7.511 7.603 7.550 6.319 6.585 9.40 0.00 0.5160 0.6000 6.989 7.354 7.472 7.466 7.481 6.181 6.432 0.00000 0.00 239 0.00 0.00 0.4470 337.70 3.49 0.4900 351.400 5.823 10.062 9.527 0.533 10.394 9.691 0.707
WS7MET_125 2016-09-30 06:50:00 125 30483.0 7.018 7.351 7.474 7.516 7.483 94.500 92.900 6.200 6.449 7.79 0.00 14.220 14.530 13.880 12.540 12.510 7.125 7.354 7.491 7.569 7.511 6.301 6.551 8.05 0.00 0.4900 0.6000 6.920 7.344 7.461 7.432 7.432 6.123 6.368 0.00000 0.00 241 0.00 0.00 0.3870 343.60 3.55 0.4300 354.400 7.133 10.030 9.481 0.552 10.378 9.645 0.737
WS7MET_125 2016-09-30 06:45:00 125 30483.0 7.011 7.342 7.478 7.552 7.504 94.700 92.800 6.229 6.461 6.71 0.00 14.230 14.530 13.880 12.540 12.510 7.057 7.354 7.491 7.637 7.540 6.285 6.550 6.71 0.00 0.4310 0.5000 6.920 7.324 7.471 7.466 7.432 6.139 6.365 0.00000 0.00 242 0.00 0.00 0.3840 345.30 0.44 0.4100 357.700 4.112 10.026 9.500 0.531 10.404 9.653 0.749
WS7MET_125 2016-09-30 06:40:00 125 30483.0 7.004 7.326 7.465 7.553 7.475 94.600 92.900 6.204 6.489 6.11 0.00 14.240 14.530 13.880 12.540 12.520 7.159 7.333 7.471 7.603 7.510 6.340 6.553 6.71 0.00 0.5490 0.6000 6.920 7.324 7.451 7.500 7.451 6.129 6.425 0.00000 0.00 282 0.00 0.00 0.4730 343.10 2.35 0.4850 354.400 5.547 10.021 9.483 0.541 10.405 9.672 0.739
WS7MET_125 2016-09-30 06:35:00 125 30483.0 7.059 7.335 7.475 7.562 7.481 94.100 92.600 6.185 6.452 5.17 0.00 14.250 14.530 13.880 12.550 12.520 7.193 7.353 7.480 7.637 7.500 6.316 6.528 5.37 0.00 0.4700 0.5000 6.954 7.323 7.470 7.500 7.461 6.094 6.393 0.00000 0.00 217 0.00 0.00 0.3650 339.80 0.18 0.3850 352.500 7.509 10.059 9.471 0.593 10.411 9.647 0.770
WS7MET_125 2016-09-30 06:30:00 125 30483.0 7.130 7.378 7.494 7.586 7.495 94.200 92.800 6.273 6.502 4.03 0.00 14.250 14.530 13.870 12.550 12.520 7.227 7.391 7.509 7.637 7.509 6.382 6.619 4.03 0.00 0.5100 0.6000 7.057 7.362 7.480 7.500 7.470 6.196 6.377 0.00000 0.00 235 0.00 0.00 0.4360 340.30 0.97 0.5100 349.100 1.531 10.108 9.529 0.586 10.428 9.681 0.751
WS7MET_125 2016-09-30 06:25:00 125 30483.0 7.168 7.406 7.513 7.593 7.502 94.500 93.200 6.346 6.569 4.03 0.00 14.260 14.550 13.870 12.540 12.520 7.227 7.430 7.538 7.671 7.577 6.413 6.653 4.03 0.00 0.4640 0.6000 7.091 7.391 7.499 7.500 7.469 6.272 6.500 0.00000 0.00 246 0.00 0.00 0.3850 338.70 3.89 0.4250 352.600 5.823 10.134 9.577 0.557 10.433 9.725 0.709
WS7MET_125 2016-09-30 06:20:00 125 30483.0 7.185 7.429 7.536 7.618 7.552 94.400 93.400 6.356 6.621 3.69 0.00 14.270 14.550 13.860 12.540 12.520 7.364 7.440 7.548 7.705 7.597 6.528 6.735 4.03 0.00 0.4770 0.6000 7.091 7.420 7.528 7.535 7.518 6.267 6.546 0.00000 0.00 244 0.00 0.00 0.4050 333.80 0.54 0.5300 349.400 3.885 10.146 9.584 0.568 10.451 9.760 0.690
WS7MET_125 2016-09-30 06:15:00 125 30483.0 7.215 7.439 7.529 7.651 7.484 94.100 93.100 6.340 6.619 2.68 0.00 14.280 14.550 13.870 12.540 12.510 7.330 7.479 7.577 7.773 7.567 6.462 6.696 2.68 0.00 0.4770 0.7000 7.091 7.420 7.508 7.569 7.420 6.193 6.537 0.00000 0.00 235 0.00 0.00 0.3320 332.00 3.41 0.4550 340.800 7.558 10.167 9.573 0.600 10.475 9.759 0.723
WS7MET_125 2016-09-30 06:10:00 125 30483.0 7.248 7.510 7.616 7.717 7.619 94.200 93.100 6.378 6.675 1.88 0.00 14.290 14.550 13.870 12.540 12.520 7.364 7.518 7.626 7.808 7.665 6.501 6.799 2.68 0.00 0.4510 0.5000 7.159 7.479 7.577 7.637 7.498 6.303 6.534 0.00000 0.00 251 0.00 0.00 0.3470 337.80 1.22 0.4200 346.600 8.050 10.190 9.598 0.591 10.522 9.797 0.726
WS7MET_125 2016-09-30 06:05:00 125 30483.0 7.316 7.518 7.627 7.722 7.615 93.900 92.900 6.412 6.653 1.34 0.00 14.300 14.550 13.870 12.540 12.520 7.466 7.528 7.646 7.773 7.636 6.582 6.739 1.34 0.00 0.4250 0.6000 7.159 7.518 7.616 7.637 7.596 6.272 6.555 0.00000 0.00 478 0.00 0.00 0.3650 336.00 3.43 0.4750 348.600 6.670 10.237 9.621 0.624 10.526 9.782 0.747
WS7MET_125 2016-09-30 06:00:00 125 30483.0 7.396 7.572 7.688 7.806 7.627 93.600 92.400 6.432 6.654 0.00 0.00 14.310 14.550 13.870 12.540 12.520 7.569 7.616 7.754 7.910 7.685 6.599 6.713 0.00 0.00 0.4570 0.5000 7.227 7.538 7.636 7.705 7.596 6.276 6.585 0.00000 0.00 247 0.00 0.00 0.3660 337.60 1.74 0.4600 349.400 5.117 10.294 9.634 0.659 10.586 9.782 0.805
WS7MET_125 2016-09-30 05:55:00 125 30483.0 7.446 7.661 7.791 7.905 7.764 93.400 92.000 6.454 6.700 0.00 0.00 14.310 14.550 13.870 12.540 12.530 7.671 7.704 7.832 8.010 7.842 6.679 6.825 0.00 0.00 0.4440 0.6000 7.330 7.616 7.763 7.842 7.704 6.330 6.640 0.00000 0.00 235 0.00 0.00 0.3630 339.30 1.71 0.4350 349.500 4.545 10.329 9.649 0.682 10.658 9.813 0.853
WS7MET_125 2016-09-30 05:50:00 125 30483.0 7.446 7.711 7.831 7.923 7.869 93.200 92.000 6.425 6.708 0.00 0.00 14.330 14.570 13.870 12.540 12.530 7.569 7.724 7.842 7.978 7.881 6.557 6.813 0.00 0.00 0.5230 0.6000 7.330 7.704 7.822 7.841 7.842 6.298 6.591 0.00000 0.00 251 0.00 0.00 0.3400 340.10 4.38 0.4000 353.500 5.927 10.329 9.629 0.702 10.671 9.819 0.854
WS7MET_125 2016-09-30 05:45:00 125 30483.0 7.468 7.700 7.820 7.889 7.836 92.700 91.600 6.365 6.611 0.00 0.00 14.330 14.570 13.870 12.540 12.530 7.705 7.724 7.822 7.944 7.862 6.601 6.714 0.00 0.00 0.5420 0.6000 7.261 7.684 7.802 7.773 7.802 6.166 6.503 0.00000 0.00 235 0.00 0.00 0.4430 343.20 1.72 0.4500 353.500 5.950 10.344 9.589 0.755 10.646 9.754 0.894
WS7MET_125 2016-09-30 05:40:00 125 30483.0 7.467 7.708 7.830 7.906 7.815 92.300 91.200 6.309 6.573 0.00 0.00 14.340 14.570 13.870 12.540 12.520 7.636 7.724 7.842 8.050 7.822 6.490 6.718 0.00 0.00 0.4830 0.6000 7.329 7.694 7.822 7.807 7.793 6.170 6.494 0.00000 0.00 250 0.00 0.00 0.3750 342.30 2.02 0.4400 350.000 5.234 10.344 9.552 0.796 10.659 9.728 0.938
WS7MET_125 2016-09-30 05:35:00 125 30483.0 7.531 7.749 7.859 7.913 7.850 92.700 91.500 6.434 6.617 0.00 0.00 14.350 14.570 13.870 12.540 12.530 7.841 7.753 7.861 7.978 7.881 6.758 6.726 0.00 0.00 0.5230 0.6000 7.364 7.733 7.851 7.841 7.822 6.289 6.526 0.00000 0.00 438 0.00 0.00 0.4010 339.40 5.37 0.4500 351.600 4.290 10.389 9.635 0.758 10.664 9.758 0.906
WS7MET_125 2016-09-30 05:30:00 125 30483.0 7.469 7.729 7.835 7.884 7.869 92.700 91.600 6.375 6.608 0.00 0.00 14.360 14.570 13.870 12.550 12.530 7.602 7.753 7.861 7.944 7.940 6.569 6.714 0.00 0.00 0.4900 0.6000 7.261 7.714 7.802 7.807 7.782 6.145 6.492 0.00000 0.00 277 0.00 0.00 0.4230 336.20 2.51 0.4950 348.800 3.036 10.345 9.596 0.755 10.643 9.752 0.894
WS7MET_125 2016-09-30 05:25:00 125 30483.0 7.516 7.703 7.823 7.895 7.803 92.100 91.100 6.326 6.539 0.00 0.00 14.370 14.570 13.870 12.530 12.530 7.773 7.714 7.842 8.010 7.851 6.626 6.674 0.00 0.00 0.4700 0.6000 7.398 7.694 7.812 7.808 7.763 6.141 6.449 0.00000 0.00 244 0.00 0.00 0.3730 339.30 0.25 0.4400 348.800 4.001 10.378 9.564 0.820 10.651 9.705 0.948
WS7MET_125 2016-09-30 05:20:00 125 30483.0 7.606 7.765 7.875 7.947 7.850 91.700 90.900 6.348 6.558 0.00 0.00 14.380 14.570 13.870 12.540 12.530 7.842 7.802 7.901 8.050 7.901 6.548 6.642 0.00 0.00 0.3850 0.4000 7.466 7.724 7.842 7.842 7.802 6.236 6.456 0.00000 0.00 277 0.00 0.00 0.3050 340.00 0.19 0.3300 354.300 8.320 10.443 9.578 0.867 10.688 9.718 0.973
WS7MET_125 2016-09-30 05:15:00 125 30483.0 7.676 7.840 7.933 8.020 7.913 91.200 90.500 6.339 6.571 0.00 0.00 14.380 14.580 13.860 12.540 12.530 7.842 7.881 7.970 8.110 7.940 6.537 6.692 0.00 0.00 0.3530 0.5000 7.569 7.812 7.911 7.944 7.862 6.207 6.475 0.00000 0.00 245 0.00 0.00 0.2940 342.60 5.36 0.4150 353.600 7.512 10.493 9.572 0.923 10.742 9.727 1.020
WS7MET_125 2016-09-30 05:10:00 125 30483.0 7.746 7.937 8.020 8.090 7.952 90.700 90.000 6.327 6.559 0.00 0.00 14.400 14.590 13.870 12.540 12.530 7.910 7.989 8.080 8.180 8.060 6.447 6.640 0.00 0.00 0.2810 0.4000 7.637 7.891 7.980 7.978 7.861 6.242 6.503 0.00000 0.00 251 0.00 0.00 0.1820 346.10 0.53 0.2650 355.600 10.560 10.543 9.564 0.980 10.793 9.719 1.079
WS7MET_125 2016-09-30 05:05:00 125 30483.0 7.807 8.020 8.110 8.160 8.120 90.400 89.600 6.336 6.554 0.00 0.00 14.400 14.570 13.870 12.540 12.540 7.910 8.030 8.120 8.220 8.200 6.430 6.635 0.00 0.00 0.3330 0.4000 7.637 7.989 8.090 8.080 8.020 6.144 6.478 0.00000 0.00 295 0.00 0.00 0.2730 346.10 0.26 0.3050 357.200 6.893 10.587 9.570 1.016 10.844 9.715 1.128
WS7MET_125 2016-09-30 05:00:00 125 30483.0 7.875 8.030 8.110 8.170 8.170 90.300 89.500 6.393 6.547 0.00 0.00 14.420 14.590 13.870 12.540 12.540 8.010 8.050 8.120 8.250 8.200 6.537 6.623 0.00 0.00 0.3720 0.5000 7.773 8.030 8.100 8.080 8.140 6.246 6.439 0.00000 0.00 242 0.00 0.00 0.2900 347.50 1.54 0.3350 0.255 5.906 10.636 9.608 1.032 10.852 9.711 1.139
WS7MET_125 2016-09-30 04:55:00 125 30483.0 7.902 8.070 8.130 8.180 8.080 89.700 89.200 6.322 6.508 0.00 0.00 14.410 14.590 13.870 12.540 12.540 8.110 8.110 8.180 8.320 8.150 6.472 6.618 0.00 0.00 0.3790 0.5000 7.773 8.050 8.110 8.080 8.050 6.234 6.360 0.00000 0.00 282 0.00 0.00 0.2300 345.80 5.12 0.3300 355.500 9.810 10.656 9.561 1.098 10.859 9.685 1.173
WS7MET_125 2016-09-30 04:50:00 125 30483.0 7.954 8.160 8.240 8.320 8.190 90.400 89.300 6.479 6.667 0.00 0.00 14.420 14.590 13.870 12.540 12.540 8.080 8.190 8.270 8.390 8.270 6.643 6.842 0.00 0.00 0.3530 0.5000 7.842 8.110 8.200 8.250 8.060 6.264 6.502 0.00000 0.00 283 0.00 0.00 0.2300 336.40 0.48 0.3150 352.300 11.370 10.693 9.665 1.027 10.963 9.791 1.173
WS7MET_125 2016-09-30 04:45:00 125 30483.0 7.982 8.210 8.290 8.350 8.250 90.600 90.000 6.540 6.813 0.00 0.00 14.430 14.590 13.870 12.540 12.540 8.110 8.220 8.310 8.420 8.270 6.669 6.892 0.00 0.00 0.2940 0.5000 7.876 8.190 8.270 8.180 8.230 6.414 6.629 0.00000 0.00 475 0.00 0.00 0.1700 335.80 0.38 0.3200 341.900 15.310 10.714 9.706 1.007 10.985 9.890 1.099
WS7MET_125 2016-09-30 04:40:00 125 30483.0 7.964 8.230 8.340 8.380 8.350 91.700 90.400 6.698 6.913 0.00 0.00 14.440 14.590 13.870 12.540 12.540 8.080 8.240 8.350 8.460 8.430 6.861 7.019 0.00 0.00 0.3460 0.5000 7.842 8.200 8.310 8.320 8.250 6.545 6.791 0.00000 0.00 269 0.00 0.00 0.2820 335.10 1.40 0.4000 345.000 9.770 10.701 9.812 0.888 11.008 9.958 1.057
WS7MET_125 2016-09-30 04:35:00 125 30483.0 7.985 8.210 8.320 8.400 8.280 91.600 90.400 6.711 6.923 0.00 0.00 14.450 14.590 13.870 12.540 12.550 8.110 8.220 8.340 8.460 8.330 6.840 7.009 0.00 0.00 0.4440 0.7000 7.842 8.190 8.300 8.290 8.250 6.581 6.813 0.00000 0.00 235 0.00 0.00 0.3520 328.20 4.84 0.4900 344.600 6.176 10.716 9.821 0.900 11.023 9.965 1.058
WS7MET_125 2016-09-30 04:30:00 125 30483.0 7.995 8.260 8.380 8.430 8.390 91.500 90.200 6.702 6.930 0.00 0.00 14.460 14.590 13.870 12.540 12.550 8.150 8.270 8.390 8.490 8.490 6.885 7.015 0.00 0.00 0.2740 0.5000 7.910 8.220 8.350 8.350 8.270 6.561 6.847 0.00000 0.00 396 0.00 0.00 0.0810 347.90 12.88 0.2950 344.900 13.680 10.723 9.815 0.911 11.045 9.970 1.082
WS7MET_125 2016-09-30 04:25:00 125 30483.0 8.010 8.280 8.380 8.440 8.370 91.300 90.100 6.685 6.918 0.00 0.00 14.470 14.590 13.870 12.540 12.550 8.110 8.300 8.400 8.560 8.430 6.824 7.016 0.00 0.00 0.2810 0.5000 7.910 8.260 8.370 8.350 8.330 6.573 6.831 0.00000 0.00 245 0.00 0.00 0.1390 344.00 7.03 0.2950 2.021 10.510 10.734 9.803 0.934 11.053 9.962 1.094
WS7MET_125 2016-09-30 04:20:00 125 30483.0 8.010 8.300 8.410 8.480 8.420 91.500 90.000 6.711 6.942 0.00 0.00 14.480 14.600 13.860 12.540 12.540 8.180 8.310 8.420 8.690 8.450 6.972 7.201 0.00 0.00 0.3270 0.5000 7.910 8.300 8.410 8.350 8.390 6.594 6.808 0.00000 0.00 247 0.00 0.00 0.2400 339.90 0.43 0.3700 356.300 4.408 10.734 9.821 0.912 11.083 9.978 1.108
WS7MET_125 2016-09-30 04:15:00 125 30483.0 7.979 8.300 8.410 8.450 8.440 91.700 90.300 6.722 6.965 0.00 0.00 14.480 14.600 13.860 12.540 12.550 8.080 8.300 8.420 8.520 8.450 6.828 7.136 0.00 0.00 0.3720 0.5000 7.876 8.280 8.390 8.350 8.410 6.609 6.814 0.00000 0.00 244 0.00 0.00 0.3150 337.80 1.81 0.4350 348.100 7.969 10.712 9.828 0.889 11.060 9.994 1.073
WS7MET_125 2016-09-30 04:10:00 125 30483.0 7.905 8.240 8.350 8.330 8.430 91.700 90.700 6.648 6.901 0.00 0.00 14.500 14.610 13.870 12.540 12.550 7.978 8.280 8.390 8.460 8.470 6.720 7.053 0.00 0.00 0.4510 0.5000 7.842 8.180 8.270 8.250 8.310 6.575 6.795 0.00000 0.00 244 0.00 0.00 0.3560 339.40 2.63 0.4300 354.400 5.547 10.658 9.778 0.885 10.970 9.950 1.020
WS7MET_125 2016-09-30 04:05:00 125 30483.0 7.898 8.170 8.260 8.290 8.260 91.300 90.300 6.581 6.806 0.00 0.00 14.500 14.610 13.870 12.540 12.560 7.978 8.180 8.270 8.420 8.310 6.655 6.953 0.00 0.00 0.4440 0.6000 7.808 8.160 8.250 8.150 8.220 6.482 6.612 0.00000 0.00 239 0.00 0.00 0.3640 336.30 0.23 0.4600 349.100 3.998 10.653 9.733 0.927 10.941 9.885 1.061
WS7MET_125 2016-09-30 04:00:00 125 30483.0 7.893 8.150 8.250 8.270 8.260 91.000 90.100 6.529 6.751 0.00 0.00 14.510 14.610 13.870 12.540 12.550 8.010 8.170 8.270 8.320 8.310 6.679 6.890 0.00 0.00 0.4900 0.6000 7.808 8.140 8.230 8.220 8.210 6.417 6.646 0.00000 0.00 246 0.00 0.00 0.4090 336.30 3.82 0.5250 347.500 5.942 10.649 9.699 0.958 10.926 9.848 1.082
WS7MET_125 2016-09-30 03:55:00 125 30483.0 7.895 8.150 8.250 8.280 8.250 91.000 89.900 6.527 6.735 0.00 0.00 14.510 14.610 13.860 12.540 12.560 7.978 8.160 8.260 8.350 8.290 6.645 6.880 0.00 0.00 0.4310 0.6000 7.808 8.140 8.230 8.220 8.220 6.455 6.618 0.00000 0.00 271 0.00 0.00 0.3810 343.50 0.51 0.4650 352.000 4.661 10.651 9.697 0.959 10.933 9.837 1.104
WS7MET_125 2016-09-30 03:50:00 125 30483.0 7.908 8.150 8.270 8.300 8.280 91.200 90.000 6.568 6.754 0.00 0.00 14.520 14.610 13.860 12.540 12.560 7.944 8.160 8.270 8.350 8.300 6.617 6.809 0.00 0.00 0.5230 0.5000 7.876 8.140 8.260 8.220 8.250 6.511 6.696 0.00000 0.00 241 0.00 0.00 0.3950 343.70 0.31 0.4250 352.800 4.985 10.660 9.725 0.938 10.948 9.850 1.095
WS7MET_125 2016-09-30 03:45:00 125 30483.0 7.896 8.160 8.270 8.310 8.240 90.900 89.700 6.506 6.729 0.00 0.00 14.530 14.610 13.860 12.540 12.560 7.978 8.180 8.310 8.460 8.280 6.613 6.849 0.00 0.00 0.5490 0.6000 7.739 8.140 8.250 8.220 8.190 6.322 6.641 0.00000 0.00 506 0.00 0.00 0.4270 343.80 1.01 0.4850 353.500 6.000 10.651 9.683 0.969 10.956 9.833 1.128
WS7MET_125 2016-09-30 03:40:00 125 30483.0 7.946 8.210 8.330 8.380 8.320 90.700 89.300 6.520 6.737 0.00 0.00 14.540 14.610 13.860 12.540 12.570 8.050 8.220 8.330 8.460 8.350 6.626 6.854 0.00 0.00 0.4570 0.6000 7.842 8.180 8.310 8.320 8.270 6.434 6.647 0.00000 0.00 249 0.00 0.00 0.4030 340.40 0.18 0.4450 352.300 5.618 10.688 9.693 0.994 11.008 9.838 1.178
WS7MET_125 2016-09-30 03:35:00 125 30483.0 7.959 8.250 8.360 8.420 8.350 90.300 88.800 6.481 6.682 0.00 0.00 14.550 14.610 13.860 12.540 12.560 8.050 8.260 8.380 8.520 8.390 6.592 6.771 0.00 0.00 0.4700 0.6000 7.910 8.220 8.330 8.350 8.310 6.397 6.608 0.00000 0.00 519 0.00 0.00 0.4320 339.00 1.79 0.5150 351.500 5.434 10.697 9.667 1.038 11.038 9.801 1.236
WS7MET_125 2016-09-30 03:30:00 125 30483.0 7.974 8.270 8.380 8.440 8.410 90.200 88.600 6.472 6.673 0.00 0.00 14.560 14.610 13.860 12.540 12.560 8.110 8.280 8.390 8.520 8.440 6.633 6.827 0.00 0.00 0.5420 0.7000 7.875 8.260 8.370 8.350 8.380 6.281 6.484 0.00000 0.00 243 0.00 0.00 0.4650 336.20 2.91 0.5600 348.400 4.485 10.708 9.661 1.049 11.053 9.795 1.260
WS7MET_125 2016-09-30 03:25:00 125 30483.0 7.971 8.240 8.350 8.400 8.370 89.700 88.500 6.396 6.618 0.00 0.00 14.560 14.610 13.860 12.540 12.560 8.050 8.260 8.370 8.490 8.430 6.559 6.742 0.00 0.00 0.5620 0.6000 7.841 8.220 8.330 8.320 8.310 6.230 6.507 0.00000 0.00 241 0.00 0.00 0.4620 338.80 4.55 0.5150 349.600 2.789 10.706 9.610 1.103 11.023 9.758 1.268
WS7MET_125 2016-09-30 03:20:00 125 30483.0 7.954 8.230 8.340 8.370 8.320 89.500 88.200 6.335 6.543 0.00 0.00 14.570 14.620 13.860 12.540 12.570 8.050 8.250 8.360 8.420 8.420 6.420 6.646 0.00 0.00 0.5290 0.7000 7.841 8.210 8.330 8.320 8.240 6.169 6.478 0.00000 0.00 243 0.00 0.00 0.4300 335.20 4.13 0.5000 346.900 6.003 10.693 9.570 1.123 11.000 9.708 1.298
WS7MET_125 2016-09-30 03:15:00 125 30483.0 7.981 8.220 8.330 8.370 8.350 89.400 88.300 6.345 6.552 0.00 0.00 14.580 14.620 13.860 12.540 12.560 8.110 8.240 8.350 8.460 8.440 6.489 6.625 0.00 0.00 0.5290 0.6000 7.909 8.210 8.320 8.280 8.310 6.220 6.462 0.00000 0.00 208 0.00 0.00 0.4060 337.90 2.38 0.5000 349.000 4.558 10.713 9.576 1.136 11.000 9.714 1.287
WS7MET_125 2016-09-30 03:10:00 125 30483.0 7.991 8.220 8.340 8.370 8.380 89.600 88.300 6.398 6.560 0.00 0.00 14.590 14.630 13.860 12.540 12.570 8.080 8.240 8.350 8.450 8.420 6.487 6.691 0.00 0.00 0.5160 0.6000 7.943 8.200 8.330 8.280 8.280 6.320 6.461 0.00000 0.00 245 0.00 0.00 0.3900 344.60 4.74 0.4500 355.000 4.273 10.720 9.611 1.115 11.000 9.719 1.287
WS7MET_125 2016-09-30 03:05:00 125 30483.0 8.010 8.190 8.290 8.370 8.260 89.500 88.300 6.395 6.567 0.00 0.00 14.600 14.630 13.860 12.540 12.570 8.110 8.220 8.340 8.490 8.400 6.531 6.741 0.00 0.00 0.6270 0.6000 7.909 8.160 8.260 8.250 8.160 6.269 6.462 0.00000 0.00 282 0.00 0.00 0.5080 348.40 3.65 0.5050 358.000 8.800 10.734 9.609 1.127 11.000 9.724 1.287
WS7MET_125 2016-09-30 03:00:00 125 30483.0 8.180 8.310 8.410 8.500 8.320 89.200 88.600 6.516 6.738 0.00 0.00 14.600 14.630 13.860 12.540 12.570 8.280 8.380 8.480 8.630 8.400 6.601 6.837 0.00 0.00 0.5360 0.6000 8.050 8.230 8.340 8.420 8.260 6.404 6.573 0.00000 0.00 245 0.00 0.00 0.3990 333.10 5.17 0.5250 347.700 6.760 10.859 9.690 1.173 11.098 9.839 1.265
WS7MET_125 2016-09-30 02:55:00 125 30483.0 8.270 8.460 8.550 8.620 8.510 88.900 87.900 6.555 6.739 0.00 0.00 14.610 14.630 13.850 12.540 12.570 8.390 8.490 8.600 8.690 8.580 6.685 6.854 0.00 0.00 0.5100 0.7000 8.180 8.400 8.500 8.520 8.420 6.405 6.651 0.00000 0.00 244 0.00 0.00 0.3790 330.30 0.50 0.5350 339.500 6.799 10.926 9.716 1.213 11.188 9.840 1.354
WS7MET_125 2016-09-30 02:50:00 125 30483.0 8.290 8.500 8.600 8.630 8.590 89.000 87.900 6.583 6.744 0.00 0.00 14.620 14.630 13.850 12.540 12.580 8.390 8.520 8.620 8.690 8.620 6.706 6.808 0.00 0.00 0.3330 0.5000 8.180 8.490 8.600 8.560 8.560 6.422 6.668 0.00000 0.00 249 0.00 0.00 0.1780 331.90 0.34 0.3600 350.400 8.450 10.941 9.735 1.203 11.196 9.843 1.355
WS7MET_125 2016-09-30 02:45:00 125 30483.0 8.280 8.530 8.620 8.660 8.620 88.900 87.900 6.563 6.782 0.00 0.00 14.630 14.630 13.850 12.540 12.580 8.350 8.540 8.640 8.730 8.700 6.668 6.853 0.00 0.00 0.4310 0.6000 8.210 8.520 8.620 8.620 8.560 6.465 6.706 0.00000 0.00 244 0.00 0.00 0.2730 339.30 8.37 0.3750 352.800 9.910 10.933 9.721 1.214 11.219 9.869 1.357
WS7MET_125 2016-09-30 02:40:00 125 30483.0 8.320 8.540 8.630 8.680 8.630 88.300 87.400 6.512 6.709 0.00 0.00 14.640 14.630 13.850 12.530 12.580 8.390 8.570 8.660 8.800 8.690 6.584 6.790 0.00 0.00 0.5100 0.6000 8.250 8.530 8.610 8.590 8.580 6.444 6.629 0.00000 0.00 243 0.00 0.00 0.3410 347.70 1.07 0.4000 0.699 7.247 10.963 9.687 1.283 11.234 9.820 1.415
WS7MET_125 2016-09-30 02:35:00 125 30483.0 8.330 8.570 8.680 8.730 8.670 88.500 87.500 6.550 6.767 0.00 0.00 14.650 14.630 13.850 12.520 12.580 8.450 8.610 8.710 8.800 8.740 6.696 6.876 0.00 0.00 0.3790 0.5000 8.280 8.550 8.660 8.660 8.610 6.455 6.661 0.00000 0.00 281 0.00 0.00 0.2700 346.20 0.59 0.3350 359.500 2.331 10.970 9.713 1.262 11.272 9.859 1.409
WS7MET_125 2016-09-30 02:30:00 125 30483.0 8.360 8.580 8.690 8.730 8.780 88.200 87.100 6.526 6.715 0.00 0.00 14.650 14.630 13.850 12.530 12.580 8.420 8.610 8.720 8.830 8.820 6.655 6.839 0.00 0.00 0.3400 0.5000 8.250 8.550 8.660 8.660 8.760 6.363 6.648 0.00000 0.00 285 0.00 0.00 0.2360 347.00 0.88 0.3150 0.506 7.615 10.993 9.697 1.297 11.272 9.824 1.454
WS7MET_125 2016-09-30 02:25:00 125 30483.0 8.370 8.560 8.650 8.690 8.650 87.300 86.800 6.382 6.619 0.00 0.00 14.670 14.630 13.860 12.530 12.580 8.420 8.600 8.680 8.760 8.750 6.537 6.703 0.00 0.00 0.4250 0.6000 8.280 8.540 8.640 8.620 8.550 6.243 6.504 0.00000 0.00 285 0.00 0.00 0.2590 329.90 34.53 0.3800 347.400 28.860 11.000 9.601 1.397 11.242 9.759 1.484
WS7MET_125 2016-09-30 02:20:00 125 30483.0 8.450 8.620 8.710 8.780 8.660 86.800 85.900 6.378 6.551 0.00 0.00 14.670 14.630 13.850 12.530 12.580 8.550 8.650 8.740 8.860 8.710 6.473 6.666 0.00 0.00 0.3140 0.6000 8.350 8.600 8.680 8.690 8.590 6.292 6.462 0.00000 0.00 252 0.00 0.00 0.1680 333.50 15.25 0.3800 332.500 24.470 11.060 9.598 1.460 11.310 9.713 1.595
WS7MET_125 2016-09-30 02:15:00 125 30483.0 8.560 8.710 8.800 8.880 8.740 86.500 85.600 6.443 6.607 0.00 0.00 14.680 14.630 13.850 12.540 12.580 8.620 8.770 8.850 9.000 8.780 6.585 6.741 0.00 0.00 0.2740 0.4000 8.420 8.660 8.750 8.760 8.680 6.250 6.494 0.00000 0.00 246 0.00 0.00 0.1590 342.50 8.76 0.3050 2.142 6.982 11.143 9.641 1.504 11.387 9.751 1.640
WS7MET_125 2016-09-30 02:10:00 125 30483.0 8.620 8.820 8.900 8.970 8.870 86.500 85.500 6.505 6.678 0.00 0.00 14.690 14.640 13.850 12.530 12.590 8.730 8.840 8.930 9.070 8.930 6.636 6.749 0.00 0.00 0.3530 0.5000 8.520 8.780 8.860 8.900 8.770 6.412 6.619 0.00000 0.00 286 0.00 0.00 0.2270 327.60 7.70 0.3950 337.000 8.690 11.188 9.683 1.510 11.457 9.799 1.661
WS7MET_125 2016-09-30 02:05:00 125 30483.0 8.680 8.890 8.990 9.070 8.940 86.400 85.300 6.550 6.740 0.00 0.00 14.690 14.640 13.850 12.530 12.590 8.760 8.940 9.030 9.200 8.990 6.674 6.915 0.00 0.00 0.4310 0.5000 8.590 8.850 8.940 9.000 8.850 6.431 6.614 0.00000 0.00 283 0.00 0.00 0.3120 343.80 4.85 0.3750 357.900 5.714 11.234 9.713 1.528 11.534 9.841 1.696
WS7MET_125 2016-09-30 02:00:00 125 30483.0 8.750 8.980 9.110 9.160 9.060 86.700 85.100 6.661 6.794 0.00 0.00 14.700 14.650 13.850 12.530 12.590 8.860 9.010 9.160 9.310 9.200 6.860 7.125 0.00 0.00 0.5360 0.6000 8.660 8.940 9.040 9.070 8.970 6.447 6.634 0.00000 0.00 248 0.00 0.00 0.4080 332.40 1.88 0.5050 347.400 3.099 11.287 9.787 1.501 11.604 9.877 1.729
WS7MET_125 2016-09-30 01:55:00 125 30483.0 8.800 9.050 9.150 9.180 9.190 86.500 85.200 6.681 6.825 0.00 0.00 14.710 14.650 13.850 12.540 12.590 8.860 9.070 9.160 9.270 9.220 6.842 7.016 0.00 0.00 0.4180 0.6000 8.720 9.010 9.140 9.100 9.160 6.511 6.677 0.00000 0.00 520 0.00 0.00 0.2630 337.10 1.00 0.4000 344.300 10.870 11.326 9.801 1.529 11.620 9.898 1.720
WS7MET_125 2016-09-30 01:50:00 125 30483.0 8.820 9.040 9.120 9.100 9.170 86.100 84.800 6.625 6.677 0.00 0.00 14.720 14.650 13.850 12.540 12.590 8.900 9.070 9.150 9.130 9.260 6.744 6.753 0.00 0.00 0.3530 0.4000 8.720 9.030 9.100 9.030 9.080 6.472 6.542 0.00000 0.00 235 0.00 0.00 0.2590 336.90 4.38 0.3550 356.500 6.019 11.341 9.763 1.576 11.558 9.798 1.757
WS7MET_125 2016-09-30 01:45:00 125 30483.0 8.810 9.040 9.110 9.130 9.080 85.800 84.500 6.567 6.660 0.00 0.00 14.730 14.650 13.850 12.530 12.590 8.900 9.050 9.120 9.200 9.120 6.934 6.758 0.00 0.00 0.5880 0.7000 8.730 9.020 9.090 9.070 9.030 6.351 6.592 0.00000 0.00 242 0.00 0.00 0.3640 329.30 0.56 0.4800 346.100 6.721 11.333 9.724 1.609 11.581 9.786 1.795
WS7MET_125 2016-09-30 01:40:00 125 30483.0 8.810 9.020 9.100 9.150 9.100 86.700 85.300 6.715 6.826 0.00 0.00 14.740 14.650 13.850 12.530 12.590 8.930 9.030 9.120 9.310 9.130 6.930 7.127 0.00 0.00 0.6930 0.9000 8.730 9.000 9.080 9.070 9.040 6.519 6.652 0.00000 0.00 275 0.00 0.00 0.4660 337.20 5.85 0.5600 349.000 5.372 11.333 9.824 1.507 11.597 9.899 1.705
WS7MET_125 2016-09-30 01:35:00 125 30483.0 8.850 9.050 9.150 9.210 9.120 87.400 86.100 6.880 7.013 0.00 0.00 14.750 14.650 13.850 12.540 12.590 8.930 9.080 9.170 9.370 9.160 6.974 7.175 0.00 0.00 0.4700 0.6000 8.790 9.020 9.100 9.140 9.050 6.788 6.906 0.00000 0.00 237 0.00 0.00 0.3070 343.20 3.19 0.3450 356.800 5.750 11.364 9.936 1.432 11.644 10.027 1.618
WS7MET_125 2016-09-30 01:30:00 125 30483.0 8.910 9.120 9.210 9.250 9.170 87.300 86.400 6.929 7.106 0.00 0.00 14.750 14.650 13.850 12.530 12.590 9.000 9.150 9.240 9.370 9.240 7.091 7.318 0.00 0.00 0.5550 0.6000 8.830 9.070 9.170 9.170 9.090 6.758 6.979 0.00000 0.00 245 0.00 0.00 0.2080 349.30 1.76 0.3500 359.100 10.530 11.410 9.969 1.449 11.675 10.091 1.588
WS7MET_125 2016-09-30 01:25:00 125 30483.0 8.920 9.130 9.230 9.240 9.250 88.300 86.900 7.092 7.176 0.00 0.00 14.760 14.650 13.850 12.530 12.590 9.170 9.160 9.250 9.410 9.270 7.349 7.368 0.00 0.00 0.4570 0.6000 8.760 9.090 9.170 9.130 9.210 6.944 7.069 0.00000 0.00 284 0.00 0.00 0.2650 334.40 6.46 0.3600 337.300 9.810 11.418 10.081 1.336 11.667 10.140 1.528
WS7MET_125 2016-09-30 01:20:00 125 30483.0 8.870 9.070 9.160 9.210 9.140 88.000 87.000 6.994 7.158 0.00 0.00 14.770 14.650 13.850 12.530 12.590 9.100 9.090 9.170 9.300 9.200 7.180 7.250 0.00 0.00 0.3790 0.6000 8.690 9.040 9.130 9.100 9.100 6.855 7.049 0.00000 0.00 242 0.00 0.00 0.1550 338.90 20.97 0.3250 334.300 34.340 11.379 10.014 1.366 11.644 10.127 1.514
WS7MET_125 2016-09-30 01:15:00 125 30483.0 8.920 9.100 9.190 9.290 9.150 87.600 86.800 6.980 7.204 0.00 0.00 14.780 14.650 13.850 12.530 12.590 9.140 9.160 9.240 9.440 9.280 7.181 7.339 0.00 0.00 0.2870 0.6000 8.790 9.040 9.130 9.200 9.040 6.894 7.079 0.00000 0.00 248 0.00 0.00 0.1030 322.90 21.38 0.2850 319.800 33.330 11.418 10.004 1.416 11.707 10.159 1.545
WS7MET_125 2016-09-30 01:10:00 125 30483.0 8.980 9.190 9.260 9.330 9.270 87.700 86.700 7.061 7.242 0.00 0.00 14.780 14.650 13.850 12.530 12.600 9.100 9.220 9.290 9.410 9.300 7.182 7.308 0.00 0.00 0.2870 0.5000 8.830 9.150 9.230 9.270 9.240 6.885 7.166 0.00000 0.00 292 0.00 0.00 0.0590 358.80 2.67 0.2750 19.510 21.010 11.464 10.060 1.410 11.738 10.186 1.561
WS7MET_125 2016-09-30 01:05:00 125 30483.0 9.100 9.260 9.350 9.440 9.290 88.100 86.500 7.237 7.308 0.00 0.00 14.790 14.650 13.850 12.530 12.600 9.370 9.280 9.380 9.540 9.380 7.597 7.568 0.00 0.00 0.3460 0.5000 8.900 9.220 9.300 9.340 9.190 6.968 7.112 0.00000 0.00 242 0.00 0.00 0.2660 340.60 7.93 0.3350 6.335 10.650 11.558 10.182 1.375 11.826 10.232 1.596
WS7MET_125 2016-09-30 01:00:00 125 30483.0 9.190 9.320 9.430 9.490 9.390 87.400 86.400 7.209 7.341 0.00 0.00 14.800 14.650 13.840 12.530 12.590 9.340 9.350 9.460 9.650 9.440 7.389 7.444 0.00 0.00 0.3720 0.6000 9.000 9.280 9.380 9.410 9.340 7.061 7.242 0.00000 0.00 252 0.00 0.00 0.2700 335.80 10.28 0.4000 344.600 12.290 11.628 10.163 1.465 11.865 10.255 1.614
WS7MET_125 2016-09-30 00:55:00 125 30483.0 9.290 9.390 9.490 9.580 9.430 87.100 86.300 7.273 7.412 0.00 0.00 14.800 14.650 13.850 12.540 12.590 9.440 9.450 9.540 9.680 9.460 7.438 7.559 0.00 0.00 0.3920 0.5000 9.100 9.340 9.460 9.510 9.400 7.134 7.343 0.00000 0.00 512 0.00 0.00 0.2030 354.40 0.04 0.2700 11.910 10.780 11.707 10.207 1.510 11.937 10.305 1.635
WS7MET_125 2016-09-30 00:50:00 125 30483.0 9.330 9.540 9.630 9.690 9.550 87.400 86.100 7.358 7.482 0.00 0.00 14.820 14.650 13.840 12.540 12.600 9.480 9.590 9.680 9.780 9.670 7.508 7.688 0.00 0.00 0.3070 0.4000 9.270 9.450 9.550 9.580 9.410 7.190 7.249 0.00000 0.00 245 0.00 0.00 0.0710 337.40 8.83 0.2950 7.377 18.500 11.738 10.267 1.479 12.026 10.354 1.672
WS7MET_125 2016-09-30 00:45:00 125 30483.0 9.350 9.590 9.670 9.680 9.700 87.700 86.300 7.418 7.515 0.00 0.00 14.820 14.650 13.850 12.530 12.600 9.510 9.610 9.690 9.750 9.760 7.532 7.667 0.00 0.00 0.4180 0.6000 9.270 9.550 9.630 9.610 9.640 7.303 7.409 0.00000 0.00 276 0.00 0.00 0.2390 329.90 10.40 0.4000 341.000 12.040 11.754 10.309 1.446 12.018 10.378 1.646
WS7MET_125 2016-09-30 00:40:00 125 30483.0 9.370 9.580 9.670 9.690 9.610 86.900 85.800 7.312 7.425 0.00 0.00 14.830 14.650 13.860 12.540 12.600 9.470 9.610 9.710 9.780 9.730 7.572 7.641 0.00 0.00 0.3200 0.5000 9.240 9.550 9.620 9.610 9.500 7.062 7.291 0.00000 0.00 234 0.00 0.00 0.1850 331.60 14.59 0.3400 345.600 9.540 11.770 10.235 1.542 12.026 10.314 1.708
WS7MET_125 2016-09-30 00:35:00 125 30483.0 9.340 9.610 9.690 9.690 9.740 87.900 86.700 7.440 7.590 0.00 0.00 14.840 14.650 13.850 12.540 12.600 9.480 9.620 9.710 9.750 9.780 7.596 7.751 0.00 0.00 0.3400 0.6000 9.270 9.570 9.640 9.580 9.710 7.331 7.425 0.00000 0.00 250 0.00 0.00 0.2480 312.40 4.07 0.4150 330.200 7.545 11.746 10.325 1.421 12.026 10.431 1.599
WS7MET_125 2016-09-30 00:30:00 125 30483.0 9.280 9.530 9.610 9.600 9.630 86.800 85.500 7.198 7.300 0.00 0.00 14.840 14.660 13.840 12.540 12.600 9.440 9.570 9.640 9.680 9.690 7.328 7.448 0.00 0.00 0.4570 0.6000 9.170 9.490 9.580 9.510 9.580 7.035 7.186 0.00000 0.00 594 0.00 0.00 0.2200 314.30 4.95 0.3950 324.900 10.380 11.699 10.155 1.544 11.953 10.226 1.733
WS7MET_125 2016-09-30 00:25:00 125 30483.0 9.230 9.480 9.560 9.570 9.550 86.200 84.500 7.049 7.099 0.00 0.00 14.850 14.660 13.840 12.540 12.600 9.310 9.500 9.580 9.680 9.600 7.268 7.199 0.00 0.00 0.4120 0.6000 9.100 9.470 9.540 9.480 9.500 6.832 6.957 0.00000 0.00 245 0.00 0.00 0.2550 318.90 0.57 0.4150 336.700 12.830 11.659 10.052 1.609 11.929 10.086 1.849
WS7MET_125 2016-09-30 00:20:00 125 30483.0 9.160 9.450 9.550 9.560 9.580 85.900 84.300 6.922 7.058 0.00 0.00 14.870 14.640 13.850 12.540 12.600 9.340 9.470 9.560 9.650 9.610 7.073 7.156 0.00 0.00 0.4440 0.7000 9.070 9.430 9.530 9.480 9.520 6.749 6.942 0.00000 0.00 240 0.00 0.00 0.2180 322.80 12.54 0.4600 333.300 16.500 11.604 9.964 1.636 11.921 10.058 1.872
WS7MET_125 2016-09-30 00:15:00 125 30483.0 9.110 9.370 9.460 9.470 9.540 87.000 85.400 7.065 7.147 0.00 0.00 14.870 14.650 13.850 12.540 12.600 9.240 9.430 9.520 9.540 9.640 7.316 7.288 0.00 0.00 0.4570 0.5000 9.000 9.330 9.420 9.410 9.440 6.857 7.049 0.00000 0.00 242 0.00 0.00 0.2710 341.40 2.68 0.3250 353.700 8.950 11.565 10.063 1.504 11.849 10.120 1.730
WS7MET_125 2016-09-30 00:10:00 125 30483.0 9.090 9.290 9.380 9.380 9.390 87.900 86.000 7.201 7.168 0.00 0.00 14.870 14.650 13.840 12.540 12.610 9.310 9.330 9.420 9.480 9.460 7.440 7.340 0.00 0.00 0.4570 0.6000 8.960 9.270 9.360 9.300 9.340 7.067 7.078 0.00000 0.00 250 0.00 0.00 0.3800 334.60 2.39 0.4650 345.700 8.630 11.550 10.157 1.398 11.778 10.134 1.649
WS7MET_125 2016-09-30 00:05:00 125 30483.0 9.000 9.280 9.360 9.370 9.360 87.300 86.100 7.008 7.183 0.00 0.00 14.880 14.650 13.840 12.540 12.620 9.170 9.290 9.360 9.440 9.420 7.190 7.295 0.00 0.00 0.4180 0.6000 8.900 9.270 9.340 9.300 9.300 6.888 7.088 0.00000 0.00 244 0.00 0.00 0.3510 339.50 2.11 0.4500 347.400 6.717 11.480 10.023 1.458 11.770 10.145 1.636
WS7MET_125 2016-09-30 00:00:00 125 30483.0 8.910 9.230 9.320 9.340 9.380 87.800 86.400 7.004 7.194 0.00 0.00 14.890 14.650 13.840 12.540 12.620 8.960 9.270 9.340 9.440 9.440 7.103 7.300 0.00 0.00 0.5290 0.5000 8.790 9.170 9.280 9.240 9.300 6.895 7.117 0.00000 0.00 248 0.00 0.00 0.4000 351.00 7.01 0.4450 0.815 6.678 11.410 10.021 1.392 11.746 10.152 1.597
WS7MET_125 2016-09-29 23:55:00 125 30483.0 8.900 9.170 9.270 9.320 9.300 88.400 87.000 7.089 7.268 0.00 0.00 14.900 14.650 13.840 12.540 12.620 9.030 9.170 9.280 9.370 9.300 7.238 7.353 0.00 0.00 0.4700 0.5000 8.790 9.150 9.250 9.270 9.280 6.973 7.154 0.00000 0.00 275 0.00 0.00 0.4040 347.60 1.38 0.4100 0.256 6.360 11.402 10.079 1.323 11.730 10.204 1.525
WS7MET_125 2016-09-29 23:50:00 125 30483.0 8.890 9.130 9.230 9.260 9.260 88.300 87.000 7.071 7.220 0.00 0.00 14.900 14.650 13.840 12.540 12.620 9.000 9.150 9.250 9.340 9.290 7.231 7.307 0.00 0.00 0.5550 0.7000 8.790 9.110 9.210 9.200 9.200 6.918 7.144 0.00000 0.00 280 0.00 0.00 0.4220 343.10 5.99 0.4950 356.100 8.360 11.395 10.067 1.333 11.683 10.170 1.519
WS7MET_125 2016-09-29 23:45:00 125 30483.0 8.940 9.160 9.250 9.290 9.250 88.100 87.300 7.083 7.290 0.00 0.00 14.910 14.650 13.840 12.540 12.620 9.000 9.170 9.260 9.340 9.340 7.210 7.375 0.00 0.00 0.5360 0.7000 8.790 9.130 9.210 9.240 9.180 6.912 7.183 0.00000 0.00 241 0.00 0.00 0.4210 350.30 2.89 0.4650 4.611 6.750 11.433 10.075 1.361 11.707 10.219 1.487
WS7MET_125 2016-09-29 23:40:00 125 30483.0 9.010 9.200 9.280 9.340 9.250 89.100 88.200 7.322 7.491 0.00 0.00 14.920 14.650 13.840 12.540 12.630 9.140 9.250 9.340 9.440 9.340 7.485 7.631 0.00 0.00 0.4900 0.6000 8.900 9.160 9.240 9.240 9.170 7.142 7.331 0.00000 0.00 251 0.00 0.00 0.2950 4.26 7.77 0.4150 8.190 16.970 11.488 10.242 1.252 11.746 10.361 1.386
WS7MET_125 2016-09-29 23:35:00 125 30483.0 9.060 9.300 9.380 9.410 9.340 89.600 88.800 7.452 7.663 0.00 0.00 14.930 14.650 13.850 12.540 12.630 9.140 9.350 9.420 9.510 9.420 7.552 7.856 0.00 0.00 0.3920 0.5000 8.960 9.250 9.340 9.300 9.290 7.350 7.541 0.00000 0.00 438 0.00 0.00 0.2450 331.40 8.70 0.3550 346.900 21.710 11.526 10.333 1.199 11.802 10.483 1.322
WS7MET_125 2016-09-29 23:30:00 125 30483.0 9.110 9.360 9.430 9.420 9.430 90.300 89.600 7.616 7.799 0.00 0.00 14.930 14.650 13.850 12.540 12.630 9.200 9.370 9.440 9.510 9.500 7.740 7.900 0.00 0.00 0.5160 0.6000 9.030 9.340 9.410 9.340 9.330 7.507 7.726 0.00000 0.00 327 0.00 0.00 0.3840 345.50 11.67 0.4550 357.200 9.540 11.565 10.450 1.122 11.810 10.581 1.228
WS7MET_125 2016-09-29 23:25:00 125 30483.0 9.130 9.370 9.440 9.480 9.420 90.700 89.700 7.689 7.884 0.00 0.00 14.940 14.650 13.850 12.540 12.630 9.230 9.380 9.460 9.580 9.480 7.822 8.000 0.00 0.00 0.3920 0.6000 9.030 9.350 9.420 9.370 9.340 7.584 7.714 0.00000 0.00 245 0.00 0.00 0.3000 334.80 13.50 0.4150 351.600 6.775 11.581 10.502 1.077 11.857 10.643 1.221
WS7MET_125 2016-09-29 23:20:00 125 30483.0 9.160 9.400 9.500 9.530 9.450 90.500 89.500 7.697 7.900 0.00 0.00 14.940 14.650 13.850 12.540 12.630 9.200 9.410 9.520 9.610 9.520 7.776 7.992 0.00 0.00 0.3400 0.6000 9.060 9.360 9.450 9.440 9.360 7.576 7.806 0.00000 0.00 239 0.00 0.00 0.2520 332.30 10.70 0.4300 340.800 8.440 11.604 10.508 1.102 11.897 10.654 1.249
WS7MET_125 2016-09-29 23:15:00 125 30483.0 9.180 9.420 9.520 9.560 9.520 90.500 89.500 7.717 7.928 0.00 0.00 14.950 14.650 13.850 12.540 12.630 9.230 9.430 9.530 9.640 9.570 7.783 8.060 0.00 0.00 0.5420 0.6000 9.100 9.410 9.490 9.470 9.460 7.576 7.830 0.00000 0.00 245 0.00 0.00 0.3520 342.00 3.18 0.3900 356.200 8.260 11.620 10.522 1.104 11.921 10.675 1.252
WS7MET_125 2016-09-29 23:10:00 125 30483.0 9.150 9.430 9.520 9.520 9.520 90.700 89.500 7.722 7.886 0.00 0.00 14.960 14.650 13.850 12.540 12.640 9.230 9.430 9.520 9.580 9.570 7.827 7.976 0.00 0.00 0.4900 0.7000 9.030 9.410 9.500 9.470 9.470 7.587 7.797 0.00000 0.00 244 0.00 0.00 0.3800 335.50 4.85 0.4600 348.400 6.951 11.597 10.526 1.078 11.889 10.644 1.248
WS7MET_125 2016-09-29 23:05:00 125 30483.0 9.100 9.390 9.480 9.490 9.510 91.400 90.100 7.778 7.949 0.00 0.00 14.970 14.650 13.850 12.540 12.640 9.170 9.410 9.500 9.580 9.560 7.875 8.040 0.00 0.00 0.6270 0.7000 9.030 9.370 9.460 9.410 9.460 7.691 7.881 0.00000 0.00 213 0.00 0.00 0.4460 350.40 5.56 0.5100 3.964 6.878 11.558 10.566 0.994 11.865 10.690 1.175
WS7MET_125 2016-09-29 23:00:00 125 30483.0 9.110 9.380 9.480 9.480 9.520 91.600 90.400 7.823 7.999 0.00 0.00 14.970 14.650 13.850 12.540 12.640 9.200 9.390 9.480 9.540 9.560 7.921 8.080 0.00 0.00 0.6530 0.9000 9.030 9.370 9.460 9.370 9.480 7.704 7.882 0.00000 0.00 245 0.00 0.00 0.3420 337.50 15.49 0.5050 344.800 17.320 11.565 10.598 0.971 11.857 10.726 1.138
WS7MET_125 2016-09-29 22:55:00 125 30483.0 9.040 9.320 9.410 9.380 9.450 91.700 91.000 7.771 7.989 0.00 0.00 14.970 14.650 13.850 12.540 12.650 9.130 9.370 9.460 9.470 9.540 7.880 8.080 0.00 0.00 0.4900 0.7000 8.960 9.300 9.380 9.300 9.360 7.660 7.910 0.00000 0.00 278 0.00 0.00 0.4310 335.50 5.46 0.5400 349.600 6.315 11.511 10.561 0.955 11.778 10.719 1.060
WS7MET_125 2016-09-29 22:50:00 125 30483.0 8.980 9.250 9.330 9.310 9.380 91.900 91.100 7.746 7.934 0.00 0.00 14.980 14.650 13.850 12.540 12.650 9.100 9.310 9.380 9.370 9.460 7.871 7.999 0.00 0.00 0.4380 0.6000 8.890 9.200 9.290 9.230 9.290 7.635 7.848 0.00000 0.00 248 0.00 0.00 0.3680 335.90 9.02 0.4900 341.200 4.695 11.464 10.543 0.929 11.722 10.679 1.043
WS7MET_125 2016-09-29 22:45:00 125 30483.0 8.980 9.230 9.310 9.340 9.280 91.500 90.800 7.677 7.910 0.00 0.00 14.990 14.650 13.850 12.540 12.650 9.060 9.280 9.350 9.400 9.390 7.755 7.999 0.00 0.00 0.4770 0.6000 8.890 9.200 9.290 9.270 9.210 7.587 7.847 0.00000 0.00 250 0.00 0.00 0.3520 339.40 3.62 0.4600 355.500 6.177 11.464 10.493 0.974 11.746 10.661 1.081
WS7MET_125 2016-09-29 22:40:00 125 30483.0 9.000 9.250 9.330 9.340 9.350 91.700 91.100 7.723 7.967 0.00 0.00 14.990 14.650 13.850 12.540 12.650 9.060 9.260 9.350 9.400 9.420 7.820 8.090 0.00 0.00 0.5100 0.7000 8.930 9.240 9.310 9.270 9.290 7.636 7.875 0.00000 0.00 237 0.00 0.00 0.4080 338.00 4.61 0.5100 350.200 7.931 11.480 10.526 0.953 11.746 10.703 1.045
WS7MET_125 2016-09-29 22:35:00 125 30483.0 9.030 9.270 9.340 9.380 9.310 91.300 90.600 7.697 7.930 0.00 0.00 15.000 14.650 13.850 12.540 12.660 9.100 9.300 9.380 9.470 9.370 7.778 7.990 0.00 0.00 0.4180 0.5000 8.930 9.260 9.310 9.270 9.270 7.598 7.866 0.00000 0.00 276 0.00 0.00 0.3830 344.50 0.15 0.4500 358.900 7.619 11.503 10.508 1.001 11.778 10.676 1.107
WS7MET_125 2016-09-29 22:30:00 125 30483.0 9.080 9.330 9.420 9.490 9.420 91.400 90.500 7.755 8.020 0.00 0.00 15.010 14.640 13.850 12.540 12.660 9.200 9.340 9.440 9.540 9.510 7.869 8.080 0.00 0.00 0.5290 0.6000 8.960 9.320 9.390 9.400 9.340 7.622 7.928 0.00000 0.00 243 0.00 0.00 0.4570 344.60 1.34 0.5200 352.500 5.700 11.542 10.549 0.993 11.865 10.742 1.127
WS7MET_125 2016-09-29 22:25:00 125 30483.0 9.110 9.340 9.430 9.500 9.450 91.100 90.300 7.735 8.000 0.00 0.00 15.020 14.640 13.850 12.540 12.660 9.170 9.350 9.450 9.610 9.530 7.824 8.120 0.00 0.00 0.4120 0.5000 9.030 9.330 9.410 9.440 9.360 7.624 7.923 0.00000 0.00 247 0.00 0.00 0.3230 345.70 1.20 0.3950 359.700 6.116 11.565 10.535 1.029 11.873 10.727 1.152
WS7MET_125 2016-09-29 22:20:00 125 30483.0 9.210 9.410 9.520 9.630 9.400 90.800 89.900 7.790 8.070 0.00 0.00 15.020 14.630 13.850 12.540 12.660 9.340 9.490 9.610 9.710 9.610 7.927 8.180 0.00 0.00 0.5230 0.6000 9.100 9.330 9.410 9.510 9.310 7.680 7.980 0.00000 0.00 424 0.00 0.00 0.4050 343.00 2.30 0.4550 355.800 6.892 11.644 10.575 1.071 11.978 10.778 1.210
WS7MET_125 2016-09-29 22:15:00 125 30483.0 9.340 9.530 9.620 9.690 9.610 90.900 90.200 7.939 8.170 0.00 0.00 15.020 14.630 13.840 12.540 12.660 9.440 9.570 9.670 9.810 9.650 8.020 8.260 0.00 0.00 0.5810 0.6000 9.230 9.490 9.600 9.640 9.530 7.866 8.070 0.00000 0.00 282 0.00 0.00 0.4470 339.30 1.29 0.4550 351.200 5.125 11.746 10.683 1.069 12.026 10.852 1.179
WS7MET_125 2016-09-29 22:10:00 125 30483.0 9.380 9.600 9.690 9.730 9.680 90.600 89.800 7.920 8.140 0.00 0.00 15.030 14.630 13.840 12.540 12.670 9.470 9.600 9.690 9.780 9.710 8.020 8.200 0.00 0.00 0.3660 0.5000 9.200 9.580 9.670 9.680 9.650 7.770 8.080 0.00000 0.00 240 0.00 0.00 0.2820 337.60 3.60 0.4050 346.300 9.380 11.778 10.669 1.107 12.058 10.830 1.230
WS7MET_125 2016-09-29 22:05:00 125 30483.0 9.430 9.610 9.730 9.810 9.670 90.300 89.400 7.925 8.150 0.00 0.00 15.030 14.630 13.850 12.540 12.670 9.570 9.640 9.770 9.880 9.690 8.070 8.210 0.00 0.00 0.4050 0.6000 9.330 9.590 9.690 9.710 9.630 7.816 8.060 0.00000 0.00 244 0.00 0.00 0.3190 342.60 0.98 0.4550 354.200 6.441 11.818 10.672 1.146 12.123 10.837 1.285
WS7MET_125 2016-09-29 22:00:00 125 30483.0 9.560 9.730 9.840 9.940 9.760 90.000 89.300 8.010 8.270 0.00 0.00 15.030 14.630 13.850 12.540 12.680 9.710 9.790 9.890 10.050 9.810 8.140 8.380 0.00 0.00 0.4770 0.6000 9.470 9.650 9.770 9.810 9.670 7.933 8.100 0.00000 0.00 551 0.00 0.00 0.3550 340.30 7.36 0.4450 354.800 10.640 11.921 10.734 1.192 12.229 10.926 1.309
WS7MET_125 2016-09-29 21:55:00 125 30483.0 9.670 9.870 9.970 10.030 9.900 89.700 88.800 8.060 8.280 0.00 0.00 15.040 14.630 13.850 12.540 12.680 9.780 9.950 10.050 10.090 10.040 8.200 8.350 0.00 0.00 0.3920 0.5000 9.540 9.800 9.900 9.920 9.810 7.923 8.220 0.00000 0.00 427 0.00 0.00 0.3020 338.70 8.29 0.3550 353.100 11.320 12.010 10.771 1.237 12.303 10.933 1.378
WS7MET_125 2016-09-29 21:50:00 125 30483.0 9.720 9.970 10.050 10.070 10.080 89.800 89.000 8.130 8.360 0.00 0.00 15.040 14.630 13.850 12.520 12.680 9.850 9.980 10.060 10.150 10.110 8.250 8.430 0.00 0.00 0.4120 0.6000 9.640 9.950 10.040 9.950 10.050 8.030 8.230 0.00000 0.00 245 0.00 0.00 0.3140 337.30 3.98 0.4100 349.400 9.510 12.050 10.822 1.229 12.336 10.993 1.357
WS7MET_125 2016-09-29 21:45:00 125 30483.0 9.730 9.980 10.070 10.100 10.060 89.900 88.900 8.150 8.360 0.00 0.00 15.050 14.630 13.850 12.530 12.690 9.810 10.000 10.100 10.220 10.130 8.230 8.510 0.00 0.00 0.3720 0.5000 9.680 9.970 10.040 10.020 10.010 8.070 8.260 0.00000 0.00 273 0.00 0.00 0.2900 339.80 10.54 0.4000 356.500 11.120 12.058 10.837 1.218 12.361 10.993 1.372
WS7MET_125 2016-09-29 21:40:00 125 30483.0 9.720 10.000 10.090 10.120 10.090 89.600 88.600 8.100 8.330 0.00 0.00 15.060 14.630 13.850 12.530 12.690 9.780 10.010 10.100 10.150 10.130 8.220 8.410 0.00 0.00 0.3660 0.5000 9.610 9.970 10.080 10.050 10.020 7.979 8.240 0.00000 0.00 507 0.00 0.00 0.1690 334.60 6.25 0.3450 349.100 13.450 12.050 10.800 1.253 12.378 10.970 1.411
WS7MET_125 2016-09-29 21:35:00 125 30483.0 9.740 10.010 10.090 10.070 10.120 89.900 88.700 8.170 8.310 0.00 0.00 15.060 14.620 13.850 12.530 12.690 9.810 10.010 10.100 10.150 10.150 8.280 8.380 0.00 0.00 0.2810 0.3000 9.640 10.000 10.080 10.020 10.050 8.070 8.240 0.00000 0.00 316 0.00 0.00 0.1560 351.30 1.21 0.2400 4.035 13.910 12.066 10.852 1.219 12.336 10.956 1.394
WS7MET_125 2016-09-29 21:30:00 125 30483.0 9.740 10.010 10.100 10.120 10.120 90.000 88.700 8.180 8.340 0.00 0.00 15.060 14.620 13.840 12.530 12.700 9.810 10.010 10.110 10.220 10.170 8.290 8.470 0.00 0.00 0.4440 0.4000 9.610 9.990 10.080 10.050 10.060 8.010 8.250 0.00000 0.00 481 0.00 0.00 0.3280 347.30 1.50 0.3700 0.694 2.965 12.066 10.859 1.207 12.378 10.978 1.399
WS7MET_125 2016-09-29 21:25:00 125 30483.0 9.720 10.000 10.100 10.120 10.090 90.000 88.800 8.160 8.370 0.00 0.00 15.070 14.620 13.840 12.530 12.700 9.880 10.010 10.100 10.190 10.120 8.290 8.420 0.00 0.00 0.4380 0.6000 9.610 9.990 10.090 10.050 10.060 8.070 8.310 0.00000 0.00 247 0.00 0.00 0.3260 348.70 2.24 0.4050 354.700 4.512 12.050 10.844 1.205 12.378 11.000 1.386
WS7MET_125 2016-09-29 21:20:00 125 30483.0 9.730 10.020 10.100 10.090 10.130 89.900 88.900 8.160 8.340 0.00 0.00 15.060 14.620 13.840 12.530 12.700 9.810 10.030 10.110 10.150 10.160 8.260 8.440 0.00 0.00 0.3330 0.5000 9.640 10.010 10.090 10.020 10.080 8.060 8.290 0.00000 0.00 277 0.00 0.00 0.2850 352.20 1.20 0.3300 1.993 6.737 12.058 10.844 1.218 12.353 10.978 1.371
WS7MET_125 2016-09-29 21:15:00 125 30483.0 9.720 10.010 10.080 10.090 10.070 89.700 88.800 8.130 8.330 0.00 0.00 15.060 14.610 13.840 12.530 12.700 9.780 10.010 10.100 10.190 10.160 8.200 8.460 0.00 0.00 0.4970 0.6000 9.640 9.990 10.060 9.980 9.980 8.030 8.230 0.00000 0.00 281 0.00 0.00 0.3970 349.80 5.04 0.4150 3.343 3.950 12.050 10.822 1.241 12.353 10.970 1.384
WS7MET_125 2016-09-29 21:10:00 125 30483.0 9.700 10.000 10.100 10.080 10.130 89.600 88.600 8.070 8.290 0.00 0.00 15.070 14.610 13.840 12.540 12.710 9.850 10.010 10.110 10.190 10.180 8.230 8.420 0.00 0.00 0.3460 0.4000 9.610 9.990 10.070 10.020 10.080 7.956 8.180 0.00000 0.00 512 0.00 0.00 0.2610 344.50 0.68 0.3050 358.600 3.957 12.034 10.778 1.252 12.345 10.941 1.407
WS7MET_125 2016-09-29 21:05:00 125 30483.0 9.670 9.960 10.050 10.030 10.140 89.700 88.400 8.070 8.220 0.00 0.00 15.080 14.610 13.840 12.550 12.720 9.780 9.990 10.070 10.090 10.180 8.150 8.290 0.00 0.00 0.4120 0.6000 9.570 9.910 10.000 9.950 10.080 7.979 8.120 0.00000 0.00 242 0.00 0.00 0.2900 338.10 13.29 0.4050 352.300 15.050 12.010 10.778 1.237 12.303 10.889 1.427
WS7MET_125 2016-09-29 21:00:00 125 30483.0 9.650 9.910 9.990 10.010 10.050 89.400 88.400 8.000 8.180 0.00 0.00 15.080 14.610 13.840 12.540 12.720 9.740 9.910 10.000 10.090 10.100 8.100 8.240 0.00 0.00 0.5030 0.6000 9.570 9.890 9.990 9.910 10.020 7.878 8.080 0.00000 0.00 279 0.00 0.00 0.3600 4.55 5.03 0.4400 21.090 9.750 11.994 10.727 1.271 12.287 10.859 1.425
WS7MET_125 2016-09-29 20:55:00 125 30483.0 9.640 9.890 9.980 10.010 9.950 88.700 87.900 7.871 8.120 0.00 0.00 15.080 14.610 13.830 12.540 12.720 9.680 9.910 10.010 10.120 10.020 7.973 8.240 0.00 0.00 0.5100 0.6000 9.510 9.870 9.960 9.910 9.880 7.680 8.040 0.00000 0.00 476 0.00 0.00 0.4460 350.50 3.95 0.5300 7.568 5.211 11.986 10.633 1.354 12.287 10.815 1.487
WS7MET_125 2016-09-29 20:50:00 125 30483.0 9.660 9.910 10.020 10.070 10.050 88.500 87.600 7.860 8.110 0.00 0.00 15.080 14.600 13.830 12.540 12.720 9.740 9.930 10.040 10.120 10.120 7.939 8.210 0.00 0.00 0.5950 0.6000 9.570 9.890 10.000 9.980 9.960 7.753 7.980 0.00000 0.00 241 0.00 0.00 0.4880 343.90 0.83 0.5000 356.800 7.347 12.002 10.625 1.380 12.336 10.808 1.530
WS7MET_125 2016-09-29 20:45:00 125 30483.0 9.670 9.880 9.970 10.020 10.030 88.300 87.700 7.839 8.090 0.00 0.00 15.080 14.600 13.840 12.540 12.730 9.810 9.900 10.000 10.090 10.080 7.916 8.170 0.00 0.00 0.4900 0.6000 9.570 9.850 9.930 9.950 9.930 7.719 8.010 0.00000 0.00 594 0.00 0.00 0.3340 349.90 10.06 0.4400 358.900 16.910 12.010 10.610 1.405 12.295 10.793 1.512
WS7MET_125 2016-09-29 20:40:00 125 30483.0 9.730 9.890 9.980 10.100 9.900 87.500 87.200 7.772 8.070 0.00 0.00 15.080 14.600 13.830 12.530 12.730 9.880 9.970 10.050 10.220 9.940 7.925 8.150 0.00 0.00 0.6600 0.7000 9.570 9.850 9.930 10.020 9.880 7.634 7.979 0.00000 0.00 253 0.00 0.00 0.3600 341.20 20.97 0.4600 353.800 21.570 12.058 10.562 1.507 12.361 10.778 1.582
WS7MET_125 2016-09-29 20:35:00 125 30483.0 9.830 10.050 10.150 10.240 10.090 87.800 87.000 7.917 8.180 0.00 0.00 15.090 14.600 13.830 12.530 12.740 10.020 10.090 10.200 10.320 10.210 8.080 8.320 0.00 0.00 0.6010 0.7000 9.710 9.970 10.060 10.150 9.890 7.774 8.020 0.00000 0.00 247 0.00 0.00 0.4140 339.20 12.13 0.5150 353.100 15.330 12.140 10.667 1.481 12.478 10.859 1.622
WS7MET_125 2016-09-29 20:30:00 125 30483.0 9.910 10.100 10.200 10.280 10.200 88.000 87.300 8.030 8.270 0.00 0.00 15.090 14.600 13.830 12.530 12.740 10.090 10.110 10.220 10.320 10.250 8.210 8.390 0.00 0.00 0.5230 0.7000 9.710 10.090 10.180 10.190 10.170 7.854 8.140 0.00000 0.00 213 0.00 0.00 0.3650 348.30 5.21 0.4300 0.986 8.810 12.205 10.749 1.465 12.511 10.926 1.589
WS7MET_125 2016-09-29 20:25:00 125 30483.0 9.970 10.170 10.240 10.330 10.240 87.900 87.000 8.060 8.270 0.00 0.00 15.080 14.590 13.830 12.530 12.750 10.120 10.210 10.280 10.430 10.340 8.270 8.440 0.00 0.00 0.4570 0.6000 9.780 10.110 10.200 10.220 10.120 7.847 8.160 0.00000 0.00 281 0.00 0.00 0.3190 338.30 11.81 0.4450 353.400 15.860 12.254 10.771 1.483 12.553 10.926 1.632
WS7MET_125 2016-09-29 20:20:00 125 30483.0 9.960 10.190 10.270 10.370 10.230 87.800 87.000 8.040 8.310 0.00 0.00 15.080 14.590 13.830 12.530 12.740 10.120 10.210 10.310 10.460 10.330 8.190 8.460 0.00 0.00 0.5490 0.6000 9.850 10.170 10.250 10.290 10.180 7.966 8.210 0.00000 0.00 436 0.00 0.00 0.4430 339.10 12.15 0.5250 351.100 15.300 12.246 10.756 1.494 12.586 10.956 1.636
WS7MET_125 2016-09-29 20:15:00 125 30483.0 10.060 10.250 10.360 10.420 10.330 87.300 86.600 8.070 8.300 0.00 0.00 15.080 14.580 13.830 12.530 12.750 10.220 10.290 10.400 10.560 10.420 8.220 8.470 0.00 0.00 0.6010 0.7000 9.850 10.200 10.320 10.320 10.250 7.880 8.170 0.00000 0.00 244 0.00 0.00 0.5080 338.10 8.00 0.5800 356.000 7.541 12.328 10.778 1.566 12.629 10.948 1.692
WS7MET_125 2016-09-29 20:10:00 125 30483.0 10.150 10.310 10.410 10.490 10.370 86.400 85.700 7.983 8.210 0.00 0.00 15.080 14.580 13.830 12.530 12.760 10.290 10.370 10.450 10.600 10.410 8.110 8.320 0.00 0.00 0.6400 0.8000 9.950 10.280 10.390 10.390 10.340 7.874 8.100 0.00000 0.00 276 0.00 0.00 0.4670 333.80 6.99 0.5700 346.200 7.589 12.403 10.715 1.687 12.688 10.881 1.814
WS7MET_125 2016-09-29 20:05:00 125 30483.0 10.250 10.430 10.530 10.630 10.410 85.700 85.100 7.966 8.230 0.00 0.00 15.090 14.580 13.830 12.540 12.770 10.530 10.520 10.620 10.730 10.530 8.230 8.360 0.00 0.00 0.4640 0.5000 10.150 10.370 10.460 10.530 10.330 7.846 8.150 0.00000 0.00 552 0.00 0.00 0.3910 342.00 3.59 0.4750 356.500 8.870 12.486 10.702 1.785 12.807 10.896 1.908
WS7MET_125 2016-09-29 20:00:00 125 30483.0 10.370 10.570 10.670 10.730 10.640 86.000 85.200 8.130 8.350 0.00 0.00 15.080 14.580 13.830 12.540 12.770 10.600 10.610 10.680 10.800 10.700 8.310 8.450 0.00 0.00 0.5420 0.6000 10.220 10.530 10.620 10.670 10.560 8.010 8.190 0.00000 0.00 521 0.00 0.00 0.3830 333.70 3.66 0.4500 347.300 7.904 12.586 10.822 1.762 12.892 10.985 1.908
WS7MET_125 2016-09-29 19:55:00 125 30483.0 10.480 10.650 10.730 10.780 10.690 85.200 84.400 8.100 8.270 0.00 0.00 15.080 14.580 13.840 12.520 12.780 10.670 10.690 10.770 10.870 10.730 8.240 8.370 0.00 0.00 0.4180 0.6000 10.390 10.610 10.690 10.670 10.630 7.991 8.140 0.00000 0.00 391 0.00 0.00 0.3320 345.60 4.88 0.4250 359.000 8.810 12.679 10.800 1.877 12.935 10.926 2.018
WS7MET_125 2016-09-29 19:50:00 125 30483.0 10.540 10.740 10.830 10.850 10.770 85.200 84.300 8.160 8.320 0.00 0.00 15.080 14.580 13.840 12.530 12.780 10.700 10.790 10.870 10.900 10.850 8.450 8.450 0.00 0.00 0.5620 0.6000 10.390 10.690 10.780 10.770 10.720 8.010 8.180 0.00000 0.00 509 0.00 0.00 0.3270 354.70 7.91 0.4200 7.898 7.350 12.730 10.844 1.884 12.996 10.963 2.040
WS7MET_125 2016-09-29 19:45:00 125 30483.0 10.620 10.840 10.910 10.940 10.870 84.300 83.200 8.090 8.220 0.00 0.00 15.080 14.580 13.830 12.530 12.790 10.730 10.890 10.940 11.070 10.920 8.240 8.350 0.00 0.00 0.7450 1.0000 10.560 10.790 10.870 10.870 10.840 8.010 8.150 0.00000 0.00 510 0.00 0.00 0.3470 346.20 9.99 0.4700 358.900 14.150 12.798 10.793 2.009 13.074 10.889 2.196
WS7MET_125 2016-09-29 19:40:00 125 30483.0 10.680 10.940 11.000 11.030 11.010 85.000 82.900 8.270 8.250 0.00 0.00 15.080 14.580 13.830 12.530 12.800 10.770 10.950 11.020 11.110 11.080 8.420 8.360 0.00 0.00 0.6400 0.8000 10.560 10.890 10.960 10.940 10.880 8.150 8.140 0.00000 0.00 248 0.00 0.00 0.3340 354.80 14.14 0.4250 3.642 12.170 12.850 10.926 1.927 13.152 10.911 2.249
WS7MET_125 2016-09-29 19:35:00 125 30483.0 10.770 10.960 11.040 11.060 11.050 84.900 83.300 8.340 8.360 0.00 0.00 15.080 14.560 13.830 12.530 12.800 10.870 10.970 11.060 11.140 11.130 8.450 8.660 0.00 0.00 0.5360 0.8000 10.670 10.940 11.010 10.970 11.000 8.200 8.130 0.00000 0.00 211 0.00 0.00 0.2580 324.10 35.05 0.4150 347.200 35.790 12.927 10.978 1.952 13.179 10.993 2.201
WS7MET_125 2016-09-29 19:30:00 125 30483.0 10.800 10.990 11.070 11.100 11.050 85.400 84.700 8.450 8.630 0.00 0.00 15.080 14.560 13.840 12.530 12.810 10.970 11.010 11.090 11.180 11.080 8.660 8.740 0.00 0.00 0.5880 1.4000 10.670 10.970 11.060 11.010 11.000 8.290 8.510 0.00000 0.00 595 0.00 0.00 0.2930 303.70 23.23 0.5250 317.100 26.600 12.953 11.060 1.891 13.214 11.196 2.022
WS7MET_125 2016-09-29 19:25:00 125 30483.0 10.830 11.020 11.090 11.080 11.100 86.100 85.400 8.610 8.730 0.00 0.00 15.080 14.570 13.840 12.530 12.820 10.940 11.030 11.110 11.140 11.140 8.780 8.870 0.00 0.00 0.5100 0.6000 10.770 11.010 11.090 11.010 11.060 8.400 8.630 0.00000 0.00 245 0.00 0.00 0.2310 337.40 19.03 0.3400 351.500 27.700 12.979 11.181 1.804 13.196 11.272 1.927
WS7MET_125 2016-09-29 19:20:00 125 30483.0 10.830 11.030 11.090 11.090 11.080 86.300 85.800 8.630 8.810 0.00 0.00 15.070 14.560 13.840 12.530 12.820 10.900 11.050 11.120 11.180 11.160 8.770 8.970 0.00 0.00 0.5230 0.7000 10.730 11.010 11.070 11.010 11.000 8.440 8.650 0.00000 0.00 340 0.00 0.00 0.3380 328.20 12.23 0.4850 339.600 12.940 12.979 11.196 1.778 13.205 11.333 1.875
WS7MET_125 2016-09-29 19:15:00 125 30483.0 10.860 11.050 11.140 11.210 11.050 86.200 85.400 8.660 8.850 0.00 0.00 15.080 14.560 13.840 12.530 12.820 10.970 11.100 11.190 11.310 11.140 8.820 8.980 0.00 0.00 0.4700 0.6000 10.730 11.010 11.090 11.070 10.970 8.520 8.690 0.00000 0.00 245 0.00 0.00 0.3020 352.30 12.81 0.4200 12.020 18.630 13.004 11.219 1.795 13.310 11.364 1.943
WS7MET_125 2016-09-29 19:10:00 125 30483.0 10.930 11.140 11.240 11.320 11.160 86.200 85.300 8.720 8.960 0.00 0.00 15.080 14.560 13.830 12.540 12.830 11.070 11.190 11.290 11.420 11.260 8.860 9.110 0.00 0.00 0.5360 0.7000 10.800 11.100 11.190 11.210 11.100 8.610 8.840 0.00000 0.00 511 0.00 0.00 0.3220 331.90 7.64 0.4950 342.200 17.300 13.065 11.264 1.803 13.408 11.449 1.971
WS7MET_125 2016-09-29 19:05:00 125 30483.0 11.030 11.210 11.310 11.340 11.280 86.200 85.700 8.820 9.040 0.00 0.00 15.070 14.550 13.840 12.530 12.840 11.140 11.240 11.310 11.420 11.300 8.920 9.150 0.00 0.00 0.4180 0.6000 10.940 11.190 11.300 11.250 11.250 8.730 8.900 0.00000 0.00 280 0.00 0.00 0.3530 341.80 2.94 0.4600 354.400 6.094 13.152 11.341 1.815 13.426 11.511 1.920
WS7MET_125 2016-09-29 19:00:00 125 30483.0 11.040 11.260 11.340 11.360 11.320 85.500 85.000 8.720 8.940 0.00 0.00 15.060 14.550 13.840 12.530 12.850 11.140 11.280 11.370 11.450 11.400 8.900 9.040 0.00 0.00 0.3920 0.5000 10.900 11.240 11.310 11.280 11.260 8.580 8.850 0.00000 0.00 595 0.00 0.00 0.0800 338.90 2.66 0.3250 340.900 12.520 13.161 11.264 1.908 13.444 11.433 2.017
WS7MET_125 2016-09-29 18:55:00 125 30483.0 11.110 11.290 11.370 11.370 11.380 85.600 85.100 8.810 8.960 0.00 0.00 15.060 14.550 13.840 12.540 12.850 11.180 11.300 11.370 11.450 11.420 8.940 9.090 0.00 0.00 0.2740 0.4000 10.970 11.280 11.360 11.250 11.320 8.660 8.730 0.00000 0.00 378 0.00 0.00 0.2010 352.90 1.40 0.3000 6.290 17.910 13.222 11.333 1.904 13.452 11.449 2.004
WS7MET_125 2016-09-29 18:50:00 125 30483.0 11.140 11.330 11.400 11.410 11.380 85.300 84.700 8.780 8.940 0.00 0.00 15.060 14.550 13.830 12.530 12.860 11.210 11.340 11.410 11.520 11.430 8.910 9.100 0.00 0.00 0.3400 0.5000 11.070 11.300 11.370 11.380 11.280 8.680 8.820 0.00000 0.00 245 0.00 0.00 0.2010 345.20 5.19 0.3700 0.015 10.480 13.249 11.310 1.948 13.488 11.433 2.064
WS7MET_125 2016-09-29 18:45:00 125 30483.0 11.240 11.390 11.450 11.490 11.330 84.900 84.700 8.800 9.010 0.00 0.00 15.060 14.550 13.840 12.540 12.870 11.350 11.470 11.540 11.590 11.480 8.910 9.130 0.00 0.00 0.5490 0.7000 11.180 11.340 11.400 11.380 11.220 8.700 8.920 0.00000 0.00 597 0.00 0.00 0.2720 354.10 17.82 0.4600 10.620 18.500 13.337 11.326 2.014 13.560 11.488 2.075
WS7MET_125 2016-09-29 18:40:00 125 30483.0 11.330 11.510 11.580 11.590 11.500 85.100 84.600 8.920 9.100 0.00 0.00 15.060 14.550 13.830 12.540 12.880 11.420 11.540 11.620 11.690 11.530 9.010 9.210 0.00 0.00 0.4380 0.6000 11.250 11.470 11.540 11.480 11.460 8.820 9.010 0.00000 0.00 472 0.00 0.00 0.2250 341.20 12.87 0.4050 355.200 24.210 13.417 11.418 1.999 13.650 11.558 2.102
WS7MET_125 2016-09-29 18:35:00 125 30483.0 11.400 11.600 11.680 11.690 11.590 85.200 84.500 9.020 9.170 0.00 0.00 15.050 14.550 13.840 12.540 12.880 11.480 11.650 11.730 11.790 11.670 9.180 9.320 0.00 0.00 0.4510 0.7000 11.310 11.550 11.630 11.590 11.520 8.880 9.000 0.00000 0.00 594 0.00 0.00 0.2260 353.70 12.95 0.4150 1.875 15.950 13.479 11.495 1.995 13.740 11.612 2.130
WS7MET_125 2016-09-29 18:30:00 125 30483.0 11.440 11.690 11.770 11.770 11.720 85.300 84.600 9.080 9.280 0.00 0.00 15.040 14.540 13.840 12.540 12.890 11.550 11.700 11.790 11.860 11.790 9.170 9.380 0.00 0.00 0.3460 0.5000 11.350 11.660 11.740 11.690 11.650 8.980 9.190 0.00000 0.00 553 0.00 0.00 0.2320 335.70 12.53 0.3900 354.200 18.570 13.515 11.542 1.987 13.813 11.699 2.127
WS7MET_125 2016-09-29 18:25:00 125 30483.0 11.480 11.720 11.820 11.810 11.790 85.000 84.200 9.040 9.250 0.00 0.00 15.040 14.540 13.840 12.540 12.900 11.590 11.730 11.830 11.890 11.850 9.170 9.330 0.00 0.00 0.3590 0.6000 11.380 11.700 11.790 11.760 11.690 8.880 9.120 0.00000 0.00 401 0.00 0.00 0.2610 336.90 6.74 0.4200 347.400 10.990 13.551 11.511 2.033 13.850 11.675 2.188
WS7MET_125 2016-09-29 18:20:00 125 30483.0 11.540 11.750 11.860 11.880 11.780 84.400 83.800 9.010 9.230 0.00 0.00 15.040 14.530 13.840 12.540 12.910 11.620 11.800 11.890 12.000 11.850 9.090 9.340 0.00 0.00 0.6080 0.7000 11.450 11.720 11.820 11.790 11.740 8.890 9.150 0.00000 0.00 242 0.00 0.00 0.4590 346.80 0.99 0.4850 0.147 5.870 13.605 11.488 2.122 13.914 11.659 2.254
WS7MET_125 2016-09-29 18:15:00 125 30483.0 11.590 11.820 11.910 11.890 11.880 84.600 83.800 9.100 9.250 0.00 0.00 15.020 14.530 13.840 12.540 12.910 11.720 11.830 11.930 12.000 11.930 9.210 9.340 0.00 0.00 0.5490 0.6000 11.480 11.800 11.890 11.790 11.830 9.000 9.100 0.00000 0.00 246 0.00 0.00 0.4290 335.80 6.28 0.5300 355.300 7.915 13.650 11.558 2.102 13.923 11.675 2.256
WS7MET_125 2016-09-29 18:10:00 125 30483.0 11.580 11.810 11.900 11.910 11.890 84.400 83.700 9.060 9.250 0.00 0.00 15.020 14.530 13.840 12.540 12.920 11.720 11.820 11.920 12.000 11.950 9.210 9.410 0.00 0.00 0.5950 0.7000 11.520 11.800 11.870 11.790 11.750 8.880 9.040 0.00000 0.00 583 0.00 0.00 0.3880 334.10 2.17 0.4900 352.400 5.079 13.641 11.526 2.128 13.941 11.675 2.272
WS7MET_125 2016-09-29 18:05:00 125 30483.0 11.680 11.850 11.930 11.940 11.810 83.300 83.100 8.950 9.170 0.60 0.00 15.020 14.530 13.840 12.540 12.930 11.830 11.900 11.970 12.100 11.870 9.100 9.310 2.68 0.00 0.5620 0.7000 11.550 11.800 11.870 11.830 11.730 8.830 9.060 0.00000 0.00 282 0.00 0.00 0.4360 333.70 2.32 0.5350 347.400 4.217 13.731 11.441 2.293 13.969 11.612 2.361
WS7MET_125 2016-09-29 18:00:00 125 30483.0 11.800 11.970 12.060 12.060 11.950 83.100 83.100 9.030 9.280 2.55 0.00 15.010 14.520 13.840 12.540 12.940 11.960 12.030 12.120 12.130 12.120 9.190 9.430 4.03 0.00 0.5100 0.6000 11.720 11.910 11.980 11.960 11.830 8.900 9.170 0.00000 0.00 272 0.00 0.00 0.4040 336.40 1.29 0.4850 351.400 4.521 13.841 11.503 2.339 14.080 11.699 2.380
WS7MET_125 2016-09-29 17:55:00 125 30483.0 11.870 12.040 12.090 12.080 12.060 82.700 82.500 9.020 9.210 2.48 0.00 15.000 14.520 13.840 12.540 12.950 11.960 12.070 12.140 12.170 12.160 9.160 9.450 2.68 0.00 0.5880 0.7000 11.790 12.020 12.080 12.000 11.990 8.910 9.070 0.00000 0.00 245 0.00 0.00 0.4120 334.90 5.08 0.5200 348.700 5.721 13.905 11.495 2.406 14.099 11.644 2.467
WS7MET_125 2016-09-29 17:50:00 125 30483.0 11.940 12.100 12.160 12.170 12.080 82.100 81.800 8.990 9.160 3.76 0.00 14.990 14.520 13.850 12.540 12.960 12.030 12.150 12.200 12.230 12.120 9.100 9.300 4.03 0.00 0.4830 0.6000 11.860 12.070 12.130 12.060 12.060 8.850 8.980 0.00000 0.00 253 0.00 0.00 0.4140 340.80 2.00 0.5300 354.200 6.255 13.969 11.472 2.500 14.182 11.604 2.581
WS7MET_125 2016-09-29 17:45:00 125 30483.0 12.060 12.230 12.290 12.320 12.130 81.000 80.800 8.920 9.130 4.03 0.00 14.980 14.520 13.840 12.540 12.970 12.170 12.290 12.360 12.370 12.280 9.010 9.270 4.03 0.00 0.6660 0.6000 11.960 12.150 12.210 12.270 12.000 8.830 9.030 0.00000 0.00 240 0.00 0.00 0.1520 338.90 2.16 0.3450 351.700 11.620 14.080 11.418 2.675 14.323 11.581 2.750
WS7MET_125 2016-09-29 17:40:00 125 30483.0 12.160 12.340 12.400 12.410 12.340 81.500 80.700 9.090 9.190 4.43 0.00 14.970 14.520 13.840 12.540 12.980 12.270 12.390 12.430 12.510 12.400 9.210 9.350 5.37 0.00 0.3590 0.6000 12.060 12.290 12.360 12.340 12.270 8.920 9.040 0.00000 0.00 390 0.00 0.00 0.1720 326.80 0.72 0.3650 344.700 11.920 14.173 11.550 2.622 14.408 11.628 2.781
WS7MET_125 2016-09-29 17:35:00 125 30483.0 12.190 12.380 12.440 12.460 12.390 82.600 81.300 9.330 9.370 6.64 0.60 14.970 14.520 13.840 12.550 12.990 12.230 12.400 12.450 12.540 12.480 9.480 9.730 8.05 1.34 0.4510 0.5000 12.100 12.350 12.420 12.370 12.220 9.180 9.050 0.00000 0.00 553 0.00 0.00 0.2950 328.70 5.59 0.4300 348.100 9.170 14.201 11.738 2.471 14.456 11.770 2.703
WS7MET_125 2016-09-29 17:30:00 125 30483.0 12.370 12.540 12.610 12.670 12.460 82.300 81.800 9.450 9.640 9.39 1.34 14.960 14.520 13.840 12.550 13.000 12.470 12.640 12.700 12.780 12.680 9.620 9.800 10.74 1.34 0.4310 0.7000 12.270 12.400 12.460 12.540 12.260 9.310 9.520 0.00000 0.00 555 0.00 0.00 0.3470 318.30 3.56 0.4800 333.300 11.940 14.370 11.833 2.544 14.656 11.986 2.667
WS7MET_125 2016-09-29 17:25:00 125 30483.0 12.480 12.650 12.740 12.800 12.640 82.100 81.100 9.520 9.660 11.34 1.34 14.940 14.520 13.840 12.550 13.020 12.580 12.700 12.810 12.920 12.690 9.590 9.760 12.08 1.34 0.5360 0.7000 12.400 12.620 12.700 12.750 12.530 9.350 9.580 0.00000 0.00 277 0.00 0.00 0.3210 333.30 14.93 0.4850 346.100 13.140 14.475 11.889 2.591 14.782 12.002 2.794
WS7MET_125 2016-09-29 17:20:00 125 30483.0 12.630 12.750 12.870 12.950 12.740 81.000 80.400 9.470 9.670 13.62 1.88 14.940 14.520 13.840 12.550 13.040 12.740 12.800 12.910 13.050 12.800 9.650 9.820 14.76 2.68 0.4050 0.6000 12.510 12.700 12.830 12.850 12.630 9.230 9.550 0.00000 0.00 467 0.00 0.00 0.3020 321.40 3.60 0.4350 343.400 15.730 14.618 11.849 2.777 14.928 12.010 2.926
WS7MET_125 2016-09-29 17:15:00 125 30483.0 12.850 12.920 13.030 13.150 12.830 79.600 79.840 9.420 9.760 16.98 2.68 14.930 14.520 13.840 12.540 13.050 12.950 13.030 13.140 13.290 13.000 9.530 10.030 17.45 2.68 0.4440 0.6000 12.740 12.810 12.930 13.080 12.680 9.320 9.590 0.00000 0.00 242 0.00 0.00 0.2500 322.70 8.70 0.3950 337.400 15.760 14.830 11.810 3.025 15.124 12.083 3.049
WS7MET_125 2016-09-29 17:10:00 125 30483.0 12.980 13.120 13.180 13.220 13.050 77.840 78.160 9.210 9.510 17.65 2.68 14.920 14.520 13.840 12.540 13.080 13.080 13.190 13.240 13.360 13.140 9.430 9.870 18.79 2.68 0.5030 0.6000 12.850 13.030 13.140 13.150 12.970 8.980 9.250 0.00000 0.00 545 0.00 0.00 0.3560 331.90 12.77 0.5000 344.900 13.250 14.957 11.644 3.314 15.193 11.881 3.318
WS7MET_125 2016-09-29 17:05:00 125 30483.0 13.150 13.250 13.310 13.330 13.210 76.980 76.230 9.220 9.250 20.33 2.68 14.910 14.510 13.840 12.540 13.100 13.290 13.290 13.350 13.420 13.310 9.360 9.360 21.47 2.68 0.4440 0.6000 13.050 13.200 13.260 13.250 13.150 9.080 9.150 0.00000 0.00 514 0.00 0.00 0.2270 341.60 17.77 0.4150 356.500 21.380 15.124 11.652 3.482 15.303 11.675 3.637
WS7MET_125 2016-09-29 17:00:00 125 30483.0 13.340 13.380 13.430 13.510 13.220 76.390 75.770 9.290 9.330 22.48 2.68 14.890 14.510 13.840 12.540 13.140 13.520 13.490 13.530 13.690 13.250 9.720 9.770 24.15 2.68 0.5550 0.6000 13.180 13.290 13.360 13.350 13.160 8.980 8.940 0.00000 0.00 248 0.00 0.00 0.2850 347.00 12.31 0.4200 358.700 21.660 15.313 11.707 3.615 15.483 11.738 3.752
WS7MET_125 2016-09-29 16:55:00 125 30483.0 13.600 13.610 13.680 13.770 13.500 76.820 76.650 9.620 9.750 24.15 2.75 14.880 14.510 13.840 12.530 13.170 13.730 13.690 13.740 13.900 13.670 9.760 9.950 24.15 4.03 0.4770 0.6000 13.390 13.490 13.540 13.620 13.230 9.490 9.450 0.00000 0.00 315 0.00 0.00 0.2710 335.60 14.37 0.4000 347.900 17.510 15.574 11.970 3.610 15.748 12.075 3.677
WS7MET_125 2016-09-29 16:50:00 125 30483.0 13.860 13.800 13.850 13.970 13.590 74.940 74.980 9.500 9.620 25.09 3.69 14.870 14.500 13.840 12.540 13.200 14.030 13.910 13.980 14.100 13.810 9.740 9.770 25.49 4.03 0.4700 0.6000 13.730 13.700 13.740 13.830 13.420 9.310 9.350 0.00000 0.00 396 0.00 0.00 0.2630 346.00 24.91 0.4100 353.100 29.520 15.840 11.873 3.970 15.954 11.970 3.992
WS7MET_125 2016-09-29 16:45:00 125 30483.0 14.260 14.020 14.090 14.250 13.790 72.660 73.680 9.440 9.620 28.71 4.03 14.860 14.500 13.840 12.540 13.240 14.510 14.160 14.250 14.480 13.830 9.750 9.920 30.86 4.03 0.4970 0.7000 14.030 13.920 13.990 14.030 13.700 9.150 9.340 0.00000 0.00 480 0.00 0.00 0.2220 339.00 17.57 0.3950 354.200 20.560 16.256 11.826 4.444 16.246 11.970 4.276
WS7MET_125 2016-09-29 16:40:00 125 30483.0 14.850 14.370 14.460 14.680 13.990 72.620 73.970 9.990 10.100 33.34 4.03 14.840 14.500 13.840 12.540 13.290 15.130 14.550 14.660 14.990 14.150 10.240 10.250 34.89 4.03 0.3990 0.6000 14.550 14.180 14.270 14.440 13.770 9.750 9.890 0.00000 0.00 357 0.00 0.00 0.2510 343.80 6.20 0.3600 353.500 9.650 16.888 12.271 4.624 16.704 12.361 4.348
WS7MET_125 2016-09-29 16:35:00 125 30483.0 15.330 14.740 14.880 15.160 14.300 70.510 72.180 10.020 10.190 35.96 4.03 14.840 14.500 13.830 12.550 13.330 15.530 14.910 15.110 15.360 14.390 10.180 10.320 37.57 4.03 0.2680 0.7000 15.160 14.580 14.670 14.920 14.190 9.870 10.070 0.00000 0.00 479 0.00 0.00 0.0790 336.00 27.10 0.2550 341.000 40.470 17.418 12.295 5.136 17.228 12.436 4.793
WS7MET_125 2016-09-29 16:30:00 125 30483.0 15.720 15.100 15.350 15.530 14.580 66.810 68.240 9.580 9.720 35.89 4.03 14.820 14.500 13.830 12.540 13.340 15.940 15.270 15.540 15.710 14.710 9.990 10.130 40.25 4.03 0.3200 0.5000 15.570 14.930 15.130 15.360 14.380 9.180 9.300 0.00000 0.00 549 0.00 0.00 0.0170 249.10 0.33 0.1450 344.400 42.350 17.859 11.937 5.927 17.642 12.050 5.603
WS7MET_125 2016-09-29 16:25:00 125 30483.0 16.130 15.530 15.820 15.900 14.860 64.770 66.070 9.510 9.590 43.40 4.03 14.810 14.500 13.830 12.550 13.390 16.320 15.680 15.970 16.080 15.090 9.680 9.820 45.62 4.03 0.2610 0.6000 15.880 15.310 15.610 15.770 14.670 9.300 9.080 0.00000 0.00 247 0.00 0.00 0.0130 219.90 0.00 0.2300 203.100 36.360 18.333 11.881 6.459 18.065 11.945 6.130
WS7MET_125 2016-09-29 16:20:00 125 30483.0 16.650 16.070 16.460 16.530 15.130 63.600 63.650 9.730 9.630 55.88 4.70 14.790 14.500 13.830 12.540 13.410 16.870 16.470 16.950 17.070 15.510 10.110 10.260 75.13 6.71 0.4900 0.8000 16.350 15.720 16.010 16.150 14.940 9.070 8.880 0.00000 0.00 209 0.00 0.00 0.1380 178.40 52.28 0.4000 191.200 70.510 18.950 12.058 6.898 18.806 11.978 6.836
WS7MET_125 2016-09-29 16:15:00 125 30483.0 16.770 16.430 16.920 16.930 15.690 59.960 58.970 8.960 8.870 183.90 15.63 14.780 14.490 13.830 12.540 13.410 16.900 16.540 17.050 17.100 15.800 9.800 9.560 283.10 24.15 1.0850 1.6000 16.660 16.300 16.800 16.760 15.540 8.460 8.100 0.00000 0.00 270 0.00 0.00 0.1930 177.30 19.88 0.3850 195.400 38.190 19.095 11.449 7.646 19.290 11.379 7.915
WS7MET_125 2016-09-29 16:10:00 125 30483.0 16.860 16.300 16.800 16.830 15.720 59.980 58.210 9.060 8.590 197.90 18.45 14.770 14.490 13.830 12.550 13.390 17.170 16.510 17.050 16.970 15.910 9.840 9.010 241.50 22.81 1.7640 2.5000 16.660 16.210 16.710 16.690 15.560 8.390 8.170 0.00000 0.00 277 0.00 0.00 0.3710 158.80 52.27 0.5850 174.800 53.280 19.204 11.526 7.685 19.168 11.166 8.010
WS7MET_125 2016-09-29 16:05:00 125 30483.0 17.330 16.730 17.270 17.280 15.820 58.110 56.580 9.020 8.590 183.90 18.51 14.760 14.490 13.830 12.550 13.370 17.480 17.110 17.640 17.620 15.970 9.780 9.110 218.70 22.81 0.5030 0.8000 17.140 16.570 17.060 17.070 15.670 7.694 7.640 0.00000 0.00 241 0.00 0.00 0.2490 137.20 54.07 0.4600 168.500 39.330 19.784 11.495 8.288 19.722 11.166 8.563
WS7MET_125 2016-09-29 16:00:00 125 30483.0 17.430 17.240 17.630 17.690 16.300 55.200 54.140 8.370 8.320 275.50 30.45 14.740 14.490 13.830 12.540 13.380 17.650 17.410 17.770 17.890 16.560 9.260 8.770 328.70 36.22 0.5290 0.8000 17.270 17.050 17.420 17.480 15.970 8.100 8.010 0.00000 0.00 250 0.00 0.00 0.1340 174.30 47.83 0.3650 196.000 37.760 19.910 11.000 8.920 20.239 10.963 9.282
WS7MET_125 2016-09-29 15:55:00 125 30483.0 17.400 17.180 17.670 17.690 16.430 54.710 52.690 8.200 7.917 255.70 30.05 14.730 14.490 13.830 12.540 13.360 17.620 17.380 18.080 17.820 16.720 9.790 8.410 287.10 34.88 1.7310 2.2000 17.310 17.020 17.410 17.410 16.130 7.334 7.510 0.00000 0.00 431 0.00 0.00 0.6530 207.60 65.08 0.8850 225.900 69.750 19.872 10.874 9.000 20.239 10.667 9.575
WS7MET_125 2016-09-29 15:50:00 125 30483.0 17.400 17.330 18.040 17.930 16.400 59.700 53.940 9.490 8.480 320.20 39.85 14.720 14.490 13.820 12.540 13.350 17.620 17.430 18.110 18.200 16.760 10.420 9.230 363.60 45.61 0.9080 1.1000 17.270 17.150 17.930 17.790 16.130 8.430 7.744 0.00000 0.00 0 0.00 0.00 0.2950 150.90 22.82 0.5000 161.200 47.570 19.872 11.865 8.008 20.547 11.083 9.464
WS7MET_125 2016-09-29 15:45:00 125 30483.0 17.340 17.220 17.970 18.010 16.610 56.580 52.740 8.640 8.230 343.60 44.61 14.700 14.490 13.830 12.540 13.350 17.480 17.420 18.080 18.260 16.930 9.380 8.750 378.30 49.64 0.6860 1.2000 17.240 17.080 17.780 17.790 16.330 7.755 7.795 0.00000 0.00 277 0.00 0.00 0.3660 193.00 36.15 0.5650 182.700 39.900 19.797 11.204 8.596 20.651 10.896 9.760
WS7MET_125 2016-09-29 15:40:00 125 30483.0 17.540 17.190 17.850 17.930 16.310 58.760 53.700 9.380 8.430 385.40 51.85 14.690 14.490 13.830 12.540 13.350 17.720 17.480 18.290 18.300 16.490 10.180 9.020 397.10 53.66 0.8620 0.9000 17.340 17.050 17.690 17.790 15.990 8.460 7.668 0.00000 0.00 351 0.00 0.00 0.4520 144.70 25.05 0.6500 159.800 32.530 20.048 11.778 8.268 20.547 11.045 9.513
WS7MET_125 2016-09-29 15:35:00 125 30483.0 17.830 17.710 18.500 18.440 16.540 56.090 52.540 8.960 8.570 418.50 57.02 14.680 14.490 13.830 12.540 13.330 18.020 17.980 18.690 18.600 16.930 9.840 9.600 438.70 60.37 1.5480 2.1000 17.450 17.500 18.300 18.300 16.210 8.110 7.985 0.00000 0.00 211 0.00 0.00 0.5560 190.10 55.26 0.7150 202.700 52.820 20.418 11.449 8.966 21.216 11.151 10.069
WS7MET_125 2016-09-29 15:30:00 125 30483.0 17.840 17.860 18.400 18.230 16.760 55.780 52.540 8.890 8.370 381.40 53.93 14.660 14.490 13.830 12.540 13.310 17.990 18.010 18.690 18.500 17.080 9.950 9.070 441.40 60.37 1.1830 1.8000 17.680 17.640 18.110 18.020 16.480 8.140 7.880 0.00000 0.00 242 0.00 0.00 0.2330 215.10 57.84 0.5050 259.300 62.220 20.431 11.395 9.035 20.938 11.000 9.937
WS7MET_125 2016-09-29 15:25:00 125 30483.0 17.970 17.770 18.330 18.140 16.570 54.840 52.250 8.760 8.210 296.00 49.57 14.660 14.490 13.830 12.540 13.320 18.160 18.050 18.510 18.400 16.850 9.930 9.300 354.20 55.01 1.1040 1.9000 17.750 17.580 18.060 17.990 16.400 7.763 7.421 0.00000 0.00 270 0.00 0.00 0.5480 143.10 51.81 0.7700 160.000 61.040 20.599 11.295 9.302 20.820 10.881 9.942
WS7MET_125 2016-09-29 15:20:00 125 30483.0 18.200 17.990 18.370 18.280 16.760 51.900 49.210 8.160 7.463 426.10 60.37 14.640 14.490 13.830 12.540 13.320 18.400 18.030 18.460 18.400 17.190 9.220 8.110 453.50 64.40 0.8750 1.0000 18.060 17.940 18.310 18.160 16.500 7.309 7.229 0.00000 0.00 270 0.00 0.00 0.3350 123.20 72.18 0.5200 148.800 70.050 20.899 10.844 10.052 21.004 10.341 10.668
WS7MET_125 2016-09-29 15:15:00 125 30483.0 18.630 18.300 18.480 18.590 17.050 51.140 49.430 8.330 7.807 416.70 59.97 14.630 14.490 13.830 12.540 13.310 18.840 18.490 18.600 18.780 17.480 9.490 8.530 440.00 63.06 1.5420 1.8000 18.430 17.980 18.340 18.260 16.660 7.103 6.909 0.00000 0.00 498 0.00 0.00 0.6020 122.10 68.04 0.8200 147.700 56.560 21.470 10.970 10.490 21.416 10.587 10.830
WS7MET_125 2016-09-29 15:10:00 125 30483.0 18.790 18.580 18.610 18.720 17.070 49.400 49.190 7.984 7.857 358.40 52.05 14.610 14.490 13.830 12.540 13.310 18.910 18.700 18.680 18.810 17.340 9.170 8.990 398.50 57.69 1.3720 1.6000 18.570 18.380 18.470 18.600 16.700 7.449 6.908 0.00000 0.00 245 0.00 0.00 0.3900 251.90 42.03 0.6400 260.200 52.550 21.685 10.715 10.973 21.591 10.623 10.970
WS7MET_125 2016-09-29 15:05:00 125 30483.0 18.420 18.240 18.430 18.470 17.170 52.500 50.220 8.540 7.928 442.70 65.40 14.600 14.500 13.820 12.540 13.310 18.600 18.480 18.680 18.670 17.320 9.730 8.960 497.70 73.79 1.5680 1.6000 18.300 18.010 18.130 18.260 17.020 7.365 7.177 0.00000 0.00 241 0.00 0.00 0.7140 184.20 77.20 0.8150 202.800 55.370 21.189 11.128 10.065 21.256 10.675 10.581
WS7MET_125 2016-09-29 15:00:00 125 30483.0 18.460 18.300 18.550 18.560 17.170 55.240 51.460 9.320 8.380 483.40 74.12 14.590 14.500 13.820 12.540 13.310 18.640 18.530 18.750 18.780 17.450 10.650 9.160 500.40 77.81 1.5160 1.3000 18.300 18.140 18.380 18.330 16.900 8.120 7.693 0.00000 0.00 209 0.00 0.00 0.7260 113.10 38.58 0.8550 127.100 42.160 21.242 11.730 9.508 21.376 11.008 10.376
WS7MET_125 2016-09-29 14:55:00 125 30483.0 18.500 18.480 18.660 18.720 17.400 55.070 51.750 9.320 8.610 501.80 79.76 14.580 14.500 13.820 12.550 13.320 18.640 18.600 18.750 18.840 17.660 10.250 9.720 515.20 83.20 1.2220 1.6000 18.370 18.390 18.560 18.570 17.160 8.360 7.552 0.00000 0.00 229 0.00 0.00 0.6030 151.00 64.18 0.7700 161.700 55.680 21.296 11.730 9.568 21.591 11.181 10.418
WS7MET_125 2016-09-29 14:50:00 125 30483.0 18.460 18.610 18.620 18.710 17.470 53.200 51.450 8.770 8.510 513.70 84.10 14.570 14.500 13.820 12.550 13.300 18.670 18.780 18.750 18.840 18.180 10.270 9.120 543.30 89.90 1.1960 2.4000 18.330 18.410 18.450 18.570 17.100 7.793 8.120 0.00000 0.00 338 0.00 0.00 0.6430 161.30 75.74 0.9600 171.000 39.190 21.242 11.303 9.941 21.577 11.105 10.476
WS7MET_125 2016-09-29 14:45:00 125 30483.0 18.430 18.480 18.540 18.710 17.420 52.790 51.310 8.620 8.470 485.00 80.80 14.550 14.500 13.830 12.530 13.300 18.640 18.620 18.750 18.980 17.750 9.780 9.450 523.20 87.20 1.3200 1.7000 18.300 18.320 18.470 18.570 17.140 7.642 7.896 0.00000 0.00 238 0.00 0.00 0.7290 203.00 52.56 0.8650 221.600 54.810 21.202 11.188 10.010 21.577 11.075 10.506
WS7MET_125 2016-09-29 14:40:00 125 30483.0 18.580 18.830 19.000 18.970 17.670 52.270 50.700 8.620 8.530 541.30 92.40 14.540 14.500 13.830 12.530 13.310 18.810 18.970 19.120 19.150 18.080 9.510 9.580 574.20 97.90 1.5220 2.3000 18.370 18.670 18.860 18.740 17.430 7.714 7.864 0.00000 0.00 231 0.00 0.00 0.7100 210.00 52.84 0.9450 213.400 55.400 21.402 11.188 10.215 21.930 11.120 10.812
WS7MET_125 2016-09-29 14:35:00 125 30483.0 18.210 18.340 18.570 18.550 17.290 54.190 52.110 8.810 8.560 486.80 84.00 14.530 14.500 13.820 12.540 13.320 18.400 18.550 18.770 18.710 17.630 9.830 8.990 564.80 97.90 2.2020 3.5000 18.020 18.120 18.330 18.470 17.070 7.846 7.837 0.00000 0.00 204 0.00 0.00 0.7850 180.90 56.29 0.9000 182.800 55.910 20.912 11.333 9.580 21.362 11.143 10.230
WS7MET_125 2016-09-29 14:30:00 125 30483.0 18.720 18.720 18.880 18.750 17.440 52.270 50.920 8.750 8.400 525.70 91.90 14.520 14.510 13.820 12.540 13.310 19.080 19.010 19.090 18.980 18.040 10.510 9.140 575.50 102.00 1.7050 1.5000 18.430 18.480 18.700 18.600 17.110 8.080 7.858 0.00000 0.00 496 0.00 0.00 0.7240 105.40 51.70 0.8650 121.200 35.850 21.591 11.287 10.305 21.631 11.023 10.617
WS7MET_125 2016-09-29 14:25:00 125 30483.0 18.490 18.720 18.850 18.830 17.750 50.790 49.430 8.120 8.030 540.10 95.10 14.510 14.510 13.820 12.540 13.340 18.670 18.910 19.060 18.910 18.010 9.690 8.990 586.30 103.30 2.2150 2.8000 18.300 18.550 18.680 18.670 17.430 7.542 7.522 0.00000 0.00 210 0.00 0.00 0.8740 263.10 72.62 1.0700 246.700 63.010 21.282 10.815 10.473 21.740 10.749 10.994
WS7MET_125 2016-09-29 14:20:00 125 30483.0 18.130 18.220 18.600 18.450 17.350 57.070 53.720 9.500 8.900 555.00 98.60 14.500 14.490 13.820 12.540 13.340 18.300 18.580 18.980 18.670 17.770 10.870 9.840 591.60 104.60 1.5420 1.8000 17.920 17.940 18.340 18.200 17.030 7.928 7.978 0.00000 0.00 368 0.00 0.00 0.5460 121.20 63.70 0.7300 148.600 56.170 20.807 11.873 8.932 21.229 11.402 9.825
WS7MET_125 2016-09-29 14:15:00 125 30483.0 18.390 18.440 18.650 18.560 17.430 54.720 52.840 9.120 8.770 515.00 91.80 14.500 14.500 13.820 12.540 13.350 18.500 18.550 18.760 18.670 17.680 9.970 9.200 550.10 97.90 1.7770 2.1000 18.260 18.370 18.530 18.430 17.150 8.050 8.160 0.00000 0.00 203 0.00 0.00 0.5760 155.80 48.76 0.7700 164.900 53.530 21.149 11.573 9.576 21.376 11.303 10.081
WS7MET_125 2016-09-29 14:10:00 125 30483.0 18.610 18.490 18.610 18.560 17.540 54.350 53.300 9.220 8.900 529.70 94.40 14.480 14.510 13.830 12.540 13.360 18.780 18.600 18.700 18.640 17.950 10.760 9.820 550.10 97.90 1.4900 1.8000 18.500 18.420 18.500 18.430 17.290 8.230 8.060 0.00000 0.00 206 0.00 0.00 0.7300 141.80 59.95 0.8950 149.700 50.630 21.443 11.652 9.789 21.376 11.402 9.982
WS7MET_125 2016-09-29 14:05:00 125 30483.0 18.730 18.690 18.950 18.680 17.400 55.470 54.720 9.630 9.390 522.60 93.00 14.460 14.510 13.820 12.540 13.350 18.810 18.850 19.280 18.840 17.750 11.070 10.530 562.10 100.60 2.2020 2.4000 18.640 18.440 18.530 18.540 17.230 8.800 8.750 0.00000 0.00 240 0.00 0.00 0.9420 198.20 56.64 1.1500 223.600 53.760 21.604 11.978 9.620 21.537 11.786 9.752
WS7MET_125 2016-09-29 14:00:00 125 30483.0 18.670 18.570 19.080 18.730 17.290 56.520 55.130 9.860 9.550 576.20 102.70 14.460 14.510 13.820 12.540 13.340 18.840 18.680 19.310 18.840 17.540 11.770 10.290 602.40 107.30 0.9930 1.0000 18.470 18.390 18.860 18.600 17.080 8.810 8.940 0.00000 0.00 285 0.00 0.00 0.5220 178.60 40.47 0.6100 187.600 38.940 21.523 12.164 9.358 21.604 11.913 9.694
WS7MET_125 2016-09-29 13:55:00 125 30483.0 18.770 18.870 19.260 18.840 17.530 59.110 57.270 10.630 10.220 563.10 100.00 14.450 14.510 13.820 12.540 13.350 18.910 19.030 19.370 18.950 17.970 11.530 10.980 593.00 106.00 1.2220 1.3000 18.570 18.670 19.140 18.670 17.230 9.590 9.620 0.00000 0.00 287 0.00 0.00 0.5800 159.50 41.63 0.6350 177.300 48.780 21.658 12.807 8.856 21.753 12.461 9.295
WS7MET_125 2016-09-29 13:50:00 125 30483.0 18.770 19.050 19.340 19.100 17.670 57.930 55.600 10.330 10.020 583.50 102.40 14.440 14.510 13.820 12.540 13.350 18.910 19.390 19.600 19.250 18.300 11.180 10.690 619.80 108.70 1.3330 1.2000 18.570 18.700 19.150 18.810 17.190 9.470 9.470 0.00000 0.00 277 0.00 0.00 0.6350 123.80 49.54 0.8050 136.100 50.890 21.658 12.553 9.112 22.109 12.295 9.816
WS7MET_125 2016-09-29 13:45:00 125 30483.0 18.230 18.470 19.000 18.670 17.850 60.540 57.190 10.480 10.050 590.50 102.60 14.430 14.510 13.820 12.540 13.340 18.670 19.200 19.460 19.080 18.280 11.220 10.630 610.40 106.00 1.6530 2.1000 17.850 17.920 18.570 18.370 17.380 9.720 9.620 0.00000 0.00 237 0.00 0.00 0.8400 201.90 38.34 0.9250 204.700 36.510 20.938 12.679 8.262 21.523 12.320 9.214
WS7MET_125 2016-09-29 13:40:00 125 30483.0 18.130 18.000 18.590 18.440 17.460 60.070 57.660 10.270 9.950 590.10 101.60 14.420 14.510 13.810 12.540 13.350 18.430 18.120 18.770 18.500 17.680 11.220 10.280 606.40 104.60 1.7310 2.1000 17.850 17.900 18.360 18.370 17.140 9.720 9.530 0.00000 0.00 228 0.00 0.00 1.0350 112.80 58.05 1.1150 125.900 52.700 20.807 12.503 8.308 21.216 12.238 8.983
WS7MET_125 2016-09-29 13:35:00 125 30483.0 18.340 18.220 18.860 18.420 17.090 61.110 58.820 10.730 10.230 567.30 96.80 14.410 14.510 13.810 12.540 13.350 18.600 18.450 19.040 18.500 17.370 11.380 10.640 618.50 106.00 1.2020 2.1000 18.200 18.060 18.780 18.300 16.890 9.760 9.920 0.00000 0.00 237 0.00 0.00 0.6200 129.40 63.31 0.8750 130.100 50.150 21.083 12.892 8.199 21.189 12.469 8.726
WS7MET_125 2016-09-29 13:30:00 125 30483.0 18.450 18.410 19.060 18.520 17.240 60.820 58.510 10.760 10.250 590.00 99.60 14.410 14.520 13.810 12.540 13.340 18.570 18.630 19.360 18.670 17.510 11.490 10.640 640.00 108.70 1.2740 1.7000 18.300 18.260 18.860 18.430 17.070 9.890 9.890 0.00000 0.00 276 0.00 0.00 0.5450 123.60 37.79 0.7600 141.500 37.970 21.229 12.918 8.318 21.322 12.486 8.847
WS7MET_125 2016-09-29 13:25:00 125 30483.0 18.290 18.250 18.870 18.410 17.300 62.980 59.690 11.130 10.440 629.70 104.30 14.400 14.520 13.810 12.540 13.350 18.470 18.370 19.010 18.540 17.570 11.780 10.960 691.00 114.10 0.9730 1.7000 18.060 17.980 18.570 18.200 17.130 10.450 9.920 0.00000 0.00 238 0.00 0.00 0.4930 118.40 30.08 0.7400 135.000 36.900 21.017 13.240 7.781 21.176 12.645 8.536
WS7MET_125 2016-09-29 13:20:00 125 30483.0 18.460 18.080 18.590 18.290 17.300 63.400 61.340 11.400 10.740 597.90 98.80 14.390 14.520 13.820 12.540 13.360 18.600 18.380 19.010 18.570 17.570 12.660 11.280 701.70 115.40 1.2410 2.0000 18.230 17.950 18.380 18.090 17.100 10.380 10.160 0.00000 0.00 242 0.00 0.00 0.8810 114.70 29.88 1.0350 129.800 28.480 21.242 13.479 7.775 21.017 12.901 8.125
WS7MET_125 2016-09-29 13:15:00 125 30483.0 18.470 18.200 18.830 18.400 17.290 63.510 61.130 11.430 10.790 585.90 96.50 14.390 14.530 13.820 12.540 13.380 18.600 18.380 19.030 18.540 17.450 11.900 11.070 650.80 107.30 1.0390 1.2000 18.330 18.090 18.700 18.260 17.130 10.860 10.520 0.00000 0.00 228 0.00 0.00 0.5820 126.90 49.42 0.6950 146.800 33.980 21.256 13.506 7.756 21.163 12.944 8.226
WS7MET_125 2016-09-29 13:10:00 125 30483.0 18.540 18.180 18.780 18.390 17.190 64.550 61.500 11.740 10.870 660.20 108.60 14.380 14.530 13.820 12.540 13.380 18.710 18.310 18.860 18.470 17.370 12.770 11.170 684.30 112.70 1.0520 1.3000 18.400 18.060 18.720 18.300 17.080 10.740 10.490 0.00000 0.00 229 0.00 0.00 0.7000 131.30 37.74 0.9500 144.100 40.070 21.349 13.786 7.568 21.149 13.013 8.142
WS7MET_125 2016-09-29 13:05:00 125 30483.0 18.640 18.280 18.800 18.360 17.190 64.500 62.490 11.820 11.090 661.30 109.00 14.370 14.540 13.820 12.540 13.380 18.810 18.460 18.990 18.540 17.410 12.570 11.560 708.50 116.70 1.0980 1.4000 18.500 18.090 18.640 18.200 17.060 11.130 10.750 0.00000 0.00 236 0.00 0.00 0.5310 128.20 33.41 0.6700 150.500 32.410 21.483 13.859 7.626 21.110 13.205 7.918
WS7MET_125 2016-09-29 13:00:00 125 30483.0 18.660 18.660 19.120 18.600 17.430 65.590 62.720 12.100 11.360 583.60 96.50 14.370 14.540 13.820 12.530 13.380 18.780 18.880 19.300 18.740 17.830 12.830 12.220 614.50 102.00 1.1560 1.9000 18.540 18.210 18.760 18.300 17.190 11.420 10.870 0.00000 0.00 204 0.00 0.00 0.7680 133.40 28.01 0.9950 142.400 19.590 21.510 14.117 7.402 21.429 13.444 7.989
WS7MET_125 2016-09-29 12:55:00 125 30483.0 18.280 18.540 19.060 18.580 17.500 65.440 63.470 11.700 11.520 622.50 103.40 14.370 14.540 13.820 12.530 13.380 18.470 18.890 19.210 18.740 18.100 12.700 12.120 664.20 110.00 1.9210 2.3000 18.160 18.350 18.850 18.440 17.200 10.770 11.010 0.00000 0.00 244 0.00 0.00 1.0110 205.20 36.84 1.2950 212.100 35.170 21.004 13.749 7.259 21.402 13.587 7.818
WS7MET_125 2016-09-29 12:50:00 125 30483.0 18.210 18.230 18.900 18.410 17.150 65.820 64.110 11.720 11.520 647.90 107.50 14.370 14.540 13.820 12.530 13.380 18.400 18.480 19.140 18.540 17.430 12.570 11.940 699.10 115.40 1.2480 2.1000 18.060 18.030 18.600 18.330 16.970 10.880 11.120 0.00000 0.00 244 0.00 0.00 0.4720 150.10 52.79 0.6950 155.800 66.700 20.912 13.768 7.148 21.176 13.587 7.600
WS7MET_125 2016-09-29 12:45:00 125 30483.0 18.590 18.300 19.070 18.380 17.330 66.710 64.180 12.280 11.500 658.50 109.30 14.360 14.540 13.820 12.530 13.390 18.740 18.470 19.170 18.470 17.480 14.160 12.130 725.90 120.80 1.2350 2.0000 18.430 18.140 18.930 18.230 17.140 11.340 11.150 0.00000 0.00 490 0.00 0.00 0.5670 124.40 52.89 0.7850 149.600 44.570 21.416 14.286 7.129 21.136 13.569 7.571
WS7MET_125 2016-09-29 12:40:00 125 30483.0 18.600 18.580 19.150 18.300 17.130 69.940 67.850 13.030 12.270 571.00 94.90 14.350 14.550 13.820 12.530 13.380 18.710 18.780 19.210 18.430 17.460 13.740 12.710 824.00 136.90 1.0520 1.4000 18.430 18.290 19.050 18.160 16.940 12.300 12.010 0.00000 0.00 234 0.00 0.00 0.4150 167.70 34.94 0.7050 174.700 35.500 21.429 15.006 6.442 21.030 14.276 6.761
WS7MET_125 2016-09-29 12:35:00 125 30483.0 18.280 18.240 18.670 18.080 17.080 70.110 67.600 12.750 12.000 550.00 89.50 14.350 14.550 13.820 12.540 13.400 18.470 18.600 18.970 18.260 17.300 13.450 12.430 743.40 122.10 0.9410 1.2000 18.060 17.980 18.450 18.030 16.710 12.060 11.580 0.00000 0.00 276 0.00 0.00 0.4300 171.60 23.56 0.6100 182.300 21.520 21.004 14.733 6.278 20.742 14.025 6.720
WS7MET_125 2016-09-29 12:30:00 125 30483.0 18.350 18.190 18.540 18.190 17.130 66.850 65.330 12.090 11.600 530.90 84.70 14.350 14.550 13.820 12.540 13.410 18.670 18.290 18.700 18.330 17.460 13.120 12.120 654.90 102.00 0.9730 1.9000 18.200 18.030 18.410 18.060 16.720 11.340 11.340 0.00000 0.00 582 0.00 0.00 0.6000 99.90 28.09 0.7050 117.300 24.540 21.096 14.108 6.993 20.886 13.659 7.241
WS7MET_125 2016-09-29 12:25:00 125 30483.0 18.350 18.170 18.620 18.090 17.170 66.280 66.110 11.970 11.680 655.30 102.90 14.350 14.560 13.820 12.540 13.410 18.570 18.510 18.910 18.230 17.320 12.870 11.860 768.90 120.80 1.7250 2.1000 18.090 17.780 18.290 17.920 16.990 11.470 11.480 0.00000 0.00 231 0.00 0.00 0.7810 177.30 44.57 0.9850 179.400 29.950 21.096 13.997 7.114 20.755 13.731 7.034
WS7MET_125 2016-09-29 12:20:00 125 30483.0 18.660 18.020 18.600 18.120 16.890 64.930 64.710 11.940 11.390 564.00 88.20 14.340 14.560 13.820 12.540 13.400 18.840 18.220 18.810 18.260 17.300 12.600 11.930 658.90 103.30 2.3130 2.4000 18.330 17.690 18.240 17.920 16.550 11.060 11.070 0.00000 0.00 207 0.00 0.00 0.8790 151.50 54.08 1.0000 169.900 23.700 21.510 13.969 7.544 20.794 13.470 7.338
WS7MET_125 2016-09-29 12:15:00 125 30483.0 18.510 18.250 18.760 18.140 17.290 66.530 64.690 12.170 11.400 674.90 105.00 14.330 14.560 13.810 12.540 13.410 18.640 18.340 18.830 18.270 17.380 13.020 11.630 736.80 114.10 1.3460 1.6000 18.300 18.180 18.710 17.990 17.140 11.640 11.080 0.00000 0.00 371 0.00 0.00 0.8400 118.90 24.77 0.9550 135.800 32.670 21.309 14.182 7.132 20.820 13.479 7.352
WS7MET_125 2016-09-29 12:10:00 125 30483.0 18.130 18.050 18.450 17.840 16.690 66.820 65.030 11.860 11.190 609.70 96.70 14.330 14.560 13.810 12.540 13.440 18.330 18.260 18.680 17.990 17.030 13.220 11.650 703.20 111.40 1.2410 1.3000 17.890 17.780 18.270 17.550 16.360 10.740 10.750 0.00000 0.00 358 0.00 0.00 0.5580 159.30 32.04 0.7150 171.900 28.910 20.807 13.896 6.904 20.431 13.293 7.145
WS7MET_125 2016-09-29 12:05:00 125 30483.0 18.030 17.740 18.160 17.570 16.610 66.490 65.800 11.710 11.110 604.40 96.50 14.330 14.560 13.810 12.540 13.440 18.270 17.820 18.260 17.690 16.830 12.510 11.580 691.10 110.00 1.3850 2.1000 17.860 17.630 18.030 17.420 16.390 11.000 10.770 0.00000 0.00 237 0.00 0.00 0.7630 125.20 29.25 1.0050 141.100 26.080 20.677 13.759 6.929 20.086 13.222 6.870
WS7MET_125 2016-09-29 12:00:00 125 30483.0 18.270 17.890 18.410 17.750 16.560 64.290 64.180 11.430 10.910 605.50 97.10 14.330 14.570 13.810 12.540 13.440 18.370 18.030 18.620 17.830 16.820 12.380 11.280 656.20 104.70 1.0910 1.4000 18.130 17.740 18.160 17.590 16.390 10.490 10.600 0.00000 0.00 241 0.00 0.00 0.6570 117.90 36.76 0.8250 133.700 50.670 20.991 13.506 7.496 20.316 13.048 7.277
WS7MET_125 2016-09-29 11:55:00 125 30483.0 18.000 17.840 18.310 17.640 16.480 66.490 65.060 11.670 11.010 649.10 104.30 14.330 14.570 13.810 12.540 13.440 18.130 18.060 18.600 17.820 16.810 12.930 11.750 695.20 111.40 1.3200 1.2000 17.790 17.660 18.070 17.420 16.230 11.030 10.570 0.00000 0.00 350 0.00 0.00 0.6390 143.80 44.77 0.7150 173.800 38.980 20.638 13.722 6.916 20.175 13.135 7.049
WS7MET_125 2016-09-29 11:50:00 125 30483.0 17.970 17.760 18.040 17.440 16.200 65.110 66.070 11.320 11.050 598.30 96.70 14.330 14.570 13.810 12.540 13.440 18.240 17.830 18.120 17.550 16.530 12.360 11.710 652.20 106.00 1.2220 1.5000 17.760 17.670 17.970 17.380 15.720 10.590 10.510 0.00000 0.00 201 0.00 0.00 0.6410 124.90 41.61 0.8950 138.900 40.410 20.599 13.408 7.187 19.922 13.170 6.760
WS7MET_125 2016-09-29 11:45:00 125 30483.0 18.410 17.990 18.170 17.470 16.230 63.130 65.750 11.280 11.010 564.20 92.30 14.330 14.580 13.810 12.540 13.440 18.580 18.120 18.420 17.590 16.480 12.580 11.580 638.80 104.70 1.0580 1.4000 18.130 17.830 17.940 17.380 15.860 10.510 10.600 0.00000 0.00 204 0.00 0.00 0.5920 136.20 48.97 0.7400 150.000 39.120 21.176 13.372 7.808 19.960 13.135 6.836
WS7MET_125 2016-09-29 11:40:00 125 30483.0 18.350 18.110 18.460 17.520 16.560 67.390 66.510 12.220 11.230 556.40 91.10 14.330 14.580 13.810 12.540 13.480 18.580 18.280 18.560 17.620 17.000 13.120 11.790 601.20 99.30 0.8360 1.0000 18.140 17.870 18.310 17.350 16.220 11.440 10.710 0.00000 0.00 209 0.00 0.00 0.4280 158.10 26.41 0.5850 163.300 24.940 21.096 14.229 6.880 20.023 13.328 6.706
WS7MET_125 2016-09-29 11:35:00 125 30483.0 17.970 17.660 18.050 17.320 16.130 65.560 65.640 11.430 10.840 582.40 95.70 14.330 14.580 13.810 12.540 13.480 18.140 17.870 18.260 17.450 16.340 12.020 11.070 650.90 107.40 1.4700 1.9000 17.730 17.190 17.650 17.080 15.990 10.820 10.490 0.00000 0.00 206 0.00 0.00 0.4810 125.40 28.17 0.6700 140.400 43.110 20.599 13.506 7.094 19.772 12.987 6.794
WS7MET_125 2016-09-29 11:30:00 125 30483.0 17.900 17.140 17.600 17.090 15.930 65.880 65.530 11.450 10.600 529.30 87.50 14.330 14.580 13.810 12.520 13.480 18.100 17.330 17.760 17.320 16.200 12.190 10.890 667.00 110.00 0.8690 1.3000 17.730 16.970 17.530 16.980 15.730 10.900 10.440 0.00000 0.00 202 0.00 0.00 0.5880 156.50 35.00 0.7950 169.600 29.450 20.508 13.524 6.997 19.486 12.781 6.717
WS7MET_125 2016-09-29 11:25:00 125 30483.0 17.870 17.560 17.890 17.390 16.190 65.960 64.070 11.420 10.540 628.50 104.80 14.330 14.580 13.810 12.530 13.490 18.070 17.690 18.010 17.490 16.520 13.030 10.820 752.90 126.20 1.3000 1.3000 17.620 17.370 17.670 17.220 15.900 10.030 10.290 0.00000 0.00 208 0.00 0.00 0.5910 137.10 25.17 0.7450 153.200 16.260 20.470 13.497 6.968 19.859 12.730 7.135
WS7MET_125 2016-09-29 11:20:00 125 30483.0 17.480 17.370 17.820 17.150 16.020 68.680 65.580 11.650 10.660 703.90 117.20 14.330 14.590 13.810 12.540 13.500 17.760 17.430 17.970 17.280 16.180 12.910 11.520 746.20 124.80 0.9600 1.4000 17.110 17.300 17.670 17.010 15.850 10.080 10.030 0.00000 0.00 250 0.00 0.00 0.5530 151.90 38.91 0.7050 168.800 31.870 19.973 13.704 6.255 19.560 12.832 6.733
WS7MET_125 2016-09-29 11:15:00 125 30483.0 16.950 16.900 17.320 16.830 15.750 68.700 67.940 11.170 10.890 655.90 108.80 14.330 14.600 13.810 12.540 13.500 17.150 17.330 17.630 17.080 16.260 11.790 11.550 705.90 118.10 1.1370 1.7000 16.810 16.620 17.050 16.670 15.180 10.500 10.550 0.00000 0.00 206 0.00 0.00 0.6720 184.90 34.03 0.8800 199.400 33.680 19.314 13.275 6.045 19.168 13.030 6.145
WS7MET_125 2016-09-29 11:10:00 125 30483.0 17.020 16.780 17.200 16.730 15.430 67.520 67.700 10.970 10.740 517.80 85.10 14.330 14.600 13.800 12.540 13.510 17.180 16.870 17.400 16.840 15.710 12.320 11.340 612.00 100.70 1.6860 2.6000 16.740 16.690 16.930 16.600 15.120 10.220 10.370 0.00000 0.00 211 0.00 0.00 0.6860 180.70 58.66 0.9650 203.100 22.500 19.400 13.100 6.301 19.046 12.901 6.152
WS7MET_125 2016-09-29 11:05:00 125 30483.0 16.890 16.560 17.050 16.450 15.330 70.580 70.050 11.530 10.990 567.60 92.60 14.330 14.600 13.800 12.540 13.500 17.420 16.770 17.280 16.770 15.710 12.010 11.660 672.40 110.00 1.2090 1.9000 16.640 16.400 16.890 16.260 15.080 11.200 10.570 0.00000 0.00 237 0.00 0.00 0.4790 120.10 41.59 0.6950 139.200 31.530 19.241 13.596 5.661 18.710 13.117 5.604
WS7MET_125 2016-09-29 11:00:00 125 30483.0 16.500 16.420 16.790 16.150 15.260 71.880 69.540 11.420 10.590 504.10 81.80 14.340 14.600 13.800 12.540 13.510 16.740 16.550 16.930 16.330 15.500 12.130 10.880 633.40 103.30 0.8690 1.3000 16.260 16.310 16.700 16.020 15.110 10.600 10.390 0.00000 0.00 204 0.00 0.00 0.5180 144.70 19.79 0.6800 161.700 24.030 18.770 13.497 5.278 18.356 12.773 5.591
WS7MET_125 2016-09-29 10:55:00 125 30483.0 16.120 16.180 16.500 15.980 14.940 72.990 71.630 11.290 10.870 500.30 81.50 14.340 14.600 13.800 12.540 13.530 16.290 16.320 16.700 16.060 15.210 12.100 11.140 621.40 102.00 0.8230 1.0000 16.020 16.070 16.330 15.850 14.660 10.370 10.460 0.00000 0.00 235 0.00 0.00 0.4010 150.00 31.38 0.6100 168.400 36.050 18.321 13.381 4.948 18.158 13.013 5.151
WS7MET_125 2016-09-29 10:50:00 125 30483.0 15.980 16.050 16.270 15.860 14.940 71.850 71.540 10.910 10.740 489.50 79.72 14.340 14.600 13.800 12.540 13.530 16.160 16.210 16.450 16.020 15.360 11.460 11.150 660.30 108.70 1.2480 1.4000 15.820 15.920 16.130 15.750 14.660 10.310 10.350 0.00000 0.00 248 0.00 0.00 0.6050 204.90 24.31 0.8150 218.300 16.290 18.158 13.048 5.111 18.019 12.901 5.128
WS7MET_125 2016-09-29 10:45:00 125 30483.0 15.810 15.940 16.510 16.070 14.990 74.190 70.630 11.220 10.750 491.40 79.45 14.350 14.600 13.800 12.540 13.530 15.990 16.130 16.790 16.190 15.250 12.120 11.200 664.30 107.40 1.3590 1.7000 15.510 15.670 16.130 15.950 14.720 10.380 10.340 0.00000 0.00 207 0.00 0.00 0.7160 200.60 51.40 0.8050 206.000 56.920 17.962 13.319 4.636 18.263 12.910 5.364
WS7MET_125 2016-09-29 10:40:00 125 30483.0 15.670 15.590 16.390 16.070 14.530 74.980 71.480 11.250 10.920 532.40 85.00 14.350 14.600 13.790 12.540 13.550 15.850 15.700 16.510 16.160 14.750 11.950 11.410 661.60 106.00 0.8360 1.2000 15.510 15.530 16.330 15.920 14.410 10.110 10.290 0.00000 0.00 272 0.00 0.00 0.4240 126.10 35.03 0.6350 152.700 40.750 17.801 13.346 4.454 18.263 13.056 5.208
WS7MET_125 2016-09-29 10:35:00 125 30483.0 16.020 15.680 16.380 15.950 14.600 72.800 70.700 11.150 10.650 585.90 91.70 14.350 14.610 13.790 12.540 13.560 16.190 15.720 16.540 16.020 14.770 11.570 11.070 699.20 108.70 0.8490 1.1000 15.820 15.630 16.190 15.850 14.440 10.570 10.310 0.00000 0.00 203 0.00 0.00 0.4180 144.90 34.81 0.6100 161.700 32.850 18.204 13.258 4.952 18.123 12.824 5.310
WS7MET_125 2016-09-29 10:30:00 125 30483.0 16.380 15.830 16.430 15.890 14.700 73.300 71.700 11.600 10.790 540.10 83.20 14.350 14.620 13.790 12.530 13.570 16.470 15.960 16.550 15.950 14.990 12.060 11.230 644.20 98.00 1.4500 1.6000 16.230 15.640 16.310 15.820 14.360 10.980 10.390 0.00000 0.00 231 0.00 0.00 0.6710 154.00 31.27 0.8050 171.400 21.610 18.627 13.659 4.973 18.054 12.944 5.109
WS7MET_125 2016-09-29 10:25:00 125 30483.0 16.330 15.690 16.180 15.730 14.350 73.690 72.060 11.640 10.720 611.00 91.20 14.360 14.620 13.790 12.530 13.590 16.500 15.830 16.400 15.890 14.740 12.540 11.230 633.40 95.30 0.9280 1.1000 16.160 15.640 16.070 15.650 14.170 11.040 10.370 0.00000 0.00 202 0.00 0.00 0.4960 144.90 27.51 0.6450 161.300 29.900 18.568 13.695 4.885 17.870 12.884 4.993
WS7MET_125 2016-09-29 10:20:00 125 30483.0 15.850 15.560 16.000 15.670 14.440 74.570 72.180 11.350 10.690 539.40 77.97 14.360 14.620 13.790 12.530 13.610 16.090 15.700 16.210 15.780 14.560 12.190 11.170 637.50 92.60 0.8620 1.2000 15.650 15.450 15.730 15.540 14.240 10.260 10.380 0.00000 0.00 209 0.00 0.00 0.4930 149.50 22.91 0.6100 165.900 22.930 18.008 13.435 4.579 17.801 12.858 4.952
WS7MET_125 2016-09-29 10:15:00 125 30483.0 15.660 15.380 15.800 15.560 14.340 75.240 71.930 11.290 10.530 565.10 80.30 14.370 14.620 13.790 12.530 13.850 15.890 15.520 16.020 15.710 14.570 11.970 11.040 622.70 88.60 1.0520 1.5000 15.340 15.160 15.610 15.370 13.990 10.350 10.060 0.00000 0.00 247 0.00 0.00 0.4360 168.90 41.33 0.6050 175.300 39.510 17.790 13.381 4.405 17.676 12.722 4.962
WS7MET_125 2016-09-29 10:10:00 125 30483.0 15.350 14.990 15.300 15.210 13.850 76.710 75.350 11.290 10.890 515.20 72.60 14.380 14.630 13.790 12.520 14.350 15.680 15.160 15.570 15.410 14.420 11.920 11.350 556.90 77.84 0.9470 1.1000 15.200 14.830 15.100 15.070 13.540 10.740 10.560 0.00000 0.00 271 0.00 0.00 0.6120 127.60 37.00 0.6800 148.100 32.720 17.440 13.381 4.062 17.284 13.030 4.260
WS7MET_125 2016-09-29 10:05:00 125 30483.0 15.010 14.950 15.320 15.160 13.610 80.900 76.580 11.770 11.090 474.60 66.36 14.380 14.630 13.790 12.520 14.350 15.310 15.010 15.380 15.240 13.970 12.280 11.520 559.60 77.84 0.7250 1.1000 14.760 14.790 15.120 15.030 13.480 11.430 10.780 0.00000 0.00 202 0.00 0.00 0.3730 145.30 26.87 0.5800 163.000 28.910 17.063 13.813 3.259 17.228 13.205 4.035
WS7MET_125 2016-09-29 10:00:00 125 30483.0 14.910 14.810 15.080 15.170 13.660 77.740 75.390 11.070 10.860 525.40 71.93 14.380 14.630 13.790 12.520 14.360 15.100 14.920 15.170 15.270 13.780 11.940 11.080 605.30 83.20 1.1300 1.4000 14.730 14.680 14.970 15.100 13.540 10.700 10.690 0.00000 0.00 273 0.00 0.00 0.7290 105.10 17.83 0.7650 127.300 22.610 16.953 13.187 3.774 17.239 13.004 4.243
WS7MET_125 2016-09-29 09:55:00 125 30483.0 14.870 14.940 15.140 15.210 13.310 78.700 75.820 11.220 10.990 526.60 70.19 14.390 14.630 13.780 12.520 14.400 15.030 15.020 15.230 15.370 13.550 11.770 11.290 589.20 79.18 0.9870 1.0000 14.690 14.880 15.010 15.130 13.060 10.870 10.790 0.00000 0.00 231 0.00 0.00 0.5480 127.40 29.83 0.6950 143.900 26.920 16.910 13.319 3.602 17.284 13.117 4.179
WS7MET_125 2016-09-29 09:50:00 125 30483.0 14.510 14.500 14.560 14.980 12.950 78.860 76.800 10.900 10.960 506.50 66.77 14.390 14.630 13.780 12.520 14.410 14.730 14.900 15.080 15.270 13.680 11.370 11.140 552.90 73.81 0.6140 0.7000 14.380 14.220 14.250 14.790 12.540 10.620 10.670 0.00000 0.00 276 0.00 0.00 0.1720 130.30 50.66 0.3100 164.600 42.600 16.521 13.039 3.493 17.030 13.091 3.951
WS7MET_125 2016-09-29 09:45:00 125 30483.0 14.270 14.030 14.220 14.590 12.700 80.900 78.820 11.040 10.970 415.20 54.82 14.390 14.640 13.780 12.520 14.420 14.690 14.290 14.340 14.830 12.830 11.390 11.100 485.80 64.42 0.4700 0.8000 14.040 13.800 14.120 14.350 12.580 10.600 10.690 0.00000 0.00 280 0.00 0.00 0.2080 128.60 18.70 0.3700 133.200 33.150 16.267 13.161 3.107 16.607 13.100 3.517
WS7MET_125 2016-09-29 09:40:00 125 30483.0 13.970 13.760 14.260 14.460 12.820 84.800 80.500 11.460 11.150 316.50 42.48 14.410 14.640 13.780 12.520 14.420 14.210 13.840 14.320 14.550 13.020 12.030 11.530 366.40 49.66 0.8170 1.4000 13.740 13.670 14.160 14.350 12.590 11.090 10.790 0.00000 0.00 233 0.00 0.00 0.3340 147.00 31.93 0.5450 159.500 31.640 15.954 13.533 2.425 16.468 13.258 3.211
WS7MET_125 2016-09-29 09:35:00 125 30483.0 13.310 13.540 14.150 14.270 12.890 87.700 80.300 11.320 10.940 478.00 62.61 14.410 14.640 13.780 12.520 14.450 13.700 13.690 14.310 14.490 13.060 11.910 11.480 557.00 72.47 0.7320 1.1000 12.850 13.330 13.810 13.800 12.730 10.790 10.490 0.00000 0.00 323 0.00 0.00 0.2190 154.20 32.27 0.4000 153.900 61.090 15.283 13.408 1.880 16.267 13.074 3.205
WS7MET_125 2016-09-29 09:30:00 125 30483.0 12.520 13.070 13.420 13.510 12.640 88.900 83.300 10.730 10.740 533.30 67.91 14.410 14.640 13.780 12.530 14.480 13.020 13.290 13.770 13.800 12.830 11.650 11.590 554.30 71.13 0.7250 0.7000 12.130 12.870 13.140 13.190 12.420 9.920 10.070 0.00000 0.00 202 0.00 0.00 0.2030 197.00 18.37 0.3850 209.300 43.760 14.513 12.892 1.611 15.483 12.901 2.586
WS7MET_125 2016-09-29 09:25:00 125 30483.0 12.010 12.610 12.880 12.910 12.320 94.000 88.000 11.080 10.980 508.90 63.48 14.420 14.650 13.780 12.530 14.490 12.170 12.860 13.110 13.260 12.650 11.410 11.440 528.80 67.10 0.8430 1.1000 11.650 12.430 12.700 12.710 12.110 10.200 9.980 0.00000 0.00 206 0.00 0.00 0.3120 113.00 40.43 0.4650 127.900 45.210 14.034 13.196 0.842 14.889 13.109 1.787
WS7MET_125 2016-09-29 09:20:00 125 30483.0 11.790 12.300 12.560 12.480 12.000 94.600 90.600 10.960 10.990 412.40 51.00 14.430 14.660 13.780 12.520 14.520 12.030 12.400 12.680 12.640 12.190 11.220 11.260 501.90 61.74 0.8820 1.2000 11.590 12.160 12.420 12.300 11.910 10.790 10.740 0.00000 0.00 273 0.00 0.00 0.3530 198.10 61.56 0.5400 199.400 58.960 13.831 13.091 0.747 14.475 13.117 1.361
WS7MET_125 2016-09-29 09:15:00 125 30483.0 11.600 12.000 12.240 12.220 11.640 96.700 93.900 11.110 11.280 392.20 47.78 14.430 14.660 13.780 12.520 14.510 11.720 12.140 12.400 12.370 11.910 11.260 11.380 434.80 53.68 0.6010 1.1000 11.450 11.910 12.110 12.060 11.530 10.950 11.170 0.00000 0.00 202 0.00 0.00 0.1400 119.40 29.07 0.3650 159.500 56.500 13.659 13.222 0.451 14.229 13.372 0.868
WS7MET_125 2016-09-29 09:10:00 125 30483.0 11.540 11.850 12.050 12.070 11.430 96.700 93.900 11.050 11.130 295.30 35.90 14.440 14.660 13.780 12.530 14.560 11.790 11.910 12.100 12.170 11.560 11.280 11.250 361.00 44.29 0.6530 0.9000 11.450 11.830 12.020 12.000 11.360 10.960 11.060 0.00000 0.00 200 0.00 0.00 0.2060 99.10 12.15 0.3800 122.500 26.300 13.605 13.170 0.449 14.089 13.240 0.859
WS7MET_125 2016-09-29 09:05:00 125 30483.0 11.550 11.960 12.140 12.120 11.390 96.900 93.900 11.080 11.180 280.60 34.09 14.450 14.670 13.770 12.530 14.550 11.720 12.040 12.230 12.230 11.420 11.250 11.310 311.40 37.58 0.4120 0.7000 11.450 11.890 12.070 12.060 11.360 10.980 11.090 0.00000 0.00 229 0.00 0.00 0.1220 113.00 6.64 0.3750 119.700 21.490 13.614 13.196 0.422 14.136 13.284 0.862
WS7MET_125 2016-09-29 09:00:00 125 30483.0 11.500 12.020 12.230 12.160 11.580 98.200 94.500 11.230 11.320 261.20 34.09 14.450 14.670 13.780 12.530 14.570 11.620 12.080 12.290 12.230 11.730 11.370 11.430 306.00 37.58 0.7120 1.1000 11.380 11.900 12.140 12.060 11.360 11.140 11.230 0.00000 0.00 206 0.00 0.00 0.2150 209.30 19.02 0.4850 187.500 38.950 13.569 13.328 0.244 14.173 13.408 0.780
WS7MET_125 2016-09-29 08:55:00 125 30483.0 11.330 11.810 12.030 11.920 11.340 99.300 96.700 11.230 11.420 199.50 46.17 14.460 14.660 13.770 12.540 14.580 11.420 11.890 12.130 12.100 11.520 11.360 11.640 255.00 52.35 0.3330 0.9000 11.210 11.680 11.860 11.650 11.280 11.130 11.290 0.00000 0.00 238 0.00 0.00 0.0840 148.40 16.54 0.3650 172.800 35.730 13.417 13.328 0.094 13.951 13.497 0.460
WS7MET_125 2016-09-29 08:50:00 125 30483.0 11.140 11.530 11.690 11.440 11.140 99.400 97.900 11.060 11.130 135.40 42.08 14.480 14.680 13.770 12.530 14.610 11.280 11.660 11.840 11.650 11.240 11.210 11.340 154.40 48.32 0.7380 1.2000 11.040 11.380 11.520 11.180 10.970 10.930 10.890 0.00000 0.00 500 0.00 0.00 0.2970 197.10 14.63 0.4950 202.500 19.510 13.249 13.179 0.079 13.515 13.240 0.284
WS7MET_125 2016-09-29 08:45:00 125 30483.0 11.040 11.290 11.370 11.130 10.830 99.700 98.500 11.010 10.910 168.10 42.15 14.480 14.680 13.770 12.530 14.040 11.180 11.380 11.510 11.280 11.050 11.120 10.990 181.20 52.35 0.6600 1.0000 10.940 11.240 11.280 10.940 10.750 10.900 10.760 0.00000 0.00 229 0.00 0.00 0.2940 209.30 15.77 0.4800 215.000 21.070 13.161 13.135 0.039 13.240 13.048 0.199
WS7MET_125 2016-09-29 08:40:00 125 30483.0 10.950 11.130 11.150 10.920 10.730 100.000 99.000 10.950 10.790 142.70 23.89 14.480 14.680 13.780 12.530 13.090 11.070 11.250 11.260 11.040 10.990 11.080 10.890 174.50 29.53 0.7060 0.8000 10.840 11.080 11.090 10.870 10.510 10.840 10.720 0.00000 0.00 249 0.00 0.00 0.1510 211.80 8.26 0.2800 220.800 29.460 13.083 13.083 0.000 13.056 12.944 0.131
WS7MET_125 2016-09-29 08:35:00 125 30483.0 10.870 11.010 11.120 10.850 10.670 100.000 99.000 10.880 10.710 115.60 19.46 14.500 14.690 13.780 12.530 13.010 10.970 11.060 11.180 10.970 10.830 10.980 10.850 134.20 22.82 0.6210 0.7000 10.730 10.960 11.090 10.770 10.510 10.740 10.610 0.00000 0.00 207 0.00 0.00 0.1890 214.70 12.38 0.4450 215.200 24.290 13.013 13.022 -0.000 12.996 12.875 0.130
WS7MET_125 2016-09-29 08:30:00 125 30483.0 10.850 10.980 11.100 10.840 10.610 100.000 99.100 10.860 10.710 87.70 14.30 14.500 14.690 13.780 12.530 12.960 10.940 11.000 11.110 10.940 10.710 10.950 10.800 106.00 17.45 0.3660 0.9000 10.770 10.950 11.080 10.800 10.470 10.780 10.660 0.00000 0.00 207 0.00 0.00 0.1040 136.00 21.87 0.4100 148.600 26.140 12.996 13.004 0.000 12.987 12.875 0.117
WS7MET_125 2016-09-29 08:25:00 125 30483.0 10.930 11.040 11.120 10.840 10.720 100.000 99.500 10.940 10.770 95.50 16.04 14.510 14.690 13.780 12.530 12.940 11.070 11.080 11.160 10.940 10.930 11.080 10.870 115.40 20.13 0.0460 0.5000 10.800 10.980 11.090 10.730 10.620 10.810 10.610 0.00000 0.00 212 0.00 0.00 0.0020 232.00 0.00 0.3500 185.900 20.660 13.065 13.074 0.000 12.987 12.927 0.065
WS7MET_125 2016-09-29 08:20:00 125 30483.0 10.790 10.970 11.030 10.800 10.650 100.000 99.900 10.800 10.790 114.10 19.60 14.520 14.690 13.780 12.530 12.890 10.940 11.010 11.090 10.900 10.850 10.950 10.890 120.80 21.48 0.2090 0.5000 10.670 10.920 10.960 10.700 10.550 10.670 10.680 0.00000 0.00 231 0.00 0.00 0.0260 187.50 13.25 0.3250 193.400 35.470 12.944 12.953 0.000 12.953 12.944 0.013
WS7MET_125 2016-09-29 08:15:00 125 30483.0 10.570 10.820 10.880 10.720 10.470 100.000 100.000 10.570 10.720 115.10 19.73 14.520 14.700 13.780 12.530 12.870 10.630 10.900 10.960 10.800 10.620 10.640 10.810 124.80 21.48 0.2290 0.6000 10.460 10.770 10.830 10.630 10.300 10.470 10.630 0.00000 0.00 237 0.00 0.00 0.0430 214.20 4.50 0.2850 185.500 29.070 12.756 12.756 0.000 12.884 12.884 0.000
WS7MET_125 2016-09-29 08:10:00 125 30483.0 10.530 10.730 10.790 10.610 10.500 100.000 100.000 10.540 10.620 100.50 16.85 14.530 14.700 13.780 12.530 12.820 10.670 10.810 10.870 10.730 10.590 10.680 10.740 120.80 21.48 0.6730 0.9000 10.430 10.640 10.730 10.530 10.350 10.440 10.540 0.00000 0.00 272 0.00 0.00 0.2850 219.00 9.08 0.4950 224.700 15.350 12.722 12.730 0.000 12.790 12.798 0.000
WS7MET_125 2016-09-29 08:05:00 125 30483.0 10.560 10.680 10.750 10.580 10.340 100.000 100.000 10.570 10.590 77.52 12.48 14.550 14.700 13.770 12.530 12.790 10.700 10.740 10.810 10.670 10.550 10.710 10.680 84.60 13.42 0.4050 0.8000 10.430 10.610 10.670 10.500 10.130 10.440 10.510 0.00000 0.00 235 0.00 0.00 0.1490 204.40 8.79 0.4100 191.600 27.590 12.747 12.756 0.000 12.764 12.773 0.000
WS7MET_125 2016-09-29 08:00:00 125 30483.0 10.490 10.700 10.750 10.540 10.430 100.000 100.000 10.500 10.550 96.20 16.04 14.550 14.700 13.770 12.530 12.770 10.630 10.760 10.790 10.630 10.500 10.640 10.640 104.70 17.45 0.0070 0.4000 10.360 10.620 10.730 10.430 10.370 10.370 10.440 0.00000 0.00 235 0.00 0.00 0.0000 197.80 0.00 0.3250 171.300 20.040 12.688 12.696 0.000 12.730 12.739 0.000
WS7MET_125 2016-09-29 07:55:00 125 30483.0 10.340 10.520 10.610 10.440 10.390 100.000 100.000 10.350 10.450 80.90 13.29 14.560 14.710 13.770 12.530 12.730 10.430 10.640 10.730 10.530 10.590 10.440 10.540 96.60 16.11 0.5750 0.8000 10.260 10.460 10.530 10.360 10.230 10.270 10.370 0.00000 0.00 225 0.00 0.00 0.1310 169.10 6.19 0.3100 178.100 28.950 12.561 12.570 0.000 12.645 12.654 0.000
WS7MET_125 2016-09-29 07:50:00 125 30483.0 10.320 10.450 10.500 10.340 10.270 100.000 100.000 10.330 10.350 63.02 10.00 14.570 14.710 13.760 12.530 12.700 10.430 10.490 10.530 10.460 10.330 10.440 10.470 67.12 10.74 0.3140 0.8000 10.220 10.400 10.430 10.290 10.190 10.230 10.300 0.00000 0.00 246 0.00 0.00 0.0300 158.30 6.57 0.3150 161.200 23.980 12.545 12.553 0.000 12.561 12.570 0.000
WS7MET_125 2016-09-29 07:45:00 125 30483.0 10.260 10.350 10.400 10.260 10.150 100.000 100.000 10.270 10.270 61.75 9.66 14.570 14.720 13.760 12.520 12.680 10.330 10.380 10.430 10.360 10.210 10.330 10.370 68.46 10.74 0.0000 0.5000 10.190 10.320 10.350 10.160 10.090 10.200 10.160 0.00000 0.00 241 0.00 0.00 0.0000 0.00 0.00 0.2550 183.800 29.000 12.494 12.503 0.000 12.494 12.503 0.000
WS7MET_125 2016-09-29 07:40:00 125 30483.0 10.220 10.320 10.380 10.270 10.100 100.000 100.000 10.230 10.270 52.15 7.85 14.590 14.720 13.760 12.520 12.670 10.320 10.350 10.410 10.320 10.150 10.330 10.330 65.77 10.74 0.4180 0.6000 10.120 10.300 10.350 10.190 10.050 10.130 10.200 0.00000 0.00 211 0.00 0.00 0.0770 157.00 11.48 0.3300 177.400 23.640 12.461 12.469 0.000 12.503 12.503 0.000
WS7MET_125 2016-09-29 07:35:00 125 30483.0 10.090 10.280 10.370 10.260 10.160 100.000 100.000 10.100 10.270 52.28 7.99 14.590 14.720 13.760 12.520 12.650 10.190 10.340 10.410 10.330 10.250 10.200 10.330 63.09 10.74 0.1310 0.5000 9.950 10.240 10.340 10.190 10.110 9.960 10.200 0.00000 0.00 207 0.00 0.00 0.0080 246.80 13.21 0.3000 206.600 40.160 12.353 12.361 0.000 12.494 12.503 0.000
WS7MET_125 2016-09-29 07:30:00 125 30483.0 10.030 10.240 10.340 10.180 10.060 100.000 100.000 10.040 10.190 53.76 8.19 14.600 14.720 13.760 12.520 12.640 10.160 10.260 10.350 10.260 10.140 10.160 10.270 61.75 9.40 0.3720 0.6000 9.880 10.220 10.310 10.120 10.010 9.890 10.130 0.00000 0.00 237 0.00 0.00 0.1030 196.20 13.11 0.3450 197.700 42.190 12.303 12.312 0.000 12.428 12.436 0.000
WS7MET_125 2016-09-29 07:25:00 125 30483.0 9.960 10.180 10.260 10.120 10.030 100.000 100.000 9.970 10.130 66.04 10.54 14.610 14.720 13.760 12.520 12.630 10.050 10.220 10.310 10.260 10.180 10.060 10.270 68.46 10.74 0.0000 0.4000 9.850 10.110 10.160 9.950 9.920 9.860 9.960 0.00000 0.00 251 0.00 0.00 0.0000 0.00 0.00 0.1950 186.300 31.200 12.246 12.254 0.000 12.378 12.386 0.000
WS7MET_125 2016-09-29 07:20:00 125 30483.0 9.880 10.110 10.160 10.040 9.920 100.000 100.000 9.890 10.050 54.90 8.39 14.610 14.730 13.760 12.520 12.610 9.950 10.130 10.160 10.090 10.020 9.960 10.100 63.09 9.40 0.0000 0.4000 9.750 10.090 10.140 9.980 9.880 9.750 9.990 0.00000 0.00 490 0.00 0.00 0.0000 0.00 0.00 0.2100 140.400 24.530 12.180 12.189 0.000 12.312 12.320 0.000
WS7MET_125 2016-09-29 07:15:00 125 30483.0 9.680 10.010 10.070 10.000 9.930 100.000 100.000 9.690 10.010 50.00 7.85 14.630 14.730 13.760 12.520 12.590 9.850 10.090 10.130 10.160 10.040 9.860 10.160 53.69 8.05 0.0000 0.5000 9.510 9.950 10.000 9.850 9.820 9.520 9.860 0.00000 0.00 273 0.00 0.00 0.0000 0.00 0.00 0.2750 169.900 27.540 12.018 12.026 0.000 12.279 12.287 0.000
WS7MET_125 2016-09-29 07:10:00 125 30483.0 9.470 9.860 9.930 9.870 9.810 100.000 100.000 9.480 9.870 52.42 8.12 14.630 14.740 13.760 12.520 12.580 9.610 9.930 10.000 9.950 9.940 9.620 9.960 61.75 9.40 0.0000 0.4000 9.300 9.790 9.850 9.780 9.700 9.310 9.780 0.00000 0.00 244 0.00 0.00 0.0000 0.00 0.00 0.1900 130.200 18.240 11.849 11.857 0.000 12.172 12.172 0.000
WS7MET_125 2016-09-29 07:05:00 125 30483.0 9.250 9.640 9.720 9.720 9.670 100.000 99.800 9.250 9.700 51.07 7.78 14.640 14.740 13.760 12.530 12.570 9.400 9.770 9.840 9.810 9.840 9.410 9.810 63.09 10.74 0.1760 0.4000 9.130 9.510 9.620 9.640 9.550 9.140 9.620 0.00000 0.00 0 0.00 0.00 0.0100 184.40 0.11 0.2750 172.100 31.890 11.675 11.675 0.000 12.050 12.034 0.024
WS7MET_125 2016-09-29 07:00:00 125 30483.0 9.190 9.470 9.570 9.610 9.530 100.000 99.600 9.200 9.560 33.96 4.76 14.650 14.740 13.760 12.530 12.550 9.270 9.500 9.610 9.710 9.570 9.280 9.670 44.30 6.71 0.0910 0.4000 9.100 9.430 9.530 9.540 9.510 9.110 9.490 0.00000 0.00 238 0.00 0.00 0.0050 111.60 0.00 0.2300 131.800 24.180 11.628 11.636 -0.000 11.962 11.921 0.048
WS7MET_125 2016-09-29 06:55:00 125 30483.0 9.160 9.420 9.520 9.580 9.500 100.000 99.500 9.170 9.510 24.56 4.03 14.660 14.740 13.760 12.520 12.530 9.270 9.430 9.520 9.650 9.550 9.280 9.590 25.50 4.03 0.0000 0.4000 9.030 9.410 9.520 9.440 9.470 9.040 9.370 0.00000 0.00 483 0.00 0.00 0.0000 0.00 0.00 0.2000 122.800 22.800 11.604 11.612 0.000 11.937 11.881 0.060
WS7MET_125 2016-09-29 06:50:00 125 30483.0 9.160 9.410 9.530 9.580 9.530 100.000 99.400 9.170 9.500 21.95 2.75 14.670 14.740 13.760 12.520 12.530 9.270 9.410 9.530 9.640 9.550 9.280 9.580 22.82 4.03 0.0000 0.4000 9.060 9.410 9.520 9.510 9.500 9.070 9.420 0.00000 0.00 244 0.00 0.00 0.0000 0.00 0.00 0.1600 109.000 27.960 11.604 11.612 0.000 11.937 11.873 0.072
WS7MET_125 2016-09-29 06:45:00 125 30483.0 9.190 9.410 9.530 9.590 9.530 100.000 99.300 9.200 9.490 19.33 2.68 14.680 14.740 13.760 12.520 12.520 9.300 9.410 9.530 9.680 9.550 9.310 9.570 21.48 2.68 0.0000 0.3000 9.130 9.400 9.530 9.510 9.510 9.140 9.390 0.00000 0.00 314 0.00 0.00 0.0000 0.00 0.00 0.1950 66.840 15.510 11.628 11.636 -0.000 11.945 11.865 0.084
WS7MET_125 2016-09-29 06:40:00 125 30483.0 9.180 9.410 9.540 9.590 9.540 100.000 99.300 9.190 9.500 16.71 2.68 14.680 14.740 13.760 12.520 12.510 9.270 9.420 9.550 9.680 9.570 9.270 9.580 17.45 2.68 0.0000 0.5000 9.100 9.400 9.530 9.470 9.510 9.110 9.370 0.00000 0.00 392 0.00 0.00 0.0000 0.00 0.00 0.2000 26.310 44.180 11.620 11.628 0.000 11.945 11.873 0.084
WS7MET_125 2016-09-29 06:35:00 125 30483.0 9.170 9.440 9.550 9.570 9.600 99.900 99.300 9.170 9.470 15.30 2.28 14.690 14.750 13.760 12.520 12.510 9.270 9.440 9.550 9.680 9.630 9.260 9.580 16.11 2.68 0.0000 0.3000 9.100 9.420 9.530 9.470 9.570 9.080 9.380 0.00000 0.00 288 0.00 0.00 0.0000 0.00 0.00 0.2050 330.600 22.400 11.612 11.612 0.012 11.929 11.849 0.084
WS7MET_125 2016-09-29 06:30:00 125 30483.0 9.200 9.420 9.520 9.550 9.550 99.800 99.100 9.180 9.430 12.48 1.34 14.710 14.760 13.760 12.520 12.510 9.270 9.440 9.530 9.610 9.590 9.260 9.510 14.77 1.34 0.0000 0.4000 9.100 9.410 9.500 9.470 9.490 9.070 9.350 0.00000 0.00 210 0.00 0.00 0.0000 0.00 0.00 0.2450 347.200 21.920 11.636 11.620 0.023 11.913 11.818 0.107
WS7MET_125 2016-09-29 06:25:00 125 30483.0 9.230 9.440 9.540 9.600 9.530 99.800 99.100 9.220 9.470 9.40 1.34 14.720 14.760 13.760 12.520 12.510 9.300 9.440 9.550 9.680 9.550 9.280 9.550 10.74 1.34 0.1240 0.5000 9.170 9.420 9.510 9.510 9.490 9.140 9.380 0.00000 0.00 251 0.00 0.00 0.0060 308.80 0.00 0.2300 347.100 21.390 11.659 11.652 0.023 11.953 11.849 0.108
WS7MET_125 2016-09-29 06:20:00 125 30483.0 9.290 9.480 9.600 9.670 9.550 99.800 99.100 9.270 9.540 6.31 0.54 14.720 14.760 13.760 12.510 12.500 9.400 9.500 9.630 9.750 9.590 9.370 9.630 8.05 1.34 0.0000 0.4000 9.200 9.440 9.560 9.610 9.460 9.180 9.470 0.00000 0.00 249 0.00 0.00 0.0000 0.00 0.00 0.2450 320.900 23.420 11.707 11.691 0.023 12.010 11.905 0.108
WS7MET_125 2016-09-29 06:15:00 125 30483.0 9.430 9.600 9.720 9.800 9.680 99.900 99.300 9.430 9.710 4.30 0.00 14.730 14.760 13.760 12.530 12.500 9.510 9.650 9.770 9.950 9.750 9.510 9.860 5.37 0.00 0.0390 0.4000 9.300 9.510 9.630 9.680 9.500 9.280 9.560 0.00000 0.00 520 0.00 0.00 0.0020 324.50 0.00 0.2800 322.900 14.790 11.818 11.818 0.012 12.115 12.042 0.085
WS7MET_125 2016-09-29 06:10:00 125 30483.0 9.480 9.700 9.820 9.890 9.770 100.000 99.500 9.490 9.820 3.29 0.00 14.740 14.760 13.760 12.530 12.510 9.610 9.740 9.870 9.950 9.800 9.620 9.900 4.03 0.00 0.0000 0.4000 9.340 9.660 9.770 9.780 9.720 9.340 9.730 0.00000 0.00 243 0.00 0.00 0.0000 0.00 0.00 0.1600 321.800 14.670 11.857 11.865 0.000 12.189 12.131 0.061
WS7MET_125 2016-09-29 06:05:00 125 30483.0 9.550 9.810 9.920 9.980 9.850 100.000 99.700 9.560 9.930 2.35 0.00 14.750 14.760 13.750 12.530 12.510 9.640 9.860 9.960 10.050 9.920 9.650 10.030 2.68 0.00 0.0000 0.2000 9.470 9.760 9.870 9.880 9.790 9.480 9.830 0.00000 0.00 332 0.00 0.00 0.0000 0.00 0.00 0.1450 308.200 26.170 11.913 11.921 0.000 12.262 12.221 0.037
WS7MET_125 2016-09-29 06:00:00 125 30483.0 9.580 9.890 10.000 10.040 9.960 100.000 99.700 9.590 10.000 1.27 0.00 14.760 14.760 13.750 12.530 12.510 9.680 9.920 10.010 10.090 10.000 9.690 10.060 1.34 0.00 0.0000 0.3000 9.470 9.860 9.960 9.950 9.920 9.480 9.920 0.00000 0.00 333 0.00 0.00 0.0000 0.00 0.00 0.0900 297.000 23.880 11.937 11.945 0.000 12.312 12.279 0.037
WS7MET_125 2016-09-29 05:55:00 125 30483.0 9.550 9.920 10.030 10.040 10.010 100.000 99.700 9.560 10.000 0.00 0.00 14.770 14.760 13.750 12.530 12.510 9.640 9.930 10.030 10.120 10.020 9.650 10.080 0.00 0.00 0.0000 0.2000 9.470 9.910 10.020 9.980 9.990 9.480 9.930 0.00000 0.00 286 0.00 0.00 0.0000 0.00 0.00 0.1100 295.300 31.180 11.913 11.921 0.000 12.312 12.279 0.037
WS7MET_125 2016-09-29 05:50:00 125 30483.0 9.520 9.900 10.010 10.030 10.040 100.000 99.600 9.520 9.970 0.00 0.00 14.780 14.770 13.750 12.530 12.510 9.640 9.920 10.020 10.090 10.070 9.650 10.050 0.00 0.00 0.0000 0.2000 9.440 9.850 9.980 9.980 10.020 9.450 9.910 0.00000 0.00 286 0.00 0.00 0.0000 0.00 0.00 0.0500 257.200 8.680 11.889 11.889 0.000 12.303 12.254 0.049
WS7MET_125 2016-09-29 05:45:00 125 30483.0 9.490 9.810 9.930 9.930 10.000 99.900 99.300 9.490 9.840 0.00 0.00 14.780 14.770 13.750 12.520 12.510 9.540 9.850 9.970 10.020 10.060 9.550 9.960 0.00 0.00 0.0000 0.2000 9.400 9.760 9.870 9.850 9.930 9.390 9.750 0.00000 0.00 322 0.00 0.00 0.0000 0.00 0.00 0.0650 277.100 26.510 11.865 11.865 0.012 12.221 12.148 0.086
WS7MET_125 2016-09-29 05:40:00 125 30483.0 9.490 9.740 9.860 9.920 9.940 99.900 99.200 9.490 9.820 0.00 0.00 14.800 14.780 13.750 12.530 12.510 9.610 9.760 9.870 9.990 9.960 9.600 9.880 0.00 0.00 0.0000 0.2000 9.410 9.730 9.860 9.880 9.920 9.400 9.770 0.00000 0.00 368 0.00 0.00 0.0000 0.00 0.00 0.0450 306.200 21.590 11.865 11.865 0.012 12.213 12.131 0.098
WS7MET_125 2016-09-29 05:35:00 125 30483.0 9.500 9.730 9.860 9.920 9.930 99.800 99.100 9.470 9.790 0.00 0.00 14.800 14.780 13.750 12.530 12.510 9.580 9.750 9.870 10.050 9.940 9.560 9.900 0.00 0.00 0.0000 0.3000 9.370 9.710 9.840 9.850 9.900 9.340 9.700 0.00000 0.00 406 0.00 0.00 0.0000 0.00 0.00 0.1750 1.459 23.790 11.873 11.849 0.024 12.213 12.107 0.110
WS7MET_125 2016-09-29 05:30:00 125 30483.0 9.500 9.720 9.840 9.930 9.810 99.700 98.900 9.460 9.770 0.00 0.00 14.820 14.780 13.750 12.530 12.520 9.570 9.770 9.860 10.020 9.880 9.530 9.860 0.00 0.00 0.0000 0.4000 9.400 9.690 9.820 9.810 9.720 9.360 9.650 0.00000 0.00 278 0.00 0.00 0.0000 0.00 0.00 0.2200 340.400 31.540 11.873 11.841 0.036 12.221 12.091 0.134
WS7MET_125 2016-09-29 05:25:00 125 30483.0 9.580 9.810 9.920 9.990 9.940 99.700 98.900 9.550 9.840 0.00 0.00 14.830 14.780 13.740 12.530 12.520 9.640 9.830 9.940 10.050 9.980 9.610 9.910 0.00 0.00 0.0910 0.4000 9.510 9.770 9.880 9.920 9.810 9.490 9.760 0.00000 0.00 339 0.00 0.00 0.0060 328.30 0.02 0.2400 328.400 21.750 11.937 11.913 0.036 12.271 12.148 0.135
WS7MET_125 2016-09-29 05:20:00 125 30483.0 9.610 9.850 9.960 10.040 9.970 99.700 98.900 9.580 9.890 0.00 0.00 14.840 14.780 13.740 12.530 12.510 9.680 9.860 9.980 10.220 10.010 9.650 10.070 0.00 0.00 0.0070 0.4000 9.510 9.820 9.940 9.980 9.930 9.480 9.830 0.00000 0.00 320 0.00 0.00 0.0000 337.30 0.00 0.2450 339.200 11.170 11.962 11.937 0.036 12.312 12.189 0.135
WS7MET_125 2016-09-29 05:15:00 125 30483.0 9.630 9.870 10.000 10.120 9.990 99.700 98.900 9.590 9.960 0.00 0.00 14.850 14.780 13.740 12.530 12.510 9.710 9.880 10.020 10.190 10.010 9.660 10.030 0.00 0.00 0.0000 0.3000 9.510 9.860 9.980 10.020 9.960 9.470 9.860 0.00000 0.00 250 0.00 0.00 0.0000 0.00 0.00 0.2400 1.461 11.370 11.978 11.945 0.036 12.378 12.246 0.136
WS7MET_125 2016-09-29 05:10:00 125 30483.0 9.660 9.900 10.030 10.120 10.070 99.600 98.900 9.610 9.960 0.00 0.00 14.850 14.780 13.740 12.530 12.510 9.850 9.930 10.050 10.190 10.140 9.810 10.030 0.00 0.00 0.0000 0.4000 9.510 9.880 10.020 10.050 9.980 9.460 9.890 0.00000 0.00 246 0.00 0.00 0.0000 0.00 0.00 0.2100 325.300 33.950 12.002 11.962 0.048 12.378 12.246 0.136
WS7MET_125 2016-09-29 05:05:00 125 30483.0 9.650 9.890 10.010 10.100 10.050 99.500 98.700 9.580 9.910 0.00 0.00 14.860 14.780 13.740 12.530 12.520 9.780 9.910 10.050 10.190 10.090 9.710 10.000 0.00 0.00 0.0000 0.2000 9.470 9.870 9.990 10.020 10.030 9.420 9.810 0.00000 0.00 251 0.00 0.00 0.0000 0.00 0.00 0.1200 32.920 27.890 11.994 11.937 0.060 12.361 12.205 0.161
WS7MET_125 2016-09-29 05:00:00 125 30483.0 9.670 9.920 10.030 10.130 10.110 99.500 98.600 9.610 9.930 0.00 0.00 14.880 14.780 13.740 12.530 12.520 9.880 9.940 10.050 10.220 10.130 9.810 10.030 0.00 0.00 0.2420 0.4000 9.470 9.920 10.020 10.050 10.050 9.410 9.850 0.00000 0.00 249 0.00 0.00 0.0600 339.20 0.06 0.2150 342.600 37.980 12.010 11.962 0.060 12.386 12.221 0.173
WS7MET_125 2016-09-29 04:55:00 125 30483.0 9.600 9.920 10.010 10.090 10.070 99.500 98.600 9.530 9.880 0.00 0.00 14.890 14.790 13.740 12.530 12.520 9.750 9.940 10.030 10.260 10.110 9.680 10.050 0.00 0.00 0.2810 0.3000 9.440 9.920 10.010 10.020 10.050 9.370 9.800 0.00000 0.00 315 0.00 0.00 0.1150 339.40 0.07 0.2500 352.600 20.740 11.953 11.897 0.060 12.353 12.180 0.173
WS7MET_125 2016-09-29 04:50:00 125 30483.0 9.620 9.910 10.020 10.090 10.050 99.400 98.400 9.530 9.870 0.00 0.00 14.890 14.790 13.740 12.530 12.520 9.880 9.930 10.030 10.150 10.110 9.810 9.930 0.00 0.00 0.4250 0.5000 9.440 9.890 10.010 10.020 9.990 9.370 9.790 0.00000 0.00 240 0.00 0.00 0.2710 342.50 2.58 0.3250 348.700 13.230 11.970 11.897 0.072 12.353 12.172 0.198
WS7MET_125 2016-09-29 04:45:00 125 30483.0 9.620 9.880 10.010 10.070 10.060 99.300 98.500 9.520 9.850 0.00 0.00 14.900 14.790 13.740 12.530 12.520 9.780 9.910 10.020 10.150 10.090 9.690 9.940 0.00 0.00 0.4180 0.6000 9.470 9.870 10.010 9.980 10.050 9.360 9.760 0.00000 0.00 253 0.00 0.00 0.3180 333.60 4.57 0.4400 353.200 7.776 11.970 11.889 0.084 12.336 12.156 0.185
WS7MET_125 2016-09-29 04:40:00 125 30483.0 9.610 9.860 9.990 10.020 10.020 99.200 98.500 9.500 9.800 0.00 0.00 14.910 14.800 13.740 12.530 12.520 9.740 9.870 10.000 10.120 10.050 9.620 9.900 0.00 0.00 0.4120 0.5000 9.440 9.850 9.970 9.910 9.990 9.300 9.680 0.00000 0.00 329 0.00 0.00 0.3070 334.20 2.52 0.4250 344.700 9.860 11.962 11.873 0.096 12.295 12.115 0.184
WS7MET_125 2016-09-29 04:35:00 125 30483.0 9.640 9.860 9.980 10.040 10.000 99.000 98.400 9.500 9.810 0.00 0.00 14.920 14.800 13.740 12.540 12.530 9.810 9.880 9.990 10.150 10.040 9.690 9.920 0.00 0.00 0.3590 0.5000 9.470 9.860 9.970 9.910 9.970 9.330 9.690 0.00000 0.00 289 0.00 0.00 0.3030 337.50 0.24 0.4050 356.600 5.997 11.986 11.873 0.120 12.312 12.123 0.197
WS7MET_125 2016-09-29 04:30:00 125 30483.0 9.660 9.890 10.010 10.030 10.040 99.000 98.500 9.520 9.810 0.00 0.00 14.930 14.800 13.750 12.520 12.530 9.780 9.910 10.030 10.090 10.090 9.640 9.870 0.00 0.00 0.3270 0.5000 9.540 9.880 9.990 9.950 9.990 9.390 9.720 0.00000 0.00 372 0.00 0.00 0.2540 337.10 0.34 0.4050 355.700 5.165 12.002 11.889 0.120 12.303 12.123 0.185
WS7MET_125 2016-09-29 04:25:00 125 30483.0 9.720 9.920 10.020 10.060 10.060 99.100 98.500 9.590 9.850 0.00 0.00 14.940 14.800 13.750 12.520 12.530 9.910 9.940 10.030 10.150 10.090 9.790 9.940 0.00 0.00 0.2940 0.5000 9.570 9.910 10.010 9.980 10.050 9.440 9.770 0.00000 0.00 242 0.00 0.00 0.2380 336.40 0.74 0.3700 356.800 5.574 12.050 11.945 0.108 12.328 12.156 0.185
WS7MET_125 2016-09-29 04:20:00 125 30483.0 9.770 9.930 10.020 10.110 10.050 99.100 98.400 9.640 9.880 0.00 0.00 14.950 14.800 13.730 12.520 12.520 9.880 9.940 10.030 10.220 10.090 9.750 10.000 0.00 0.00 0.3330 0.5000 9.610 9.930 10.010 10.020 10.020 9.470 9.800 0.00000 0.00 363 0.00 0.00 0.1740 334.10 0.30 0.3450 357.400 5.180 12.091 11.986 0.109 12.370 12.180 0.198
WS7MET_125 2016-09-29 04:15:00 125 30483.0 9.800 9.960 10.060 10.200 9.980 99.000 98.200 9.660 9.940 0.00 0.00 14.960 14.810 13.730 12.520 12.520 9.910 10.010 10.110 10.290 10.010 9.790 10.030 0.00 0.00 0.3590 0.5000 9.680 9.940 10.030 10.120 9.960 9.540 9.860 0.00000 0.00 246 0.00 0.00 0.2590 341.60 5.40 0.3850 355.700 7.108 12.115 12.002 0.121 12.444 12.229 0.224
WS7MET_125 2016-09-29 04:10:00 125 30483.0 9.830 10.070 10.180 10.270 10.110 98.900 97.900 9.680 9.960 0.00 0.00 14.970 14.800 13.740 12.520 12.530 10.090 10.100 10.230 10.360 10.230 9.910 10.060 0.00 0.00 0.4380 0.6000 9.710 10.020 10.110 10.190 9.980 9.560 9.860 0.00000 0.00 319 0.00 0.00 0.2680 345.50 4.59 0.3800 3.050 6.725 12.140 12.018 0.134 12.503 12.246 0.263
WS7MET_125 2016-09-29 04:05:00 125 30483.0 9.860 10.130 10.260 10.340 10.300 98.800 97.900 9.690 10.040 0.00 0.00 14.980 14.790 13.740 12.520 12.540 10.020 10.130 10.270 10.430 10.360 9.850 10.130 0.00 0.00 0.3720 0.5000 9.710 10.110 10.240 10.260 10.230 9.540 9.930 0.00000 0.00 514 0.00 0.00 0.2900 344.60 2.75 0.3500 359.500 4.637 12.164 12.026 0.146 12.561 12.312 0.264
WS7MET_125 2016-09-29 04:00:00 125 30483.0 9.930 10.150 10.270 10.350 10.300 98.700 97.900 9.740 10.040 0.00 0.00 14.980 14.800 13.740 12.530 12.540 10.090 10.170 10.290 10.430 10.330 9.890 10.130 0.00 0.00 0.3790 0.6000 9.780 10.130 10.260 10.290 10.290 9.580 9.960 0.00000 0.00 353 0.00 0.00 0.3170 333.60 3.85 0.4200 352.100 7.474 12.221 12.066 0.159 12.570 12.312 0.264
WS7MET_125 2016-09-29 03:55:00 125 30483.0 9.980 10.210 10.320 10.410 10.290 98.700 97.700 9.790 10.080 0.00 0.00 14.980 14.800 13.740 12.520 12.540 10.090 10.260 10.370 10.530 10.320 9.910 10.190 0.00 0.00 0.3460 0.6000 9.850 10.180 10.290 10.320 10.270 9.640 9.980 0.00000 0.00 391 0.00 0.00 0.1760 338.60 1.41 0.3250 350.800 16.290 12.262 12.107 0.159 12.620 12.345 0.290
WS7MET_125 2016-09-29 03:50:00 125 30483.0 10.020 10.280 10.400 10.460 10.400 98.800 97.700 9.850 10.110 0.00 0.00 14.990 14.800 13.740 12.520 12.540 10.120 10.300 10.430 10.560 10.430 9.960 10.220 0.00 0.00 0.3070 0.5000 9.910 10.260 10.370 10.390 10.350 9.730 10.040 0.00000 0.00 512 0.00 0.00 0.1700 330.00 2.50 0.3700 335.400 10.730 12.295 12.156 0.148 12.662 12.370 0.291
WS7MET_125 2016-09-29 03:45:00 125 30483.0 10.090 10.320 10.450 10.520 10.500 98.800 97.900 9.920 10.220 0.00 0.00 15.020 14.810 13.740 12.530 12.540 10.220 10.340 10.470 10.630 10.550 10.050 10.320 0.00 0.00 0.3400 0.5000 10.020 10.300 10.430 10.430 10.430 9.840 10.100 0.00000 0.00 448 0.00 0.00 0.2260 333.80 0.96 0.3700 356.100 6.006 12.353 12.213 0.148 12.713 12.461 0.267
WS7MET_125 2016-09-29 03:40:00 125 30483.0 10.100 10.330 10.440 10.520 10.480 98.800 98.000 9.920 10.230 0.00 0.00 15.020 14.810 13.740 12.530 12.540 10.260 10.350 10.450 10.560 10.530 10.070 10.300 0.00 0.00 0.2740 0.4000 9.950 10.320 10.430 10.430 10.360 9.770 10.130 0.00000 0.00 452 0.00 0.00 0.2050 333.30 0.51 0.3250 352.100 10.280 12.361 12.213 0.148 12.713 12.469 0.254
WS7MET_125 2016-09-29 03:35:00 125 30483.0 10.150 10.360 10.470 10.530 10.450 98.800 97.900 9.980 10.230 0.00 0.00 15.030 14.820 13.740 12.530 12.550 10.320 10.380 10.490 10.630 10.500 10.160 10.330 0.00 0.00 0.4310 0.6000 10.050 10.340 10.440 10.460 10.370 9.890 10.140 0.00000 0.00 297 0.00 0.00 0.2570 334.50 0.56 0.3800 348.300 15.250 12.403 12.262 0.149 12.722 12.469 0.267
WS7MET_125 2016-09-29 03:30:00 125 30483.0 10.130 10.390 10.490 10.550 10.470 98.900 97.700 9.970 10.210 0.00 0.00 15.040 14.820 13.740 12.530 12.550 10.220 10.410 10.510 10.600 10.510 10.060 10.250 0.00 0.00 0.3720 0.6000 10.050 10.380 10.490 10.490 10.430 9.890 10.160 0.00000 0.00 567 0.00 0.00 0.2850 334.40 0.84 0.4350 347.500 6.383 12.386 12.254 0.136 12.739 12.453 0.293
WS7MET_125 2016-09-29 03:25:00 125 30483.0 10.140 10.420 10.540 10.620 10.560 98.800 97.700 9.970 10.270 0.00 0.00 15.050 14.820 13.730 12.520 12.550 10.220 10.420 10.550 10.730 10.610 10.070 10.400 0.00 0.00 0.3070 0.5000 10.090 10.410 10.510 10.560 10.450 9.900 10.220 0.00000 0.00 283 0.00 0.00 0.2620 334.50 1.89 0.4250 353.300 7.025 12.394 12.254 0.149 12.798 12.503 0.294
WS7MET_125 2016-09-29 03:20:00 125 30483.0 10.170 10.420 10.560 10.630 10.590 98.800 97.600 9.990 10.270 0.00 0.00 15.060 14.820 13.730 12.530 12.550 10.260 10.440 10.570 10.700 10.610 10.090 10.360 0.00 0.00 0.3920 0.6000 10.050 10.420 10.550 10.560 10.570 9.890 10.210 0.00000 0.00 248 0.00 0.00 0.2820 332.00 0.76 0.4350 348.600 7.575 12.419 12.271 0.149 12.807 12.503 0.307
WS7MET_125 2016-09-29 03:15:00 125 30483.0 10.180 10.450 10.580 10.660 10.600 98.700 97.600 9.990 10.310 0.00 0.00 15.060 14.820 13.730 12.520 12.550 10.260 10.470 10.590 10.730 10.630 10.060 10.390 0.00 0.00 0.3460 0.5000 10.120 10.440 10.570 10.560 10.590 9.930 10.210 0.00000 0.00 318 0.00 0.00 0.2550 341.90 4.58 0.3550 356.500 7.243 12.428 12.271 0.162 12.832 12.536 0.308
WS7MET_125 2016-09-29 03:10:00 125 30483.0 10.200 10.490 10.610 10.690 10.630 98.800 97.600 10.030 10.340 0.00 0.00 15.070 14.820 13.720 12.530 12.550 10.320 10.500 10.630 10.770 10.650 10.150 10.400 0.00 0.00 0.3660 0.5000 10.090 10.480 10.600 10.630 10.590 9.910 10.270 0.00000 0.00 595 0.00 0.00 0.3170 337.80 0.49 0.3800 352.700 5.722 12.444 12.303 0.149 12.858 12.561 0.309
WS7MET_125 2016-09-29 03:05:00 125 30483.0 10.240 10.500 10.640 10.710 10.680 98.800 97.700 10.060 10.370 0.00 0.00 15.080 14.820 13.720 12.530 12.550 10.390 10.520 10.650 10.770 10.730 10.220 10.420 0.00 0.00 0.3460 0.6000 10.150 10.500 10.630 10.630 10.630 9.980 10.290 0.00000 0.00 214 0.00 0.00 0.3030 337.70 1.45 0.3900 355.800 4.039 12.478 12.328 0.150 12.875 12.586 0.296
WS7MET_125 2016-09-29 03:00:00 125 30483.0 10.240 10.510 10.640 10.720 10.700 98.700 97.700 10.050 10.370 0.00 0.00 15.090 14.820 13.720 12.530 12.560 10.320 10.520 10.650 10.800 10.730 10.120 10.480 0.00 0.00 0.4310 0.6000 10.150 10.500 10.630 10.670 10.680 9.980 10.310 0.00000 0.00 212 0.00 0.00 0.3020 332.10 1.93 0.4000 348.000 9.450 12.478 12.320 0.162 12.884 12.586 0.296
WS7MET_125 2016-09-29 02:55:00 125 30483.0 10.240 10.520 10.650 10.690 10.680 98.600 97.500 10.040 10.330 0.00 0.00 15.100 14.820 13.720 12.530 12.560 10.320 10.540 10.670 10.770 10.710 10.140 10.400 0.00 0.00 0.3070 0.4000 10.190 10.510 10.640 10.630 10.660 9.970 10.260 0.00000 0.00 233 0.00 0.00 0.2450 335.60 0.41 0.3250 358.600 6.321 12.478 12.312 0.175 12.858 12.553 0.321
WS7MET_125 2016-09-29 02:50:00 125 30483.0 10.290 10.560 10.670 10.710 10.710 98.500 97.500 10.070 10.340 0.00 0.00 15.110 14.820 13.720 12.530 12.560 10.360 10.570 10.690 10.770 10.770 10.150 10.410 0.00 0.00 0.2940 0.5000 10.190 10.540 10.670 10.670 10.630 9.970 10.290 0.00000 0.00 430 0.00 0.00 0.2190 335.90 1.94 0.3250 352.400 8.800 12.519 12.336 0.188 12.875 12.561 0.322
WS7MET_125 2016-09-29 02:45:00 125 30483.0 10.270 10.580 10.690 10.740 10.750 98.300 97.300 10.020 10.340 0.00 0.00 15.110 14.820 13.720 12.530 12.560 10.320 10.580 10.690 10.840 10.780 10.090 10.430 0.00 0.00 0.3990 0.5000 10.190 10.570 10.670 10.670 10.650 9.920 10.250 0.00000 0.00 241 0.00 0.00 0.3380 340.50 0.66 0.3650 356.000 6.673 12.503 12.295 0.213 12.901 12.561 0.348
WS7MET_125 2016-09-29 02:40:00 125 30483.0 10.290 10.580 10.690 10.720 10.720 98.300 97.200 10.040 10.300 0.00 0.00 15.120 14.820 13.720 12.530 12.560 10.390 10.590 10.710 10.800 10.740 10.130 10.370 0.00 0.00 0.3850 0.6000 10.190 10.580 10.680 10.630 10.690 9.920 10.220 0.00000 0.00 506 0.00 0.00 0.3190 334.70 3.10 0.4050 354.000 5.022 12.519 12.312 0.213 12.884 12.528 0.361
WS7MET_125 2016-09-29 02:35:00 125 30483.0 10.300 10.580 10.690 10.750 10.780 98.200 97.400 10.030 10.370 0.00 0.00 15.140 14.820 13.720 12.530 12.560 10.460 10.600 10.710 10.870 10.820 10.190 10.460 0.00 0.00 0.4970 0.6000 10.260 10.560 10.650 10.670 10.710 9.960 10.290 0.00000 0.00 352 0.00 0.00 0.3840 331.30 1.00 0.4750 347.200 4.445 12.528 12.303 0.225 12.910 12.586 0.336
WS7MET_125 2016-09-29 02:30:00 125 30483.0 10.350 10.580 10.660 10.730 10.660 98.000 97.300 10.060 10.330 0.00 0.00 15.140 14.820 13.720 12.530 12.560 10.390 10.600 10.680 10.840 10.710 10.110 10.440 0.00 0.00 0.5100 0.7000 10.290 10.560 10.650 10.670 10.620 10.000 10.270 0.00000 0.00 210 0.00 0.00 0.1870 332.20 0.72 0.4150 347.700 8.270 12.570 12.328 0.251 12.892 12.553 0.348
WS7MET_125 2016-09-29 02:25:00 125 30483.0 10.420 10.630 10.730 10.810 10.660 97.900 96.800 10.110 10.340 0.00 0.00 15.150 14.820 13.720 12.530 12.560 10.490 10.680 10.790 10.900 10.690 10.200 10.400 0.00 0.00 0.3530 0.5000 10.290 10.600 10.690 10.700 10.620 9.980 10.240 0.00000 0.00 474 0.00 0.00 0.2540 334.90 2.40 0.3800 347.900 10.790 12.629 12.370 0.265 12.961 12.561 0.415
WS7MET_125 2016-09-29 02:20:00 125 30483.0 10.470 10.720 10.830 10.890 10.850 97.900 96.700 10.150 10.400 0.00 0.00 15.160 14.820 13.720 12.530 12.570 10.560 10.740 10.840 10.970 10.890 10.250 10.480 0.00 0.00 0.3920 0.5000 10.390 10.700 10.790 10.840 10.730 10.080 10.350 0.00000 0.00 375 0.00 0.00 0.3340 339.10 1.60 0.4150 354.800 5.627 12.671 12.403 0.266 13.030 12.612 0.430
WS7MET_125 2016-09-29 02:15:00 125 30483.0 10.500 10.750 10.850 10.950 10.840 97.800 96.800 10.180 10.470 0.00 0.00 15.170 14.820 13.720 12.530 12.560 10.600 10.770 10.870 11.010 10.900 10.280 10.540 0.00 0.00 0.4830 0.6000 10.360 10.730 10.830 10.900 10.770 10.030 10.400 0.00000 0.00 267 0.00 0.00 0.3820 337.00 2.85 0.4650 354.000 6.494 12.696 12.428 0.279 13.083 12.671 0.419
WS7MET_125 2016-09-29 02:10:00 125 30483.0 10.560 10.800 10.910 10.990 10.900 97.700 96.600 10.220 10.470 0.00 0.00 15.180 14.820 13.720 12.530 12.570 10.630 10.830 10.940 11.070 11.000 10.300 10.550 0.00 0.00 0.5290 0.6000 10.460 10.780 10.870 10.900 10.780 10.120 10.390 0.00000 0.00 273 0.00 0.00 0.4380 339.90 4.89 0.4950 353.900 9.590 12.747 12.461 0.293 13.117 12.671 0.446
WS7MET_125 2016-09-29 02:05:00 125 30483.0 10.560 10.840 10.950 11.050 10.980 97.600 96.300 10.190 10.500 0.00 0.00 15.190 14.820 13.720 12.530 12.570 10.630 10.850 10.970 11.140 10.980 10.280 10.590 0.00 0.00 0.3920 0.5000 10.490 10.830 10.940 10.970 10.960 10.120 10.420 0.00000 0.00 236 0.00 0.00 0.3230 332.80 3.38 0.4300 349.900 6.328 12.747 12.436 0.306 13.170 12.696 0.487
WS7MET_125 2016-09-29 02:00:00 125 30483.0 10.570 10.850 10.980 11.050 11.010 97.500 96.400 10.210 10.510 0.00 0.00 15.200 14.820 13.720 12.530 12.570 10.630 10.860 10.990 11.110 11.040 10.280 10.580 0.00 0.00 0.3720 0.5000 10.460 10.840 10.970 10.970 10.960 10.110 10.430 0.00000 0.00 332 0.00 0.00 0.2950 326.80 1.78 0.4300 345.400 8.490 12.756 12.453 0.319 13.170 12.705 0.474
WS7MET_125 2016-09-29 01:55:00 125 30483.0 10.600 10.890 10.990 11.050 11.030 97.400 96.400 10.210 10.510 0.00 0.00 15.200 14.820 13.720 12.530 12.570 10.700 10.900 11.000 11.110 11.040 10.300 10.570 0.00 0.00 0.4510 0.6000 10.530 10.860 10.980 10.970 11.010 10.120 10.430 0.00000 0.00 248 0.00 0.00 0.2940 329.30 3.77 0.4250 343.900 11.900 12.781 12.453 0.332 13.170 12.705 0.474
WS7MET_125 2016-09-29 01:50:00 125 30483.0 10.650 10.920 11.020 11.050 11.040 97.300 96.400 10.240 10.500 0.00 0.00 15.210 14.820 13.720 12.530 12.570 10.730 10.940 11.030 11.110 11.080 10.330 10.560 0.00 0.00 0.4120 0.6000 10.560 10.900 11.000 11.010 11.010 10.150 10.450 0.00000 0.00 368 0.00 0.00 0.3130 336.60 2.06 0.4450 353.800 5.651 12.824 12.478 0.346 13.170 12.696 0.474
WS7MET_125 2016-09-29 01:45:00 125 30483.0 10.650 10.930 11.020 11.060 11.050 97.200 96.300 10.230 10.500 0.00 0.00 15.220 14.820 13.720 12.530 12.580 10.730 10.940 11.030 11.140 11.090 10.300 10.570 0.00 0.00 0.3790 0.6000 10.600 10.920 11.000 10.970 10.990 10.140 10.400 0.00000 0.00 290 0.00 0.00 0.3310 338.30 0.92 0.4500 351.200 4.944 12.824 12.469 0.359 13.179 12.696 0.488
WS7MET_125 2016-09-29 01:40:00 125 30483.0 10.670 10.950 11.040 11.110 11.020 96.800 96.000 10.190 10.510 0.00 0.00 15.230 14.820 13.720 12.530 12.580 10.800 10.970 11.080 11.140 11.100 10.330 10.560 0.00 0.00 0.4770 0.6000 10.530 10.930 11.020 11.070 10.960 10.060 10.460 0.00000 0.00 312 0.00 0.00 0.4040 339.10 0.21 0.4800 350.800 4.723 12.841 12.436 0.411 13.222 12.705 0.529
WS7MET_125 2016-09-29 01:35:00 125 30483.0 10.670 10.970 11.070 11.070 11.120 96.800 96.000 10.200 10.470 0.00 0.00 15.240 14.820 13.710 12.520 12.580 10.800 10.970 11.080 11.140 11.130 10.330 10.560 0.00 0.00 0.4770 0.7000 10.600 10.960 11.060 10.970 11.080 10.110 10.390 0.00000 0.00 288 0.00 0.00 0.4310 338.50 0.48 0.5450 352.200 4.343 12.841 12.444 0.411 13.187 12.671 0.527
WS7MET_125 2016-09-29 01:30:00 125 30483.0 10.670 10.940 11.040 11.040 11.070 96.700 95.900 10.170 10.420 0.00 0.00 15.240 14.820 13.710 12.510 12.580 10.730 10.960 11.060 11.110 11.120 10.260 10.500 0.00 0.00 0.4510 0.7000 10.600 10.930 11.030 10.970 11.000 10.080 10.330 0.00000 0.00 426 0.00 0.00 0.3950 338.90 0.24 0.5250 356.900 7.624 12.841 12.419 0.424 13.161 12.629 0.540
WS7MET_125 2016-09-29 01:25:00 125 30483.0 10.660 10.940 11.040 11.060 11.070 96.500 95.700 10.140 10.410 0.00 0.00 15.260 14.820 13.710 12.520 12.580 10.730 10.950 11.040 11.140 11.090 10.220 10.500 0.00 0.00 0.4380 0.6000 10.600 10.930 11.020 10.970 11.040 10.070 10.320 0.00000 0.00 244 0.00 0.00 0.3720 336.10 0.94 0.4900 350.700 3.589 12.832 12.394 0.449 13.179 12.620 0.567
WS7MET_125 2016-09-29 01:20:00 125 30483.0 10.680 10.930 11.020 11.030 11.040 96.400 95.500 10.130 10.350 0.00 0.00 15.260 14.820 13.710 12.520 12.580 10.770 10.930 11.020 11.110 11.070 10.240 10.450 0.00 0.00 0.4050 0.5000 10.600 10.920 11.000 10.970 10.990 10.050 10.270 0.00000 0.00 504 0.00 0.00 0.3650 337.10 2.58 0.4900 347.500 3.285 12.850 12.386 0.463 13.152 12.570 0.592
WS7MET_125 2016-09-29 01:15:00 125 30483.0 10.670 10.920 11.020 11.080 11.050 96.100 95.200 10.090 10.350 0.00 0.00 15.270 14.820 13.710 12.520 12.580 10.770 10.920 11.020 11.180 11.090 10.200 10.430 0.00 0.00 0.4120 0.6000 10.600 10.910 11.010 11.010 11.030 10.020 10.290 0.00000 0.00 251 0.00 0.00 0.3720 340.50 2.31 0.4750 349.700 3.515 12.841 12.353 0.501 13.196 12.570 0.633
WS7MET_125 2016-09-29 01:10:00 125 30483.0 10.680 10.920 11.030 11.090 11.030 95.900 94.900 10.060 10.320 0.00 0.00 15.280 14.820 13.710 12.520 12.580 10.770 10.940 11.040 11.140 11.040 10.140 10.400 0.00 0.00 0.5420 0.6000 10.600 10.910 11.020 11.010 11.020 9.950 10.250 0.00000 0.00 598 0.00 0.00 0.4320 344.30 1.56 0.5400 356.700 6.751 12.850 12.328 0.527 13.205 12.545 0.673
WS7MET_125 2016-09-29 01:05:00 125 30483.0 10.720 10.980 11.060 11.120 11.070 95.700 94.700 10.070 10.310 0.00 0.00 15.280 14.820 13.710 12.520 12.580 10.800 11.000 11.080 11.180 11.090 10.150 10.380 0.00 0.00 0.3990 0.6000 10.600 10.940 11.040 11.040 11.030 9.950 10.240 0.00000 0.00 284 0.00 0.00 0.3010 345.20 3.05 0.4200 0.858 7.801 12.884 12.336 0.554 13.231 12.536 0.701
WS7MET_125 2016-09-29 01:00:00 125 30483.0 10.750 11.010 11.100 11.140 11.110 95.500 94.600 10.070 10.310 0.00 0.00 15.290 14.820 13.710 12.520 12.590 10.840 11.020 11.100 11.210 11.130 10.170 10.390 0.00 0.00 0.3920 0.5000 10.700 11.010 11.090 11.070 11.090 10.020 10.240 0.00000 0.00 316 0.00 0.00 0.3480 345.00 0.42 0.4250 359.200 7.814 12.910 12.336 0.581 13.249 12.536 0.715
WS7MET_125 2016-09-29 00:55:00 125 30483.0 10.790 11.050 11.140 11.210 11.080 95.400 94.300 10.090 10.340 0.00 0.00 15.300 14.820 13.710 12.520 12.590 10.900 11.080 11.180 11.280 11.130 10.210 10.410 0.00 0.00 0.3720 0.5000 10.700 11.020 11.100 11.140 11.030 10.000 10.270 0.00000 0.00 246 0.00 0.00 0.3210 344.60 0.44 0.4350 358.300 7.000 12.944 12.353 0.595 13.310 12.561 0.759
WS7MET_125 2016-09-29 00:50:00 125 30483.0 10.850 11.100 11.210 11.310 11.210 95.300 94.100 10.130 10.400 0.00 0.00 15.310 14.820 13.710 12.520 12.590 10.970 11.100 11.230 11.380 11.240 10.280 10.500 0.00 0.00 0.6080 0.7000 10.730 11.080 11.180 11.210 11.130 10.040 10.300 0.00000 0.00 377 0.00 0.00 0.4750 345.50 0.89 0.5400 358.300 6.073 12.996 12.386 0.611 13.399 12.612 0.791
WS7MET_125 2016-09-29 00:45:00 125 30483.0 10.910 11.130 11.250 11.350 11.250 95.100 93.900 10.160 10.420 0.00 0.00 15.310 14.820 13.710 12.530 12.590 10.970 11.160 11.280 11.450 11.290 10.240 10.520 0.00 0.00 0.4510 0.6000 10.770 11.100 11.220 11.280 11.210 10.010 10.350 0.00000 0.00 414 0.00 0.00 0.4120 345.70 1.42 0.5100 2.963 8.680 13.048 12.411 0.639 13.435 12.629 0.820
WS7MET_125 2016-09-29 00:40:00 125 30483.0 10.930 11.180 11.310 11.370 11.340 95.100 94.000 10.190 10.450 0.00 0.00 15.320 14.820 13.700 12.530 12.590 11.040 11.200 11.310 11.520 11.380 10.300 10.590 0.00 0.00 0.4970 0.6000 10.840 11.160 11.290 11.310 11.290 10.080 10.390 0.00000 0.00 244 0.00 0.00 0.3990 343.90 0.74 0.4800 355.600 7.292 13.065 12.436 0.640 13.452 12.654 0.807
WS7MET_125 2016-09-29 00:35:00 125 30483.0 10.940 11.200 11.320 11.410 11.320 94.900 93.800 10.170 10.450 0.00 0.00 15.330 14.820 13.700 12.530 12.590 11.010 11.220 11.350 11.480 11.390 10.230 10.540 0.00 0.00 0.4250 0.6000 10.900 11.180 11.300 11.350 11.270 10.130 10.390 0.00000 0.00 283 0.00 0.00 0.3850 344.50 1.31 0.4900 3.319 6.598 13.074 12.419 0.667 13.488 12.654 0.836
WS7MET_125 2016-09-29 00:30:00 125 30483.0 11.000 11.250 11.360 11.480 11.370 94.800 93.500 10.210 10.490 0.00 0.00 15.340 14.820 13.700 12.530 12.590 11.110 11.260 11.380 11.650 11.390 10.310 10.620 0.00 0.00 0.4180 0.7000 10.900 11.220 11.350 11.380 11.360 10.110 10.410 0.00000 0.00 254 0.00 0.00 0.3780 339.00 1.50 0.5100 356.200 6.591 13.126 12.453 0.683 13.551 12.688 0.881
WS7MET_125 2016-09-29 00:25:00 125 30483.0 11.010 11.300 11.410 11.540 11.420 94.800 93.400 10.220 10.520 0.00 0.00 15.350 14.820 13.700 12.520 12.590 11.110 11.350 11.450 11.620 11.460 10.300 10.600 0.00 0.00 0.3850 0.5000 10.900 11.260 11.380 11.450 11.380 10.110 10.430 0.00000 0.00 362 0.00 0.00 0.3390 337.40 0.35 0.4450 352.200 5.340 13.135 12.461 0.683 13.605 12.713 0.898
WS7MET_125 2016-09-29 00:20:00 125 30483.0 11.050 11.360 11.480 11.590 11.500 94.900 93.400 10.280 10.570 0.00 0.00 15.350 14.810 13.700 12.540 12.580 11.250 11.370 11.500 11.720 11.530 10.450 10.730 0.00 0.00 0.4380 0.6000 10.900 11.340 11.450 11.480 11.460 10.120 10.460 0.00000 0.00 257 0.00 0.00 0.3970 337.00 0.76 0.5050 350.600 3.553 13.170 12.511 0.672 13.650 12.756 0.901
WS7MET_125 2016-09-29 00:15:00 125 30483.0 11.110 11.360 11.490 11.610 11.500 94.800 93.400 10.320 10.580 0.00 0.00 15.360 14.810 13.700 12.520 12.590 11.250 11.360 11.510 11.690 11.520 10.450 10.660 0.00 0.00 0.4830 0.7000 10.940 11.340 11.470 11.480 11.470 10.140 10.450 0.00000 0.00 279 0.00 0.00 0.4330 334.90 0.60 0.5600 352.300 3.494 13.222 12.545 0.688 13.668 12.764 0.902
WS7MET_125 2016-09-29 00:10:00 125 30483.0 11.140 11.410 11.530 11.650 11.520 94.800 93.600 10.340 10.660 0.00 0.00 15.370 14.810 13.700 12.520 12.590 11.310 11.450 11.580 11.720 11.580 10.500 10.760 0.00 0.00 0.4830 0.7000 11.040 11.370 11.500 11.550 11.500 10.270 10.560 0.00000 0.00 247 0.00 0.00 0.3100 330.70 0.92 0.4100 353.300 7.353 13.249 12.561 0.689 13.704 12.832 0.877
WS7MET_125 2016-09-29 00:05:00 125 30483.0 11.200 11.460 11.590 11.710 11.620 94.700 93.500 10.390 10.700 0.00 0.00 15.370 14.800 13.700 12.520 12.600 11.420 11.490 11.620 11.830 11.670 10.620 10.800 0.00 0.00 0.5100 0.7000 11.040 11.450 11.570 11.590 11.580 10.230 10.590 0.00000 0.00 366 0.00 0.00 0.3950 332.00 5.79 0.4900 346.800 6.395 13.302 12.603 0.705 13.759 12.867 0.894
WS7MET_125 2016-09-29 00:00:00 125 30483.0 11.180 11.470 11.600 11.670 11.640 94.500 93.400 10.330 10.650 0.00 0.00 15.380 14.800 13.700 12.520 12.590 11.280 11.490 11.620 11.790 11.720 10.440 10.770 0.00 0.00 0.5810 0.8000 11.040 11.440 11.580 11.590 11.570 10.200 10.570 0.00000 0.00 590 0.00 0.00 0.4830 338.50 1.58 0.5800 356.000 6.237 13.284 12.553 0.731 13.722 12.824 0.906
WS7MET_125 2016-09-28 23:55:00 125 30483.0 11.220 11.490 11.610 11.680 11.630 94.200 93.100 10.340 10.620 0.00 0.00 15.390 14.790 13.700 12.520 12.600 11.380 11.510 11.620 11.790 11.680 10.500 10.730 0.00 0.00 0.3920 0.6000 11.110 11.470 11.600 11.550 11.580 10.220 10.530 0.00000 0.00 372 0.00 0.00 0.3440 328.00 2.71 0.5200 344.100 5.979 13.319 12.561 0.773 13.731 12.798 0.947
WS7MET_125 2016-09-28 23:50:00 125 30483.0 11.260 11.480 11.600 11.660 11.670 93.900 93.000 10.330 10.580 0.00 0.00 15.390 14.790 13.700 12.520 12.600 11.480 11.490 11.620 11.720 11.700 10.570 10.650 0.00 0.00 0.3590 0.5000 11.180 11.460 11.590 11.620 11.620 10.230 10.530 0.00000 0.00 295 0.00 0.00 0.2700 330.90 1.55 0.4300 340.400 8.820 13.355 12.553 0.815 13.713 12.764 0.960
WS7MET_125 2016-09-28 23:45:00 125 30483.0 11.290 11.510 11.600 11.680 11.590 93.700 92.800 10.320 10.570 0.00 0.00 15.400 14.790 13.700 12.530 12.600 11.450 11.520 11.620 11.760 11.640 10.480 10.650 0.00 0.00 0.5100 0.6000 11.140 11.490 11.590 11.590 11.580 10.170 10.480 0.00000 0.00 596 0.00 0.00 0.4230 330.30 2.25 0.5400 346.300 5.308 13.381 12.545 0.843 13.731 12.756 0.989
WS7MET_125 2016-09-28 23:40:00 125 30483.0 11.330 11.560 11.670 11.750 11.650 93.900 92.600 10.390 10.600 0.00 0.00 15.400 14.790 13.700 12.540 12.600 11.520 11.590 11.710 11.830 11.730 10.580 10.700 0.00 0.00 0.5620 0.7000 11.140 11.520 11.630 11.690 11.590 10.210 10.530 0.00000 0.00 313 0.00 0.00 0.4360 329.90 1.51 0.5600 340.200 6.996 13.417 12.603 0.818 13.795 12.781 1.021
WS7MET_125 2016-09-28 23:35:00 125 30483.0 11.350 11.580 11.710 11.840 11.700 93.800 92.600 10.400 10.690 0.00 0.00 15.410 14.790 13.700 12.520 12.610 11.480 11.610 11.740 11.890 11.730 10.520 10.760 0.00 0.00 0.5230 0.7000 11.250 11.570 11.700 11.720 11.670 10.270 10.570 0.00000 0.00 577 0.00 0.00 0.3860 336.70 1.03 0.5300 350.900 5.178 13.435 12.612 0.833 13.877 12.858 1.027
WS7MET_125 2016-09-28 23:30:00 125 30483.0 11.430 11.640 11.770 11.870 11.760 93.400 92.400 10.420 10.690 0.00 0.00 15.420 14.790 13.700 12.520 12.600 11.520 11.670 11.780 11.960 11.800 10.520 10.760 0.00 0.00 0.3850 0.6000 11.310 11.610 11.750 11.790 11.740 10.320 10.590 0.00000 0.00 584 0.00 0.00 0.3270 339.80 3.84 0.4500 351.800 4.497 13.506 12.629 0.891 13.905 12.858 1.057
WS7MET_125 2016-09-28 23:25:00 125 30483.0 11.450 11.710 11.830 11.940 11.820 93.000 91.800 10.370 10.650 0.00 0.00 15.430 14.790 13.690 12.520 12.610 11.550 11.750 11.870 12.000 11.890 10.480 10.750 0.00 0.00 0.4970 0.5000 11.350 11.670 11.780 11.860 11.740 10.260 10.570 0.00000 0.00 519 0.00 0.00 0.3820 345.10 0.45 0.4350 359.400 6.266 13.524 12.586 0.947 13.969 12.824 1.145
WS7MET_125 2016-09-28 23:20:00 125 30483.0 11.550 11.780 11.900 11.970 11.900 92.700 91.400 10.420 10.620 0.00 0.00 15.430 14.790 13.680 12.520 12.610 11.690 11.820 11.940 12.030 11.950 10.540 10.690 0.00 0.00 0.5290 0.6000 11.450 11.750 11.870 11.890 11.870 10.320 10.550 0.00000 0.00 316 0.00 0.00 0.4620 343.90 1.06 0.4650 2.759 7.497 13.614 12.629 0.994 13.997 12.798 1.204
WS7MET_125 2016-09-28 23:15:00 125 30483.0 11.560 11.850 11.970 12.050 11.990 92.600 91.300 10.410 10.680 0.00 0.00 15.440 14.780 13.690 12.520 12.600 11.650 11.870 12.000 12.130 12.030 10.520 10.780 0.00 0.00 0.4570 0.6000 11.450 11.830 11.940 11.960 11.960 10.300 10.590 0.00000 0.00 241 0.00 0.00 0.3930 340.70 0.97 0.4200 355.700 5.731 13.623 12.620 1.008 14.071 12.850 1.224
WS7MET_125 2016-09-28 23:10:00 125 30483.0 11.570 11.870 11.990 12.030 12.070 92.500 91.100 10.400 10.640 0.00 0.00 15.450 14.780 13.690 12.520 12.610 11.650 11.890 12.010 12.100 12.110 10.500 10.730 0.00 0.00 0.5100 0.6000 11.480 11.840 11.960 11.960 12.030 10.290 10.550 0.00000 0.00 279 0.00 0.00 0.3890 338.60 0.58 0.4300 355.600 5.151 13.632 12.612 1.022 14.052 12.815 1.251
WS7MET_125 2016-09-28 23:05:00 125 30483.0 11.570 11.830 11.950 12.010 11.970 91.800 90.500 10.290 10.510 0.00 0.00 15.450 14.780 13.690 12.520 12.620 11.620 11.830 11.960 12.100 12.040 10.380 10.610 0.00 0.00 0.6010 0.7000 11.520 11.820 11.940 11.930 11.940 10.180 10.400 0.00000 0.00 292 0.00 0.00 0.5000 336.40 1.35 0.5950 355.700 6.818 13.632 12.519 1.118 14.034 12.705 1.333
WS7MET_125 2016-09-28 23:00:00 125 30483.0 11.620 11.840 11.970 12.040 11.980 91.500 90.100 10.300 10.490 0.00 0.00 15.450 14.780 13.690 12.520 12.620 11.720 11.850 11.970 12.170 12.010 10.420 10.610 0.00 0.00 0.5230 0.7000 11.550 11.830 11.950 11.930 11.950 10.230 10.380 0.00000 0.00 332 0.00 0.00 0.4250 334.50 1.21 0.5500 349.600 4.185 13.677 12.528 1.163 14.062 12.688 1.392
WS7MET_125 2016-09-28 22:55:00 125 30483.0 11.690 11.910 12.020 12.120 12.000 91.700 90.300 10.390 10.590 0.00 0.00 15.460 14.780 13.690 12.520 12.620 11.830 11.940 12.060 12.230 12.050 10.540 10.700 0.00 0.00 0.4900 0.7000 11.590 11.850 11.970 12.060 11.930 10.270 10.520 0.00000 0.00 242 0.00 0.00 0.4300 340.20 3.76 0.5050 350.400 5.967 13.740 12.603 1.140 14.136 12.773 1.371
WS7MET_125 2016-09-28 22:50:00 125 30483.0 11.710 11.960 12.080 12.170 12.090 91.700 90.400 10.420 10.660 0.00 0.00 15.470 14.770 13.690 12.520 12.620 11.830 11.970 12.110 12.230 12.120 10.580 10.740 0.00 0.00 0.5680 0.7000 11.590 11.940 12.070 12.100 12.050 10.320 10.560 0.00000 0.00 242 0.00 0.00 0.4570 345.90 2.67 0.5250 357.500 6.381 13.759 12.629 1.142 14.182 12.832 1.362
WS7MET_125 2016-09-28 22:45:00 125 30483.0 11.750 11.990 12.110 12.190 12.100 91.800 90.700 10.460 10.720 0.00 0.00 15.470 14.770 13.690 12.520 12.620 11.830 12.040 12.140 12.270 12.130 10.560 10.810 0.00 0.00 0.5490 0.7000 11.650 11.970 12.100 12.130 12.070 10.370 10.640 0.00000 0.00 591 0.00 0.00 0.4800 348.50 1.49 0.5400 5.873 6.259 13.795 12.662 1.131 14.201 12.884 1.321
WS7MET_125 2016-09-28 22:40:00 125 30483.0 11.800 12.060 12.170 12.230 12.180 92.000 91.100 10.560 10.830 0.00 0.00 15.480 14.770 13.690 12.520 12.630 11.930 12.090 12.200 12.340 12.220 10.680 10.990 0.00 0.00 0.6080 0.7000 11.690 12.040 12.150 12.170 12.150 10.410 10.690 0.00000 0.00 588 0.00 0.00 0.5200 349.80 0.86 0.5250 5.109 5.879 13.841 12.747 1.107 14.239 12.979 1.267
WS7MET_125 2016-09-28 22:35:00 125 30483.0 11.840 12.100 12.210 12.230 12.220 92.400 91.500 10.660 10.900 0.00 0.00 15.490 14.770 13.690 12.520 12.630 11.960 12.120 12.220 12.300 12.250 10.760 11.030 0.00 0.00 0.4830 0.6000 11.720 12.080 12.190 12.170 12.180 10.520 10.800 0.00000 0.00 246 0.00 0.00 0.4340 338.20 4.90 0.5450 353.700 5.503 13.877 12.832 1.055 14.239 13.039 1.210
WS7MET_125 2016-09-28 22:30:00 125 30483.0 11.920 12.130 12.220 12.260 12.220 92.600 91.700 10.760 10.960 0.00 0.00 15.490 14.770 13.690 12.520 12.630 12.000 12.150 12.240 12.410 12.260 10.840 11.090 0.00 0.00 0.5160 0.7000 11.790 12.120 12.200 12.170 12.190 10.630 10.890 0.00000 0.00 264 0.00 0.00 0.4500 337.00 0.25 0.5700 350.200 3.676 13.951 12.918 1.032 14.267 13.091 1.184
WS7MET_125 2016-09-28 22:25:00 125 30483.0 11.940 12.170 12.270 12.360 12.260 92.500 91.500 10.780 11.030 0.00 0.00 15.490 14.770 13.690 12.520 12.640 12.060 12.200 12.300 12.440 12.290 10.900 11.110 0.00 0.00 0.4900 0.8000 11.830 12.140 12.250 12.300 12.190 10.680 10.970 0.00000 0.00 249 0.00 0.00 0.3970 337.70 1.91 0.5300 350.200 3.371 13.969 12.935 1.048 14.361 13.152 1.221
WS7MET_125 2016-09-28 22:20:00 125 30483.0 12.000 12.220 12.340 12.430 12.330 92.400 91.300 10.810 11.060 0.00 0.00 15.500 14.760 13.690 12.520 12.630 12.100 12.250 12.370 12.510 12.380 10.910 11.140 0.00 0.00 0.4510 0.6000 11.930 12.190 12.300 12.300 12.260 10.730 10.940 0.00000 0.00 263 0.00 0.00 0.4130 349.60 1.83 0.5200 1.400 7.729 14.025 12.961 1.066 14.427 13.179 1.255
WS7MET_125 2016-09-28 22:15:00 125 30483.0 12.060 12.280 12.400 12.450 12.390 92.100 91.000 10.820 11.040 0.00 0.00 15.510 14.760 13.690 12.520 12.640 12.170 12.310 12.440 12.540 12.440 10.940 11.120 0.00 0.00 0.4570 0.6000 12.000 12.250 12.370 12.370 12.350 10.730 10.960 0.00000 0.00 273 0.00 0.00 0.4010 351.50 1.89 0.5150 10.750 0.941 14.080 12.970 1.112 14.446 13.161 1.300
WS7MET_125 2016-09-28 22:10:00 125 30483.0 12.080 12.320 12.450 12.520 12.470 92.100 90.800 10.850 11.070 0.00 0.00 15.510 14.760 13.690 12.520 12.640 12.200 12.330 12.470 12.610 12.480 10.970 11.170 0.00 0.00 0.5290 0.6000 11.960 12.310 12.440 12.410 12.450 10.730 10.990 0.00000 0.00 321 0.00 0.00 0.4540 347.60 2.60 0.4900 6.213 6.378 14.099 12.996 1.114 14.513 13.187 1.335
WS7MET_125 2016-09-28 22:05:00 125 30483.0 12.090 12.360 12.490 12.550 12.500 92.000 90.800 10.850 11.090 0.00 0.00 15.510 14.750 13.690 12.520 12.640 12.200 12.380 12.510 12.610 12.520 10.950 11.130 0.00 0.00 0.4440 0.6000 11.960 12.340 12.470 12.470 12.470 10.730 11.020 0.00000 0.00 316 0.00 0.00 0.3530 343.20 0.56 0.4600 1.247 6.196 14.108 12.996 1.129 14.541 13.205 1.338
WS7MET_125 2016-09-28 22:00:00 125 30483.0 12.170 12.410 12.530 12.610 12.530 91.800 90.600 10.880 11.120 0.00 0.00 15.520 14.750 13.690 12.520 12.650 12.270 12.450 12.560 12.680 12.540 10.950 11.200 0.00 0.00 0.4640 0.6000 12.100 12.390 12.520 12.540 12.520 10.820 11.020 0.00000 0.00 240 0.00 0.00 0.3490 344.70 1.47 0.4600 357.200 6.924 14.182 13.022 1.163 14.599 13.231 1.372
WS7MET_125 2016-09-28 21:55:00 125 30483.0 12.200 12.490 12.600 12.670 12.610 91.500 90.300 10.870 11.130 0.00 0.00 15.520 14.750 13.690 12.520 12.650 12.300 12.510 12.610 12.780 12.650 10.990 11.240 0.00 0.00 0.4770 0.6000 12.130 12.450 12.560 12.580 12.530 10.800 11.050 0.00000 0.00 293 0.00 0.00 0.3840 343.90 0.33 0.4500 357.800 6.218 14.211 13.013 1.208 14.656 13.240 1.422
WS7MET_125 2016-09-28 21:50:00 125 30483.0 12.260 12.540 12.650 12.730 12.650 91.500 90.000 10.920 11.150 0.00 0.00 15.530 14.740 13.690 12.520 12.650 12.340 12.560 12.680 12.780 12.690 11.020 11.230 0.00 0.00 0.5550 0.6000 12.170 12.510 12.610 12.610 12.570 10.820 11.010 0.00000 0.00 457 0.00 0.00 0.4130 343.40 1.44 0.5000 356.700 6.598 14.267 13.056 1.213 14.714 13.258 1.471
WS7MET_125 2016-09-28 21:45:00 125 30483.0 12.310 12.580 12.690 12.760 12.740 91.100 90.000 10.920 11.170 0.00 0.00 15.530 14.740 13.690 12.520 12.660 12.410 12.590 12.700 12.810 12.760 11.030 11.220 0.00 0.00 0.4570 0.6000 12.270 12.560 12.690 12.640 12.710 10.840 11.040 0.00000 0.00 243 0.00 0.00 0.3760 342.50 1.76 0.4200 354.200 5.900 14.314 13.056 1.274 14.743 13.275 1.474
WS7MET_125 2016-09-28 21:40:00 125 30483.0 12.360 12.610 12.710 12.770 12.720 90.700 89.800 10.890 11.150 0.00 0.00 15.530 14.740 13.690 12.520 12.660 12.440 12.630 12.730 12.850 12.770 11.010 11.230 0.00 0.00 0.4570 0.6000 12.270 12.590 12.690 12.750 12.680 10.780 11.100 0.00000 0.00 551 0.00 0.00 0.3460 349.90 1.47 0.4300 1.346 5.579 14.361 13.030 1.336 14.753 13.258 1.505
WS7MET_125 2016-09-28 21:35:00 125 30483.0 12.420 12.680 12.780 12.860 12.730 90.400 89.300 10.910 11.160 0.00 0.00 15.530 14.740 13.690 12.520 12.660 12.510 12.730 12.850 12.950 12.860 11.010 11.220 0.00 0.00 0.4380 0.5000 12.340 12.630 12.730 12.780 12.670 10.820 11.080 0.00000 0.00 239 0.00 0.00 0.3720 344.70 3.40 0.4450 359.700 9.480 14.418 13.048 1.384 14.840 13.266 1.588
WS7MET_125 2016-09-28 21:30:00 125 30483.0 12.500 12.760 12.880 12.950 12.890 90.200 89.100 10.950 11.210 0.00 0.00 15.530 14.730 13.690 12.520 12.660 12.640 12.800 12.900 13.020 12.910 11.090 11.290 0.00 0.00 0.3720 0.5000 12.410 12.730 12.850 12.880 12.840 10.860 11.140 0.00000 0.00 244 0.00 0.00 0.2970 341.10 0.55 0.3950 355.600 5.700 14.494 13.083 1.420 14.928 13.310 1.627
WS7MET_125 2016-09-28 21:25:00 125 30483.0 12.590 12.830 12.930 13.020 12.930 89.900 88.700 10.980 11.220 0.00 0.00 15.540 14.730 13.680 12.520 12.670 12.750 12.860 12.960 13.090 12.980 11.130 11.320 0.00 0.00 0.3790 0.6000 12.470 12.800 12.900 12.920 12.900 10.880 11.110 0.00000 0.00 284 0.00 0.00 0.3380 340.20 1.91 0.4450 352.200 5.824 14.579 13.109 1.473 14.996 13.319 1.695
WS7MET_125 2016-09-28 21:20:00 125 30483.0 12.650 12.890 12.990 13.090 12.990 89.600 88.500 11.000 11.240 0.00 0.00 15.540 14.730 13.690 12.520 12.670 12.750 12.920 13.030 13.160 13.020 11.120 11.330 0.00 0.00 0.4380 0.5000 12.470 12.860 12.980 13.020 12.980 10.860 11.140 0.00000 0.00 348 0.00 0.00 0.3690 338.20 0.90 0.4600 349.900 4.367 14.637 13.126 1.522 15.065 13.337 1.732
WS7MET_125 2016-09-28 21:15:00 125 30483.0 12.680 12.970 13.070 13.170 13.070 89.600 88.200 11.020 11.270 0.00 0.00 15.550 14.720 13.680 12.520 12.670 12.750 13.010 13.110 13.290 13.110 11.100 11.420 0.00 0.00 0.3920 0.5000 12.580 12.920 13.030 13.050 13.020 10.920 11.170 0.00000 0.00 394 0.00 0.00 0.3500 344.40 1.17 0.3950 357.500 4.382 14.666 13.144 1.525 15.144 13.364 1.787
WS7MET_125 2016-09-28 21:10:00 125 30483.0 12.730 13.040 13.160 13.200 13.140 89.100 87.700 11.000 11.220 0.00 0.00 15.550 14.720 13.680 12.520 12.680 12.810 13.070 13.200 13.290 13.200 11.100 11.330 0.00 0.00 0.5100 0.5000 12.640 13.010 13.110 13.090 13.050 10.890 11.120 0.00000 0.00 241 0.00 0.00 0.4080 342.60 1.57 0.4200 357.800 6.505 14.714 13.126 1.604 15.173 13.319 1.866
WS7MET_125 2016-09-28 21:05:00 125 30483.0 12.820 13.080 13.220 13.290 13.230 89.100 87.800 11.070 11.320 0.00 0.00 15.550 14.720 13.690 12.520 12.680 12.920 13.090 13.240 13.330 13.260 11.160 11.410 0.00 0.00 0.5290 0.6000 12.780 13.070 13.200 13.220 13.150 11.020 11.210 0.00000 0.00 253 0.00 0.00 0.4540 339.40 0.17 0.5000 349.600 2.547 14.801 13.187 1.613 15.263 13.408 1.862
WS7MET_125 2016-09-28 21:00:00 125 30483.0 12.850 13.110 13.240 13.250 13.250 88.900 87.800 11.070 11.290 0.00 0.00 15.550 14.710 13.690 12.520 12.690 12.950 13.120 13.240 13.290 13.280 11.180 11.360 0.00 0.00 0.4440 0.6000 12.750 13.090 13.230 13.190 13.230 10.940 11.230 0.00000 0.00 275 0.00 0.00 0.4210 337.40 1.38 0.5350 350.400 4.885 14.830 13.187 1.646 15.223 13.381 1.857
WS7MET_125 2016-09-28 20:55:00 125 30483.0 12.860 13.130 13.260 13.290 13.280 88.600 87.400 11.040 11.250 0.00 0.00 15.550 14.700 13.690 12.520 12.690 12.950 13.140 13.280 13.360 13.330 11.140 11.340 0.00 0.00 0.4380 0.6000 12.780 13.120 13.240 13.260 13.230 10.960 11.200 0.00000 0.00 269 0.00 0.00 0.4090 343.20 2.71 0.5050 351.100 4.083 14.840 13.161 1.692 15.263 13.346 1.923
WS7MET_125 2016-09-28 20:50:00 125 30483.0 12.910 13.160 13.280 13.330 13.290 88.400 87.100 11.050 11.250 0.00 0.00 15.560 14.700 13.690 12.520 12.690 13.020 13.200 13.310 13.390 13.320 11.140 11.320 0.00 0.00 0.5030 0.6000 12.810 13.130 13.260 13.260 13.260 10.950 11.150 0.00000 0.00 246 0.00 0.00 0.3990 345.50 0.37 0.4250 1.097 4.664 14.889 13.170 1.727 15.303 13.346 1.974
WS7MET_125 2016-09-28 20:45:00 125 30483.0 13.010 13.220 13.330 13.400 13.310 88.000 86.900 11.080 11.280 0.00 0.00 15.560 14.700 13.680 12.520 12.690 13.120 13.270 13.370 13.570 13.340 11.150 11.390 0.00 0.00 0.5290 0.6000 12.880 13.200 13.310 13.330 13.300 10.970 11.180 0.00000 0.00 287 0.00 0.00 0.4430 339.60 6.29 0.4900 355.800 7.241 14.986 13.196 1.798 15.373 13.372 2.014
WS7MET_125 2016-09-28 20:40:00 125 30483.0 13.100 13.320 13.440 13.520 13.420 87.700 86.600 11.120 11.340 0.00 0.00 15.560 14.690 13.680 12.520 12.700 13.190 13.350 13.480 13.600 13.470 11.210 11.420 0.00 0.00 0.4570 0.6000 13.020 13.280 13.380 13.390 13.350 11.050 11.200 0.00000 0.00 521 0.00 0.00 0.3530 334.40 3.91 0.4800 343.400 6.759 15.075 13.231 1.854 15.494 13.426 2.076
WS7MET_125 2016-09-28 20:35:00 125 30483.0 13.170 13.410 13.530 13.630 13.520 87.200 86.000 11.110 11.350 0.00 0.00 15.560 14.690 13.680 12.510 12.700 13.260 13.460 13.570 13.770 13.600 11.210 11.450 0.00 0.00 0.5030 0.5000 13.050 13.350 13.480 13.530 13.440 11.000 11.280 0.00000 0.00 276 0.00 0.00 0.3960 344.80 1.47 0.4500 354.500 3.297 15.144 13.222 1.938 15.605 13.435 2.185
WS7MET_125 2016-09-28 20:30:00 125 30483.0 13.220 13.470 13.580 13.660 13.610 87.300 86.100 11.170 11.390 0.00 0.00 15.560 14.690 13.680 12.520 12.700 13.290 13.490 13.600 13.740 13.620 11.260 11.500 0.00 0.00 0.5230 0.6000 13.120 13.460 13.570 13.600 13.600 11.060 11.330 0.00000 0.00 239 0.00 0.00 0.4180 344.30 3.45 0.4650 358.700 8.400 15.193 13.275 1.930 15.635 13.470 2.173
WS7MET_125 2016-09-28 20:25:00 125 30483.0 13.280 13.500 13.620 13.690 13.640 86.800 85.800 11.150 11.370 0.00 0.00 15.560 14.690 13.680 12.530 12.710 13.360 13.510 13.620 13.770 13.670 11.210 11.470 0.00 0.00 0.4970 0.6000 13.220 13.490 13.600 13.600 13.620 11.070 11.270 0.00000 0.00 556 0.00 0.00 0.3710 343.00 2.73 0.4200 354.800 4.493 15.253 13.258 2.013 15.666 13.452 2.225
WS7MET_125 2016-09-28 20:20:00 125 30483.0 13.340 13.550 13.640 13.730 13.640 86.700 85.700 11.180 11.390 0.00 0.00 15.560 14.680 13.680 12.530 12.710 13.430 13.570 13.680 13.870 13.660 11.260 11.540 0.00 0.00 0.5230 0.7000 13.260 13.510 13.620 13.600 13.620 11.090 11.250 0.00000 0.00 287 0.00 0.00 0.4390 341.10 0.34 0.5150 350.000 4.719 15.313 13.284 2.037 15.707 13.470 2.246
WS7MET_125 2016-09-28 20:15:00 125 30483.0 13.390 13.600 13.710 13.790 13.690 86.400 85.300 11.170 11.380 0.00 0.00 15.560 14.680 13.680 12.530 12.710 13.460 13.640 13.760 13.910 13.750 11.250 11.520 0.00 0.00 0.5880 0.7000 13.260 13.570 13.680 13.700 13.650 11.030 11.270 0.00000 0.00 597 0.00 0.00 0.5190 338.20 3.24 0.6050 354.000 4.836 15.363 13.275 2.089 15.768 13.461 2.318
WS7MET_125 2016-09-28 20:10:00 125 30483.0 13.390 13.630 13.750 13.790 13.770 86.500 85.400 11.200 11.400 0.00 0.00 15.560 14.670 13.680 12.530 12.720 13.460 13.650 13.760 13.840 13.790 11.300 11.510 0.00 0.00 0.6530 0.7000 13.330 13.610 13.740 13.740 13.740 11.120 11.310 0.00000 0.00 480 0.00 0.00 0.5360 333.40 2.92 0.6500 344.600 4.066 15.363 13.302 2.074 15.768 13.479 2.302
WS7MET_125 2016-09-28 20:05:00 125 30483.0 13.410 13.650 13.770 13.830 13.750 86.200 85.100 11.160 11.380 0.00 0.00 15.560 14.670 13.680 12.530 12.730 13.460 13.700 13.800 13.910 13.800 11.220 11.450 0.00 0.00 0.5230 0.7000 13.330 13.610 13.740 13.770 13.720 11.100 11.330 0.00000 0.00 0 0.00 0.00 0.4880 344.40 0.78 0.5500 351.900 4.007 15.383 13.266 2.123 15.809 13.461 2.356
WS7MET_125 2016-09-28 20:00:00 125 30483.0 13.430 13.710 13.830 13.840 13.850 86.200 85.000 11.180 11.370 0.00 0.00 15.560 14.660 13.670 12.530 12.740 13.530 13.720 13.850 13.910 13.900 11.300 11.450 0.00 0.00 0.5160 0.6000 13.330 13.700 13.800 13.740 13.790 11.110 11.250 0.00000 0.00 434 0.00 0.00 0.4460 346.00 1.23 0.4750 356.100 7.966 15.403 13.284 2.126 15.819 13.452 2.373
WS7MET_125 2016-09-28 19:55:00 125 30483.0 13.440 13.720 13.810 13.830 13.830 85.800 84.900 11.120 11.340 0.00 0.00 15.560 14.660 13.670 12.530 12.740 13.500 13.740 13.820 13.910 13.880 11.190 11.470 0.00 0.00 0.5230 0.6000 13.360 13.710 13.800 13.740 13.760 11.030 11.230 0.00000 0.00 242 0.00 0.00 0.4530 345.30 0.48 0.5250 353.000 5.648 15.413 13.231 2.189 15.809 13.426 2.387
WS7MET_125 2016-09-28 19:50:00 125 30483.0 13.490 13.720 13.840 13.870 13.820 85.500 84.500 11.120 11.320 0.00 0.00 15.570 14.660 13.670 12.530 12.740 13.530 13.740 13.870 13.970 13.860 11.180 11.420 0.00 0.00 0.6470 0.7000 13.390 13.720 13.820 13.770 13.790 11.050 11.230 0.00000 0.00 259 0.00 0.00 0.5320 349.20 1.14 0.5500 1.002 6.626 15.463 13.231 2.242 15.850 13.408 2.457
WS7MET_125 2016-09-28 19:45:00 125 30483.0 13.530 13.770 13.890 13.880 13.890 85.400 84.500 11.140 11.330 0.00 0.00 15.560 14.650 13.670 12.530 12.750 13.630 13.780 13.910 13.970 13.910 11.270 11.410 0.00 0.00 0.5950 0.7000 13.390 13.740 13.870 13.800 13.820 11.010 11.240 0.00000 0.00 245 0.00 0.00 0.5080 351.70 2.31 0.5350 4.563 7.398 15.504 13.249 2.264 15.861 13.417 2.458
WS7MET_125 2016-09-28 19:40:00 125 30483.0 13.580 13.810 13.930 13.960 13.910 85.400 84.500 11.190 11.410 0.00 0.00 15.560 14.650 13.670 12.530 12.760 13.670 13.860 13.970 14.040 13.970 11.310 11.470 0.00 0.00 0.5490 0.7000 13.500 13.780 13.910 13.870 13.870 11.100 11.320 0.00000 0.00 0 0.00 0.00 0.4950 347.50 3.86 0.5600 357.400 7.197 15.554 13.293 2.271 15.943 13.488 2.471
WS7MET_125 2016-09-28 19:35:00 125 30483.0 13.610 13.880 14.000 14.040 13.970 85.800 84.400 11.290 11.480 0.00 0.00 15.550 14.650 13.670 12.530 12.760 13.700 13.910 14.040 14.110 14.010 11.390 11.560 0.00 0.00 0.6600 0.6000 13.530 13.850 13.970 13.970 13.920 11.210 11.400 0.00000 0.00 243 0.00 0.00 0.5660 349.80 2.10 0.5500 4.665 6.972 15.585 13.381 2.213 16.026 13.551 2.500
WS7MET_125 2016-09-28 19:30:00 125 30483.0 13.610 13.900 14.040 14.070 14.100 85.800 84.200 11.290 11.470 0.00 0.00 15.540 14.640 13.680 12.530 12.760 13.740 13.920 14.060 14.180 14.170 11.430 11.600 0.00 0.00 0.6660 0.7000 13.530 13.880 14.000 14.010 14.030 11.210 11.370 0.00000 0.00 360 0.00 0.00 0.5530 345.10 4.91 0.5550 356.300 6.891 15.585 13.381 2.213 16.057 13.542 2.537
WS7MET_125 2016-09-28 19:25:00 125 30483.0 13.650 13.910 14.000 14.040 14.030 85.100 84.000 11.210 11.390 0.00 0.00 15.540 14.640 13.680 12.530 12.770 13.800 13.930 14.010 14.110 14.050 11.380 11.490 0.00 0.00 0.6600 0.7000 13.570 13.890 13.990 13.970 14.000 11.060 11.280 0.00000 0.00 251 0.00 0.00 0.5600 346.60 1.89 0.5150 358.400 6.474 15.625 13.310 2.328 16.026 13.470 2.564
WS7MET_125 2016-09-28 19:20:00 125 30483.0 13.720 13.970 14.040 14.090 14.010 84.000 83.400 11.070 11.330 0.00 0.00 15.540 14.630 13.680 12.530 12.770 13.870 13.990 14.090 14.180 14.140 11.250 11.420 0.00 0.00 0.6270 0.6000 13.600 13.930 13.990 13.970 13.920 10.940 11.250 0.00000 0.00 251 0.00 0.00 0.5300 344.40 2.25 0.5050 351.300 5.169 15.697 13.187 2.511 16.078 13.417 2.669
WS7MET_125 2016-09-28 19:15:00 125 30483.0 13.770 14.020 14.090 14.180 14.060 83.800 83.200 11.090 11.390 0.00 0.00 15.540 14.630 13.680 12.530 12.770 13.840 14.050 14.140 14.320 14.140 11.170 11.520 0.00 0.00 0.6210 0.6000 13.670 13.980 14.060 14.040 13.990 10.960 11.250 0.00000 0.00 249 0.00 0.00 0.5120 349.30 6.75 0.5300 1.153 9.490 15.748 13.205 2.551 16.172 13.470 2.717
WS7MET_125 2016-09-28 19:10:00 125 30483.0 13.800 14.060 14.160 14.240 14.150 84.000 83.000 11.150 11.400 0.00 0.00 15.530 14.630 13.680 12.530 12.790 13.970 14.090 14.180 14.320 14.180 11.300 11.490 0.00 0.00 0.7970 0.9000 13.700 14.050 14.130 14.150 14.110 11.030 11.290 0.00000 0.00 0 0.00 0.00 0.5370 344.60 6.91 0.6100 356.900 10.630 15.778 13.258 2.525 16.235 13.479 2.760
WS7MET_125 2016-09-28 19:05:00 125 30483.0 13.870 14.120 14.220 14.300 14.260 84.200 82.900 11.260 11.440 0.00 0.00 15.530 14.620 13.680 12.530 12.790 14.040 14.150 14.250 14.420 14.310 11.450 11.580 0.00 0.00 0.6140 0.7000 13.740 14.080 14.190 14.210 14.160 11.110 11.340 0.00000 0.00 256 0.00 0.00 0.4450 353.80 4.95 0.4600 5.885 9.170 15.850 13.355 2.504 16.298 13.515 2.787
WS7MET_125 2016-09-28 19:00:00 125 30483.0 13.940 14.170 14.270 14.350 14.250 83.700 82.500 11.230 11.430 0.00 0.00 15.530 14.610 13.680 12.530 12.800 14.040 14.220 14.320 14.450 14.270 11.380 11.540 0.00 0.00 0.5950 0.7000 13.800 14.140 14.230 14.250 14.250 11.090 11.350 0.00000 0.00 511 0.00 0.00 0.4360 348.10 5.34 0.4950 359.000 9.240 15.923 13.328 2.595 16.351 13.506 2.861
WS7MET_125 2016-09-28 18:55:00 125 30483.0 14.010 14.280 14.390 14.450 14.370 83.100 82.000 11.200 11.430 0.00 0.00 15.510 14.610 13.680 12.530 12.810 14.180 14.310 14.440 14.590 14.480 11.370 11.560 0.00 0.00 0.4970 0.6000 13.910 14.230 14.330 14.280 14.250 11.100 11.290 0.00000 0.00 247 0.00 0.00 0.3740 346.90 6.62 0.4600 359.400 10.060 15.995 13.302 2.703 16.457 13.506 2.962
WS7MET_125 2016-09-28 18:50:00 125 30483.0 14.060 14.320 14.440 14.460 14.510 83.100 82.100 11.250 11.460 0.00 0.00 15.510 14.610 13.680 12.530 12.810 14.210 14.330 14.460 14.550 14.550 11.410 11.550 0.00 0.00 0.5230 0.8000 13.910 14.310 14.430 14.380 14.480 11.090 11.380 0.00000 0.00 302 0.00 0.00 0.4180 348.50 3.00 0.4650 1.299 6.251 16.047 13.346 2.712 16.468 13.533 2.948
WS7MET_125 2016-09-28 18:45:00 125 30483.0 14.080 14.290 14.360 14.350 14.410 83.200 82.700 11.280 11.460 0.00 0.00 15.510 14.610 13.670 12.530 12.820 14.250 14.320 14.420 14.450 14.560 11.480 11.600 0.00 0.00 0.6470 0.8000 13.970 14.260 14.310 14.210 14.250 11.090 11.330 0.00000 0.00 337 0.00 0.00 0.5470 342.20 3.44 0.5300 351.600 5.159 16.068 13.372 2.699 16.351 13.533 2.829
WS7MET_125 2016-09-28 18:40:00 125 30483.0 14.090 14.320 14.380 14.390 14.410 82.900 82.400 11.240 11.440 0.00 0.00 15.490 14.610 13.670 12.550 12.830 14.180 14.340 14.420 14.490 14.550 11.380 11.570 0.00 0.00 0.5750 0.7000 14.010 14.300 14.350 14.280 14.290 11.120 11.330 0.00000 0.00 471 0.00 0.00 0.4570 345.30 14.32 0.5350 356.900 15.150 16.078 13.337 2.749 16.394 13.515 2.885
WS7MET_125 2016-09-28 18:35:00 125 30483.0 14.090 14.340 14.390 14.400 14.410 83.300 82.900 11.320 11.550 0.00 0.00 15.490 14.610 13.670 12.530 12.830 14.180 14.360 14.420 14.450 14.500 11.450 11.660 0.00 0.00 0.6270 0.7000 14.010 14.320 14.350 14.350 14.290 11.220 11.440 0.00000 0.00 431 0.00 0.00 0.4190 343.60 5.75 0.5000 355.600 10.420 16.078 13.408 2.685 16.404 13.614 2.805
WS7MET_125 2016-09-28 18:30:00 125 30483.0 14.060 14.350 14.410 14.440 14.370 83.400 82.800 11.300 11.560 0.00 0.00 15.490 14.600 13.680 12.520 12.840 14.180 14.390 14.480 14.550 14.520 11.450 11.670 0.00 0.00 0.6730 0.8000 13.970 14.320 14.370 14.380 14.270 11.210 11.480 0.00000 0.00 384 0.00 0.00 0.4300 339.90 8.76 0.5350 351.300 8.630 16.047 13.390 2.664 16.447 13.623 2.829
WS7MET_125 2016-09-28 18:25:00 125 30483.0 14.080 14.370 14.440 14.420 14.540 83.000 82.000 11.250 11.410 0.00 0.00 15.480 14.590 13.670 12.530 12.850 14.210 14.390 14.480 14.520 14.580 11.430 11.560 0.00 0.00 0.5160 0.6000 14.010 14.330 14.400 14.350 14.500 11.080 11.330 0.00000 0.00 280 0.00 0.00 0.4120 349.60 7.15 0.5100 1.497 8.460 16.068 13.346 2.732 16.426 13.488 2.957
WS7MET_125 2016-09-28 18:20:00 125 30483.0 14.070 14.300 14.390 14.410 14.410 82.300 81.600 11.110 11.320 0.00 0.00 15.470 14.590 13.660 12.530 12.860 14.180 14.320 14.410 14.490 14.500 11.240 11.400 0.00 0.00 0.5880 0.6000 13.910 14.300 14.370 14.350 14.370 10.960 11.240 0.00000 0.00 325 0.00 0.00 0.4580 348.00 1.96 0.4800 1.204 8.250 16.057 13.222 2.842 16.415 13.408 3.020
WS7MET_125 2016-09-28 18:15:00 125 30483.0 14.170 14.310 14.410 14.500 14.380 82.200 81.400 11.180 11.370 0.00 0.00 15.460 14.600 13.670 12.530 12.860 14.350 14.340 14.440 14.620 14.420 11.280 11.490 0.00 0.00 0.5550 0.7000 14.040 14.300 14.380 14.420 14.350 11.100 11.290 0.00000 0.00 378 0.00 0.00 0.4360 347.10 6.42 0.5200 358.200 9.290 16.162 13.284 2.877 16.511 13.452 3.071
WS7MET_125 2016-09-28 18:10:00 125 30483.0 14.310 14.430 14.510 14.610 14.430 81.600 81.000 11.210 11.390 0.00 0.00 15.450 14.580 13.670 12.530 12.880 14.420 14.510 14.600 14.690 14.500 11.340 11.460 0.00 0.00 0.6730 0.7000 14.180 14.350 14.450 14.520 14.370 11.070 11.310 0.00000 0.00 212 0.00 0.00 0.5370 353.00 3.57 0.5300 7.615 6.025 16.309 13.310 3.001 16.628 13.470 3.159
WS7MET_125 2016-09-28 18:05:00 125 30483.0 14.430 14.580 14.690 14.790 14.620 81.600 80.600 11.330 11.490 0.00 0.00 15.450 14.570 13.670 12.530 12.880 14.550 14.640 14.750 14.900 14.680 11.540 11.620 0.00 0.00 0.6600 0.6000 14.280 14.510 14.610 14.690 14.500 11.120 11.350 0.00000 0.00 429 0.00 0.00 0.5690 348.70 1.50 0.5300 359.800 7.457 16.436 13.417 3.024 16.823 13.560 3.264
WS7MET_125 2016-09-28 18:00:00 125 30483.0 14.560 14.700 14.810 14.910 14.720 81.300 80.300 11.400 11.560 0.74 0.00 15.430 14.570 13.670 12.530 12.890 14.660 14.790 14.900 15.000 14.800 11.480 11.690 1.34 0.00 0.6400 0.8000 14.450 14.640 14.750 14.830 14.680 11.330 11.460 0.00000 0.00 287 0.00 0.00 0.5360 345.20 3.89 0.5400 358.200 7.528 16.575 13.479 3.099 16.953 13.623 3.340
WS7MET_125 2016-09-28 17:55:00 125 30483.0 14.700 14.880 14.980 15.040 14.920 80.800 79.870 11.450 11.600 1.75 0.00 15.410 14.570 13.660 12.530 12.900 14.790 14.930 15.030 15.100 15.020 11.690 11.700 2.68 0.00 0.7510 1.0000 14.590 14.800 14.900 14.960 14.800 11.250 11.530 0.00000 0.00 279 0.00 0.00 0.4640 354.40 3.43 0.5700 9.860 19.170 16.725 13.524 3.211 17.096 13.659 3.441
WS7MET_125 2016-09-28 17:50:00 125 30483.0 14.920 15.000 15.080 15.170 14.950 79.410 79.140 11.400 11.590 2.68 0.00 15.410 14.560 13.660 12.530 12.910 15.030 15.110 15.180 15.340 15.010 11.560 11.740 2.68 0.00 0.7510 1.0000 14.790 14.930 15.030 15.030 14.910 11.250 11.460 0.00000 0.00 273 0.00 0.00 0.5280 349.70 10.48 0.5800 2.018 12.300 16.964 13.479 3.493 17.239 13.650 3.596
WS7MET_125 2016-09-28 17:45:00 125 30483.0 15.110 15.260 15.330 15.450 15.170 78.480 77.820 11.410 11.610 3.96 0.00 15.400 14.560 13.660 12.530 12.920 15.300 15.360 15.440 15.580 15.300 11.550 11.860 4.03 0.00 0.6470 0.8000 14.960 15.130 15.190 15.340 14.980 11.250 11.520 0.00000 0.00 247 0.00 0.00 0.3300 337.60 8.32 0.4700 353.600 10.900 17.173 13.488 3.696 17.552 13.668 3.893
WS7MET_125 2016-09-28 17:40:00 125 30483.0 15.330 15.460 15.560 15.670 15.420 77.770 76.550 11.480 11.580 4.03 0.00 15.390 14.560 13.660 12.540 12.930 15.410 15.580 15.650 15.810 15.510 11.730 11.770 4.03 0.00 0.6790 1.0000 15.200 15.370 15.460 15.540 15.310 11.210 11.190 0.00000 0.00 243 0.00 0.00 0.4300 325.10 23.11 0.5750 341.600 25.550 17.418 13.551 3.872 17.801 13.641 4.174
WS7MET_125 2016-09-28 17:35:00 125 30483.0 15.550 15.710 15.810 15.940 15.650 77.590 75.600 11.670 11.640 4.03 0.00 15.370 14.560 13.660 12.540 12.940 15.710 15.840 15.950 16.090 15.820 11.900 11.740 4.03 0.00 0.6340 0.7000 15.370 15.580 15.680 15.780 15.500 11.430 11.540 0.00000 0.00 288 0.00 0.00 0.4820 344.10 5.03 0.5300 358.200 7.210 17.665 13.722 3.959 18.112 13.695 4.419
WS7MET_125 2016-09-28 17:30:00 125 30483.0 15.710 15.920 16.030 16.120 15.970 77.220 74.940 11.750 11.690 5.37 0.00 15.360 14.560 13.660 12.540 12.950 15.810 15.980 16.090 16.190 16.040 11.900 11.900 5.37 0.00 0.6080 0.7000 15.610 15.850 15.960 16.020 15.830 11.530 11.510 0.00000 0.00 245 0.00 0.00 0.4600 345.20 8.27 0.5100 358.400 11.570 17.847 13.795 4.066 18.321 13.740 4.591
WS7MET_125 2016-09-28 17:25:00 125 30483.0 15.850 16.060 16.160 16.270 16.050 76.110 74.060 11.660 11.650 7.04 0.00 15.350 14.550 13.660 12.540 12.970 15.950 16.140 16.250 16.390 16.170 11.960 11.880 8.05 0.00 0.5680 0.7000 15.710 15.980 16.090 16.150 15.950 11.430 11.450 0.00000 0.00 243 0.00 0.00 0.2960 334.50 6.91 0.4150 349.200 34.700 18.008 13.713 4.302 18.497 13.704 4.798
WS7MET_125 2016-09-28 17:20:00 125 30483.0 16.000 16.210 16.320 16.430 16.250 75.350 72.890 11.660 11.570 9.66 0.87 15.340 14.540 13.660 12.540 12.980 16.050 16.270 16.390 16.460 16.350 11.990 11.890 10.73 1.34 0.5550 0.6000 15.950 16.150 16.260 16.360 16.190 11.380 11.350 0.00000 0.00 237 0.00 0.00 0.3090 346.60 30.11 0.4600 352.700 33.580 18.181 13.713 4.482 18.686 13.632 5.066
WS7MET_125 2016-09-28 17:15:00 125 30483.0 16.060 16.300 16.430 16.600 16.350 74.050 71.250 11.450 11.390 13.08 1.54 15.320 14.540 13.660 12.530 12.990 16.180 16.340 16.480 16.730 16.360 11.850 11.580 14.76 2.68 0.4510 0.5000 15.950 16.270 16.390 16.460 16.340 11.010 11.230 0.00000 0.00 213 0.00 0.00 0.3230 340.30 5.00 0.3700 350.400 8.920 18.251 13.524 4.736 18.890 13.470 5.431
WS7MET_125 2016-09-28 17:10:00 125 30483.0 16.240 16.410 16.580 16.820 16.370 75.520 72.930 11.920 11.960 15.50 2.68 15.310 14.540 13.660 12.540 13.020 16.420 16.520 16.710 16.970 16.420 12.200 12.160 16.10 2.68 0.7320 1.2000 16.150 16.330 16.490 16.660 16.350 11.540 11.430 0.00000 0.00 212 0.00 0.00 0.2870 313.90 47.28 0.4600 330.600 25.780 18.462 13.951 4.519 19.155 13.988 5.185
WS7MET_125 2016-09-28 17:05:00 125 30483.0 16.500 16.690 16.910 17.250 16.590 74.650 71.570 11.990 12.080 17.37 2.68 15.290 14.540 13.660 12.530 13.040 16.700 16.840 17.100 17.410 16.740 12.260 12.310 18.78 2.68 0.3070 0.6000 16.320 16.550 16.720 17.070 16.450 11.760 11.500 0.00000 0.00 245 0.00 0.00 0.0860 313.00 23.92 0.2750 310.600 35.790 18.770 14.015 4.758 19.684 14.099 5.596
WS7MET_125 2016-09-28 17:00:00 125 30483.0 16.830 17.020 17.260 17.570 17.080 72.940 67.470 11.960 11.490 19.32 3.69 15.280 14.530 13.660 12.530 13.060 17.040 17.140 17.350 17.750 17.410 12.440 12.310 20.12 4.03 0.6790 0.9000 16.590 16.860 17.120 17.450 16.780 11.420 10.690 0.00000 0.00 279 0.00 0.00 0.2060 255.10 28.37 0.4100 264.600 43.890 19.168 13.988 5.187 20.086 13.560 6.534
WS7MET_125 2016-09-28 16:55:00 125 30483.0 17.160 17.270 17.480 17.810 17.280 70.770 66.430 11.820 11.480 20.93 4.03 15.270 14.530 13.660 12.530 13.090 17.380 17.350 17.540 18.060 17.600 12.240 12.290 21.47 4.03 0.6340 0.9000 16.970 17.160 17.390 17.650 16.950 10.720 10.550 0.00000 0.00 237 0.00 0.00 0.1920 254.60 25.75 0.3750 275.900 64.060 19.573 13.859 5.721 20.393 13.551 6.846
WS7MET_125 2016-09-28 16:50:00 125 30483.0 17.600 17.620 17.830 18.230 17.550 68.550 64.590 11.750 11.460 22.81 4.03 15.250 14.520 13.660 12.540 13.120 17.750 17.730 17.950 18.430 17.890 12.280 12.230 22.81 4.03 0.8560 1.1000 17.380 17.390 17.580 18.020 17.050 10.860 10.630 0.00000 0.00 590 0.00 0.00 0.2990 230.00 5.54 0.4200 265.400 20.630 20.124 13.795 6.329 20.938 13.533 7.414
WS7MET_125 2016-09-28 16:45:00 125 30483.0 17.910 17.810 18.050 18.540 17.510 66.980 63.880 11.700 11.580 24.35 4.56 15.230 14.520 13.660 12.540 13.160 18.130 17.990 18.270 18.670 17.920 12.630 12.950 25.49 5.37 1.0850 1.6000 17.720 17.700 17.920 18.370 17.260 10.540 10.730 0.00000 0.00 507 0.00 0.00 0.4100 235.80 49.38 0.6250 259.000 53.650 20.521 13.749 6.776 21.349 13.641 7.711
WS7MET_125 2016-09-28 16:40:00 125 30483.0 18.160 18.120 18.420 18.820 18.050 61.790 59.550 10.710 10.780 45.28 5.77 15.220 14.520 13.660 12.540 13.180 18.300 18.180 18.480 18.950 18.350 11.880 12.110 88.50 6.71 0.7910 1.0000 18.030 18.020 18.300 18.640 17.400 9.910 10.140 0.00000 0.00 282 0.00 0.00 0.2900 203.40 35.18 0.4400 204.600 30.430 20.846 12.875 7.965 21.726 12.935 8.788
WS7MET_125 2016-09-28 16:35:00 125 30483.0 18.730 18.300 18.750 19.320 17.920 63.220 60.100 11.590 11.390 56.08 7.38 15.200 14.520 13.660 12.540 13.200 19.150 18.600 19.190 19.700 18.300 12.830 12.790 91.20 8.05 1.2150 1.3000 18.430 18.200 18.540 18.980 17.640 10.110 10.260 0.00000 0.00 545 0.00 0.00 0.4690 209.70 72.25 0.7300 236.100 65.800 21.604 13.650 7.946 22.414 13.470 8.943
WS7MET_125 2016-09-28 16:30:00 125 30483.0 19.440 18.980 19.730 20.260 18.170 61.410 57.950 11.830 11.730 40.92 8.92 15.180 14.520 13.650 12.540 13.220 19.730 19.300 20.090 20.620 18.670 12.660 12.250 69.76 10.73 1.0260 1.0000 19.180 18.630 19.240 19.730 17.690 10.990 11.050 0.00000 0.00 267 0.00 0.00 0.3320 124.50 31.74 0.3950 145.800 34.730 22.582 13.868 8.714 23.759 13.777 9.991
WS7MET_125 2016-09-28 16:25:00 125 30483.0 20.060 19.580 20.190 20.550 18.590 57.580 55.740 11.450 11.410 93.40 11.87 15.170 14.520 13.650 12.540 13.260 20.380 19.890 20.430 20.650 18.900 12.720 12.770 177.10 13.42 1.8420 2.2000 19.760 19.340 20.090 20.410 18.280 10.590 10.530 0.00000 0.00 500 0.00 0.00 0.5550 232.80 32.99 0.7650 248.900 23.650 23.467 13.524 9.955 24.188 13.488 10.706
WS7MET_125 2016-09-28 16:20:00 125 30483.0 20.480 19.960 20.400 20.560 18.360 60.260 58.330 12.530 12.110 256.50 16.03 15.160 14.520 13.650 12.540 13.270 20.620 20.120 20.590 20.750 18.620 13.170 12.930 273.70 18.78 1.9730 2.6000 20.310 19.780 20.280 20.410 18.250 11.450 11.280 0.00000 0.00 258 0.00 0.00 0.2950 192.30 30.71 0.5150 187.500 59.610 24.084 14.522 9.571 24.203 14.127 10.085
WS7MET_125 2016-09-28 16:15:00 125 30483.0 20.480 20.110 20.580 20.780 18.720 58.580 57.720 12.090 12.150 282.50 21.26 15.140 14.520 13.650 12.540 13.310 20.620 20.170 20.660 20.890 19.020 12.980 12.730 289.80 24.15 1.7050 2.1000 20.340 20.050 20.410 20.650 18.370 11.260 11.500 0.00000 0.00 436 0.00 0.00 0.4900 202.80 35.17 0.7150 181.000 28.820 24.084 14.108 9.976 24.533 14.164 10.373
WS7MET_125 2016-09-28 16:10:00 125 30483.0 20.760 20.160 20.820 20.980 18.660 59.630 58.680 12.630 12.590 297.60 25.83 15.120 14.510 13.650 12.540 13.290 21.060 20.480 21.160 21.440 19.100 13.300 13.260 304.50 28.17 1.4180 1.9000 20.520 20.000 20.620 20.650 18.190 11.830 11.780 0.00000 0.00 409 0.00 0.00 0.5610 165.40 50.79 0.8150 175.000 35.180 24.503 14.618 9.892 24.837 14.579 10.263
WS7MET_125 2016-09-28 16:05:00 125 30483.0 21.120 20.630 21.350 21.410 18.930 57.130 55.940 12.320 12.270 312.40 30.39 15.110 14.510 13.650 12.540 13.280 21.200 20.800 21.430 21.610 19.140 12.740 12.830 319.30 33.54 1.3850 1.8000 20.960 20.430 21.160 21.230 18.750 11.680 11.730 0.00000 0.00 311 0.00 0.00 0.3590 179.70 27.65 0.5450 183.300 25.400 25.051 14.323 10.739 25.500 14.276 11.235
WS7MET_125 2016-09-28 16:00:00 125 30483.0 21.120 20.880 21.320 21.520 19.050 58.500 57.070 12.670 12.670 326.80 35.69 15.090 14.500 13.650 12.540 13.260 21.230 21.010 21.370 21.780 19.560 13.410 13.190 334.10 37.56 0.4770 0.9000 20.860 20.780 21.240 21.330 18.620 11.800 11.830 0.00000 0.00 274 0.00 0.00 0.1760 240.60 73.29 0.3850 217.400 62.940 25.051 14.656 10.396 25.673 14.656 11.021
WS7MET_125 2016-09-28 15:55:00 125 30483.0 20.770 20.920 21.320 21.670 19.660 56.690 54.610 11.880 12.150 341.10 40.11 15.070 14.500 13.650 12.540 13.270 20.960 21.030 21.430 21.780 19.790 12.480 12.510 347.50 41.59 0.9280 1.0000 20.550 20.780 21.190 21.500 19.580 11.570 11.900 0.00000 0.00 471 0.00 0.00 0.2770 240.40 63.16 0.4700 254.100 59.690 24.518 13.914 10.619 25.909 14.164 11.760
WS7MET_125 2016-09-28 15:50:00 125 30483.0 20.400 20.540 21.050 21.220 19.550 59.620 57.240 12.290 12.450 355.20 44.07 15.060 14.500 13.650 12.540 13.260 20.550 20.770 21.250 21.470 19.720 12.840 12.800 362.20 45.61 0.3790 1.3000 20.310 20.420 20.920 21.030 19.370 11.760 12.190 0.00000 0.00 257 0.00 0.00 0.1450 243.70 56.59 0.4750 244.900 55.270 23.965 14.295 9.677 25.205 14.446 10.778
WS7MET_125 2016-09-28 15:45:00 125 30483.0 20.310 20.300 20.880 21.040 19.520 61.230 58.510 12.620 12.610 369.50 48.10 15.050 14.500 13.650 12.540 13.260 20.580 20.490 20.970 21.200 19.740 13.320 13.070 377.00 49.64 0.9600 1.6000 20.170 20.150 20.810 20.920 19.220 11.740 12.050 0.00000 0.00 275 0.00 0.00 0.4120 208.90 54.94 0.6600 239.800 59.640 23.833 14.608 9.240 24.928 14.599 10.343
WS7MET_125 2016-09-28 15:40:00 125 30483.0 20.510 20.340 20.900 21.100 19.390 58.700 57.290 12.160 12.340 384.00 51.32 15.030 14.500 13.650 12.540 13.230 20.750 20.490 20.930 21.230 19.770 12.970 13.210 390.40 52.32 1.3200 1.8000 20.280 20.150 20.860 20.890 18.830 11.490 11.860 0.00000 0.00 224 0.00 0.00 0.4320 137.50 52.01 0.5700 150.400 50.900 24.129 14.173 9.965 25.020 14.342 10.686
WS7MET_125 2016-09-28 15:35:00 125 30483.0 21.140 20.610 21.420 21.430 19.370 59.190 56.850 12.880 12.530 397.60 53.80 15.010 14.500 13.650 12.540 13.230 21.370 20.840 21.830 21.670 19.600 13.730 13.220 403.80 55.01 1.6200 2.1000 20.720 20.370 20.910 21.230 19.070 11.620 11.670 0.00000 0.00 356 0.00 0.00 0.6290 180.30 86.90 0.8100 204.500 33.470 25.082 14.859 10.236 25.532 14.522 11.017
WS7MET_125 2016-09-28 15:30:00 125 30483.0 21.610 20.980 21.690 21.390 19.530 56.090 56.670 12.480 12.440 410.50 55.47 15.000 14.500 13.650 12.540 13.220 21.780 21.170 21.830 21.610 19.910 14.010 13.760 417.20 56.35 0.8170 1.1000 21.370 20.810 21.490 21.030 19.130 11.360 11.590 0.00000 0.00 274 0.00 0.00 0.3950 216.10 33.63 0.5550 227.200 30.270 25.814 14.475 11.335 25.469 14.437 11.036
WS7MET_125 2016-09-28 15:25:00 125 30483.0 21.340 20.740 21.300 20.890 19.290 61.210 60.440 13.560 12.950 380.70 57.29 14.980 14.500 13.650 12.540 13.230 21.640 21.030 21.620 21.100 19.560 14.350 14.190 419.90 59.03 1.0320 1.3000 21.030 20.510 21.030 20.790 19.070 12.110 12.160 0.00000 0.00 214 0.00 0.00 0.2760 151.90 30.13 0.4750 174.200 32.810 25.391 15.534 9.849 24.700 14.928 9.771
WS7MET_125 2016-09-28 15:20:00 125 30483.0 21.100 20.680 21.150 21.050 19.450 60.390 59.040 13.140 12.750 428.40 60.84 14.970 14.500 13.650 12.530 13.230 21.270 20.850 21.310 21.330 19.910 13.890 13.620 442.70 63.05 0.8230 1.1000 20.990 20.470 20.970 20.650 18.980 12.220 12.360 0.00000 0.00 271 0.00 0.00 0.4660 164.90 57.17 0.6200 162.900 52.390 25.020 15.114 9.911 24.944 14.733 10.217
WS7MET_125 2016-09-28 15:15:00 125 30483.0 21.660 21.210 21.490 21.400 19.690 58.300 58.110 13.120 12.830 449.20 64.33 14.950 14.500 13.650 12.530 13.220 21.850 21.580 21.780 21.670 20.030 14.240 13.840 454.80 65.74 1.0580 1.7000 21.330 20.730 21.150 21.060 19.370 11.850 12.250 0.00000 0.00 530 0.00 0.00 0.6070 160.90 58.15 0.7850 180.600 49.590 25.893 15.094 10.798 25.485 14.811 10.676
WS7MET_125 2016-09-28 15:10:00 125 30483.0 21.710 21.590 21.750 21.770 20.110 54.700 55.040 12.200 12.360 461.20 67.62 14.930 14.500 13.650 12.540 13.220 21.780 21.700 21.930 21.880 20.310 13.190 13.020 466.90 69.76 1.5810 1.5000 21.570 21.480 21.620 21.640 19.930 11.620 11.910 0.00000 0.00 240 0.00 0.00 0.7340 224.90 39.96 0.9550 231.300 36.540 25.973 14.211 11.766 26.068 14.361 11.720
WS7MET_125 2016-09-28 15:05:00 125 30483.0 21.730 21.380 21.610 21.470 19.980 58.190 59.320 13.170 13.220 473.40 71.04 14.920 14.500 13.660 12.540 13.220 21.850 21.490 21.720 21.670 20.260 14.040 13.910 480.30 72.45 2.0970 2.6000 21.570 21.260 21.480 21.270 19.370 12.400 12.330 0.00000 0.00 459 0.00 0.00 0.6700 223.90 44.35 0.8850 236.500 48.280 26.004 15.144 10.872 25.594 15.193 10.412
WS7MET_125 2016-09-28 15:00:00 125 30483.0 21.590 21.170 21.280 21.270 19.770 58.920 58.750 13.220 12.890 484.60 74.93 14.900 14.500 13.650 12.540 13.220 21.780 21.240 21.550 21.400 19.960 14.280 13.610 489.70 76.47 0.8950 1.5000 21.500 21.040 21.010 21.130 19.510 12.090 12.250 0.00000 0.00 235 0.00 0.00 0.3030 146.80 29.83 0.5250 171.000 54.440 25.783 15.193 10.592 25.283 14.869 10.429
WS7MET_125 2016-09-28 14:55:00 125 30483.0 21.740 20.990 21.220 21.230 19.930 57.720 57.770 13.040 12.600 496.50 79.69 14.890 14.490 13.640 12.540 13.230 22.020 21.110 21.420 21.330 20.170 14.160 13.260 503.10 81.80 1.7710 1.9000 21.540 20.870 20.990 21.100 19.700 11.590 11.990 0.00000 0.00 317 0.00 0.00 0.7460 208.10 56.49 0.8350 227.900 41.920 26.020 15.016 11.001 25.221 14.589 10.651
WS7MET_125 2016-09-28 14:50:00 125 30483.0 22.280 21.680 21.970 21.700 20.140 56.820 56.970 13.320 12.820 508.20 83.70 14.880 14.490 13.640 12.540 13.220 22.430 21.970 22.240 22.020 20.810 14.320 13.270 513.80 85.90 1.1830 1.4000 21.980 21.080 21.440 21.270 19.720 12.530 12.530 0.00000 0.00 384 0.00 0.00 0.5910 161.40 49.80 0.7200 167.200 47.220 26.891 15.293 11.611 25.957 14.801 11.169
WS7MET_125 2016-09-28 14:45:00 125 30483.0 22.100 21.600 22.160 21.600 20.030 56.230 55.620 12.980 12.360 519.50 87.70 14.860 14.490 13.640 12.540 13.220 22.250 21.720 22.330 21.810 20.600 14.220 12.950 525.90 89.90 1.0130 1.3000 21.950 21.480 21.980 21.440 19.770 11.890 11.430 0.00000 0.00 235 0.00 0.00 0.3930 141.10 48.12 0.5050 169.000 69.420 26.598 14.957 11.642 25.799 14.361 11.449
WS7MET_125 2016-09-28 14:40:00 125 30483.0 22.050 21.660 22.370 21.700 20.020 55.470 54.430 12.730 12.130 530.30 91.20 14.840 14.490 13.640 12.540 13.230 22.390 21.820 22.490 21.850 20.450 14.040 12.510 535.30 92.60 1.0130 1.2000 21.910 21.500 22.170 21.500 19.720 11.960 11.840 0.00000 0.00 235 0.00 0.00 0.5420 139.80 26.31 0.6950 158.500 30.030 26.517 14.714 11.808 25.957 14.145 11.828
WS7MET_125 2016-09-28 14:35:00 125 30483.0 22.090 21.820 22.330 21.800 20.130 54.380 54.310 12.470 12.180 540.30 94.00 14.830 14.490 13.640 12.540 13.210 22.260 21.970 22.490 21.950 20.450 13.090 12.370 544.70 95.30 1.4830 1.7000 21.980 21.740 22.250 21.680 19.980 11.830 11.800 0.00000 0.00 208 0.00 0.00 0.6240 155.40 34.50 0.8000 172.600 32.630 26.582 14.465 12.127 26.116 14.192 11.932
WS7MET_125 2016-09-28 14:30:00 125 30483.0 22.500 22.150 22.450 22.120 20.330 50.920 51.730 11.840 11.740 551.20 97.10 14.820 14.490 13.640 12.540 13.210 22.830 22.400 22.610 22.250 20.710 12.950 12.000 556.80 97.90 2.1170 2.3000 22.260 21.990 22.320 21.980 20.100 11.100 11.260 0.00000 0.00 216 0.00 0.00 0.9240 173.30 41.29 1.0200 185.800 32.830 27.253 13.877 13.376 26.630 13.786 12.854
WS7MET_125 2016-09-28 14:25:00 125 30483.0 22.690 22.400 22.690 22.190 20.500 52.250 52.790 12.410 12.110 561.20 99.80 14.800 14.490 13.640 12.550 13.230 22.900 22.460 22.780 22.320 20.790 14.140 13.160 566.10 100.60 1.2940 1.3000 22.560 22.320 22.540 22.050 20.240 11.540 11.450 0.00000 0.00 204 0.00 0.00 0.5440 177.50 40.45 0.7700 187.600 41.050 27.569 14.408 13.164 26.744 14.127 12.626
WS7MET_125 2016-09-28 14:20:00 125 30483.0 22.370 22.090 22.650 21.930 20.470 52.830 52.070 12.280 11.670 569.70 101.90 14.780 14.490 13.640 12.540 13.230 22.630 22.410 22.870 22.080 20.860 13.520 12.490 574.20 103.30 1.3650 1.4000 22.220 21.860 22.510 21.780 20.290 11.540 11.210 0.00000 0.00 206 0.00 0.00 0.4830 171.40 47.58 0.7550 184.800 33.930 27.038 14.286 12.754 26.324 13.722 12.617
WS7MET_125 2016-09-28 14:15:00 125 30483.0 22.050 21.730 22.210 21.730 20.480 53.610 54.510 12.220 12.170 579.50 104.00 14.780 14.490 13.640 12.540 13.250 22.220 22.090 22.530 22.050 20.740 12.890 13.040 584.90 104.60 1.5880 2.3000 21.910 21.450 21.970 21.540 20.220 11.610 11.670 0.00000 0.00 203 0.00 0.00 0.7270 209.30 33.53 0.9850 223.600 48.710 26.517 14.229 12.301 26.004 14.182 11.829
WS7MET_125 2016-09-28 14:10:00 125 30483.0 22.160 21.880 22.410 21.970 20.440 56.060 54.480 12.990 12.390 588.40 105.80 14.760 14.490 13.640 12.540 13.260 22.320 22.180 22.750 22.250 21.200 14.380 13.650 593.00 107.30 1.3390 2.0000 22.020 21.480 22.020 21.610 20.100 11.900 11.720 0.00000 0.00 236 0.00 0.00 0.9090 171.10 51.05 1.0500 186.800 46.350 26.695 14.967 11.730 26.388 14.389 12.012
WS7MET_125 2016-09-28 14:05:00 125 30483.0 21.880 21.820 22.350 21.860 20.620 57.680 57.120 13.180 13.000 596.50 107.40 14.750 14.490 13.640 12.540 13.260 22.080 22.040 22.680 22.050 21.150 13.870 13.680 599.70 108.70 1.1630 1.6000 21.710 21.650 22.020 21.740 20.370 12.010 12.310 0.00000 0.00 204 0.00 0.00 0.5220 187.30 33.01 0.7000 191.200 47.440 26.243 15.154 11.106 26.211 14.976 11.239
WS7MET_125 2016-09-28 14:00:00 125 30483.0 22.050 21.740 22.360 21.710 20.220 55.860 57.310 12.850 12.920 604.20 108.60 14.740 14.490 13.640 12.530 13.250 22.290 21.850 22.490 21.810 20.660 13.960 13.940 607.70 108.70 1.9860 3.1000 21.850 21.620 22.120 21.640 19.910 12.180 12.410 0.00000 0.00 318 0.00 0.00 0.8170 175.00 40.64 1.2100 200.000 54.920 26.517 14.830 11.705 25.973 14.898 11.088
WS7MET_125 2016-09-28 13:55:00 125 30483.0 22.180 21.980 22.440 21.820 20.240 55.750 56.400 12.920 12.770 611.90 109.40 14.720 14.490 13.640 12.530 13.260 22.320 22.140 22.610 21.980 20.450 14.760 14.180 615.80 110.00 1.4900 1.9000 22.080 21.760 22.270 21.670 20.020 11.920 11.950 0.00000 0.00 229 0.00 0.00 0.6420 187.50 58.26 0.8300 200.700 44.340 26.728 14.898 11.827 26.148 14.753 11.400
WS7MET_125 2016-09-28 13:50:00 125 30483.0 21.880 21.740 22.080 21.630 20.220 60.120 60.010 13.820 13.550 619.40 110.00 14.720 14.490 13.640 12.530 13.250 22.250 21.920 22.340 21.740 20.650 14.350 14.040 622.50 110.00 1.6010 1.5000 21.640 21.430 21.830 21.540 19.890 12.990 13.100 0.00000 0.00 207 0.00 0.00 0.6520 203.80 45.59 0.8000 208.300 34.760 26.243 15.799 10.466 25.846 15.524 10.336
WS7MET_125 2016-09-28 13:45:00 125 30483.0 21.710 21.320 21.730 21.540 20.200 55.240 56.640 12.350 12.580 625.90 109.90 14.700 14.490 13.630 12.530 13.260 22.020 21.450 21.960 21.640 20.660 13.430 13.300 630.50 110.00 1.8360 3.0000 21.500 21.110 21.410 21.440 19.930 11.790 12.090 0.00000 0.00 211 0.00 0.00 0.6810 208.90 53.46 0.9650 233.400 55.740 25.973 14.351 11.625 25.704 14.570 11.145
WS7MET_125 2016-09-28 13:40:00 125 30483.0 22.070 21.530 22.200 21.700 20.230 55.070 56.620 12.610 12.700 633.50 110.00 14.690 14.490 13.630 12.530 13.250 22.250 21.750 22.580 21.850 20.740 14.760 14.630 637.30 110.00 1.9340 2.3000 21.850 21.320 21.740 21.540 19.850 11.270 11.350 0.00000 0.00 237 0.00 0.00 1.1450 226.20 34.43 1.2900 243.500 28.610 26.549 14.599 11.929 25.957 14.685 11.260
WS7MET_125 2016-09-28 13:35:00 125 30483.0 22.180 21.750 22.550 21.800 20.170 57.090 57.730 13.290 13.110 639.50 110.00 14.670 14.490 13.630 12.530 13.250 22.360 21.860 22.830 21.910 20.500 14.820 14.330 642.60 110.00 1.9800 2.2000 22.050 21.580 22.400 21.670 19.860 12.500 12.550 0.00000 0.00 240 0.00 0.00 0.8390 210.60 49.74 0.9400 220.700 45.500 26.728 15.263 11.469 26.116 15.085 11.039
WS7MET_125 2016-09-28 13:30:00 125 30483.0 22.160 21.840 22.590 21.660 20.150 62.260 62.000 14.620 14.080 644.60 109.10 14.660 14.490 13.630 12.530 13.250 22.390 22.010 22.780 21.910 20.730 15.440 15.040 648.00 110.00 0.7190 1.0000 21.950 21.750 22.440 21.540 19.840 13.920 13.770 0.00000 0.00 243 0.00 0.00 0.3820 165.40 32.67 0.5800 178.300 33.630 26.695 16.639 10.075 25.893 16.068 9.839
WS7MET_125 2016-09-28 13:25:00 125 30483.0 22.060 21.790 22.390 21.760 20.210 60.760 61.300 14.140 14.000 650.50 108.40 14.660 14.490 13.630 12.540 13.250 22.220 22.030 22.630 22.020 20.620 15.120 14.510 653.40 108.70 2.0510 2.5000 21.850 21.540 22.060 21.500 19.960 12.890 12.990 0.00000 0.00 213 0.00 0.00 0.7920 169.70 30.72 0.9300 177.500 25.210 26.533 16.130 10.412 26.052 15.985 10.082
WS7MET_125 2016-09-28 13:20:00 125 30483.0 22.180 21.800 22.670 21.710 19.940 61.520 61.870 14.450 14.100 654.40 108.70 14.650 14.490 13.630 12.540 13.240 22.320 21.920 22.830 21.980 20.580 15.080 14.820 657.40 108.70 1.8750 2.7000 22.050 21.650 22.480 21.540 19.630 13.670 13.690 0.00000 0.00 200 0.00 0.00 0.5420 182.30 48.00 0.8000 199.900 40.100 26.728 16.457 10.285 25.973 16.089 9.903
WS7MET_125 2016-09-28 13:15:00 125 30483.0 21.720 21.650 22.550 21.570 19.840 63.360 62.210 14.470 14.050 659.70 108.70 14.640 14.490 13.630 12.550 13.240 21.980 21.960 22.860 21.810 20.020 14.950 14.490 662.80 108.70 1.2150 1.2000 21.440 21.190 22.120 21.200 19.640 13.840 13.740 0.00000 0.00 200 0.00 0.00 0.4520 173.20 44.22 0.5750 191.200 43.080 25.988 16.479 9.522 25.751 16.037 9.731
WS7MET_125 2016-09-28 13:10:00 125 30483.0 21.290 21.060 21.970 21.150 19.870 65.470 63.570 14.570 13.990 663.60 109.80 14.620 14.490 13.630 12.530 13.270 21.540 21.180 22.170 21.300 20.100 15.020 14.320 665.50 110.00 1.3260 1.7000 21.130 20.900 21.810 20.990 19.660 13.980 13.770 0.00000 0.00 205 0.00 0.00 0.5520 155.50 45.38 0.6850 168.800 31.980 25.314 16.586 8.741 25.097 15.974 9.143
WS7MET_125 2016-09-28 13:05:00 125 30483.0 20.970 20.840 21.650 20.980 19.660 66.630 64.180 14.540 13.980 667.70 110.10 14.620 14.490 13.640 12.530 13.280 21.160 21.020 21.910 21.100 20.100 15.140 14.660 669.50 111.40 1.2090 1.5000 20.820 20.710 21.420 20.860 19.420 13.710 13.700 0.00000 0.00 208 0.00 0.00 0.6300 157.60 38.26 0.7750 170.600 34.440 24.821 16.553 8.283 24.837 15.964 8.897
WS7MET_125 2016-09-28 13:00:00 125 30483.0 20.830 20.840 21.690 21.050 19.500 65.750 64.430 14.200 14.100 671.00 111.40 14.620 14.500 13.640 12.540 13.280 20.920 20.940 21.820 21.230 19.870 15.050 14.500 673.50 111.40 1.0650 1.3000 20.750 20.730 21.580 20.920 19.150 13.630 13.710 0.00000 0.00 206 0.00 0.00 0.4350 174.20 50.64 0.6100 181.100 35.790 24.609 16.193 8.428 24.944 16.089 8.872
WS7MET_125 2016-09-28 12:55:00 125 30483.0 20.840 20.720 21.580 20.830 19.420 66.470 64.460 14.360 13.890 674.40 111.40 14.600 14.500 13.620 12.540 13.280 20.960 20.820 21.700 21.100 19.690 15.300 14.360 677.60 111.40 1.3720 2.0000 20.690 20.590 21.510 20.650 19.260 13.460 13.590 0.00000 0.00 231 0.00 0.00 0.5910 150.10 25.97 0.7500 166.000 28.010 24.624 16.362 8.256 24.609 15.871 8.746
WS7MET_125 2016-09-28 12:50:00 125 30483.0 20.600 20.680 21.710 20.930 19.660 67.310 65.190 14.350 14.160 677.90 112.10 14.600 14.510 13.620 12.540 13.280 20.790 20.940 21.820 21.200 19.940 14.970 14.720 680.30 112.70 1.5680 2.0000 20.480 20.240 21.570 20.620 19.360 13.760 13.800 0.00000 0.00 205 0.00 0.00 0.6960 191.70 29.21 1.0350 207.200 22.060 24.263 16.351 7.932 24.761 16.151 8.619
WS7MET_125 2016-09-28 12:45:00 125 30483.0 20.920 20.410 21.350 20.470 19.270 66.520 66.170 14.470 13.960 680.00 112.30 14.590 14.510 13.630 12.540 13.310 21.200 20.590 21.560 20.620 19.410 15.070 14.820 681.60 112.70 1.0850 1.3000 20.720 20.240 21.180 20.380 19.030 13.690 13.630 0.00000 0.00 241 0.00 0.00 0.6960 123.60 22.08 0.8000 142.000 20.140 24.745 16.479 8.285 24.069 15.943 8.143
WS7MET_125 2016-09-28 12:40:00 125 30483.0 21.480 20.720 21.210 20.530 19.090 64.470 66.350 14.510 14.060 682.00 111.60 14.580 14.500 13.630 12.540 13.310 21.710 21.030 21.490 20.720 19.510 15.200 14.410 684.30 112.70 1.5810 1.2000 21.130 20.560 21.010 20.340 18.820 13.590 13.550 0.00000 0.00 287 0.00 0.00 0.7040 153.90 42.51 0.7150 171.300 23.370 25.610 16.521 9.099 24.158 16.047 8.129
WS7MET_125 2016-09-28 12:35:00 125 30483.0 21.700 20.870 21.330 20.570 19.360 63.790 66.840 14.550 14.210 684.20 110.30 14.580 14.510 13.630 12.530 13.320 21.880 21.030 21.480 20.720 19.580 15.260 14.620 685.60 111.40 0.8040 1.4000 21.540 20.680 21.210 20.450 19.150 13.850 13.940 0.00000 0.00 249 0.00 0.00 0.3640 153.80 37.49 0.5600 167.000 45.830 25.957 16.564 9.399 24.218 16.204 8.031
WS7MET_125 2016-09-28 12:30:00 125 30483.0 21.580 20.510 20.930 20.250 19.190 66.720 67.760 15.140 14.110 685.00 108.20 14.560 14.510 13.630 12.530 13.330 21.880 20.930 21.270 20.380 19.540 15.940 14.630 687.00 110.00 0.7250 1.0000 21.400 20.260 20.750 20.110 19.010 14.490 13.830 0.00000 0.00 203 0.00 0.00 0.4840 138.60 31.32 0.5850 163.600 30.930 25.767 17.206 8.575 23.744 16.099 7.655
WS7MET_125 2016-09-28 12:25:00 125 30483.0 20.990 20.460 20.700 20.130 19.040 70.290 68.380 15.390 14.140 686.30 107.20 14.560 14.510 13.630 12.530 13.350 21.400 20.560 20.880 20.210 19.180 16.150 14.460 688.30 107.30 1.0580 1.3000 20.620 20.330 20.440 20.040 18.850 14.720 13.820 0.00000 0.00 232 0.00 0.00 0.5660 123.30 16.73 0.6500 148.400 23.360 24.852 17.485 7.384 23.569 16.130 7.453
WS7MET_125 2016-09-28 12:20:00 125 30483.0 20.640 20.510 20.710 20.300 18.850 66.890 67.810 14.270 14.180 687.80 106.50 14.560 14.520 13.630 12.530 13.340 20.860 20.830 21.240 20.580 19.140 15.600 14.430 689.70 107.30 1.9530 2.3000 20.410 20.180 20.280 20.000 18.560 13.560 13.790 0.00000 0.00 206 0.00 0.00 1.0320 210.50 46.60 1.1350 225.100 43.250 24.323 16.267 8.053 23.818 16.172 7.667
WS7MET_125 2016-09-28 12:15:00 125 30483.0 20.560 20.600 21.190 20.370 18.980 67.030 66.860 14.240 14.020 688.00 107.30 14.560 14.520 13.630 12.540 13.350 20.820 20.830 21.360 20.550 19.370 14.700 14.530 691.10 107.30 1.2810 1.4000 20.340 20.300 20.970 20.140 18.590 13.790 13.760 0.00000 0.00 229 0.00 0.00 0.5340 171.20 57.63 0.6900 188.800 53.150 24.203 16.235 7.980 23.921 16.005 7.927
WS7MET_125 2016-09-28 12:10:00 125 30483.0 20.060 20.290 20.770 20.110 18.720 71.470 68.920 14.740 14.250 688.30 108.40 14.560 14.520 13.620 12.540 13.350 20.450 20.570 21.120 20.280 18.960 15.680 14.490 689.70 108.70 0.9210 1.6000 19.730 20.040 20.410 20.000 18.530 13.960 13.960 0.00000 0.00 232 0.00 0.00 0.5740 138.30 38.72 0.7600 157.500 33.540 23.467 16.769 6.695 23.540 16.246 7.316
WS7MET_125 2016-09-28 12:05:00 125 30483.0 19.870 20.180 20.530 20.010 18.680 68.980 68.590 14.030 14.070 687.80 109.80 14.560 14.520 13.620 12.540 13.380 20.040 20.280 20.600 20.170 18.870 14.270 14.340 689.80 110.00 1.1300 1.6000 19.730 20.070 20.420 19.870 18.520 13.820 13.860 0.00000 0.00 209 0.00 0.00 0.5510 94.80 25.68 0.6100 105.500 34.030 23.193 16.016 7.194 23.395 16.057 7.348
WS7MET_125 2016-09-28 12:00:00 125 30483.0 19.540 19.780 20.170 19.750 18.600 71.060 69.670 14.170 14.070 686.50 110.00 14.550 14.520 13.620 12.540 13.370 19.800 20.070 20.450 19.870 18.960 14.920 14.250 688.50 110.00 1.2150 1.4000 19.390 19.550 19.970 19.660 18.380 13.790 13.940 0.00000 0.00 211 0.00 0.00 0.7280 106.70 22.44 0.7750 120.700 21.750 22.723 16.162 6.576 23.021 16.057 6.982
WS7MET_125 2016-09-28 11:55:00 125 30483.0 19.620 19.540 20.060 19.520 18.440 71.050 71.350 14.240 14.210 684.80 110.00 14.540 14.520 13.620 12.540 13.380 19.770 19.620 20.140 19.660 18.770 14.600 14.690 687.10 110.00 1.3850 1.8000 19.460 19.460 19.940 19.420 18.090 13.860 13.940 0.00000 0.00 206 0.00 0.00 0.9050 104.20 23.35 0.9950 120.400 21.130 22.836 16.235 6.611 22.695 16.204 6.502
WS7MET_125 2016-09-28 11:50:00 125 30483.0 19.850 19.530 20.260 19.510 18.110 69.650 70.210 14.160 13.960 683.30 110.90 14.540 14.520 13.620 12.540 13.400 20.010 19.720 20.370 19.600 18.280 14.900 14.380 685.80 111.40 1.0580 1.7000 19.630 19.340 20.110 19.390 17.820 13.530 13.640 0.00000 0.00 237 0.00 0.00 0.6710 126.30 22.47 0.8200 137.900 24.060 23.164 16.151 7.030 22.680 15.943 6.756
WS7MET_125 2016-09-28 11:45:00 125 30483.0 19.990 19.770 20.430 19.540 18.270 70.720 70.820 14.530 14.120 681.50 111.40 14.540 14.520 13.620 12.540 13.410 20.140 19.950 20.620 19.660 18.660 15.190 14.680 684.40 111.40 1.1960 1.6000 19.870 19.620 20.280 19.430 18.090 13.930 13.840 0.00000 0.00 204 0.00 0.00 0.5900 132.10 18.54 0.7050 145.100 22.590 23.366 16.543 6.841 22.723 16.110 6.630
WS7MET_125 2016-09-28 11:40:00 125 30483.0 19.870 19.560 19.890 19.260 18.350 70.970 72.060 14.460 14.120 679.40 111.40 14.540 14.520 13.620 12.540 13.430 20.140 19.910 20.330 19.600 18.940 15.220 14.480 681.70 111.40 1.0650 1.3000 19.660 19.310 19.660 19.050 17.960 13.970 13.900 0.00000 0.00 202 0.00 0.00 0.5810 147.00 40.24 0.7200 166.100 26.050 23.193 16.468 6.733 22.330 16.110 6.239
WS7MET_125 2016-09-28 11:35:00 125 30483.0 20.200 19.620 19.790 19.170 17.960 68.770 72.460 14.290 14.120 676.20 111.40 14.540 14.520 13.620 12.540 13.430 20.320 19.740 19.880 19.220 18.320 15.040 14.550 679.10 111.40 0.9800 1.5000 20.080 19.550 19.650 19.120 17.660 13.630 13.840 0.00000 0.00 242 0.00 0.00 0.6220 91.90 34.24 0.7500 105.500 33.290 23.671 16.288 7.393 22.206 16.110 6.115
WS7MET_125 2016-09-28 11:30:00 125 30483.0 20.110 19.450 19.800 19.040 17.890 70.620 73.300 14.610 14.170 674.00 111.40 14.540 14.520 13.620 12.540 13.450 20.250 19.650 19.950 19.220 18.390 15.290 14.620 677.70 111.40 1.3390 1.8000 19.940 19.330 19.680 18.850 17.680 14.050 13.880 0.00000 0.00 203 0.00 0.00 0.5790 188.60 49.68 0.7600 201.100 37.920 23.540 16.628 6.916 22.026 16.162 5.881
WS7MET_125 2016-09-28 11:25:00 125 30483.0 19.710 19.030 19.450 18.850 17.680 72.660 74.300 14.680 14.200 669.90 111.40 14.540 14.530 13.620 12.540 13.480 19.840 19.270 19.720 19.020 18.010 15.250 14.590 672.40 111.40 1.4180 1.8000 19.570 18.810 19.190 18.650 17.390 14.210 13.970 0.00000 0.00 199 0.00 0.00 0.5800 134.70 39.34 0.7200 153.300 28.860 22.964 16.704 6.278 21.767 16.193 5.594
WS7MET_125 2016-09-28 11:20:00 125 30483.0 19.470 18.790 19.240 18.610 17.270 74.860 75.230 14.900 14.150 666.20 111.30 14.530 14.530 13.610 12.540 13.480 19.670 18.920 19.440 18.720 17.420 15.580 14.550 669.70 111.40 1.1830 2.3000 19.260 18.700 19.110 18.480 17.100 14.090 13.760 0.00000 0.00 235 0.00 0.00 0.6320 131.30 30.93 0.8250 137.600 33.090 22.624 16.942 5.688 21.443 16.141 5.311
WS7MET_125 2016-09-28 11:15:00 125 30483.0 19.210 18.610 19.290 18.530 17.120 75.050 76.070 14.690 14.250 662.00 110.10 14.530 14.530 13.610 12.540 13.500 19.330 18.920 19.450 18.680 17.430 15.640 14.820 664.30 111.40 0.9600 1.4000 19.020 18.490 19.180 18.370 16.940 14.080 14.030 0.00000 0.00 214 0.00 0.00 0.4450 124.20 26.84 0.6550 144.500 24.940 22.261 16.715 5.554 21.336 16.246 5.106
WS7MET_125 2016-09-28 11:10:00 125 30483.0 18.940 18.400 19.050 18.300 17.040 75.620 76.920 14.550 14.190 656.90 108.60 14.530 14.530 13.600 12.540 13.510 19.090 18.540 19.310 18.480 17.280 15.190 14.420 658.90 110.00 1.2740 1.6000 18.720 18.300 18.820 18.140 16.850 13.950 13.990 0.00000 0.00 249 0.00 0.00 0.4820 134.50 18.62 0.7150 159.100 30.160 21.889 16.564 5.337 21.030 16.183 4.854
WS7MET_125 2016-09-28 11:05:00 125 30483.0 18.550 18.040 18.660 18.010 16.990 77.490 77.420 14.550 14.010 652.00 107.30 14.530 14.540 13.600 12.540 13.530 18.720 18.250 18.870 18.240 17.730 15.280 14.420 654.90 107.40 0.9470 1.3000 18.440 17.920 18.570 17.860 16.680 13.860 13.750 0.00000 0.00 244 0.00 0.00 0.4820 153.90 39.59 0.6650 165.000 25.240 21.362 16.564 4.809 20.651 15.995 4.663
WS7MET_125 2016-09-28 11:00:00 125 30483.0 18.530 18.160 18.690 17.870 16.530 76.940 78.090 14.420 14.010 647.10 106.20 14.530 14.540 13.600 12.540 13.710 18.720 18.290 18.850 17.970 16.880 15.250 14.230 649.50 107.40 1.3920 1.5000 18.070 18.080 18.590 17.760 16.320 13.910 13.850 0.00000 0.00 394 0.00 0.00 0.6930 128.80 35.03 0.8300 138.300 17.570 21.336 16.426 4.920 20.470 15.995 4.485
WS7MET_125 2016-09-28 10:55:00 125 30483.0 17.860 17.920 18.450 17.790 16.460 79.270 78.730 14.230 14.060 640.60 105.20 14.530 14.540 13.600 12.540 14.280 18.240 18.220 18.720 18.000 16.930 14.820 14.340 644.20 106.00 1.0910 1.6000 17.560 17.720 18.230 17.560 16.130 13.880 13.730 0.00000 0.00 241 0.00 0.00 0.4230 153.10 45.52 0.5700 155.100 30.780 20.457 16.225 4.241 20.367 16.047 4.332
WS7MET_125 2016-09-28 10:50:00 125 30483.0 17.200 17.530 18.010 17.360 16.050 80.900 79.270 13.910 13.750 634.50 103.90 14.530 14.540 13.600 12.540 14.270 17.560 17.740 18.270 17.590 16.320 14.260 13.980 637.50 104.70 0.6930 1.1000 16.910 17.290 17.750 17.110 15.740 13.590 13.630 0.00000 0.00 241 0.00 0.00 0.4900 130.30 41.71 0.6950 145.900 32.740 19.622 15.892 3.748 19.822 15.727 4.109
WS7MET_125 2016-09-28 10:45:00 125 30483.0 16.730 17.180 17.930 17.230 15.740 83.800 80.400 13.980 13.840 628.10 101.90 14.530 14.540 13.600 12.540 14.310 17.050 17.510 18.160 17.450 16.490 14.650 14.060 630.80 103.30 1.1430 1.6000 16.530 16.940 17.690 17.080 15.260 13.480 13.650 0.00000 0.00 245 0.00 0.00 0.4900 202.00 50.13 0.7150 210.800 37.150 19.046 15.964 3.086 19.660 15.819 3.853
WS7MET_125 2016-09-28 10:40:00 125 30483.0 16.830 16.700 17.450 16.890 15.190 83.100 81.900 13.960 13.790 621.00 99.00 14.530 14.550 13.600 12.540 14.330 17.150 16.890 17.730 17.110 15.350 14.300 14.020 625.40 100.70 0.7250 0.8000 16.500 16.590 17.320 16.700 15.090 13.690 13.620 0.00000 0.00 179 0.00 0.00 0.3550 135.60 7.33 0.5000 157.500 22.980 19.168 15.943 3.239 19.241 15.768 3.483
WS7MET_125 2016-09-28 10:35:00 125 30483.0 17.250 16.850 17.430 16.860 15.200 80.900 81.800 13.960 13.730 613.20 95.70 14.540 14.550 13.600 12.540 14.370 17.420 17.000 17.540 17.010 15.510 14.280 14.050 617.30 98.00 1.0520 1.4000 17.110 16.740 17.320 16.740 14.870 13.600 13.580 0.00000 0.00 202 0.00 0.00 0.5150 128.20 29.21 0.6650 136.900 24.440 19.684 15.943 3.760 19.204 15.707 3.495
WS7MET_125 2016-09-28 10:30:00 125 30483.0 17.390 16.780 17.340 16.680 14.890 80.100 82.900 13.930 13.780 605.70 92.60 14.540 14.550 13.590 12.540 14.400 17.520 16.960 17.530 16.770 15.460 14.300 14.200 610.60 93.90 0.7060 0.9000 17.280 16.690 17.200 16.570 14.600 13.480 13.570 0.00000 0.00 201 0.00 0.00 0.2730 169.20 33.52 0.4700 182.600 43.150 19.859 15.912 3.952 18.986 15.758 3.247
WS7MET_125 2016-09-28 10:25:00 125 30483.0 17.480 16.590 17.050 16.480 14.610 79.930 83.400 14.000 13.670 597.80 88.80 14.540 14.560 13.590 12.540 14.420 17.560 16.800 17.260 16.640 14.870 14.410 13.830 602.60 91.30 1.0390 1.7000 17.350 16.360 16.880 16.260 14.450 13.530 13.550 0.00000 0.00 239 0.00 0.00 0.6040 136.00 23.74 0.7900 150.900 20.900 19.973 15.985 4.009 18.746 15.646 3.112
WS7MET_125 2016-09-28 10:20:00 125 30483.0 17.250 16.220 16.720 16.170 14.670 81.700 84.800 14.090 13.620 589.60 84.70 14.540 14.560 13.590 12.530 14.420 17.450 16.370 16.890 16.330 15.080 14.930 13.880 593.20 85.90 0.6140 1.4000 16.910 16.100 16.600 15.920 14.420 13.510 13.490 0.00000 0.00 270 0.00 0.00 0.2890 155.50 20.59 0.5050 169.200 43.040 19.684 16.078 3.602 18.379 15.595 2.794
WS7MET_125 2016-09-28 10:15:00 125 30483.0 16.800 16.120 16.570 16.090 14.400 83.900 84.700 14.080 13.530 584.00 82.40 14.540 14.560 13.590 12.530 14.430 17.080 16.210 16.650 16.190 14.720 14.560 13.800 585.10 83.20 0.7770 1.2000 16.530 15.990 16.520 15.990 14.300 13.650 13.320 0.00000 0.00 276 0.00 0.00 0.2950 177.10 31.53 0.4950 186.800 37.460 19.131 16.068 3.080 18.286 15.504 2.798
WS7MET_125 2016-09-28 10:10:00 125 30483.0 16.370 16.080 16.490 16.000 14.420 85.500 85.900 13.950 13.660 577.30 81.90 14.550 14.560 13.590 12.530 14.480 16.530 16.240 16.650 16.260 14.890 14.210 14.040 583.80 81.90 0.8490 1.2000 16.230 15.970 16.340 15.820 14.180 13.630 13.490 0.00000 0.00 274 0.00 0.00 0.4040 138.90 36.04 0.6500 150.500 51.530 18.615 15.933 2.699 18.181 15.635 2.564
WS7MET_125 2016-09-28 10:05:00 125 30483.0 15.760 15.990 16.480 15.840 14.160 90.500 87.600 14.220 13.790 593.70 85.70 14.550 14.560 13.590 12.530 14.510 16.230 16.070 16.620 15.950 14.310 14.740 14.020 629.40 92.60 1.0390 1.6000 15.340 15.840 16.250 15.750 13.990 13.770 13.570 0.00000 0.00 202 0.00 0.00 0.2600 152.90 30.08 0.4750 166.000 23.720 17.904 16.214 1.701 17.996 15.768 2.232
WS7MET_125 2016-09-28 10:00:00 125 30483.0 14.890 15.380 15.720 15.170 13.920 95.200 91.100 14.140 13.740 610.80 91.70 14.550 14.560 13.590 12.530 14.540 15.370 15.790 16.210 15.680 14.140 14.380 13.930 679.10 100.70 0.5550 0.8000 14.450 14.940 15.220 14.620 13.700 13.950 13.470 0.00000 0.00 206 0.00 0.00 0.2040 112.50 20.86 0.4250 142.600 41.000 16.932 16.130 0.813 17.239 15.717 1.534
WS7MET_125 2016-09-28 09:55:00 125 30483.0 14.160 14.620 14.880 14.440 13.610 97.300 94.600 13.750 13.590 424.80 69.32 14.550 14.560 13.590 12.530 14.570 14.380 14.880 15.170 14.660 13.970 14.020 13.690 688.50 100.70 0.9150 1.0000 13.910 14.390 14.630 14.210 13.220 13.530 13.420 0.00000 0.00 210 0.00 0.00 0.3160 181.30 48.17 0.4800 184.900 18.020 16.151 15.727 0.436 16.447 15.564 0.888
WS7MET_125 2016-09-28 09:50:00 125 30483.0 13.780 14.210 14.460 14.050 13.490 99.300 96.900 13.690 13.580 383.30 64.62 14.560 14.560 13.590 12.520 14.560 14.040 14.420 14.680 14.280 13.770 13.880 13.790 501.90 79.18 1.1370 1.3000 13.500 13.960 14.170 13.770 13.290 13.370 13.410 0.00000 0.00 212 0.00 0.00 0.4240 158.60 77.53 0.5350 192.800 43.820 15.758 15.666 0.110 16.037 15.554 0.497
WS7MET_125 2016-09-28 09:45:00 125 30483.0 13.450 13.780 14.000 13.650 13.110 99.700 97.800 13.410 13.330 289.50 50.59 14.560 14.560 13.580 12.520 14.150 13.570 13.920 14.140 13.840 13.310 13.510 13.480 357.00 60.39 0.8820 1.4000 13.330 13.670 13.910 13.460 12.960 13.300 13.130 0.00000 0.00 201 0.00 0.00 0.2030 249.20 52.36 0.4300 240.900 58.660 15.423 15.383 0.046 15.625 15.303 0.344
WS7MET_125 2016-09-28 09:40:00 125 30483.0 13.100 13.470 13.690 13.390 13.010 99.800 98.900 13.090 13.230 267.30 46.97 14.560 14.560 13.580 12.530 13.850 13.360 13.650 13.890 13.600 13.190 13.370 13.380 299.30 51.00 0.4830 0.7000 12.880 13.230 13.450 13.190 12.680 12.820 13.000 0.00000 0.00 236 0.00 0.00 0.1610 87.10 35.48 0.3700 106.600 40.080 15.075 15.065 0.030 15.363 15.203 0.169
WS7MET_125 2016-09-28 09:35:00 125 30483.0 12.870 13.140 13.330 13.110 12.540 99.500 98.900 12.810 12.960 223.90 39.66 14.570 14.570 13.580 12.530 13.540 12.950 13.210 13.420 13.190 12.640 12.960 13.060 238.90 41.60 0.2940 0.6000 12.750 13.070 13.280 13.020 12.460 12.670 12.880 0.00000 0.00 200 0.00 0.00 0.0420 172.80 15.98 0.2700 126.600 50.840 14.850 14.791 0.074 15.085 14.937 0.166
WS7MET_125 2016-09-28 09:30:00 125 30483.0 12.870 13.090 13.310 12.980 12.620 99.900 99.500 12.870 12.910 215.00 37.98 14.570 14.570 13.570 12.530 13.380 13.020 13.210 13.420 13.050 12.930 13.030 12.990 229.50 40.26 0.4900 0.7000 12.750 13.000 13.230 12.880 12.410 12.710 12.820 0.00000 0.00 351 0.00 0.00 0.1950 147.70 38.15 0.4300 179.100 21.690 14.850 14.850 0.015 14.957 14.889 0.075
WS7MET_125 2016-09-28 09:25:00 125 30483.0 12.840 13.070 13.190 12.930 12.620 100.000 99.900 12.850 12.930 167.00 29.06 14.580 14.570 13.570 12.530 13.270 12.950 13.100 13.240 12.990 12.690 12.960 13.000 182.50 32.21 0.5420 0.8000 12.710 13.020 13.120 12.850 12.470 12.720 12.860 0.00000 0.00 231 0.00 0.00 0.2720 99.60 16.34 0.4550 123.400 18.800 14.820 14.830 0.000 14.908 14.908 0.015
WS7MET_125 2016-09-28 09:20:00 125 30483.0 12.660 12.940 13.030 12.820 12.600 100.000 100.000 12.670 12.830 163.70 28.52 14.580 14.580 13.570 12.530 13.210 12.810 13.020 13.110 12.920 12.730 12.830 12.930 167.80 29.52 0.6660 0.8000 12.470 12.800 12.870 12.750 12.380 12.480 12.760 0.00000 0.00 233 0.00 0.00 0.1520 111.30 10.57 0.3400 122.100 29.900 14.647 14.656 0.000 14.801 14.811 0.000
WS7MET_125 2016-09-28 09:15:00 125 30483.0 12.460 12.720 12.790 12.650 12.430 100.000 100.000 12.470 12.670 144.80 24.76 14.580 14.580 13.570 12.530 13.130 12.610 12.840 12.900 12.850 12.830 12.620 12.860 154.30 26.84 0.3920 0.7000 12.370 12.580 12.670 12.510 12.150 12.380 12.520 0.00000 0.00 236 0.00 0.00 0.0590 202.50 5.93 0.2700 169.700 59.900 14.456 14.465 0.000 14.637 14.656 -0.000
WS7MET_125 2016-09-28 09:10:00 125 30483.0 12.440 12.630 12.690 12.570 12.180 100.000 100.000 12.450 12.580 136.70 23.69 14.580 14.580 13.570 12.530 13.080 12.540 12.740 12.790 12.680 12.440 12.550 12.690 139.60 24.16 0.7320 1.0000 12.270 12.570 12.630 12.440 12.070 12.280 12.450 0.00000 0.00 230 0.00 0.00 0.4570 232.90 22.08 0.5800 234.900 26.760 14.437 14.446 0.000 14.560 14.570 0.000
WS7MET_125 2016-09-28 09:05:00 125 30483.0 12.470 12.690 12.780 12.560 12.300 100.000 100.000 12.480 12.570 143.90 24.76 14.590 14.580 13.570 12.540 13.030 12.580 12.750 12.820 12.680 12.500 12.590 12.690 149.00 25.50 0.7970 1.3000 12.410 12.630 12.730 12.510 12.110 12.420 12.520 0.00000 0.00 199 0.00 0.00 0.2220 156.30 35.49 0.5300 190.500 32.430 14.465 14.475 0.000 14.551 14.560 0.000
WS7MET_125 2016-09-28 09:00:00 125 30483.0 12.520 12.630 12.710 12.490 12.220 100.000 100.000 12.530 12.500 130.40 22.28 14.600 14.580 13.570 12.530 12.970 12.610 12.690 12.720 12.580 12.290 12.620 12.590 142.30 24.16 0.2480 0.6000 12.410 12.610 12.700 12.410 12.190 12.420 12.420 0.00000 0.00 225 0.00 0.00 0.0540 75.69 10.19 0.3100 112.700 19.880 14.513 14.522 0.000 14.484 14.494 0.000
WS7MET_125 2016-09-28 08:55:00 125 30483.0 12.380 12.560 12.620 12.410 12.300 100.000 100.000 12.390 12.420 121.30 20.53 14.600 14.580 13.570 12.530 12.920 12.610 12.700 12.720 12.540 12.460 12.620 12.550 124.80 21.47 0.0000 0.5000 12.200 12.430 12.520 12.270 12.150 12.210 12.280 0.00000 0.00 204 0.00 0.00 0.0000 0.00 0.00 0.3100 170.800 18.220 14.380 14.389 0.000 14.408 14.418 0.000
WS7MET_125 2016-09-28 08:50:00 125 30483.0 12.070 12.300 12.390 12.280 12.100 100.000 100.000 12.080 12.290 115.60 19.53 14.600 14.580 13.570 12.530 12.870 12.270 12.430 12.510 12.410 12.280 12.280 12.420 119.40 20.13 0.4050 0.5000 11.930 12.220 12.310 12.200 11.900 11.940 12.210 0.00000 0.00 272 0.00 0.00 0.0360 250.80 4.37 0.2000 195.400 38.500 14.089 14.099 0.000 14.286 14.295 0.000
WS7MET_125 2016-09-28 08:45:00 125 30483.0 11.930 12.180 12.290 12.160 12.020 100.000 100.000 11.940 12.180 103.30 16.98 14.610 14.590 13.570 12.530 12.830 12.060 12.240 12.340 12.300 12.160 12.070 12.310 108.70 17.45 0.4050 0.6000 11.760 12.080 12.190 11.960 11.820 11.770 11.970 0.00000 0.00 376 0.00 0.00 0.0440 266.00 0.25 0.2650 278.400 44.680 13.960 13.969 0.000 14.173 14.192 0.000
WS7MET_125 2016-09-28 08:40:00 125 30483.0 11.850 12.060 12.170 12.110 11.780 100.000 100.000 11.860 12.120 82.70 13.08 14.620 14.590 13.570 12.530 12.790 11.960 12.100 12.200 12.230 11.830 11.970 12.250 91.30 14.76 0.2740 0.7000 11.790 12.040 12.150 12.030 11.680 11.800 12.040 0.00000 0.00 374 0.00 0.00 0.0330 242.10 36.88 0.2550 272.200 64.470 13.886 13.896 0.000 14.127 14.136 0.000
WS7MET_125 2016-09-28 08:35:00 125 30483.0 12.010 12.190 12.280 12.160 12.000 100.000 100.000 12.020 12.170 76.30 12.08 14.620 14.600 13.570 12.530 12.770 12.270 12.250 12.340 12.270 12.190 12.280 12.280 79.18 12.08 0.5750 0.9000 11.830 12.120 12.210 12.000 11.730 11.840 12.010 0.00000 0.00 464 0.00 0.00 0.1670 254.20 32.79 0.4450 267.700 33.890 14.034 14.043 0.000 14.173 14.182 0.000
WS7MET_125 2016-09-28 08:30:00 125 30483.0 12.090 12.160 12.240 12.130 11.870 100.000 100.000 12.110 12.140 76.63 12.68 14.620 14.600 13.570 12.530 12.740 12.300 12.220 12.290 12.200 11.920 12.310 12.210 80.50 13.42 0.7450 1.0000 11.930 12.120 12.200 12.060 11.800 11.940 12.070 0.00000 0.00 215 0.00 0.00 0.3370 212.10 27.72 0.5500 210.600 30.760 14.108 14.127 0.000 14.145 14.154 0.000
WS7MET_125 2016-09-28 08:25:00 125 30483.0 12.210 12.310 12.370 12.240 12.020 100.000 100.000 12.220 12.260 73.54 11.81 14.630 14.600 13.570 12.530 12.720 12.370 12.350 12.440 12.340 12.160 12.380 12.350 75.15 12.08 0.7580 1.0000 12.060 12.240 12.290 12.170 11.890 12.070 12.180 0.00000 0.00 279 0.00 0.00 0.1900 217.20 15.71 0.4400 222.300 29.140 14.220 14.229 0.000 14.248 14.267 -0.000
WS7MET_125 2016-09-28 08:20:00 125 30483.0 12.240 12.300 12.340 12.230 12.020 100.000 100.000 12.250 12.240 72.81 11.88 14.630 14.600 13.570 12.530 12.690 12.540 12.330 12.380 12.340 12.150 12.550 12.350 73.81 12.08 0.2290 0.5000 12.030 12.280 12.310 12.130 11.940 12.040 12.140 0.00000 0.00 376 0.00 0.00 0.0180 119.20 0.28 0.2550 127.800 62.830 14.248 14.257 -0.000 14.239 14.248 0.000
WS7MET_125 2016-09-28 08:15:00 125 30483.0 12.220 12.360 12.360 12.200 12.080 100.000 100.000 12.230 12.210 72.40 11.54 14.640 14.600 13.560 12.530 12.680 12.410 12.400 12.380 12.300 12.270 12.420 12.310 75.15 12.08 0.1440 0.5000 12.100 12.320 12.330 12.100 11.960 12.110 12.110 0.00000 0.00 392 0.00 0.00 0.0090 202.10 4.01 0.2500 184.200 24.610 14.229 14.239 0.000 14.211 14.220 0.000
WS7MET_125 2016-09-28 08:10:00 125 30483.0 12.090 12.250 12.280 12.150 12.050 100.000 100.000 12.100 12.160 67.37 10.54 14.640 14.600 13.560 12.530 12.660 12.230 12.340 12.320 12.230 12.150 12.250 12.250 72.47 12.08 0.0000 0.3000 11.890 12.170 12.220 12.060 11.920 11.900 12.070 0.00000 0.00 414 0.00 0.00 0.0000 0.00 0.00 0.2000 175.300 28.610 14.108 14.117 0.000 14.164 14.173 0.000
WS7MET_125 2016-09-28 08:05:00 125 30483.0 12.090 12.200 12.240 12.140 11.880 100.000 100.000 12.100 12.150 65.69 10.27 14.650 14.600 13.560 12.530 12.640 12.230 12.240 12.270 12.230 12.070 12.250 12.250 71.13 10.74 0.0260 0.4000 11.960 12.160 12.200 12.060 11.760 11.970 12.070 0.00000 0.00 489 0.00 0.00 0.0020 166.80 1.66 0.2350 90.000 46.520 14.108 14.117 0.000 14.154 14.164 0.000
WS7MET_125 2016-09-28 08:00:00 125 30483.0 12.080 12.170 12.200 12.080 11.980 100.000 100.000 12.090 12.090 72.74 11.68 14.660 14.600 13.560 12.540 12.620 12.200 12.230 12.250 12.230 12.090 12.210 12.250 75.15 12.08 0.0460 0.5000 11.860 12.120 12.160 12.000 11.900 11.870 12.010 0.00000 0.00 205 0.00 0.00 0.0020 167.50 0.00 0.2250 193.600 36.330 14.099 14.108 -0.000 14.099 14.108 -0.000
WS7MET_125 2016-09-28 07:55:00 125 30483.0 11.910 12.100 12.120 12.010 11.980 100.000 100.000 11.920 12.020 52.47 7.65 14.660 14.610 13.560 12.530 12.600 12.130 12.150 12.170 12.100 12.120 12.140 12.110 61.73 9.39 0.2160 0.6000 11.760 12.000 12.040 11.930 11.890 11.770 11.940 0.00000 0.00 237 0.00 0.00 0.0160 209.30 0.70 0.2800 197.000 35.490 13.941 13.951 0.000 14.034 14.043 0.000
WS7MET_125 2016-09-28 07:50:00 125 30483.0 11.850 11.960 12.030 11.940 11.820 100.000 100.000 11.860 11.960 49.92 7.11 14.670 14.610 13.570 12.520 12.580 11.930 12.000 12.070 12.000 11.950 11.940 12.010 52.34 8.05 0.0000 0.4000 11.720 11.940 12.010 11.860 11.740 11.730 11.870 0.00000 0.00 205 0.00 0.00 0.0000 0.00 0.00 0.1850 265.500 48.130 13.886 13.896 0.000 13.969 13.988 0.000
WS7MET_125 2016-09-28 07:45:00 125 30483.0 11.810 11.950 12.020 11.910 11.830 100.000 100.000 11.820 11.920 42.41 5.77 14.670 14.610 13.560 12.530 12.570 11.930 11.970 12.040 12.030 11.850 11.940 12.040 45.63 6.71 0.0000 0.5000 11.690 11.920 12.010 11.830 11.790 11.700 11.840 0.00000 0.00 247 0.00 0.00 0.0000 0.00 0.00 0.2550 172.300 27.340 13.850 13.859 0.000 13.941 13.951 0.000
WS7MET_125 2016-09-28 07:40:00 125 30483.0 11.750 11.890 11.980 11.870 11.780 100.000 100.000 11.760 11.880 41.07 5.91 14.680 14.610 13.550 12.530 12.560 11.930 11.930 12.010 11.960 11.880 11.940 11.970 44.29 6.71 0.2030 0.6000 11.620 11.870 11.950 11.830 11.740 11.630 11.840 0.00000 0.00 382 0.00 0.00 0.0180 182.30 0.03 0.3300 164.800 18.290 13.795 13.804 0.000 13.905 13.914 -0.000
WS7MET_125 2016-09-28 07:35:00 125 30483.0 11.700 11.880 11.960 11.860 11.750 100.000 100.000 11.710 11.870 34.29 4.09 14.690 14.620 13.550 12.530 12.550 11.930 11.900 11.960 11.960 11.830 11.940 11.970 36.24 5.37 0.2610 0.6000 11.590 11.870 11.930 11.760 11.670 11.600 11.770 0.00000 0.00 274 0.00 0.00 0.0340 100.80 4.89 0.3150 119.300 27.570 13.749 13.759 0.000 13.896 13.905 0.000
WS7MET_125 2016-09-28 07:30:00 125 30483.0 11.710 11.850 11.950 11.840 11.700 100.000 100.000 11.720 11.850 33.55 4.03 14.700 14.610 13.560 12.530 12.540 11.790 11.870 11.970 11.930 11.790 11.800 11.940 33.55 4.03 0.0000 0.5000 11.620 11.830 11.940 11.790 11.660 11.630 11.800 0.00000 0.00 244 0.00 0.00 0.0000 0.00 0.00 0.2150 161.500 31.850 13.759 13.768 0.000 13.877 13.886 0.000
WS7MET_125 2016-09-28 07:25:00 125 30483.0 11.660 11.870 11.930 11.820 11.790 100.000 100.000 11.670 11.830 31.67 4.03 14.710 14.610 13.560 12.530 12.530 11.760 11.890 11.970 11.890 11.870 11.770 11.900 34.89 4.03 0.0000 0.3000 11.550 11.830 11.870 11.720 11.730 11.560 11.730 0.00000 0.00 394 0.00 0.00 0.0000 0.00 0.00 0.1400 138.600 31.570 13.713 13.722 0.000 13.859 13.868 -0.000
WS7MET_125 2016-09-28 07:20:00 125 30483.0 11.570 11.780 11.840 11.750 11.700 100.000 100.000 11.580 11.760 30.67 4.03 14.710 14.620 13.560 12.530 12.530 11.690 11.830 11.870 11.830 11.780 11.700 11.840 32.21 4.03 0.0000 0.4000 11.480 11.710 11.780 11.620 11.640 11.490 11.630 0.00000 0.00 296 0.00 0.00 0.0000 0.00 0.00 0.2400 213.100 29.340 13.632 13.641 0.000 13.795 13.804 0.000
WS7MET_125 2016-09-28 07:15:00 125 30483.0 11.520 11.660 11.740 11.710 11.570 100.000 100.000 11.530 11.720 31.14 4.03 14.710 14.620 13.550 12.530 12.520 11.720 11.690 11.780 11.790 11.690 11.730 11.800 33.55 4.03 0.0000 0.4000 11.420 11.650 11.720 11.620 11.520 11.430 11.630 0.00000 0.00 285 0.00 0.00 0.0000 0.00 0.00 0.1300 234.800 46.190 13.587 13.596 0.000 13.759 13.768 0.000
WS7MET_125 2016-09-28 07:10:00 125 30483.0 11.640 11.740 11.800 11.770 11.550 100.000 100.000 11.650 11.780 27.71 4.03 14.720 14.620 13.550 12.530 12.520 11.790 11.840 11.880 11.830 11.750 11.800 11.840 32.21 4.03 0.0130 0.5000 11.520 11.650 11.720 11.690 11.450 11.530 11.700 0.00000 0.00 248 0.00 0.00 0.0010 122.70 0.00 0.2000 217.700 32.640 13.695 13.704 0.000 13.813 13.822 -0.000
WS7MET_125 2016-09-28 07:05:00 125 30483.0 11.600 11.770 11.840 11.760 11.740 100.000 100.000 11.610 11.770 21.27 3.62 14.730 14.630 13.550 12.530 12.510 11.760 11.830 11.880 11.860 11.820 11.770 11.870 22.82 4.03 0.3140 0.5000 11.520 11.710 11.790 11.690 11.700 11.530 11.700 0.00000 0.00 535 0.00 0.00 0.0310 173.40 8.29 0.2500 165.100 25.520 13.659 13.668 -0.000 13.804 13.813 0.000
WS7MET_125 2016-09-28 07:00:00 125 30483.0 11.550 11.690 11.780 11.710 11.650 100.000 100.000 11.560 11.720 17.38 2.68 14.740 14.630 13.540 12.530 12.510 11.690 11.700 11.790 11.790 11.680 11.700 11.800 18.79 2.68 0.0000 0.4000 11.450 11.670 11.770 11.650 11.630 11.460 11.660 0.00000 0.00 245 0.00 0.00 0.0000 0.00 0.00 0.2700 141.000 18.020 13.614 13.623 0.000 13.759 13.768 0.000
WS7MET_125 2016-09-28 06:55:00 125 30483.0 11.460 11.670 11.760 11.710 11.660 100.000 100.000 11.470 11.720 22.08 3.83 14.740 14.630 13.540 12.530 12.500 11.620 11.690 11.780 11.790 11.790 11.630 11.800 24.16 4.03 0.0000 0.3000 11.380 11.620 11.700 11.550 11.610 11.390 11.560 0.00000 0.00 274 0.00 0.00 0.0000 0.00 0.00 0.1800 211.700 26.730 13.533 13.542 0.000 13.759 13.768 0.000
WS7MET_125 2016-09-28 06:50:00 125 30483.0 11.420 11.590 11.680 11.630 11.550 100.000 100.000 11.430 11.640 14.63 2.08 14.760 14.640 13.540 12.530 12.500 11.550 11.610 11.700 11.720 11.640 11.560 11.730 20.13 4.03 0.0000 0.3000 11.280 11.580 11.670 11.550 11.530 11.290 11.560 0.00000 0.00 506 0.00 0.00 0.0000 0.00 0.00 0.2000 230.300 18.330 13.497 13.506 0.000 13.686 13.695 0.000
WS7MET_125 2016-09-28 06:45:00 125 30483.0 11.430 11.580 11.660 11.610 11.550 100.000 100.000 11.440 11.620 10.33 1.34 14.760 14.640 13.540 12.530 12.500 11.550 11.590 11.670 11.720 11.580 11.560 11.730 12.08 1.34 0.0000 0.2000 11.350 11.570 11.650 11.550 11.510 11.360 11.560 0.00000 0.00 283 0.00 0.00 0.0000 0.00 0.00 0.1900 191.000 29.430 13.506 13.515 0.000 13.668 13.677 0.000
WS7MET_125 2016-09-28 06:40:00 125 30483.0 11.440 11.580 11.650 11.610 11.530 100.000 100.000 11.450 11.620 4.83 0.13 14.760 14.640 13.540 12.530 12.500 11.590 11.590 11.660 11.690 11.570 11.600 11.700 8.05 1.34 0.0000 0.2000 11.310 11.570 11.650 11.520 11.510 11.320 11.530 0.00000 0.00 429 0.00 0.00 0.0000 0.00 0.00 0.1800 188.800 37.340 13.515 13.524 0.000 13.668 13.677 0.000
WS7MET_125 2016-09-28 06:35:00 125 30483.0 11.450 11.590 11.650 11.620 11.540 100.000 100.000 11.460 11.630 3.15 0.00 14.770 14.640 13.550 12.530 12.500 11.550 11.600 11.660 11.690 11.580 11.560 11.700 4.03 0.00 0.0000 0.3000 11.380 11.580 11.650 11.550 11.520 11.390 11.560 0.00000 0.00 365 0.00 0.00 0.0000 0.00 0.00 0.2100 210.000 23.810 13.524 13.533 0.000 13.677 13.686 0.000
WS7MET_125 2016-09-28 06:30:00 125 30483.0 11.470 11.610 11.690 11.640 11.550 100.000 100.000 11.480 11.650 2.68 0.00 14.790 14.640 13.540 12.530 12.500 11.550 11.640 11.710 11.720 11.610 11.560 11.730 2.68 0.00 0.0000 0.4000 11.380 11.600 11.660 11.590 11.510 11.390 11.600 0.00000 0.00 500 0.00 0.00 0.0000 0.00 0.00 0.2150 201.800 35.130 13.542 13.551 0.000 13.695 13.704 0.000
WS7MET_125 2016-09-28 06:25:00 125 30483.0 11.460 11.650 11.710 11.670 11.600 100.000 100.000 11.470 11.680 1.54 0.00 14.790 14.650 13.540 12.530 12.500 11.590 11.650 11.720 11.760 11.620 11.600 11.770 2.68 0.00 0.0000 0.4000 11.380 11.630 11.700 11.620 11.590 11.390 11.630 0.00000 0.00 453 0.00 0.00 0.0000 0.00 0.00 0.2300 160.200 19.520 13.533 13.542 0.000 13.722 13.731 0.000
WS7MET_125 2016-09-28 06:20:00 125 30483.0 11.430 11.640 11.720 11.700 11.610 100.000 100.000 11.440 11.710 1.34 0.00 14.800 14.650 13.540 12.530 12.500 11.520 11.660 11.720 11.790 11.640 11.530 11.800 1.34 0.00 0.2480 0.6000 11.350 11.630 11.710 11.650 11.580 11.360 11.660 0.00000 0.00 507 0.00 0.00 0.0210 212.30 1.66 0.2800 191.200 20.100 13.506 13.515 0.000 13.749 13.759 0.000
WS7MET_125 2016-09-28 06:15:00 125 30483.0 11.430 11.640 11.710 11.690 11.640 100.000 100.000 11.440 11.700 1.34 0.00 14.810 14.650 13.540 12.530 12.500 11.550 11.660 11.730 11.760 11.670 11.560 11.770 1.34 0.00 0.0780 0.4000 11.310 11.630 11.690 11.590 11.610 11.320 11.600 0.00000 0.00 515 0.00 0.00 0.0040 203.80 0.00 0.2250 207.300 19.660 13.506 13.515 0.000 13.740 13.749 0.000
WS7MET_125 2016-09-28 06:10:00 125 30483.0 11.420 11.630 11.710 11.690 11.600 100.000 100.000 11.430 11.700 0.67 0.00 14.810 14.650 13.540 12.530 12.510 11.590 11.640 11.710 11.760 11.620 11.600 11.770 1.34 0.00 0.0000 0.4000 11.350 11.630 11.700 11.620 11.590 11.360 11.630 0.00000 0.00 277 0.00 0.00 0.0000 0.00 0.00 0.2200 164.900 24.820 13.497 13.506 0.000 13.740 13.749 0.000
WS7MET_125 2016-09-28 06:05:00 125 30483.0 11.410 11.640 11.710 11.680 11.640 100.000 100.000 11.420 11.690 0.00 0.00 14.830 14.650 13.540 12.530 12.510 11.520 11.650 11.720 11.720 11.660 11.530 11.730 0.00 0.00 0.0000 0.3000 11.310 11.610 11.680 11.620 11.600 11.320 11.630 0.00000 0.00 246 0.00 0.00 0.0000 0.00 0.00 0.2050 214.800 29.470 13.488 13.497 0.000 13.731 13.740 0.000
WS7MET_125 2016-09-28 06:00:00 125 30483.0 11.390 11.600 11.670 11.650 11.590 100.000 100.000 11.400 11.660 0.00 0.00 14.830 14.660 13.540 12.530 12.510 11.450 11.610 11.680 11.690 11.630 11.460 11.700 0.00 0.00 0.0000 0.5000 11.310 11.590 11.660 11.590 11.560 11.320 11.600 0.00000 0.00 527 0.00 0.00 0.0000 0.00 0.00 0.2550 215.600 12.710 13.470 13.479 -0.000 13.704 13.713 0.000
WS7MET_125 2016-09-28 05:55:00 125 30483.0 11.360 11.590 11.660 11.660 11.550 100.000 100.000 11.370 11.670 0.00 0.00 14.840 14.660 13.540 12.540 12.510 11.480 11.590 11.670 11.760 11.580 11.490 11.770 0.00 0.00 0.0000 0.2000 11.280 11.570 11.660 11.590 11.540 11.290 11.600 0.00000 0.00 247 0.00 0.00 0.0000 0.00 0.00 0.1700 211.200 41.560 13.444 13.452 0.000 13.713 13.722 0.000
WS7MET_125 2016-09-28 05:50:00 125 30483.0 11.350 11.590 11.670 11.660 11.550 100.000 100.000 11.360 11.670 0.00 0.00 14.850 14.660 13.540 12.540 12.510 11.450 11.590 11.670 11.720 11.560 11.460 11.730 0.00 0.00 0.0000 0.2000 11.280 11.580 11.660 11.590 11.540 11.290 11.600 0.00000 0.00 476 0.00 0.00 0.0000 0.00 0.00 0.1650 233.000 24.530 13.435 13.444 0.000 13.713 13.722 0.000
WS7MET_125 2016-09-28 05:45:00 125 30483.0 11.330 11.590 11.670 11.670 11.570 100.000 100.000 11.340 11.680 0.00 0.00 14.850 14.660 13.540 12.540 12.510 11.450 11.590 11.670 11.760 11.610 11.460 11.770 0.00 0.00 0.0000 0.4000 11.250 11.580 11.660 11.550 11.540 11.260 11.560 0.00000 0.00 511 0.00 0.00 0.0000 0.00 0.00 0.2500 237.800 11.500 13.417 13.426 0.000 13.722 13.731 0.000
WS7MET_125 2016-09-28 05:40:00 125 30483.0 11.280 11.570 11.660 11.640 11.630 100.000 100.000 11.290 11.650 0.00 0.00 14.870 14.660 13.540 12.540 12.510 11.420 11.590 11.660 11.690 11.650 11.430 11.700 0.00 0.00 0.0000 0.4000 11.110 11.550 11.640 11.620 11.610 11.120 11.630 0.00000 0.00 252 0.00 0.00 0.0000 0.00 0.00 0.2200 161.200 27.110 13.372 13.381 0.000 13.695 13.704 0.000
WS7MET_125 2016-09-28 05:35:00 125 30483.0 11.260 11.550 11.630 11.640 11.590 100.000 100.000 11.270 11.650 0.00 0.00 14.870 14.660 13.540 12.540 12.520 11.380 11.550 11.640 11.720 11.620 11.390 11.730 0.00 0.00 0.0000 0.3000 11.180 11.550 11.630 11.550 11.560 11.190 11.560 0.00000 0.00 284 0.00 0.00 0.0000 0.00 0.00 0.2100 149.600 25.880 13.355 13.364 0.000 13.695 13.704 0.000
WS7MET_125 2016-09-28 05:30:00 125 30483.0 11.250 11.530 11.610 11.620 11.600 100.000 99.900 11.260 11.620 0.00 0.00 14.880 14.660 13.540 12.540 12.520 11.310 11.550 11.630 11.720 11.660 11.320 11.720 0.00 0.00 0.0000 0.4000 11.140 11.510 11.600 11.550 11.560 11.150 11.540 0.00000 0.00 275 0.00 0.00 0.0000 0.00 0.00 0.2550 213.900 26.500 13.346 13.355 0.000 13.677 13.677 0.014
WS7MET_125 2016-09-28 05:25:00 125 30483.0 11.250 11.510 11.590 11.610 11.570 100.000 99.900 11.260 11.600 0.00 0.00 14.890 14.660 13.530 12.540 12.520 11.350 11.510 11.600 11.650 11.590 11.360 11.660 0.00 0.00 0.0000 0.3000 11.140 11.490 11.590 11.550 11.550 11.150 11.540 0.00000 0.00 250 0.00 0.00 0.0000 0.00 0.00 0.1250 159.600 3.514 13.346 13.355 0.000 13.668 13.659 0.014
WS7MET_125 2016-09-28 05:20:00 125 30483.0 11.240 11.480 11.570 11.580 11.530 100.000 99.800 11.250 11.550 0.00 0.00 14.900 14.660 13.530 12.540 12.520 11.310 11.490 11.590 11.620 11.560 11.320 11.600 0.00 0.00 0.0000 0.2000 11.180 11.470 11.560 11.520 11.520 11.190 11.490 0.00000 0.00 432 0.00 0.00 0.0000 0.00 0.00 0.1350 254.200 35.140 13.337 13.346 -0.000 13.641 13.614 0.027
WS7MET_125 2016-09-28 05:15:00 125 30483.0 11.210 11.480 11.570 11.610 11.520 100.000 99.800 11.220 11.590 0.00 0.00 14.910 14.660 13.530 12.540 12.510 11.280 11.490 11.580 11.690 11.530 11.290 11.670 0.00 0.00 0.0000 0.4000 11.140 11.480 11.560 11.550 11.500 11.150 11.520 0.00000 0.00 356 0.00 0.00 0.0000 0.00 0.00 0.1700 116.400 35.110 13.310 13.319 0.000 13.668 13.650 0.027
WS7MET_125 2016-09-28 05:10:00 125 30483.0 11.190 11.490 11.580 11.620 11.490 100.000 99.700 11.200 11.580 0.00 0.00 14.920 14.670 13.530 12.540 12.520 11.310 11.490 11.590 11.650 11.540 11.320 11.630 0.00 0.00 0.0000 0.4000 11.070 11.480 11.570 11.550 11.480 11.080 11.530 0.00000 0.00 238 0.00 0.00 0.0000 0.00 0.00 0.1600 123.400 23.350 13.293 13.302 0.000 13.677 13.641 0.041
WS7MET_125 2016-09-28 05:05:00 125 30483.0 11.170 11.470 11.580 11.600 11.530 100.000 99.600 11.180 11.550 0.00 0.00 14.920 14.670 13.530 12.540 12.520 11.280 11.490 11.590 11.690 11.550 11.290 11.650 0.00 0.00 0.0000 0.2000 11.110 11.450 11.560 11.520 11.490 11.120 11.450 0.00000 0.00 242 0.00 0.00 0.0000 0.00 0.00 0.0650 170.900 45.920 13.275 13.284 0.000 13.659 13.614 0.055
WS7MET_125 2016-09-28 05:00:00 125 30483.0 11.160 11.430 11.540 11.550 11.490 100.000 99.400 11.170 11.470 0.00 0.00 14.930 14.670 13.530 12.540 12.520 11.250 11.450 11.560 11.620 11.530 11.260 11.560 0.00 0.00 0.0000 0.2000 11.010 11.420 11.510 11.450 11.450 11.020 11.380 0.00000 0.00 499 0.00 0.00 0.0000 0.00 0.00 0.0700 354.900 32.500 13.266 13.275 0.000 13.614 13.542 0.082
WS7MET_125 2016-09-28 04:55:00 125 30483.0 11.150 11.430 11.530 11.540 11.500 100.000 99.400 11.160 11.460 0.00 0.00 14.940 14.670 13.530 12.530 12.520 11.250 11.440 11.550 11.620 11.530 11.260 11.540 0.00 0.00 0.0000 0.2000 11.070 11.420 11.510 11.450 11.490 11.080 11.360 0.00000 0.00 320 0.00 0.00 0.0000 0.00 0.00 0.0500 109.100 11.910 13.258 13.266 -0.000 13.605 13.533 0.082
WS7MET_125 2016-09-28 04:50:00 125 30483.0 11.120 11.450 11.560 11.590 11.570 100.000 99.500 11.130 11.520 0.00 0.00 14.950 14.670 13.530 12.520 12.520 11.250 11.460 11.570 11.690 11.610 11.260 11.620 0.00 0.00 0.0000 0.2000 11.010 11.450 11.550 11.480 11.530 11.010 11.420 0.00000 0.00 279 0.00 0.00 0.0000 0.00 0.00 0.1300 120.000 0.022 13.231 13.240 0.000 13.650 13.587 0.068
WS7MET_125 2016-09-28 04:45:00 125 30483.0 11.100 11.430 11.560 11.580 11.640 99.900 99.400 11.090 11.510 0.00 0.00 14.960 14.670 13.530 12.530 12.530 11.180 11.450 11.570 11.650 11.650 11.180 11.570 0.00 0.00 0.0000 0.2000 11.040 11.430 11.560 11.480 11.620 11.020 11.410 0.00000 0.00 246 0.00 0.00 0.0000 0.00 0.00 0.0550 36.740 29.910 13.214 13.205 0.013 13.641 13.578 0.082
WS7MET_125 2016-09-28 04:40:00 125 30483.0 11.110 11.390 11.500 11.530 11.570 99.800 99.300 11.090 11.430 0.00 0.00 14.970 14.670 13.530 12.530 12.530 11.180 11.430 11.550 11.590 11.640 11.160 11.500 0.00 0.00 0.0000 0.2000 11.040 11.370 11.460 11.450 11.500 11.010 11.340 0.00000 0.00 218 0.00 0.00 0.0000 0.00 0.00 0.1900 6.027 30.720 13.222 13.205 0.026 13.596 13.506 0.095
WS7MET_125 2016-09-28 04:35:00 125 30483.0 11.100 11.380 11.460 11.480 11.520 99.900 99.100 11.090 11.350 0.00 0.00 14.980 14.670 13.530 12.530 12.530 11.250 11.390 11.470 11.550 11.540 11.240 11.430 0.00 0.00 0.0000 0.2000 10.970 11.370 11.450 11.420 11.490 10.960 11.300 0.00000 0.00 247 0.00 0.00 0.0000 0.00 0.00 0.1250 37.760 32.450 13.214 13.205 0.013 13.551 13.435 0.122
WS7MET_125 2016-09-28 04:30:00 125 30483.0 11.090 11.340 11.430 11.460 11.490 99.900 99.000 11.080 11.310 0.00 0.00 14.980 14.670 13.530 12.530 12.530 11.140 11.370 11.450 11.520 11.510 11.140 11.380 0.00 0.00 0.0000 0.3000 11.040 11.330 11.420 11.380 11.480 11.020 11.230 0.00000 0.00 274 0.00 0.00 0.0000 0.00 0.00 0.2200 341.200 25.290 13.205 13.196 0.013 13.533 13.399 0.135
WS7MET_125 2016-09-28 04:25:00 125 30483.0 11.020 11.300 11.400 11.440 11.430 99.700 98.800 10.980 11.270 0.00 0.00 14.990 14.670 13.520 12.530 12.530 11.110 11.330 11.410 11.520 11.480 11.060 11.340 0.00 0.00 0.1500 0.4000 10.940 11.290 11.390 11.380 11.400 10.900 11.210 0.00000 0.00 246 0.00 0.00 0.0200 331.70 0.08 0.2750 346.600 11.920 13.144 13.109 0.039 13.515 13.364 0.162
WS7MET_125 2016-09-28 04:20:00 125 30483.0 11.070 11.290 11.410 11.490 11.430 99.500 98.600 11.010 11.290 0.00 0.00 15.000 14.670 13.520 12.530 12.520 11.210 11.330 11.480 11.590 11.460 11.150 11.380 0.00 0.00 0.0000 0.4000 10.970 11.290 11.390 11.420 11.400 10.920 11.210 0.00000 0.00 289 0.00 0.00 0.0000 0.00 0.00 0.2350 334.700 21.320 13.187 13.135 0.066 13.560 13.381 0.190
WS7MET_125 2016-09-28 04:15:00 125 30483.0 11.140 11.370 11.470 11.560 11.450 99.600 98.400 11.090 11.330 0.00 0.00 15.010 14.670 13.520 12.530 12.530 11.210 11.410 11.520 11.650 11.500 11.180 11.440 0.00 0.00 0.1700 0.5000 11.070 11.330 11.430 11.480 11.410 11.030 11.240 0.00000 0.00 321 0.00 0.00 0.0240 352.10 0.77 0.2900 20.580 16.250 13.249 13.205 0.053 13.623 13.417 0.218
WS7MET_125 2016-09-28 04:10:00 125 30483.0 11.170 11.450 11.560 11.600 11.550 99.800 98.400 11.150 11.370 0.00 0.00 15.010 14.670 13.520 12.530 12.530 11.250 11.470 11.580 11.650 11.620 11.240 11.430 0.00 0.00 0.3920 0.5000 11.110 11.430 11.530 11.520 11.500 11.070 11.290 0.00000 0.00 251 0.00 0.00 0.1940 338.50 1.84 0.3450 350.200 10.460 13.275 13.258 0.027 13.659 13.452 0.219
WS7MET_125 2016-09-28 04:05:00 125 30483.0 11.150 11.480 11.600 11.630 11.620 99.800 98.300 11.140 11.390 0.00 0.00 15.020 14.670 13.520 12.540 12.540 11.210 11.490 11.610 11.720 11.640 11.210 11.480 0.00 0.00 0.3270 0.5000 11.070 11.470 11.590 11.550 11.600 11.060 11.320 0.00000 0.00 245 0.00 0.00 0.2840 337.10 1.43 0.3800 353.200 7.316 13.258 13.249 0.027 13.686 13.470 0.233
WS7MET_125 2016-09-28 04:00:00 125 30483.0 11.130 11.490 11.620 11.680 11.660 99.800 98.500 11.110 11.460 0.00 0.00 15.030 14.670 13.520 12.540 12.540 11.180 11.510 11.630 11.790 11.680 11.170 11.570 0.00 0.00 0.3720 0.5000 11.040 11.490 11.610 11.620 11.630 11.020 11.370 0.00000 0.00 241 0.00 0.00 0.2910 337.60 0.44 0.3800 355.900 5.706 13.240 13.222 0.026 13.731 13.533 0.206
WS7MET_125 2016-09-28 03:55:00 125 30483.0 11.180 11.500 11.630 11.650 11.690 100.000 98.600 11.180 11.460 0.00 0.00 15.040 14.670 13.520 12.540 12.540 11.280 11.510 11.630 11.760 11.700 11.290 11.550 0.00 0.00 0.3850 0.5000 11.070 11.490 11.620 11.590 11.660 11.070 11.370 0.00000 0.00 234 0.00 0.00 0.2970 336.40 4.35 0.3900 352.600 6.738 13.284 13.284 0.000 13.704 13.533 0.192
WS7MET_125 2016-09-28 03:50:00 125 30483.0 11.140 11.480 11.600 11.640 11.670 99.900 98.800 11.140 11.460 0.00 0.00 15.050 14.670 13.520 12.540 12.540 11.250 11.490 11.630 11.720 11.700 11.250 11.540 0.00 0.00 0.4180 0.5000 11.070 11.470 11.590 11.590 11.640 11.070 11.380 0.00000 0.00 277 0.00 0.00 0.3220 340.40 1.97 0.4300 354.100 5.898 13.249 13.249 0.013 13.695 13.533 0.164
WS7MET_125 2016-09-28 03:45:00 125 30483.0 11.150 11.470 11.580 11.650 11.660 99.900 98.800 11.150 11.490 0.00 0.00 15.050 14.680 13.520 12.540 12.540 11.250 11.470 11.600 11.760 11.680 11.240 11.590 0.00 0.00 0.3070 0.5000 11.110 11.460 11.570 11.550 11.620 11.100 11.380 0.00000 0.00 288 0.00 0.00 0.2580 338.60 0.14 0.4000 354.900 4.920 13.258 13.258 0.013 13.704 13.560 0.164
WS7MET_125 2016-09-28 03:40:00 125 30483.0 11.150 11.450 11.570 11.630 11.630 99.900 99.000 11.150 11.490 0.00 0.00 15.060 14.680 13.520 12.540 12.540 11.380 11.470 11.590 11.720 11.670 11.380 11.570 0.00 0.00 0.3200 0.5000 11.040 11.450 11.560 11.550 11.560 11.040 11.400 0.00000 0.00 286 0.00 0.00 0.2050 339.00 0.48 0.3550 357.400 5.326 13.258 13.258 0.013 13.686 13.560 0.137
WS7MET_125 2016-09-28 03:35:00 125 30483.0 11.170 11.420 11.560 11.630 11.670 99.800 99.200 11.150 11.510 0.00 0.00 15.080 14.680 13.520 12.540 12.540 11.380 11.450 11.590 11.760 11.710 11.370 11.630 0.00 0.00 0.2810 0.4000 11.070 11.400 11.520 11.520 11.580 11.050 11.390 0.00000 0.00 239 0.00 0.00 0.1510 338.20 0.73 0.3150 359.300 2.965 13.275 13.258 0.027 13.686 13.578 0.109
WS7MET_125 2016-09-28 03:30:00 125 30483.0 11.150 11.380 11.480 11.570 11.560 99.700 99.100 11.110 11.440 0.00 0.00 15.080 14.680 13.510 12.540 12.540 11.280 11.400 11.520 11.650 11.620 11.240 11.530 0.00 0.00 0.2030 0.4000 11.040 11.370 11.450 11.480 11.470 10.990 11.360 0.00000 0.00 438 0.00 0.00 0.0290 337.20 0.12 0.3000 350.800 15.600 13.258 13.222 0.040 13.632 13.515 0.123
WS7MET_125 2016-09-28 03:25:00 125 30483.0 11.250 11.390 11.480 11.560 11.500 99.500 98.900 11.190 11.400 0.00 0.00 15.090 14.680 13.510 12.540 12.540 11.380 11.420 11.520 11.650 11.610 11.310 11.480 0.00 0.00 0.2550 0.4000 11.110 11.370 11.460 11.480 11.440 11.040 11.310 0.00000 0.00 238 0.00 0.00 0.0860 341.30 1.72 0.3000 355.700 9.000 13.346 13.293 0.067 13.623 13.479 0.150
WS7MET_125 2016-09-28 03:20:00 125 30483.0 11.220 11.440 11.530 11.600 11.560 99.600 98.800 11.160 11.420 0.00 0.00 15.100 14.680 13.510 12.540 12.540 11.310 11.480 11.550 11.720 11.610 11.260 11.550 0.00 0.00 0.3010 0.5000 11.040 11.410 11.510 11.520 11.530 11.000 11.340 0.00000 0.00 300 0.00 0.00 0.0900 335.90 8.79 0.3450 355.400 11.400 13.319 13.266 0.053 13.659 13.497 0.164
WS7MET_125 2016-09-28 03:15:00 125 30483.0 11.260 11.450 11.560 11.690 11.580 99.600 98.800 11.220 11.520 0.00 0.00 15.100 14.680 13.510 12.530 12.540 11.480 11.480 11.580 11.760 11.600 11.440 11.600 0.00 0.00 0.2420 0.4000 11.110 11.430 11.550 11.620 11.540 11.050 11.430 0.00000 0.00 417 0.00 0.00 0.0830 334.10 6.48 0.3200 358.500 10.810 13.355 13.319 0.053 13.740 13.587 0.165
WS7MET_125 2016-09-28 03:10:00 125 30483.0 11.300 11.490 11.600 11.700 11.610 99.500 98.800 11.230 11.530 0.00 0.00 15.110 14.680 13.500 12.530 12.540 11.450 11.510 11.620 11.830 11.640 11.380 11.650 0.00 0.00 0.1310 0.4000 11.140 11.450 11.580 11.620 11.560 11.090 11.430 0.00000 0.00 428 0.00 0.00 0.0170 337.90 0.33 0.2600 2.543 12.400 13.390 13.328 0.067 13.749 13.596 0.165
WS7MET_125 2016-09-28 03:05:00 125 30483.0 11.410 11.550 11.660 11.750 11.670 99.400 98.700 11.330 11.570 0.00 0.00 15.110 14.680 13.500 12.540 12.540 11.620 11.580 11.690 11.830 11.750 11.540 11.650 0.00 0.00 0.0000 0.4000 11.210 11.510 11.630 11.650 11.570 11.130 11.470 0.00000 0.00 216 0.00 0.00 0.0000 0.00 0.00 0.2450 334.600 19.160 13.488 13.417 0.081 13.795 13.632 0.179
WS7MET_125 2016-09-28 03:00:00 125 30483.0 11.440 11.630 11.750 11.820 11.730 99.500 98.600 11.370 11.620 0.00 0.00 15.130 14.680 13.500 12.540 12.550 11.590 11.670 11.790 11.930 11.830 11.520 11.720 0.00 0.00 0.2030 0.5000 11.280 11.590 11.700 11.720 11.630 11.200 11.520 0.00000 0.00 351 0.00 0.00 0.0290 322.00 0.08 0.3100 340.600 22.900 13.515 13.452 0.068 13.859 13.677 0.194
WS7MET_125 2016-09-28 02:55:00 125 30483.0 11.450 11.690 11.800 11.870 11.870 99.400 98.500 11.380 11.650 0.00 0.00 15.130 14.680 13.500 12.520 12.550 11.590 11.710 11.820 11.930 11.900 11.500 11.720 0.00 0.00 0.2160 0.4000 11.350 11.680 11.790 11.830 11.830 11.270 11.600 0.00000 0.00 236 0.00 0.00 0.0800 337.10 0.55 0.2800 350.800 18.140 13.524 13.461 0.081 13.905 13.704 0.209
WS7MET_125 2016-09-28 02:50:00 125 30483.0 11.530 11.720 11.830 11.910 11.800 99.400 98.300 11.450 11.660 0.00 0.00 15.140 14.680 13.500 12.530 12.550 11.650 11.750 11.860 12.000 11.840 11.570 11.750 0.00 0.00 0.2090 0.5000 11.420 11.700 11.800 11.790 11.770 11.340 11.550 0.00000 0.00 247 0.00 0.00 0.1280 333.00 1.93 0.3550 355.300 7.995 13.596 13.524 0.082 13.941 13.713 0.237
WS7MET_125 2016-09-28 02:45:00 125 30483.0 11.530 11.790 11.920 11.990 11.930 99.300 98.200 11.430 11.730 0.00 0.00 15.150 14.680 13.490 12.530 12.550 11.620 11.810 11.960 12.060 12.000 11.530 11.810 0.00 0.00 0.2290 0.6000 11.420 11.750 11.870 11.930 11.810 11.320 11.650 0.00000 0.00 236 0.00 0.00 0.1280 327.60 1.50 0.3550 345.900 11.640 13.596 13.506 0.095 14.015 13.777 0.252
WS7MET_125 2016-09-28 02:40:00 125 30483.0 11.590 11.860 11.980 12.050 12.000 99.400 98.200 11.510 11.790 0.00 0.00 15.150 14.690 13.490 12.530 12.550 11.690 11.870 12.010 12.130 12.030 11.590 11.890 0.00 0.00 0.3720 0.5000 11.480 11.830 11.960 12.000 11.960 11.410 11.730 0.00000 0.00 242 0.00 0.00 0.1040 324.40 0.71 0.3350 340.400 13.150 13.650 13.578 0.082 14.071 13.831 0.253
WS7MET_125 2016-09-28 02:35:00 125 30483.0 11.620 11.890 12.020 12.080 12.070 99.300 98.400 11.530 11.850 0.00 0.00 15.160 14.670 13.490 12.530 12.550 11.690 11.910 12.030 12.130 12.100 11.610 11.910 0.00 0.00 0.3330 0.6000 11.480 11.870 12.020 12.030 12.020 11.400 11.790 0.00000 0.00 240 0.00 0.00 0.2730 336.00 9.92 0.3950 346.200 9.340 13.677 13.596 0.096 14.099 13.886 0.226
WS7MET_125 2016-09-28 02:30:00 125 30483.0 11.650 11.920 12.030 12.080 12.070 99.400 98.500 11.580 11.870 0.00 0.00 15.180 14.670 13.490 12.530 12.560 11.790 11.930 12.030 12.230 12.090 11.730 12.020 0.00 0.00 0.3070 0.5000 11.550 11.910 12.030 12.030 12.040 11.460 11.810 0.00000 0.00 210 0.00 0.00 0.2360 335.00 7.67 0.4100 350.900 7.199 13.704 13.641 0.082 14.099 13.905 0.211
WS7MET_125 2016-09-28 02:25:00 125 30483.0 11.640 11.940 12.050 12.090 12.030 99.400 98.300 11.560 11.840 0.00 0.00 15.190 14.670 13.490 12.530 12.560 11.860 11.980 12.090 12.200 12.160 11.780 11.960 0.00 0.00 0.3400 0.5000 11.480 11.920 12.020 12.030 11.950 11.410 11.780 0.00000 0.00 484 0.00 0.00 0.2420 333.00 5.91 0.4050 348.900 8.830 13.695 13.623 0.082 14.108 13.877 0.240
WS7MET_125 2016-09-28 02:20:00 125 30483.0 11.620 11.970 12.080 12.130 12.130 99.400 98.300 11.540 11.880 0.00 0.00 15.180 14.670 13.490 12.530 12.560 11.720 11.980 12.090 12.200 12.180 11.620 11.970 0.00 0.00 0.3460 0.5000 11.520 11.950 12.080 12.030 12.090 11.430 11.780 0.00000 0.00 387 0.00 0.00 0.3040 338.50 0.81 0.4100 352.500 5.086 13.677 13.605 0.082 14.145 13.914 0.240
WS7MET_125 2016-09-28 02:15:00 125 30483.0 11.660 11.930 12.070 12.120 12.140 99.400 98.400 11.570 11.880 0.00 0.00 15.190 14.670 13.490 12.530 12.560 11.790 11.950 12.080 12.230 12.150 11.690 12.010 0.00 0.00 0.3590 0.5000 11.590 11.910 12.040 12.030 12.110 11.480 11.770 0.00000 0.00 275 0.00 0.00 0.2940 340.80 2.09 0.4100 353.200 7.196 13.713 13.632 0.082 14.136 13.914 0.226
WS7MET_125 2016-09-28 02:10:00 125 30483.0 11.630 11.900 12.020 12.070 12.100 99.300 98.400 11.540 11.840 0.00 0.00 15.200 14.670 13.490 12.530 12.560 11.720 11.910 12.040 12.130 12.140 11.630 11.920 0.00 0.00 0.3920 0.5000 11.520 11.880 12.010 12.000 12.070 11.420 11.760 0.00000 0.00 239 0.00 0.00 0.3500 345.80 0.67 0.3550 0.892 6.972 13.686 13.605 0.096 14.089 13.877 0.225
WS7MET_125 2016-09-28 02:05:00 125 30483.0 11.610 11.860 11.980 12.060 12.040 99.300 98.400 11.510 11.830 0.00 0.00 15.210 14.670 13.490 12.530 12.560 11.720 11.880 12.000 12.130 12.080 11.640 11.910 0.00 0.00 0.3990 0.5000 11.450 11.840 11.970 12.000 12.010 11.350 11.760 0.00000 0.00 289 0.00 0.00 0.2060 335.80 6.21 0.3450 357.000 4.963 13.668 13.578 0.096 14.080 13.868 0.225
WS7MET_125 2016-09-28 02:00:00 125 30483.0 11.660 11.880 12.000 12.080 12.000 99.100 98.300 11.540 11.820 0.00 0.00 15.210 14.670 13.490 12.530 12.560 11.930 11.890 12.030 12.130 12.070 11.830 11.890 0.00 0.00 0.2480 0.5000 11.550 11.860 11.960 12.000 11.920 11.420 11.720 0.00000 0.00 592 0.00 0.00 0.0670 332.50 1.63 0.3300 342.200 10.920 13.713 13.605 0.123 14.099 13.859 0.240
WS7MET_125 2016-09-28 01:55:00 125 30483.0 11.680 11.920 12.040 12.120 12.070 99.000 98.200 11.540 11.850 0.00 0.00 15.230 14.670 13.490 12.540 12.570 11.860 11.930 12.060 12.200 12.100 11.710 11.930 0.00 0.00 0.0650 0.5000 11.520 11.890 12.020 12.060 11.990 11.370 11.780 0.00000 0.00 248 0.00 0.00 0.0050 333.20 0.18 0.2950 347.800 15.050 13.731 13.605 0.137 14.136 13.886 0.254
WS7MET_125 2016-09-28 01:50:00 125 30483.0 11.720 11.950 12.080 12.170 12.080 98.800 98.100 11.550 11.890 0.00 0.00 15.230 14.660 13.490 12.530 12.570 11.830 11.970 12.110 12.270 12.110 11.670 11.970 0.00 0.00 0.3790 0.4000 11.620 11.930 12.060 12.100 12.060 11.450 11.820 0.00000 0.00 320 0.00 0.00 0.1650 339.10 0.35 0.3000 347.900 16.450 13.768 13.614 0.165 14.182 13.923 0.269
WS7MET_125 2016-09-28 01:45:00 125 30483.0 11.850 12.020 12.150 12.220 12.120 98.800 98.000 11.680 11.930 0.00 0.00 15.230 14.660 13.490 12.530 12.570 11.890 12.080 12.200 12.370 12.160 11.730 12.080 0.00 0.00 0.3720 0.5000 11.760 11.990 12.110 12.130 12.080 11.580 11.830 0.00000 0.00 247 0.00 0.00 0.0830 342.30 0.83 0.2900 3.536 17.720 13.886 13.731 0.167 14.229 13.960 0.285
WS7MET_125 2016-09-28 01:40:00 125 30483.0 11.910 12.130 12.250 12.310 12.240 98.800 98.000 11.740 12.010 0.00 0.00 15.250 14.660 13.490 12.540 12.570 12.000 12.170 12.280 12.410 12.320 11.830 12.110 0.00 0.00 0.2940 0.5000 11.830 12.090 12.200 12.230 12.170 11.650 11.910 0.00000 0.00 274 0.00 0.00 0.0570 357.40 2.77 0.2450 3.418 20.660 13.941 13.786 0.167 14.314 14.034 0.286
WS7MET_125 2016-09-28 01:35:00 125 30483.0 11.930 12.190 12.300 12.330 12.340 98.900 98.000 11.770 12.040 0.00 0.00 15.250 14.660 13.490 12.530 12.570 12.000 12.200 12.300 12.410 12.380 11.830 12.120 0.00 0.00 0.3270 0.5000 11.830 12.170 12.290 12.170 12.300 11.670 11.870 0.00000 0.00 279 0.00 0.00 0.2770 337.20 0.97 0.3450 358.900 3.297 13.960 13.813 0.154 14.333 14.062 0.287
WS7MET_125 2016-09-28 01:30:00 125 30483.0 11.940 12.210 12.310 12.360 12.330 98.900 98.200 11.770 12.090 0.00 0.00 15.260 14.660 13.480 12.540 12.570 12.030 12.220 12.320 12.440 12.350 11.860 12.170 0.00 0.00 0.4120 0.5000 11.890 12.200 12.300 12.300 12.310 11.720 12.020 0.00000 0.00 247 0.00 0.00 0.3450 336.20 0.32 0.4300 352.800 5.973 13.969 13.813 0.154 14.361 14.108 0.258
WS7MET_125 2016-09-28 01:25:00 125 30483.0 12.000 12.230 12.320 12.360 12.340 98.900 98.200 11.840 12.090 0.00 0.00 15.270 14.660 13.480 12.540 12.570 12.060 12.240 12.320 12.440 12.380 11.920 12.180 0.00 0.00 0.3990 0.5000 11.890 12.220 12.310 12.300 12.280 11.730 12.030 0.00000 0.00 240 0.00 0.00 0.2420 334.50 1.46 0.4150 352.700 9.770 14.025 13.877 0.154 14.361 14.108 0.258
WS7MET_125 2016-09-28 01:20:00 125 30483.0 12.000 12.230 12.340 12.390 12.320 98.900 98.000 11.840 12.090 0.00 0.00 15.270 14.660 13.480 12.540 12.570 12.100 12.240 12.370 12.470 12.340 11.930 12.160 0.00 0.00 0.2870 0.5000 11.930 12.220 12.320 12.340 12.290 11.770 12.030 0.00000 0.00 286 0.00 0.00 0.2270 333.10 0.37 0.4100 347.500 5.699 14.025 13.877 0.154 14.389 14.108 0.288
WS7MET_125 2016-09-28 01:15:00 125 30483.0 12.010 12.270 12.390 12.440 12.370 98.800 97.800 11.830 12.120 0.00 0.00 15.280 14.660 13.480 12.540 12.570 12.100 12.290 12.420 12.510 12.410 11.920 12.190 0.00 0.00 0.3720 0.5000 11.890 12.240 12.370 12.370 12.330 11.710 12.050 0.00000 0.00 318 0.00 0.00 0.3120 334.70 0.89 0.4200 351.000 7.611 14.034 13.868 0.168 14.437 14.136 0.318
WS7MET_125 2016-09-28 01:10:00 125 30483.0 12.010 12.310 12.440 12.460 12.470 98.800 97.800 11.830 12.140 0.00 0.00 15.290 14.660 13.480 12.530 12.580 12.100 12.320 12.450 12.540 12.490 11.930 12.220 0.00 0.00 0.3270 0.5000 11.930 12.290 12.420 12.370 12.410 11.760 12.030 0.00000 0.00 439 0.00 0.00 0.2860 335.00 1.77 0.4400 347.900 7.377 14.034 13.868 0.168 14.456 14.154 0.318
WS7MET_125 2016-09-28 01:05:00 125 30483.0 12.050 12.320 12.440 12.470 12.490 98.800 97.900 11.880 12.160 0.00 0.00 15.300 14.660 13.480 12.540 12.580 12.130 12.320 12.450 12.540 12.520 11.960 12.240 0.00 0.00 0.3660 0.6000 11.960 12.300 12.440 12.410 12.460 11.800 12.100 0.00000 0.00 553 0.00 0.00 0.3080 336.80 0.40 0.4450 350.900 4.726 14.071 13.914 0.169 14.465 14.173 0.304
WS7MET_125 2016-09-28 01:00:00 125 30483.0 12.060 12.330 12.440 12.490 12.460 98.800 98.000 11.880 12.180 0.00 0.00 15.300 14.650 13.480 12.540 12.580 12.170 12.340 12.460 12.580 12.510 11.980 12.280 0.00 0.00 0.3140 0.6000 11.960 12.300 12.430 12.410 12.410 11.780 12.100 0.00000 0.00 216 0.00 0.00 0.2590 341.30 1.80 0.3600 355.700 5.831 14.080 13.914 0.169 14.484 14.192 0.290
WS7MET_125 2016-09-28 00:55:00 125 30483.0 12.090 12.360 12.470 12.530 12.460 98.800 97.800 11.920 12.200 0.00 0.00 15.320 14.650 13.480 12.540 12.580 12.200 12.390 12.490 12.610 12.520 12.010 12.280 0.00 0.00 0.2940 0.5000 12.000 12.330 12.450 12.410 12.420 11.810 12.070 0.00000 0.00 257 0.00 0.00 0.2280 346.90 0.45 0.4050 1.792 3.926 14.108 13.951 0.169 14.522 14.211 0.319
WS7MET_125 2016-09-28 00:50:00 125 30483.0 12.120 12.400 12.510 12.570 12.550 98.800 97.800 11.940 12.230 0.00 0.00 15.320 14.650 13.480 12.540 12.580 12.230 12.410 12.520 12.610 12.590 12.060 12.280 0.00 0.00 0.3200 0.4000 12.060 12.390 12.490 12.510 12.480 11.870 12.160 0.00000 0.00 594 0.00 0.00 0.2330 347.10 1.07 0.3500 0.000 0.000 14.136 13.969 0.170 14.560 14.239 0.320
WS7MET_125 2016-09-28 00:45:00 125 30483.0 12.150 12.390 12.510 12.570 12.580 98.700 97.900 11.960 12.250 0.00 0.00 15.320 14.650 13.480 12.540 12.580 12.300 12.400 12.520 12.640 12.600 12.120 12.340 0.00 0.00 0.3990 0.4000 12.060 12.380 12.490 12.470 12.540 11.880 12.170 0.00000 0.00 335 0.00 0.00 0.2970 349.00 0.92 0.3400 2.142 6.687 14.164 13.988 0.184 14.560 14.257 0.306
WS7MET_125 2016-09-28 00:40:00 125 30483.0 12.130 12.370 12.470 12.540 12.510 98.600 97.900 11.920 12.230 0.00 0.00 15.330 14.650 13.480 12.540 12.580 12.230 12.390 12.490 12.610 12.540 12.020 12.320 0.00 0.00 0.4310 0.5000 12.060 12.370 12.460 12.440 12.480 11.860 12.130 0.00000 0.00 282 0.00 0.00 0.3570 344.90 6.81 0.4250 0.000 6.773 14.145 13.951 0.198 14.532 14.239 0.305
WS7MET_125 2016-09-28 00:35:00 125